# Wetter Temperatur Luftdruck Luftfeuchtigkeit Sichtweite Windgeschwindigkeit Windrichtung Zeit
1 Clouds 2 1001 88 10000 5.1 210 21:54 28.01.2020
2 Clouds 2 1002 80 10000 4.6 220 21:36 28.01.2020
3 Clouds 2 1002 80 10000 4.6 220 21:18 28.01.2020
4 Clouds 2 1002 80 10000 5.7 220 20:45 28.01.2020
5 Clouds 2 1003 80 10000 6.2 230 20:26 28.01.2020
6 Clouds 2 1003 83 10000 6.7 240 19:55 28.01.2020
7 Snow 2 1001 80 10000 7.2 240 19:37 28.01.2020
8 Clouds 2 1002 80 10000 8.2 220 19:19 28.01.2020
9 Clouds 2 1002 80 10000 8.2 220 19:19 28.01.2020
10 Clouds 2 1002 80 10000 8.2 220 19:19 28.01.2020
11 Clouds 2 1002 80 10000 6.7 230 18:41 28.01.2020
12 Clouds 2 1002 74 10000 7.7 230 18:23 28.01.2020
13 Clouds 2 1001 74 10000 7.2 230 17:59 28.01.2020
14 Clouds 2 1001 74 10000 7.2 230 17:59 28.01.2020
15 Clouds 2 1002 83 10000 6.2 260 17:40 28.01.2020
16 Clouds 2 1001 80 10000 7.2 230 17:21 28.01.2020
17 Clouds 2 1002 76 10000 9.3 260 16:59 28.01.2020
18 Clouds 2 1002 76 10000 9.3 260 16:40 28.01.2020
19 Clouds 2 1000 76 10000 6.7 230 16:22 28.01.2020
20 Rain 2 1000 76 10000 7.2 240 15:48 28.01.2020
21 Clouds 2 999 76 10000 8.2 240 15:20 28.01.2020
22 Clouds 3 997 86 4000 9.3 260 14:59 28.01.2020
23 Clouds 3 997 86 4000 9.3 260 14:41 28.01.2020
24 Clouds 3 998 86 10000 9.8 230 14:18 28.01.2020
25 Rain 3 998 86 10000 7.7 230 13:42 28.01.2020
26 Clouds 3 998 86 10000 7.7 230 13:24 28.01.2020
27 Clouds 3 997 80 10000 8.2 230 12:45 28.01.2020
28 Clouds 3 997 80 10000 9.8 230 12:25 28.01.2020
29 Clouds 3 995 80 10000 8.7 250 11:59 28.01.2020
30 Clouds 3 995 80 10000 8.7 250 11:41 28.01.2020
31 Clouds 3 996 86 10000 8.7 230 11:21 28.01.2020
32 Rain 2 996 93 10000 8.7 230 10:44 28.01.2020
33 Rain 3 995 93 10000 6.7 220 10:26 28.01.2020
34 Clouds 2 995 93 10000 6.7 230 09:59 28.01.2020
35 Clouds 3 995 93 10000 6.7 230 09:41 28.01.2020
36 Rain 3 995 93 10000 6.7 230 09:20 28.01.2020
37 Rain 3 995 93 10000 6.7 230 09:20 28.01.2020
38 Rain 3 995 93 10000 6.7 230 09:20 28.01.2020
39 Rain 4 993 93 10000 8.7 220 08:45 28.01.2020
40 Rain 4 993 93 10000 6.7 210 08:26 28.01.2020
41 Clouds 5 993 86 10000 6.7 210 07:56 28.01.2020
42 Rain 5 994 93 10000 8.2 220 07:34 28.01.2020
43 Rain 5 995 100 8000 5.7 220 06:48 28.01.2020
44 Rain 5 995 100 10000 5.7 220 06:25 28.01.2020
45 Rain 5 996 93 9000 6.7 250 05:40 28.01.2020
46 Rain 5 996 93 10000 6.2 200 05:21 28.01.2020
47 Clouds 6 997 93 10000 6.2 220 03:49 28.01.2020
48 Rain 6 997 87 10000 7.2 210 02:49 28.01.2020
49 Rain 6 997 93 10000 9.3 210 02:25 28.01.2020
50 Clouds 6 998 93 10000 7.7 210 01:56 28.01.2020
51 Rain 6 998 93 10000 7.2 210 01:22 28.01.2020
52 Rain 6 999 93 8000 7.7 220 00:45 28.01.2020
53 Rain 6 998 100 10000 9.3 190 00:23 28.01.2020
54 Rain 6 998 100 10000 8.7 190 23:44 27.01.2020
55 Rain 6 999 100 10000 8.7 190 23:20 27.01.2020
56 Rain 6 999 100 10000 9.8 180 22:45 27.01.2020
57 Rain 6 1000 100 10000 7.2 180 22:22 27.01.2020
58 Rain 6 1001 100 3000 6.2 180 21:59 27.01.2020
59 Rain 6 1001 100 3000 6.2 180 21:39 27.01.2020
60 Rain 6 1002 100 10000 6.2 180 21:19 27.01.2020
61 Rain 6 1002 100 10000 6.2 180 21:19 27.01.2020
62 Rain 5 1002 100 10000 5.1 170 20:59 27.01.2020
63 Clouds 5 1003 100 10000 5.7 190 20:38 27.01.2020
64 Clouds 6 1003 100 10000 5.7 190 20:20 27.01.2020
65 Clouds 6 1003 100 10000 7.7 200 19:58 27.01.2020
66 Rain 6 1004 93 10000 5.1 200 19:40 27.01.2020
67 Rain 6 1004 100 10000 8.2 190 19:21 27.01.2020
68 Rain 6 1005 93 8000 5.7 200 18:55 27.01.2020
69 Rain 6 1004 93 3000 7.7 210 18:37 27.01.2020
70 Rain 6 1005 100 10000 6.2 190 18:19 27.01.2020
71 Rain 6 1005 93 6000 4.6 200 17:39 27.01.2020
72 Rain 6 1005 100 10000 6.7 190 17:19 27.01.2020
73 Rain 6 1005 100 10000 6.7 190 16:57 27.01.2020
74 Rain 6 1006 93 9000 6.7 220 16:39 27.01.2020
75 Rain 6 1006 100 10000 6.2 190 16:21 27.01.2020
76 Rain 6 1006 100 10000 5.7 190 15:55 27.01.2020
77 Drizzle 6 1006 93 3500 6.2 220 15:36 27.01.2020
78 Rain 6 1007 100 10000 6.2 190 15:18 27.01.2020
79 Rain 6 1007 93 4000 5.1 200 14:41 27.01.2020
80 Rain 6 1007 100 10000 7.7 190 14:22 27.01.2020
81 Rain 6 1008 93 6000 5.7 190 13:55 27.01.2020
82 Rain 6 1008 93 9000 6.7 220 13:37 27.01.2020
83 Rain 6 1009 93 9000 5.7 230 13:18 27.01.2020
84 Rain 6 1008 93 6000 7.7 220 12:43 27.01.2020
85 Rain 6 1009 100 10000 6.7 200 12:23 27.01.2020
86 Rain 6 1009 100 10000 8.2 190 11:58 27.01.2020
87 Drizzle 6 1009 93 3500 8.2 210 11:40 27.01.2020
88 Rain 6 1010 100 10000 6.2 190 11:19 27.01.2020
89 Rain 6 1010 100 10000 7.7 190 10:42 27.01.2020
90 Rain 6 1011 100 10000 5.7 200 10:24 27.01.2020
91 Rain 6 1011 100 10000 5.7 180 09:54 27.01.2020
92 Rain 6 1010 93 2500 8.2 210 09:36 27.01.2020
93 Clouds 6 1011 100 10000 5.1 180 09:18 27.01.2020
94 Rain 6 1011 93 4000 8.2 220 08:42 27.01.2020
95 Rain 6 1012 100 10000 7.2 200 08:20 27.01.2020
96 Clouds 6 1012 100 10000 5.7 190 07:53 27.01.2020
97 Rain 6 1011 93 3000 6.7 220 07:33 27.01.2020
98 Rain 6 1012 93 4500 4.6 180 06:52 27.01.2020
99 Rain 6 1012 100 10000 6.7 200 06:24 27.01.2020
100 Clouds 6 1013 100 10000 6.2 200 05:22 27.01.2020
101 Clouds 5 1014 100 10000 4.6 190 03:47 27.01.2020
102 Clouds 5 1013 100 2800 6.2 230 02:36 27.01.2020
103 Clouds 5 1015 100 10000 2.1 220 01:29 27.01.2020
104 Mist 5 1015 100 9000 2.6 200 00:57 27.01.2020
105 Mist 4 1015 100 5000 3.05 174 00:36 27.01.2020
106 Mist 4 1015 100 5000 3.05 174 00:18 27.01.2020
107 Mist 4 1015 100 5000 3.05 174 00:18 27.01.2020
108 Mist 4 1015 100 6000 3.05 174 23:41 26.01.2020
109 Mist 4 1015 100 6000 2.51 169 23:19 26.01.2020
110 Mist 4 1015 100 3200 2.51 169 22:55 26.01.2020
111 Mist 4 1016 100 1000 2.51 169 22:36 26.01.2020
112 Mist 4 1016 100 1000 2.51 169 22:18 26.01.2020
113 Mist 4 1016 100 1000 2.51 169 22:18 26.01.2020
114 Mist 4 1016 100 1800 3.6 170 21:55 26.01.2020
115 Mist 4 1015 100 5000 3.6 170 21:37 26.01.2020
116 Fog 3 1016 100 600 2.51 169 21:19 26.01.2020
117 Mist 3 1016 93 2000 4.1 180 20:55 26.01.2020
118 Fog 3 1016 100 400 2.51 169 20:36 26.01.2020
119 Fog 4 1016 100 400 2.27 156 20:18 26.01.2020
120 Fog 4 1016 100 600 2.27 156 19:56 26.01.2020
121 Fog 3 1016 100 400 2.27 156 19:37 26.01.2020
122 Fog 3 1016 100 400 2.27 156 19:18 26.01.2020
123 Mist 3 1016 100 1000 1.5 210 18:41 26.01.2020
124 Mist 3 1016 100 1600 2.1 200 18:22 26.01.2020
125 Mist 4 1016 100 1600 2.27 156 17:58 26.01.2020
126 Fog 4 1016 100 50 1.5 160 17:39 26.01.2020
127 Mist 4 1016 100 3000 1.5 220 17:20 26.01.2020
128 Mist 5 1016 100 1200 1.87 174 16:58 26.01.2020
129 Mist 5 1016 100 1200 1.87 174 16:58 26.01.2020
130 Fog 4 1016 100 100 2.6 200 16:39 26.01.2020
131 Fog 4 1016 100 100 2.6 200 16:39 26.01.2020
132 Fog 4 1016 100 200 1.87 174 16:20 26.01.2020
133 Clouds 5 1015 100 100 3.6 230 15:58 26.01.2020
134 Clouds 5 1015 100 100 3.6 230 15:39 26.01.2020
135 Clouds 5 1016 100 100 3.6 220 15:18 26.01.2020
136 Clouds 4 1016 100 100 3.6 220 14:41 26.01.2020
137 Clouds 4 1016 100 150 4.1 230 14:21 26.01.2020
138 Clouds 4 1016 100 150 4.1 230 13:57 26.01.2020
139 Clouds 4 1016 100 150 4.1 230 13:37 26.01.2020
140 Clouds 4 1016 93 400 4.1 240 13:18 26.01.2020
141 Clouds 4 1017 93 5000 4.1 240 12:42 26.01.2020
142 Clouds 3 1017 93 5000 4.1 240 12:24 26.01.2020
143 Clouds 3 1017 93 5000 4.1 240 11:58 26.01.2020
144 Clouds 3 1017 100 7000 3.1 230 11:39 26.01.2020
145 Clouds 2 1018 90 10000 1.76 139 11:19 26.01.2020
146 Clouds 2 1018 90 10000 1.76 139 10:59 26.01.2020
147 Clouds 2 1018 90 10000 1.76 139 10:39 26.01.2020
148 Clouds 2 1018 90 10000 1.76 139 10:21 26.01.2020
149 Clouds 1 1018 90 10000 2.1 250 09:58 26.01.2020
150 Clouds 1 1018 90 10000 2.1 250 09:40 26.01.2020
151 Clouds 1 1018 90 10000 2.1 250 09:40 26.01.2020
152 Clouds 1 1018 90 10000 1.5 260 09:21 26.01.2020
153 Clouds 1 1017 90 10000 1.76 139 08:45 26.01.2020
154 Clouds 1 1017 88 10000 1.77 138 08:23 26.01.2020
155 Fog 1 1017 93 100 2.1 130 07:58 26.01.2020
156 Fog 1 1017 93 100 2.1 130 07:40 26.01.2020
157 Clouds 1 1017 100 10000 1.53 124 07:22 26.01.2020
158 Clouds 1 1017 100 10000 1.53 124 06:32 26.01.2020
159 Mist 1 1017 100 5000 1.5 80 05:35 26.01.2020
160 Fog 1 1018 100 600 1.39 126 04:58 26.01.2020
161 Fog 1 1019 100 400 1.39 126 02:59 26.01.2020
162 Fog 1 1019 100 400 1.39 126 02:59 26.01.2020
163 Fog 1 1019 100 400 1.13 123 01:59 26.01.2020
164 Rain 1 1018 100 100 2.6 60 01:39 26.01.2020
165 Fog 1 1019 100 400 1.18 129 01:19 26.01.2020
166 Fog 1 1019 92 100 2.6 60 00:39 26.01.2020
167 Fog 1 1019 92 400 1.18 129 00:20 26.01.2020
168 Clear 1 1019 92 7000 2.1 260 23:38 25.01.2020
169 Clear 1 1019 91 7000 2.1 260 23:19 25.01.2020
170 Clear 1 1019 91 2800 1.5 260 22:43 25.01.2020
171 Clear 1 1018 92 0 0.94 112 22:20 25.01.2020
172 Clear 1 1020 94 0 0.94 112 21:59 25.01.2020
173 Clear 1 1020 94 0 0.94 112 21:41 25.01.2020
174 Clear 1 1018 92 0 0.94 112 21:22 25.01.2020
175 Clear 0 1021 91 0 0.94 112 20:54 25.01.2020
176 Clear 2 1018 91 0 0.94 112 20:36 25.01.2020
177 Clouds 1 1021 91 0 0.97 121 20:18 25.01.2020
178 Clouds 0 1018 75 0 0.97 121 19:41 25.01.2020
179 Clouds 2 1022 95 0 0.97 121 19:19 25.01.2020
180 Clouds 2 1022 95 0 0.97 121 18:56 25.01.2020
181 Clouds 2 1019 91 50 1 230 18:38 25.01.2020
182 Clouds 2 1019 91 50 1 230 18:20 25.01.2020
183 Clouds 2 1019 91 50 1 230 17:39 25.01.2020
184 Clouds 3 1019 85 100 1 250 17:19 25.01.2020
185 Clouds 3 1019 85 100 1 250 17:19 25.01.2020
186 Clouds 2 1019 85 100 1 250 16:57 25.01.2020
187 Clouds 3 1019 85 100 1 250 16:38 25.01.2020
188 Clouds 3 1018 89 0 0.72 175 16:19 25.01.2020
189 Clouds 3 1021 95 0 0.45 11 15:46 25.01.2020
190 Clouds 3 1019 89 0 0.72 175 15:25 25.01.2020
191 Clouds 3 1019 89 0 0.72 175 14:57 25.01.2020
192 Clouds 3 1019 89 0 0.72 175 14:39 25.01.2020
193 Clouds 3 1022 95 0 1.09 191 14:18 25.01.2020
194 Clouds 3 1022 95 0 1.09 191 13:42 25.01.2020
195 Clouds 3 1021 77 100 2.1 250 13:23 25.01.2020
196 Fog 2 1022 100 200 1.5 210 12:45 25.01.2020
197 Fog 2 1022 100 200 1.5 210 12:26 25.01.2020
198 Fog 1 1022 100 200 1.5 210 11:45 25.01.2020
199 Fog 1 1022 78 200 2.6 270 11:22 25.01.2020
200 Fog 1 1022 100 200 1 0 10:59 25.01.2020
201 Fog 1 1022 100 200 1 0 10:40 25.01.2020
202 Fog 1 1022 92 400 1.5 280 10:20 25.01.2020
203 Fog 1 1022 92 400 1.14 158 09:54 25.01.2020
204 Fog 0 1021 92 400 1.14 158 09:36 25.01.2020
205 Fog 0 1021 92 400 1.14 158 09:18 25.01.2020
206 Fog 0 1021 92 400 1.14 158 08:42 25.01.2020
207 Mist 0 1021 100 1000 0.46 128 07:51 25.01.2020
208 Fog 0 1021 93 700 0.5 0 06:57 25.01.2020
209 Mist 0 1021 100 1000 0.46 128 06:29 25.01.2020
210 Fog 0 1021 100 600 0.46 128 05:48 25.01.2020
211 Drizzle 0 1021 100 400 0.46 128 05:28 25.01.2020
212 Fog -1 1021 100 400 2.1 260 03:54 25.01.2020
213 Fog -1 1021 100 400 0.4 55 03:23 25.01.2020
214 Fog -1 1021 100 400 1.5 260 02:24 25.01.2020
215 Fog -1 1021 100 400 1.5 250 01:53 25.01.2020
216 Fog -1 1022 100 400 0.69 187 00:52 25.01.2020
217 Fog -1 1022 100 400 1.5 210 00:27 25.01.2020
218 Fog -1 1022 100 100 0.5 0 23:59 24.01.2020
219 Fog -1 1022 100 100 0.5 0 23:41 24.01.2020
220 Fog -1 1022 100 400 1.5 240 23:23 24.01.2020
221 Fog -1 1022 100 100 0.5 0 22:46 24.01.2020
222 Fog -1 1022 100 400 1.54 165 22:26 24.01.2020
223 Fog -1 1022 100 400 1.5 230 21:57 24.01.2020
224 Fog -1 1022 100 100 2.1 220 21:39 24.01.2020
225 Fog 0 1022 100 400 1.5 250 21:18 24.01.2020
226 Fog -1 1022 100 100 1 0 20:43 24.01.2020
227 Fog 0 1022 100 400 2.1 190 20:22 24.01.2020
228 Fog 0 1022 100 400 0.6 52 19:58 24.01.2020
229 Fog 0 1022 100 400 0.6 52 19:58 24.01.2020
230 Fog 0 1022 100 100 2.6 0 19:39 24.01.2020
231 Fog 0 1022 100 600 1.5 210 19:21 24.01.2020
232 Fog 0 1022 100 100 1.5 0 18:54 24.01.2020
233 Clear 0 1021 100 100 2.1 240 18:36 24.01.2020
234 Mist 0 1022 100 1000 2.1 230 18:18 24.01.2020
235 Mist 0 1022 100 1600 0.6 52 17:42 24.01.2020
236 Mist 0 1021 100 1200 0.89 226 17:21 24.01.2020
237 Mist 1 1021 100 1400 0.89 226 16:43 24.01.2020
238 Mist 1 1021 100 2200 2.1 200 16:22 24.01.2020
239 Mist 1 1021 100 2200 2.1 200 16:22 24.01.2020
240 Mist 1 1022 100 2800 2.1 220 15:57 24.01.2020
241 Fog 1 1021 73 200 2.1 190 15:39 24.01.2020
242 Mist 1 1021 100 4000 2.1 240 15:20 24.01.2020
243 Mist 1 1022 100 4400 0.89 226 14:41 24.01.2020
244 Mist 1 1022 100 5000 1.5 220 14:23 24.01.2020
245 Mist 1 1022 100 5000 1.6 191 13:57 24.01.2020
246 Fog 1 1022 100 250 1.5 90 13:39 24.01.2020
247 Mist 0 1022 92 4000 1.5 220 13:19 24.01.2020
248 Mist 0 1022 92 4000 1.5 220 13:19 24.01.2020
249 Mist 0 1023 92 4400 2.1 200 12:41 24.01.2020
250 Mist 0 1023 92 4400 1.6 180 12:19 24.01.2020
251 Mist 0 1023 100 5000 1.6 180 11:44 24.01.2020
252 Mist -1 1023 100 4400 1.5 170 11:19 24.01.2020
253 Mist -1 1023 100 3200 1.25 131 10:43 24.01.2020
254 Mist -1 1023 100 5000 1.5 230 10:23 24.01.2020
255 Fog -1 1023 100 500 3.1 150 10:00 24.01.2020
256 Fog -1 1023 100 500 3.1 150 09:40 24.01.2020
257 Mist -1 1023 100 5000 2.6 200 09:22 24.01.2020
258 Mist -2 1023 100 4400 1.25 131 08:41 24.01.2020
259 Mist -2 1023 100 6000 0.97 109 08:20 24.01.2020
260 Mist -2 1023 100 8000 0.97 109 07:58 24.01.2020
261 Fog -2 1022 100 100 1.5 180 07:37 24.01.2020
262 Mist -2 1023 100 6000 1.5 190 06:53 24.01.2020
263 Mist -1 1023 100 8000 2.1 190 06:33 24.01.2020
264 Mist -1 1023 100 6000 2.6 220 05:59 24.01.2020
265 Mist -1 1023 100 6000 2.1 170 05:18 24.01.2020
266 Mist -1 1024 92 1600 3.1 150 02:54 24.01.2020
267 Mist -1 1025 92 9000 2.1 210 02:27 24.01.2020
268 Clouds -1 1025 92 10000 2.1 230 01:53 24.01.2020
269 Clear -1 1024 92 150 2.1 180 01:33 24.01.2020
270 Clouds -1 1025 92 10000 1.33 93 00:33 24.01.2020
271 Clouds -1 1025 92 10000 2.1 110 23:58 23.01.2020
272 Clouds -1 1025 92 10000 2.1 110 23:40 23.01.2020
273 Clouds -1 1025 92 10000 2.1 70 23:20 23.01.2020
274 Clear -1 1025 92 0 3.6 140 22:55 23.01.2020
275 Clear -1 1025 100 2500 1.5 110 22:36 23.01.2020
276 Clouds -1 1025 100 10000 2.6 80 22:18 23.01.2020
277 Clouds -1 1025 100 10000 2.1 90 21:54 23.01.2020
278 Clear -1 1025 100 6000 2.6 110 21:36 23.01.2020
279 Clouds 0 1025 100 10000 2.6 70 21:18 23.01.2020
280 Clouds 0 1026 100 10000 2.1 80 20:40 23.01.2020
281 Clouds 0 1026 100 10000 3.6 60 20:22 23.01.2020
282 Mist 0 1026 80 3000 3.1 70 19:57 23.01.2020
283 Mist 0 1026 80 3000 3.1 70 19:39 23.01.2020
284 Clouds 0 1026 100 10000 4.6 60 19:20 23.01.2020
285 Mist 0 1025 80 2500 3.6 60 18:56 23.01.2020
286 Mist 1 1026 80 10000 5.1 80 18:37 23.01.2020
287 Mist 1 1026 80 10000 5.1 80 18:19 23.01.2020
288 Mist 1 1026 80 10000 4.6 70 17:45 23.01.2020
289 Mist 1 1026 73 8000 5.7 70 17:21 23.01.2020
290 Mist 1 1026 73 6000 5.1 60 16:59 23.01.2020
291 Mist 1 1027 73 9000 5.1 60 16:39 23.01.2020
292 Mist 1 1027 73 9000 5.1 60 16:19 23.01.2020
293 Mist 1 1027 73 8000 5.1 60 15:58 23.01.2020
294 Mist 1 1028 73 10000 3.6 80 15:39 23.01.2020
295 Mist 1 1028 73 10000 3.6 80 15:19 23.01.2020
296 Clouds 2 1027 73 8000 4.6 50 14:58 23.01.2020
297 Clouds 1 1027 73 8000 4.6 50 14:40 23.01.2020
298 Mist 1 1029 73 10000 4.6 70 14:22 23.01.2020
299 Mist 1 1029 64 3000 5.1 50 13:55 23.01.2020
300 Clouds 1 1029 64 10000 5.1 90 13:37 23.01.2020
301 Clouds 1 1029 65 10000 5.1 90 13:18 23.01.2020
302 Fog 1 1029 65 1300 4.6 60 12:42 23.01.2020
303 Mist 1 1030 65 10000 5.1 70 12:24 23.01.2020
304 Mist 1 1030 65 8000 4.6 70 11:56 23.01.2020
305 Mist 1 1030 65 5000 5.1 70 11:37 23.01.2020
306 Mist 1 1030 65 5000 5.1 70 11:37 23.01.2020
307 Mist 1 1030 76 5000 5.1 70 11:18 23.01.2020
308 Mist 1 1030 76 5000 5.1 70 11:18 23.01.2020
309 Mist 1 1030 76 2500 4.6 70 10:43 23.01.2020
310 Mist 0 1030 76 5000 5.7 80 10:19 23.01.2020
311 Mist 0 1031 78 5000 5.1 70 09:43 23.01.2020
312 Mist 0 1031 76 2600 5.7 70 09:25 23.01.2020
313 Mist 0 1031 76 2000 5.7 60 08:58 23.01.2020
314 Mist 0 1031 76 2000 5.7 60 08:40 23.01.2020
315 Mist 0 1031 88 2600 5.1 70 08:21 23.01.2020
316 Mist 0 1031 88 4000 4.6 70 07:44 23.01.2020
317 Mist 0 1031 88 2200 5.1 60 07:24 23.01.2020
318 Mist 0 1031 88 2200 5.7 60 06:51 23.01.2020
319 Mist 1 1031 88 3200 5.7 70 06:22 23.01.2020
320 Fog 0 1031 100 100 5.7 80 05:37 23.01.2020
321 Clouds 1 1033 88 10000 4.6 70 04:24 23.01.2020
322 Clouds 1 1034 100 10000 5.1 60 02:33 23.01.2020
323 Mist 1 1035 90 4400 4.6 60 01:18 23.01.2020
324 Fog 1 1034 100 300 5.1 60 00:27 23.01.2020
325 Fog 1 1034 90 800 4.6 70 23:48 22.01.2020
326 Mist 1 1034 90 1800 6.7 50 23:29 22.01.2020
327 Mist 1 1034 82 2500 6.2 50 22:59 22.01.2020
328 Mist 1 1034 82 2500 6.2 50 22:40 22.01.2020
329 Mist 1 1034 82 9000 3.1 80 22:22 22.01.2020
330 Clouds 1 1034 82 10000 3.1 80 21:40 22.01.2020
331 Clouds 0 1034 82 10000 1.5 90 21:22 22.01.2020
332 Clouds 0 1033 82 10000 7.2 50 20:57 22.01.2020
333 Clouds 0 1033 82 10000 7.2 50 20:39 22.01.2020
334 Clouds 0 1034 76 10000 2.1 100 20:21 22.01.2020
335 Clear 0 1033 74 10000 5.1 60 19:57 22.01.2020
336 Mist 0 1033 100 2000 3.1 80 19:38 22.01.2020
337 Clear 0 1033 76 10000 4.1 60 19:19 22.01.2020
338 Clear 0 1033 74 10000 4.1 60 18:57 22.01.2020
339 Clear 0 1033 76 3200 2.6 60 18:38 22.01.2020
340 Clear 1 1033 64 10000 4.6 50 18:19 22.01.2020
341 Clear 1 1033 59 10000 4.6 50 17:54 22.01.2020
342 Mist 1 1033 92 2000 2.6 60 17:36 22.01.2020
343 Clear 2 1033 59 10000 3.1 70 17:18 22.01.2020
344 Clear 3 1033 55 10000 5.1 40 16:43 22.01.2020
345 Clear 3 1033 55 10000 5.7 40 16:23 22.01.2020
346 Clear 4 1033 52 10000 3.6 50 15:58 22.01.2020
347 Clear 4 1033 52 10000 3.6 50 15:40 22.01.2020
348 Clear 5 1033 52 10000 4.6 50 15:22 22.01.2020
349 Clear 5 1033 56 10000 4.1 60 14:57 22.01.2020
350 Clear 4 1034 60 10000 4.6 60 14:37 22.01.2020
351 Clear 4 1034 60 10000 4.6 60 14:18 22.01.2020
352 Clear 4 1034 60 10000 4.6 50 13:54 22.01.2020
353 Clear 3 1034 64 10000 4.1 60 13:36 22.01.2020
354 Clear 3 1034 64 10000 4.1 60 13:18 22.01.2020
355 Clear 3 1034 69 10000 3.6 50 12:55 22.01.2020
356 Clear 3 1034 74 10000 2.6 60 12:37 22.01.2020
357 Clear 2 1034 74 10000 2.6 60 12:18 22.01.2020
358 Clear 1 1034 74 10000 3.1 50 11:56 22.01.2020
359 Clear 1 1034 80 10000 2.6 50 11:37 22.01.2020
360 Clear 0 1034 80 10000 2.6 50 11:18 22.01.2020
361 Clear -1 1034 80 10000 3.1 60 10:43 22.01.2020
362 Clear -2 1034 86 10000 0.45 148 10:20 22.01.2020
363 Clear -3 1034 86 10000 4.1 60 09:43 22.01.2020
364 Clear -4 1034 92 10000 2.1 130 09:25 22.01.2020
365 Clear -4 1034 86 10000 4.1 40 08:58 22.01.2020
366 Clear -4 1034 86 10000 4.1 40 08:40 22.01.2020
367 Clear -4 1034 92 10000 3.1 80 08:21 22.01.2020
368 Clouds -4 1034 86 10000 4.1 40 07:58 22.01.2020
369 Clouds -4 1034 86 10000 4.1 40 07:40 22.01.2020
370 Clear -4 1034 85 10000 2.1 80 07:21 22.01.2020
371 Clear -4 1034 85 10000 1.83 33 06:31 22.01.2020
372 Clouds -3 1034 84 10000 4.6 30 05:42 22.01.2020
373 Clear -4 1035 92 10000 3.1 30 04:20 22.01.2020
374 Clear -4 1035 86 10000 2.54 359 03:23 22.01.2020
375 Clear -4 1035 86 10000 2.54 359 03:23 22.01.2020
376 Clear -3 1035 86 10000 2.54 359 02:32 22.01.2020
377 Clear -3 1036 78 10000 4.6 30 00:46 22.01.2020
378 Clear -3 1036 86 10000 2.6 120 00:27 22.01.2020
379 Clear -2 1036 78 10000 4.1 50 23:55 21.01.2020
380 Clear -2 1036 80 10000 3.6 40 23:36 21.01.2020
381 Clear -2 1037 86 10000 2.6 40 23:18 21.01.2020
382 Clear -2 1036 86 10000 3.1 80 22:40 21.01.2020
383 Clear -2 1037 80 10000 3.6 60 22:20 21.01.2020
384 Clear -2 1037 80 10000 3.6 60 22:20 21.01.2020
385 Clear -2 1036 86 10000 3.6 120 21:57 21.01.2020
386 Clear -2 1036 86 10000 3.6 120 21:38 21.01.2020
387 Clear -2 1037 80 10000 2.1 70 21:20 21.01.2020
388 Clear -1 1037 74 10000 2.6 50 20:56 21.01.2020
389 Clear -1 1037 86 10000 2.1 60 20:37 21.01.2020
390 Clear -1 1037 80 10000 2.6 60 20:19 21.01.2020
391 Clear -1 1037 74 10000 4.1 40 19:56 21.01.2020
392 Clear -1 1037 86 10000 2.6 120 19:38 21.01.2020
393 Clear 0 1037 86 10000 4.1 90 19:20 21.01.2020
394 Clear 0 1037 74 10000 3.6 50 18:55 21.01.2020
395 Clear 0 1037 86 10000 2.6 50 18:37 21.01.2020
396 Clear 0 1038 74 10000 3.1 40 18:18 21.01.2020
397 Clear 1 1038 69 10000 3.1 50 17:45 21.01.2020
398 Clear 2 1038 69 10000 2.6 60 17:20 21.01.2020
399 Clear 3 1038 64 10000 3.1 50 16:59 21.01.2020
400 Clear 3 1038 64 10000 1 70 16:37 21.01.2020
401 Clear 3 1038 64 10000 1 70 16:37 21.01.2020
402 Clear 3 1038 64 10000 1 70 16:37 21.01.2020
403 Clear 4 1038 64 10000 3.6 80 16:19 21.01.2020
404 Clear 4 1038 69 10000 2.1 60 15:56 21.01.2020
405 Clear 4 1038 64 10000 1.5 60 15:36 21.01.2020
406 Clear 5 1039 65 10000 2.6 90 15:18 21.01.2020
407 Clear 4 1038 64 10000 3.6 120 14:38 21.01.2020
408 Clear 4 1039 64 10000 2.1 90 14:20 21.01.2020
409 Clear 4 1039 69 10000 2.6 60 13:40 21.01.2020
410 Clear 4 1040 64 10000 2.6 80 13:19 21.01.2020
411 Clear 3 1040 69 10000 3.1 60 12:56 21.01.2020
412 Clear 2 1039 80 10000 3.6 120 12:38 21.01.2020
413 Clear 2 1040 69 10000 3.1 80 12:19 21.01.2020
414 Clear 1 1040 80 10000 2.6 60 11:41 21.01.2020
415 Clear 1 1041 69 10000 2.6 80 11:22 21.01.2020
416 Clear 0 1040 78 10000 2.6 60 10:59 21.01.2020
417 Clear 0 1040 92 10000 3.6 120 10:41 21.01.2020
418 Clear -1 1041 78 10000 1.8 74 10:22 21.01.2020
419 Clear -2 1040 86 10000 3.6 40 09:43 21.01.2020
420 Clear -3 1041 86 10000 1.5 80 09:24 21.01.2020
421 Clear -3 1040 86 10000 4.1 40 08:58 21.01.2020
422 Clear -3 1040 86 10000 4.1 40 08:40 21.01.2020
423 Clear -3 1040 86 10000 4.1 50 08:19 21.01.2020
424 Clear -3 1040 86 10000 4.1 50 07:42 21.01.2020
425 Clear -3 1040 86 10000 4.1 50 07:42 21.01.2020
426 Clear -3 1040 86 10000 3.1 50 07:23 21.01.2020
427 Clear -3 1040 86 10000 3.1 50 07:23 21.01.2020
428 Clear -3 1040 80 10000 4.6 50 06:56 21.01.2020
429 Clear -3 1040 86 10000 3.1 40 06:37 21.01.2020
430 Clear -2 1040 86 10000 5.1 50 05:53 21.01.2020
431 Clear -2 1040 86 10000 5.1 40 04:41 21.01.2020
432 Clear -2 1041 86 10000 3.1 40 04:19 21.01.2020
433 Clear -2 1042 86 10000 2.6 40 02:26 21.01.2020
434 Clear -2 1042 86 10000 3.6 60 01:36 21.01.2020
435 Clear -1 1042 89 10000 5.1 50 00:41 21.01.2020
436 Clear -1 1043 86 10000 3.1 40 00:22 21.01.2020
437 Clear -1 1042 89 10000 5.1 40 23:56 20.01.2020
438 Clear -1 1043 86 10000 4.1 70 23:36 20.01.2020
439 Clear -1 1043 86 10000 3.6 40 23:18 20.01.2020
440 Clear -1 1043 74 10000 4.6 40 22:40 20.01.2020
441 Clear -1 1043 86 10000 4.1 40 22:21 20.01.2020
442 Clear -1 1043 91 10000 5.1 50 21:58 20.01.2020
443 Clear -1 1043 86 10000 3.6 80 21:38 20.01.2020
444 Clear 0 1043 91 10000 4.6 50 21:20 20.01.2020
445 Clouds 0 1043 80 10000 5.7 50 20:59 20.01.2020
446 Clouds 0 1043 80 10000 5.7 50 20:41 20.01.2020
447 Clear 0 1044 91 10000 4.6 50 20:20 20.01.2020
448 Clouds 0 1043 74 10000 5.7 50 19:58 20.01.2020
449 Clouds 0 1043 74 10000 5.7 50 19:40 20.01.2020
450 Clear 0 1044 91 10000 4.1 40 19:19 20.01.2020
451 Clear 0 1043 80 10000 6.2 50 18:55 20.01.2020
452 Clear 1 1043 91 10000 1.5 50 18:37 20.01.2020
453 Clear 1 1044 91 10000 3.6 30 18:19 20.01.2020
454 Clouds 1 1043 91 10000 2.1 40 17:38 20.01.2020
455 Clouds 2 1044 80 10000 3.6 40 17:19 20.01.2020
456 Clouds 3 1044 74 10000 2.1 50 16:46 20.01.2020
457 Clouds 3 1044 74 10000 4.6 60 16:26 20.01.2020
458 Clouds 4 1044 69 10000 6.2 40 15:59 20.01.2020
459 Clouds 4 1044 69 10000 6.2 40 15:40 20.01.2020
460 Clouds 4 1045 69 10000 4.6 40 15:22 20.01.2020
461 Clouds 4 1044 69 10000 5.7 50 14:59 20.01.2020
462 Clouds 4 1044 69 10000 5.7 50 14:40 20.01.2020
463 Clouds 4 1045 69 10000 4.6 60 14:21 20.01.2020
464 Clouds 4 1045 70 10000 5.7 40 13:56 20.01.2020
465 Clouds 4 1045 74 10000 2.6 40 13:38 20.01.2020
466 Clouds 4 1045 69 10000 4.1 60 13:18 20.01.2020
467 Clouds 4 1045 69 10000 6.7 60 12:42 20.01.2020
468 Clouds 4 1046 80 10000 4.1 60 12:23 20.01.2020
469 Clouds 3 1046 71 10000 6.2 60 11:55 20.01.2020
470 Clouds 3 1046 86 10000 4.6 50 11:36 20.01.2020
471 Clouds 3 1046 86 10000 4.6 50 11:18 20.01.2020
472 Clouds 2 1046 86 10000 4.6 50 10:46 20.01.2020
473 Clouds 2 1046 83 10000 2.1 50 10:21 20.01.2020
474 Clouds 1 1045 83 10000 1.5 40 09:42 20.01.2020
475 Mist 1 1045 92 9000 1.5 60 09:24 20.01.2020
476 Clouds 0 1045 83 10000 1.5 80 08:56 20.01.2020
477 Fog 0 1044 86 5000 4.6 60 08:35 20.01.2020
478 Clouds 0 1044 94 10000 3.6 50 07:59 20.01.2020
479 Clouds 0 1044 94 10000 3.6 50 07:41 20.01.2020
480 Clouds 0 1045 94 10000 2.6 50 07:21 20.01.2020
481 Clouds 0 1044 86 7000 3.6 60 06:44 20.01.2020
482 Clouds 0 1044 94 10000 2.6 10 06:22 20.01.2020
483 Rain 1 1044 86 10000 2.6 20 05:38 20.01.2020
484 Rain 0 1044 86 10000 2.6 20 05:19 20.01.2020
485 Clouds 1 1044 86 10000 3.1 10 04:24 20.01.2020
486 Clouds 1 1044 94 10000 3.1 20 01:59 20.01.2020
487 Clouds 2 1044 94 10000 3.1 20 01:40 20.01.2020
488 Clear 2 1044 95 10000 2.6 10 01:20 20.01.2020
489 Clouds 2 1044 95 10000 3.1 30 00:43 20.01.2020
490 Clouds 2 1044 80 10000 2.6 10 00:21 20.01.2020
491 Clouds 2 1042 100 6000 4.6 10 23:38 19.01.2020
492 Clouds 2 1043 92 10000 3.6 30 23:19 19.01.2020
493 Clouds 2 1043 92 10000 3.6 30 22:56 19.01.2020
494 Clouds 2 1042 100 5000 4.6 10 22:37 19.01.2020
495 Clouds 2 1043 92 10000 1.5 10 22:19 19.01.2020
496 Clouds 2 1042 86 10000 3.6 40 21:56 19.01.2020
497 Clouds 2 1042 92 10000 2.1 20 21:38 19.01.2020
498 Clouds 2 1042 92 10000 2.1 20 21:19 19.01.2020
499 Clouds 2 1041 86 10000 4.1 30 20:57 19.01.2020
500 Rain 2 1041 100 4500 4.6 20 20:38 19.01.2020
501 Clouds 3 1041 85 10000 3.1 40 20:20 19.01.2020
502 Clouds 3 1041 83 10000 4.6 30 19:56 19.01.2020
503 Clouds 3 1041 83 10000 3.1 10 19:38 19.01.2020
504 Clouds 3 1041 83 10000 3.1 10 19:19 19.01.2020
505 Clouds 3 1040 83 10000 2.1 10 18:55 19.01.2020
506 Rain 3 1040 83 10000 4.1 10 18:37 19.01.2020
507 Rain 3 1040 83 10000 4.1 10 18:19 19.01.2020
508 Clouds 3 1039 83 10000 4.1 360 17:58 19.01.2020
509 Clouds 3 1039 83 10000 4.1 360 17:58 19.01.2020
510 Clouds 3 1039 83 10000 4.1 360 17:39 19.01.2020
511 Clouds 3 1039 75 10000 3.1 20 17:20 19.01.2020
512 Clouds 3 1038 75 10000 2.6 10 16:57 19.01.2020
513 Clouds 3 1037 75 10000 2.6 10 16:38 19.01.2020
514 Clouds 4 1038 86 10000 2.1 20 16:19 19.01.2020
515 Clouds 4 1038 80 10000 3.1 20 15:58 19.01.2020
516 Rain 4 1037 80 10000 4.6 360 15:37 19.01.2020
517 Rain 4 1037 93 10000 1.5 20 15:19 19.01.2020
518 Clouds 4 1037 93 10000 2.6 10 14:57 19.01.2020
519 Clouds 4 1037 86 10000 3.09 22 14:38 19.01.2020
520 Clouds 4 1037 86 10000 3.09 22 14:38 19.01.2020
521 Clouds 4 1037 86 10000 3.41 8 14:18 19.01.2020
522 Clouds 4 1037 80 10000 3.41 8 13:57 19.01.2020
523 Clouds 4 1037 86 10000 3.41 8 13:38 19.01.2020
524 Clouds 4 1037 86 10000 3.41 8 13:19 19.01.2020
525 Clouds 3 1036 93 10000 3.46 5 12:55 19.01.2020
526 Clouds 3 1035 76 10000 2.6 350 12:37 19.01.2020
527 Clouds 3 1036 93 10000 3.46 5 12:19 19.01.2020
528 Clouds 2 1036 76 10000 3.46 5 11:42 19.01.2020
529 Clouds 2 1036 88 10000 1.34 355 11:20 19.01.2020
530 Clouds 1 1035 88 10000 1.34 355 10:56 19.01.2020
531 Clouds 1 1035 88 10000 1.34 355 10:56 19.01.2020
532 Clouds 1 1035 88 10000 1.34 355 10:56 19.01.2020
533 Mist 1 1034 88 5000 2.1 290 10:38 19.01.2020
534 Clouds 1 1035 88 10000 1.34 355 10:19 19.01.2020
535 Clouds 0 1035 88 10000 1.5 280 09:56 19.01.2020
536 Clouds 0 1035 88 10000 1.5 280 09:56 19.01.2020
537 Clouds 0 1035 88 10000 1.5 280 09:56 19.01.2020
538 Clouds 0 1033 86 10000 3.1 330 09:37 19.01.2020
539 Clouds 0 1034 92 10000 1.5 250 09:18 19.01.2020
540 Clouds 0 1034 92 10000 1.34 355 08:48 19.01.2020
541 Clouds 0 1033 100 10000 1.34 355 08:28 19.01.2020
542 Clouds 0 1033 94 10000 1 0 07:45 19.01.2020
543 Clouds 0 1032 92 10000 1.5 280 07:26 19.01.2020
544 Snow 0 1032 92 10000 1.5 290 06:54 19.01.2020
545 Clouds 0 1032 92 10000 2.1 280 06:21 19.01.2020
546 Clouds -1 1030 92 10000 1.5 270 03:28 19.01.2020
547 Clouds -1 1030 92 10000 1.21 339 02:26 19.01.2020
548 Snow -1 1029 92 7000 3.6 290 01:38 19.01.2020
549 Clouds -1 1029 92 10000 2.6 240 01:18 19.01.2020
550 Clouds -1 1029 92 10000 3.1 240 00:41 19.01.2020
551 Clouds -1 1029 91 10000 2.6 320 00:19 19.01.2020
552 Clouds -1 1029 91 10000 2.6 320 23:42 18.01.2020
553 Clear -1 1028 92 10000 1.5 260 23:24 18.01.2020
554 Clouds -1 1029 78 10000 1.5 270 22:58 18.01.2020
555 Clouds -1 1029 78 10000 1.5 270 22:39 18.01.2020
556 Clear 0 1028 78 10000 2.6 260 22:21 18.01.2020
557 Clouds 0 1029 78 10000 2.1 270 21:57 18.01.2020
558 Clouds 0 1027 78 10000 3.1 270 21:38 18.01.2020
559 Clouds 0 1028 78 10000 2.6 260 21:20 18.01.2020
560 Clouds 0 1028 78 10000 2.1 280 20:55 18.01.2020
561 Clouds 0 1027 92 10000 2.1 260 20:36 18.01.2020
562 Clouds 0 1028 84 10000 1.92 288 20:18 18.01.2020
563 Clouds 1 1027 84 10000 1.5 240 19:42 18.01.2020
564 Clear 1 1027 86 10000 1.92 288 19:24 18.01.2020
565 Clouds 1 1027 93 10000 4.1 260 18:43 18.01.2020
566 Clear 2 1026 84 10000 3.1 250 18:24 18.01.2020
567 Clouds 2 1026 84 10000 2.1 250 17:58 18.01.2020
568 Clouds 2 1027 86 10000 3.6 250 17:40 18.01.2020
569 Clouds 3 1026 86 10000 3.1 230 17:20 18.01.2020
570 Clouds 3 1026 86 10000 3.6 210 16:56 18.01.2020
571 Clouds 4 1025 84 10000 4.6 260 16:37 18.01.2020
572 Clouds 4 1025 80 10000 3.6 210 16:19 18.01.2020
573 Clouds 4 1025 86 10000 3.6 230 15:44 18.01.2020
574 Clouds 4 1025 80 10000 3.1 220 15:25 18.01.2020
575 Clouds 4 1025 80 10000 4.1 220 14:59 18.01.2020
576 Clouds 4 1026 93 10000 3.1 270 14:40 18.01.2020
577 Clouds 4 1025 86 10000 3.6 240 14:19 18.01.2020
578 Rain 4 1025 86 10000 4.1 230 13:56 18.01.2020
579 Clouds 4 1025 93 10000 4.6 240 13:36 18.01.2020
580 Clouds 4 1025 93 10000 4.6 240 13:18 18.01.2020
581 Rain 4 1025 86 10000 4.1 230 12:41 18.01.2020
582 Rain 3 1025 86 10000 5.1 230 12:21 18.01.2020
583 Clouds 3 1025 86 10000 4.6 230 11:56 18.01.2020
584 Clouds 3 1025 93 10000 5.1 220 11:38 18.01.2020
585 Clouds 3 1025 93 10000 5.1 220 11:19 18.01.2020
586 Clouds 3 1025 100 10000 4.1 220 10:42 18.01.2020
587 Clouds 3 1025 100 10000 5.1 210 10:20 18.01.2020
588 Clouds 3 1025 100 10000 5.1 210 10:20 18.01.2020
589 Clouds 3 1024 100 10000 4.6 200 09:54 18.01.2020
590 Clouds 3 1024 93 10000 4.6 190 09:36 18.01.2020
591 Clouds 3 1024 93 10000 5.1 200 08:59 18.01.2020
592 Clouds 3 1024 93 10000 5.1 200 08:41 18.01.2020
593 Clouds 2 1024 93 10000 4.6 200 08:20 18.01.2020
594 Clouds 2 1024 93 10000 3.6 210 07:52 18.01.2020
595 Clouds 2 1023 93 10000 4.6 200 07:34 18.01.2020
596 Clouds 2 1024 93 10000 3.6 220 06:48 18.01.2020
597 Clouds 2 1023 93 10000 4.1 200 06:22 18.01.2020
598 Clouds 2 1023 93 10000 3.6 200 05:31 18.01.2020
599 Clouds 2 1023 100 10000 2.6 230 04:19 18.01.2020
600 Clouds 3 1021 93 10000 2.6 230 02:33 18.01.2020
601 Clouds 3 1021 93 10000 3.6 220 01:36 18.01.2020
602 Clouds 3 1022 93 10000 4.6 260 00:39 18.01.2020
603 Clouds 3 1022 93 10000 3.6 210 00:19 18.01.2020
604 Clouds 3 1021 93 10000 2.6 200 23:58 17.01.2020
605 Clouds 3 1021 93 10000 3.6 220 23:38 17.01.2020
606 Clouds 3 1021 93 10000 3.6 220 23:18 17.01.2020
607 Clouds 4 1021 93 10000 2.6 240 22:41 17.01.2020
608 Clouds 4 1020 93 10000 2.1 210 22:19 17.01.2020
609 Clouds 4 1021 93 10000 2.6 250 21:54 17.01.2020
610 Clouds 4 1019 86 10000 4.1 260 21:36 17.01.2020
611 Clouds 4 1020 93 10000 2.1 230 21:18 17.01.2020
612 Clouds 5 1019 93 10000 3.6 240 20:41 17.01.2020
613 Clouds 5 1019 93 10000 4.6 230 20:21 17.01.2020
614 Clouds 6 1019 93 10000 4.6 230 19:58 17.01.2020
615 Rain 6 1018 93 10000 4.6 260 19:39 17.01.2020
616 Clouds 6 1018 93 10000 4.1 230 19:20 17.01.2020
617 Rain 6 1018 100 10000 5.1 220 18:58 17.01.2020
618 Rain 6 1018 81 10000 6.7 250 18:39 17.01.2020
619 Clear 6 1017 100 10000 3.6 230 18:21 17.01.2020
620 Clouds 7 1018 93 10000 3.6 230 17:40 17.01.2020
621 Clouds 7 1017 100 10000 4.1 220 17:22 17.01.2020
622 Clouds 7 1017 100 10000 5.1 220 16:57 17.01.2020
623 Rain 7 1016 100 8000 4.1 220 16:39 17.01.2020
624 Rain 7 1016 100 10000 4.6 210 16:19 17.01.2020
625 Clouds 7 1016 100 10000 5.1 190 15:45 17.01.2020
626 Rain 7 1016 100 10000 4.1 190 15:26 17.01.2020
627 Rain 7 1016 100 10000 5.1 210 14:46 17.01.2020
628 Rain 8 1016 93 10000 5.1 200 14:27 17.01.2020
629 Rain 7 1017 93 6000 4.1 200 13:58 17.01.2020
630 Rain 7 1016 93 10000 6.2 220 13:38 17.01.2020
631 Rain 7 1016 93 10000 5.1 200 13:19 17.01.2020
632 Rain 7 1017 87 10000 4.6 200 12:45 17.01.2020
633 Clouds 7 1017 87 10000 4.6 190 12:22 17.01.2020
634 Rain 7 1017 93 7000 3.6 190 11:41 17.01.2020
635 Clouds 7 1017 87 10000 2.6 180 11:19 17.01.2020
636 Clouds 6 1017 87 10000 3.6 190 10:45 17.01.2020
637 Clouds 6 1018 87 10000 1.5 130 10:24 17.01.2020
638 Clouds 6 1018 93 10000 3.82 181 09:59 17.01.2020
639 Clouds 5 1018 93 10000 3.82 181 09:41 17.01.2020
640 Clouds 5 1018 93 10000 3.82 181 09:20 17.01.2020
641 Clouds 5 1018 93 10000 1.5 120 08:55 17.01.2020
642 Clouds 5 1017 86 10000 4.1 210 08:36 17.01.2020
643 Clouds 4 1018 86 10000 1.5 210 08:18 17.01.2020
644 Clouds 4 1018 86 10000 3.1 170 07:42 17.01.2020
645 Clouds 4 1018 86 10000 2.87 157 07:24 17.01.2020
646 Clouds 4 1018 86 10000 2.87 157 06:43 17.01.2020
647 Clear 4 1018 86 10000 2.87 157 06:20 17.01.2020
648 Clouds 5 1019 81 10000 4.1 140 04:26 17.01.2020
649 Clouds 5 1020 81 10000 4.6 190 02:55 17.01.2020
650 Clouds 5 1020 86 10000 5.7 200 02:31 17.01.2020
651 Clouds 5 1020 86 10000 5.7 200 01:33 17.01.2020
652 Clouds 6 1021 81 10000 4.6 170 00:59 17.01.2020
653 Clouds 6 1021 81 10000 4.6 170 00:59 17.01.2020
654 Clouds 6 1021 81 10000 4.6 170 00:35 17.01.2020
655 Clouds 6 1021 81 10000 6.2 160 23:59 16.01.2020
656 Clear 6 1022 87 10000 2.1 120 23:41 16.01.2020
657 Clear 6 1022 87 10000 2.1 120 23:22 16.01.2020
658 Clear 6 1022 87 10000 2.6 170 22:41 16.01.2020
659 Clear 6 1022 81 10000 1.5 120 22:21 16.01.2020
660 Clear 7 1023 81 10000 3.6 160 21:57 16.01.2020
661 Clear 6 1023 87 10000 5.1 150 21:38 16.01.2020
662 Clear 6 1023 81 10000 2.1 120 21:19 16.01.2020
663 Clear 7 1023 81 10000 4.1 160 20:57 16.01.2020
664 Clear 7 1024 87 10000 6.2 150 20:38 16.01.2020
665 Clear 7 1024 81 10000 1.5 110 20:19 16.01.2020
666 Clear 7 1024 76 10000 3.6 160 19:56 16.01.2020
667 Clear 7 1024 87 10000 5.7 160 19:37 16.01.2020
668 Clear 7 1024 75 10000 2.1 90 19:19 16.01.2020
669 Clear 7 1023 81 10000 3.6 150 18:55 16.01.2020
670 Clear 8 1023 81 10000 3.1 150 18:37 16.01.2020
671 Clear 8 1024 75 10000 1.5 100 18:18 16.01.2020
672 Clear 8 1024 75 10000 1.5 100 18:18 16.01.2020
673 Clear 8 1024 81 10000 3.6 160 17:42 16.01.2020
674 Clear 9 1024 70 10000 2.1 130 17:23 16.01.2020
675 Clear 10 1024 76 10000 4.1 170 16:57 16.01.2020
676 Clear 10 1024 76 10000 4.6 160 16:39 16.01.2020
677 Clear 10 1024 66 10000 2.6 170 16:19 16.01.2020
678 Clouds 11 1024 71 10000 4.6 170 15:44 16.01.2020
679 Clear 11 1024 66 10000 4.1 190 15:24 16.01.2020
680 Clouds 11 1025 71 10000 4.6 170 14:59 16.01.2020
681 Clouds 11 1025 71 10000 4.6 170 14:41 16.01.2020
682 Clouds 11 1025 71 10000 4.1 180 14:22 16.01.2020
683 Clouds 10 1025 81 10000 4.1 160 13:45 16.01.2020
684 Clouds 10 1026 76 10000 5.1 180 13:26 16.01.2020
685 Clouds 10 1026 87 10000 3.6 190 12:57 16.01.2020
686 Clouds 9 1026 81 10000 5.7 190 12:38 16.01.2020
687 Clouds 9 1026 93 10000 2.6 180 12:20 16.01.2020
688 Clouds 8 1026 93 7000 4.1 190 11:41 16.01.2020
689 Clouds 8 1027 100 10000 1.5 170 11:23 16.01.2020
690 Clouds 7 1027 93 10000 3.6 170 10:55 16.01.2020
691 Clouds 7 1027 93 10000 3.6 170 10:55 16.01.2020
692 Mist 7 1026 93 3500 4.1 200 10:37 16.01.2020
693 Clouds 7 1026 100 10000 1.5 150 10:19 16.01.2020
694 Fog 6 1027 93 10000 2.6 160 09:43 16.01.2020
695 Mist 5 1026 100 8000 1.5 140 09:24 16.01.2020
696 Clouds 5 1026 93 10000 2.1 170 08:58 16.01.2020
697 Clouds 5 1026 93 10000 2.1 170 08:40 16.01.2020
698 Mist 6 1026 100 8000 2.04 199 08:19 16.01.2020
699 Mist 6 1026 100 6000 2.04 199 07:42 16.01.2020
700 Clouds 6 1026 100 10000 1.5 220 07:24 16.01.2020
701 Clouds 6 1026 100 10000 2.04 199 06:54 16.01.2020
702 Fog 6 1025 93 200 1.5 230 06:34 16.01.2020
703 Clouds 7 1025 100 10000 1.5 180 05:51 16.01.2020
704 Mist 7 1025 100 2000 1.5 160 04:51 16.01.2020
705 Clouds 8 1025 100 10000 1.5 220 04:21 16.01.2020
706 Clouds 8 1025 100 10000 1.84 203 03:27 16.01.2020
707 Clouds 8 1024 100 10000 1.5 230 02:23 16.01.2020
708 Drizzle 9 1023 100 10000 1.5 220 00:44 16.01.2020
709 Rain 9 1022 93 10000 2.6 220 00:23 16.01.2020
710 Rain 9 1022 87 10000 3.6 220 23:45 15.01.2020
711 Clouds 9 1022 87 10000 3.1 230 23:22 15.01.2020
712 Clouds 9 1021 87 10000 3.1 230 22:57 15.01.2020
713 Rain 9 1021 87 10000 6.7 250 22:39 15.01.2020
714 Clouds 9 1021 87 10000 4.6 230 22:19 15.01.2020
715 Clouds 9 1020 87 10000 6.2 230 21:57 15.01.2020
716 Rain 9 1020 81 10000 5.7 230 21:37 15.01.2020
717 Rain 10 1020 81 10000 5.7 230 21:19 15.01.2020
718 Rain 10 1019 71 10000 10.3 220 20:56 15.01.2020
719 Drizzle 10 1019 66 10000 6.2 220 20:38 15.01.2020
720 Clouds 10 1019 71 10000 5.7 220 20:20 15.01.2020
721 Rain 10 1019 66 10000 6.7 220 19:55 15.01.2020
722 Clouds 10 1018 76 10000 7.2 230 19:37 15.01.2020
723 Clouds 10 1018 76 10000 7.2 230 19:37 15.01.2020
724 Rain 10 1018 76 10000 5.7 210 19:18 15.01.2020
725 Rain 10 1018 71 10000 6.7 210 18:56 15.01.2020
726 Rain 10 1018 71 10000 6.7 210 18:56 15.01.2020
727 Clouds 10 1017 66 10000 8.7 220 18:38 15.01.2020
728 Clouds 10 1017 66 10000 8.7 220 18:38 15.01.2020
729 Rain 10 1017 66 10000 7.7 200 18:19 15.01.2020
730 Clouds 10 1017 62 10000 5.1 210 17:57 15.01.2020
731 Clouds 10 1016 70 10000 7.7 210 17:38 15.01.2020
732 Clouds 11 1016 62 10000 6.7 190 17:19 15.01.2020
733 Clouds 11 1016 66 10000 6.7 220 16:41 15.01.2020
734 Clouds 11 1015 62 10000 7.7 200 16:22 15.01.2020
735 Clouds 11 1015 62 10000 9.8 200 15:59 15.01.2020
736 Clouds 11 1015 62 10000 9.8 200 15:41 15.01.2020
737 Clouds 12 1015 62 10000 9.8 200 15:20 15.01.2020
738 Clouds 12 1015 62 10000 7.2 210 14:44 15.01.2020
739 Clear 11 1015 62 10000 9.8 190 14:21 15.01.2020
740 Clouds 11 1015 62 10000 7.7 200 13:56 15.01.2020
741 Clouds 11 1015 61 10000 10.8 210 13:38 15.01.2020
742 Clear 11 1015 66 10000 9.3 200 13:19 15.01.2020
743 Clouds 11 1015 66 10000 6.7 200 12:41 15.01.2020
744 Clear 10 1015 70 10000 8.2 200 12:20 15.01.2020
745 Clouds 9 1016 70 10000 5.1 200 11:59 15.01.2020
746 Clouds 9 1015 70 10000 7.7 220 11:38 15.01.2020
747 Clouds 9 1015 70 10000 7.7 220 11:38 15.01.2020
748 Clouds 9 1015 70 10000 7.2 200 11:19 15.01.2020
749 Clouds 8 1015 81 10000 4.1 180 10:47 15.01.2020
750 Clear 7 1015 75 10000 6.7 200 10:28 15.01.2020
751 Clouds 7 1015 87 10000 4.6 180 09:57 15.01.2020
752 Clouds 6 1015 81 10000 2.1 0 09:38 15.01.2020
753 Clear 6 1014 81 10000 7.2 190 09:19 15.01.2020
754 Clouds 6 1015 81 10000 3.6 190 08:44 15.01.2020
755 Clear 6 1014 81 10000 5.1 180 08:24 15.01.2020
756 Clouds 6 1015 81 10000 4.1 190 07:54 15.01.2020
757 Clouds 6 1014 81 10000 5.7 210 07:33 15.01.2020
758 Clouds 7 1014 87 10000 5.1 190 06:52 15.01.2020
759 Clouds 7 1014 70 10000 4.6 180 06:28 15.01.2020
760 Clouds 8 1014 81 10000 5.1 190 04:56 15.01.2020
761 Clouds 8 1014 81 10000 4.1 210 03:20 15.01.2020
762 Drizzle 9 1014 87 10000 4.6 210 01:48 15.01.2020
763 Clouds 8 1014 75 10000 6.7 200 01:21 15.01.2020
764 Clouds 9 1013 70 10000 8.7 220 00:37 15.01.2020
765 Clouds 9 1014 70 10000 6.7 210 00:19 15.01.2020
766 Clouds 9 1014 70 10000 5.7 210 23:46 14.01.2020
767 Clouds 9 1013 70 10000 8.7 210 23:27 14.01.2020
768 Clouds 9 1014 70 10000 5.7 200 22:57 14.01.2020
769 Clouds 9 1013 70 10000 8.2 230 22:39 14.01.2020
770 Clouds 9 1013 66 10000 7.2 210 22:18 14.01.2020
771 Clouds 9 1013 66 10000 7.2 210 21:57 14.01.2020
772 Clouds 9 1012 70 10000 8.2 220 21:38 14.01.2020
773 Clouds 9 1013 66 10000 6.7 200 21:19 14.01.2020
774 Clouds 9 1013 66 10000 7.7 210 20:54 14.01.2020
775 Clouds 9 1012 70 10000 7.7 220 20:36 14.01.2020
776 Clouds 8 1013 76 10000 5.1 210 20:18 14.01.2020
777 Clouds 8 1013 76 10000 5.1 210 19:54 14.01.2020
778 Clouds 8 1012 81 10000 8.2 210 19:36 14.01.2020
779 Clouds 8 1012 81 10000 7.7 210 19:18 14.01.2020
780 Clouds 8 1013 81 10000 7.7 200 18:40 14.01.2020
781 Drizzle 8 1013 81 7000 6.2 210 18:20 14.01.2020
782 Drizzle 8 1013 81 7000 6.2 210 17:56 14.01.2020
783 Rain 8 1011 65 10000 8.7 220 17:36 14.01.2020
784 Clouds 8 1012 61 10000 7.7 210 17:18 14.01.2020
785 Clouds 8 1012 57 10000 8.2 210 16:42 14.01.2020
786 Clouds 8 1012 65 10000 7.7 200 16:22 14.01.2020
787 Clouds 8 1012 61 10000 6.7 200 15:56 14.01.2020
788 Clouds 9 1011 57 10000 8.7 220 15:38 14.01.2020
789 Clouds 9 1011 61 10000 7.2 200 15:19 14.01.2020
790 Clouds 8 1012 57 10000 7.2 200 14:44 14.01.2020
791 Clouds 8 1011 65 10000 10.3 210 14:21 14.01.2020
792 Clouds 8 1011 61 10000 7.2 200 13:57 14.01.2020
793 Clouds 8 1011 65 10000 7.7 220 13:38 14.01.2020
794 Clouds 8 1011 61 10000 8.2 210 13:18 14.01.2020
795 Clouds 8 1011 61 10000 8.7 210 12:42 14.01.2020
796 Clouds 7 1012 65 10000 7.7 210 12:22 14.01.2020
797 Clouds 7 1012 70 10000 7.7 200 11:56 14.01.2020
798 Clouds 7 1012 70 10000 7.7 200 11:36 14.01.2020
799 Clouds 7 1012 70 10000 7.7 200 11:18 14.01.2020
800 Clouds 7 1011 70 10000 7.2 190 10:41 14.01.2020
801 Clouds 7 1011 75 10000 6.2 200 10:20 14.01.2020
802 Clouds 6 1011 75 10000 6.2 210 09:59 14.01.2020
803 Clouds 6 1011 75 10000 6.2 210 09:40 14.01.2020
804 Clouds 6 1011 75 10000 6.7 200 09:21 14.01.2020
805 Clouds 6 1010 80 10000 9.3 210 08:57 14.01.2020
806 Clouds 6 1010 80 10000 9.3 210 08:39 14.01.2020
807 Clouds 6 1010 75 10000 7.7 200 08:20 14.01.2020
808 Clouds 6 1010 81 10000 4.1 160 07:38 14.01.2020
809 Clouds 6 1010 75 10000 5.7 190 06:59 14.01.2020
810 Clouds 6 1010 75 10000 5.7 190 06:59 14.01.2020
811 Clouds 6 1010 75 10000 5.7 190 06:40 14.01.2020
812 Rain 6 1010 81 10000 5.7 190 05:56 14.01.2020
813 Rain 6 1011 87 10000 6.7 190 04:24 14.01.2020
814 Clouds 6 1011 93 10000 5.1 180 03:45 14.01.2020
815 Clouds 6 1011 87 10000 3.6 180 02:30 14.01.2020
816 Clouds 6 1012 93 10000 4.1 200 01:19 14.01.2020
817 Clouds 6 1012 93 10000 5.7 180 00:47 14.01.2020
818 Clouds 6 1012 93 10000 4.6 190 00:21 14.01.2020
819 Clouds 6 1012 93 10000 4.6 190 00:21 14.01.2020
820 Clouds 6 1013 93 10000 4.6 180 23:42 13.01.2020
821 Clouds 6 1013 93 10000 5.7 180 23:19 13.01.2020
822 Drizzle 6 1014 100 2500 4.6 180 22:57 13.01.2020
823 Drizzle 6 1014 100 2500 4.6 180 22:39 13.01.2020
824 Rain 6 1013 93 10000 4.1 190 22:19 13.01.2020
825 Rain 6 1014 93 10000 3.1 180 21:55 13.01.2020
826 Rain 6 1013 93 10000 4.1 180 21:36 13.01.2020
827 Rain 5 1014 93 10000 4.16 162 21:18 13.01.2020
828 Clouds 6 1014 100 10000 2.1 170 20:55 13.01.2020
829 Clouds 6 1014 93 7000 4.1 170 20:37 13.01.2020
830 Clouds 6 1014 93 7000 4.1 170 20:37 13.01.2020
831 Rain 6 1015 100 10000 2.6 180 20:19 13.01.2020
832 Rain 6 1015 100 10000 2.6 180 20:19 13.01.2020
833 Mist 6 1015 93 4000 5.1 180 19:41 13.01.2020
834 Clouds 6 1015 100 10000 2.1 130 19:21 13.01.2020
835 Drizzle 6 1015 100 4000 5.1 170 18:58 13.01.2020
836 Rain 6 1016 100 10000 6.2 150 18:38 13.01.2020
837 Drizzle 6 1016 100 10000 2.1 150 18:19 13.01.2020
838 Drizzle 6 1016 100 10000 2.1 150 18:19 13.01.2020
839 Drizzle 6 1016 100 10000 2.1 150 18:19 13.01.2020
840 Rain 6 1016 100 10000 2.6 150 17:58 13.01.2020
841 Clouds 6 1016 100 6000 5.7 170 17:39 13.01.2020
842 Rain 6 1016 100 10000 2.6 160 17:21 13.01.2020
843 Drizzle 6 1017 100 8000 4.1 170 16:55 13.01.2020
844 Drizzle 6 1016 93 6000 5.1 200 16:36 13.01.2020
845 Drizzle 6 1016 93 6000 5.1 200 16:18 13.01.2020
846 Clouds 6 1018 91 0 0.45 266 15:42 13.01.2020
847 Clouds 6 1015 75 0 1.34 0 15:22 13.01.2020
848 Clouds 6 1015 74 0 0.89 0 14:56 13.01.2020
849 Clouds 6 1016 75 0 2.83 187 14:36 13.01.2020
850 Clouds 6 1016 74 0 0.45 0 14:18 13.01.2020
851 Clouds 6 1017 78 0 0.45 0 13:40 13.01.2020
852 Clouds 6 1017 78 0 0.45 0 13:40 13.01.2020
853 Clouds 6 1017 80 0 3.59 213 13:22 13.01.2020
854 Clouds 6 1018 78 0 1.79 0 12:58 13.01.2020
855 Clouds 6 1021 93 8000 4.6 210 12:40 13.01.2020
856 Clouds 5 1021 93 8000 4.6 210 12:21 13.01.2020
857 Clouds 5 1021 93 8000 4.6 210 11:56 13.01.2020
858 Mist 5 1020 93 1200 3.6 190 11:36 13.01.2020
859 Mist 5 1020 100 2400 4.1 180 11:18 13.01.2020
860 Drizzle 5 1021 100 50 3.6 170 10:55 13.01.2020
861 Mist 5 1021 100 2400 2.6 180 10:36 13.01.2020
862 Mist 5 1021 100 2400 2.6 180 10:18 13.01.2020
863 Drizzle 5 1021 100 50 3.6 180 09:40 13.01.2020
864 Fog 5 1021 100 400 3.6 180 09:22 13.01.2020
865 Fog 5 1021 100 800 3.1 180 08:44 13.01.2020
866 Mist 5 1021 100 1000 3.1 190 08:21 13.01.2020
867 Fog 5 1021 100 600 4.1 200 07:59 13.01.2020
868 Fog 5 1021 100 600 4.1 200 07:40 13.01.2020
869 Fog 5 1022 100 800 3.6 200 07:18 13.01.2020
870 Mist 5 1022 100 3600 3.1 210 06:37 13.01.2020
871 Drizzle 5 1022 93 3000 4.6 230 05:36 13.01.2020
872 Clouds 5 1023 100 10000 3.1 180 04:25 13.01.2020
873 Rain 5 1023 93 8000 3.6 220 03:34 13.01.2020
874 Clouds 5 1024 100 10000 2.6 210 02:49 13.01.2020
875 Clouds 5 1024 100 10000 4.1 190 02:29 13.01.2020
876 Clouds 5 1024 100 10000 4.1 190 02:29 13.01.2020
877 Clouds 5 1024 100 10000 4.6 200 01:33 13.01.2020
878 Clouds 5 1024 100 10000 5.1 210 00:44 13.01.2020
879 Clouds 5 1024 100 10000 5.7 200 00:25 13.01.2020
880 Fog 5 1025 100 500 5.1 210 23:57 12.01.2020
881 Clouds 5 1023 93 250 6.2 230 23:38 12.01.2020
882 Clouds 5 1024 100 10000 4.1 210 23:20 12.01.2020
883 Mist 5 1025 93 2500 4.1 220 22:43 12.01.2020
884 Mist 5 1025 100 8000 5.1 220 22:24 12.01.2020
885 Mist 5 1024 100 5000 6.2 220 21:59 12.01.2020
886 Mist 5 1024 100 5000 6.2 220 21:40 12.01.2020
887 Mist 5 1024 100 8000 5.7 220 21:20 12.01.2020
888 Mist 4 1024 100 6000 6.2 210 20:59 12.01.2020
889 Clouds 4 1024 100 10000 4.1 240 20:39 12.01.2020
890 Clouds 5 1024 100 10000 6.2 210 20:21 12.01.2020
891 Drizzle 4 1025 100 2500 4.1 210 19:57 12.01.2020
892 Clouds 4 1024 100 10000 3.6 230 19:38 12.01.2020
893 Clouds 4 1024 100 10000 5.1 210 19:19 12.01.2020
894 Clouds 4 1024 100 10000 5.1 210 19:19 12.01.2020
895 Clouds 4 1024 100 10000 3.6 210 18:58 12.01.2020
896 Clouds 4 1025 100 6000 4.1 210 18:40 12.01.2020
897 Clouds 4 1024 93 10000 5.7 210 18:21 12.01.2020
898 Mist 4 1024 100 8000 5.7 210 17:59 12.01.2020
899 Mist 4 1024 100 8000 5.7 210 17:41 12.01.2020
900 Drizzle 4 1024 100 6000 6.2 210 17:19 12.01.2020
901 Clouds 4 1023 100 10000 6.2 210 16:56 12.01.2020
902 Clouds 4 1023 100 10000 6.2 210 16:56 12.01.2020
903 Rain 4 1023 100 8000 5.7 210 16:37 12.01.2020
904 Rain 4 1023 100 8000 5.7 210 16:19 12.01.2020
905 Drizzle 4 1023 93 10000 6.2 220 15:43 12.01.2020
906 Clouds 4 1023 93 10000 7.2 210 15:25 12.01.2020
907 Clouds 4 1024 86 10000 4.1 210 14:59 12.01.2020
908 Clouds 4 1024 86 10000 4.1 210 14:41 12.01.2020
909 Clouds 4 1023 86 10000 5.7 210 14:21 12.01.2020
910 Clouds 4 1023 86 10000 6.7 200 13:56 12.01.2020
911 Clouds 4 1023 86 10000 6.7 240 13:38 12.01.2020
912 Clouds 4 1024 86 10000 5.7 200 13:20 12.01.2020
913 Clouds 3 1024 86 10000 7.2 200 12:43 12.01.2020
914 Clouds 3 1024 86 10000 6.2 200 12:21 12.01.2020
915 Clouds 3 1025 82 10000 5.1 220 11:59 12.01.2020
916 Clouds 3 1026 82 10000 5.7 200 11:40 12.01.2020
917 Clouds 3 1025 93 10000 6.2 210 11:21 12.01.2020
918 Clouds 3 1025 90 10000 5.7 220 10:56 12.01.2020
919 Clouds 3 1025 90 10000 5.1 210 10:37 12.01.2020
920 Clouds 2 1025 90 10000 5.1 210 10:18 12.01.2020
921 Clouds 2 1026 90 10000 3.6 210 09:41 12.01.2020
922 Clouds 1 1025 90 10000 5.1 210 09:21 12.01.2020
923 Clouds 1 1025 90 10000 4.6 210 08:47 12.01.2020
924 Clouds 1 1025 90 10000 5.1 200 08:22 12.01.2020
925 Clouds 1 1025 96 10000 5.1 210 07:47 12.01.2020
926 Clouds 1 1026 96 10000 3.6 220 07:26 12.01.2020
927 Clouds 1 1026 96 10000 3.6 220 07:26 12.01.2020
928 Clouds 1 1026 96 9000 3.1 210 06:54 12.01.2020
929 Clouds 1 1026 96 10000 3.1 210 06:36 12.01.2020
930 Clouds 1 1026 96 10000 4.1 230 05:52 12.01.2020
931 Clouds 1 1026 96 10000 4.1 230 04:54 12.01.2020
932 Clouds 0 1027 96 10000 4.6 200 03:43 12.01.2020
933 Clouds 1 1027 96 10000 4.1 210 02:46 12.01.2020
934 Clouds 0 1027 96 10000 3.1 210 02:24 12.01.2020
935 Clouds 0 1026 97 10000 5.1 230 01:34 12.01.2020
936 Clouds 0 1028 96 10000 3.1 200 00:46 12.01.2020
937 Clouds 1 1028 96 10000 3.1 220 00:22 12.01.2020
938 Clouds 1 1028 96 10000 2.6 230 23:57 11.01.2020
939 Clouds 1 1029 86 10000 2.6 240 23:39 11.01.2020
940 Clouds 1 1029 86 10000 2.6 240 23:18 11.01.2020
941 Clouds 1 1029 86 10000 2.1 220 22:56 11.01.2020
942 Clouds 1 1028 86 10000 4.6 230 22:38 11.01.2020
943 Clear 1 1029 86 10000 3.1 220 22:19 11.01.2020
944 Clouds 2 1030 96 10000 3.1 200 21:44 11.01.2020
945 Clouds 2 1029 80 10000 3.1 210 21:19 11.01.2020
946 Clouds 2 1030 86 10000 3.1 200 20:59 11.01.2020
947 Clouds 2 1029 96 10000 3.1 230 20:39 11.01.2020
948 Clouds 3 1030 93 10000 3.1 210 20:19 11.01.2020
949 Clouds 3 1030 80 10000 2.6 200 19:57 11.01.2020
950 Clouds 3 1030 93 10000 3.6 230 19:38 11.01.2020
951 Clouds 3 1030 93 10000 3.6 230 19:38 11.01.2020
952 Clouds 3 1030 93 10000 3.6 200 19:20 11.01.2020
953 Clouds 3 1031 80 10000 3.1 190 18:55 11.01.2020
954 Clouds 3 1029 93 10000 5.7 230 18:37 11.01.2020
955 Clouds 4 1030 93 10000 2.6 220 18:19 11.01.2020
956 Clouds 4 1031 80 10000 3.1 210 17:57 11.01.2020
957 Clouds 4 1030 93 10000 4.1 230 17:39 11.01.2020
958 Clouds 4 1030 87 10000 5.1 200 17:18 11.01.2020
959 Clouds 4 1031 87 10000 5.7 220 16:44 11.01.2020
960 Clouds 5 1030 80 10000 4.1 210 16:25 11.01.2020
961 Clouds 5 1030 80 10000 5.1 200 15:57 11.01.2020
962 Clouds 5 1030 87 10000 3.6 230 15:39 11.01.2020
963 Clouds 5 1030 80 10000 4.1 210 15:20 11.01.2020
964 Clouds 5 1031 75 10000 4.1 200 14:46 11.01.2020
965 Clouds 5 1031 75 10000 5.7 210 14:25 11.01.2020
966 Clouds 5 1032 75 10000 4.1 200 13:58 11.01.2020
967 Clouds 5 1031 83 10000 3.1 230 13:38 11.01.2020
968 Clouds 5 1032 75 10000 4.1 210 13:20 11.01.2020
969 Clouds 5 1032 86 10000 3.1 200 12:56 11.01.2020
970 Clouds 5 1031 82 10000 4.1 230 12:37 11.01.2020
971 Clouds 5 1033 86 10000 3.6 210 12:19 11.01.2020
972 Clouds 4 1033 93 10000 2.6 200 11:45 11.01.2020
973 Clouds 4 1033 86 10000 4.1 210 11:24 11.01.2020
974 Clouds 4 1033 93 10000 2.1 240 10:50 11.01.2020
975 Clouds 4 1033 86 10000 2.6 190 10:30 11.01.2020
976 Clouds 3 1033 93 6000 1.5 180 09:55 11.01.2020
977 Clouds 3 1032 86 10000 3.1 210 09:37 11.01.2020
978 Clouds 3 1033 86 10000 1.5 240 09:18 11.01.2020
979 Clouds 3 1033 93 6000 2.1 260 08:41 11.01.2020
980 Clouds 3 1032 93 10000 0.57 278 08:20 11.01.2020
981 Clouds 2 1032 93 10000 1.5 210 07:43 11.01.2020
982 Clouds 2 1032 100 10000 0.2 271 07:24 11.01.2020
983 Clouds 2 1033 93 10000 1.5 210 06:45 11.01.2020
984 Clouds 2 1032 100 10000 1.5 260 05:33 11.01.2020
985 Clear 3 1032 93 10000 1.5 220 04:45 11.01.2020
986 Clouds 2 1032 93 10000 0.64 275 04:27 11.01.2020
987 Clear 3 1031 86 10000 2.1 340 02:48 11.01.2020
988 Clouds 3 1031 86 10000 3.1 330 01:57 11.01.2020
989 Clouds 3 1030 93 10000 2.6 290 01:38 11.01.2020
990 Clouds 3 1031 93 10000 2.6 250 01:18 11.01.2020
991 Clouds 3 1030 93 10000 2.1 240 00:32 11.01.2020
992 Clouds 3 1030 93 10000 3.1 320 23:59 10.01.2020
993 Clouds 3 1030 93 10000 3.1 320 23:40 10.01.2020
994 Clouds 4 1030 86 10000 1.72 289 23:21 10.01.2020
995 Rain 4 1030 86 10000 1.72 289 22:56 10.01.2020
996 Clouds 4 1028 93 10000 3.1 290 22:38 10.01.2020
997 Clouds 4 1029 75 10000 1.72 289 22:19 10.01.2020
998 Clouds 4 1029 75 10000 2.1 300 21:55 10.01.2020
999 Clouds 4 1028 93 10000 2.1 270 21:36 10.01.2020
1000 Clouds 4 1028 86 10000 1.72 289 21:18 10.01.2020
1001 Rain 5 1028 93 10000 1.72 289 20:42 10.01.2020
1002 Rain 5 1028 93 10000 1.5 240 20:24 10.01.2020
1003 Clouds 5 1027 86 10000 2.6 260 19:56 10.01.2020
1004 Clouds 5 1026 86 10000 1.5 270 19:37 10.01.2020
1005 Clouds 5 1026 86 10000 1.5 270 19:19 10.01.2020
1006 Clouds 5 1025 86 10000 2.1 230 18:42 10.01.2020
1007 Clouds 5 1025 93 10000 3.1 260 18:19 10.01.2020
1008 Clouds 5 1024 86 10000 3.1 250 17:57 10.01.2020
1009 Clouds 6 1024 86 10000 3.1 250 17:39 10.01.2020
1010 Clouds 6 1024 86 10000 3.1 250 17:20 10.01.2020
1011 Clouds 6 1024 87 10000 5.1 300 16:56 10.01.2020
1012 Clouds 6 1022 87 10000 4.1 260 16:38 10.01.2020
1013 Clouds 6 1022 87 10000 4.1 260 16:19 10.01.2020
1014 Clouds 6 1022 87 10000 5.1 260 15:56 10.01.2020
1015 Clouds 7 1021 87 10000 5.7 270 15:36 10.01.2020
1016 Clouds 7 1021 87 10000 5.7 270 15:18 10.01.2020
1017 Clouds 7 1020 81 10000 4.6 270 14:55 10.01.2020
1018 Clouds 7 1020 81 10000 5.7 260 14:37 10.01.2020
1019 Clouds 7 1020 81 10000 5.7 260 14:18 10.01.2020
1020 Clouds 7 1019 87 10000 4.6 270 13:44 10.01.2020
1021 Clouds 7 1018 100 10000 3.6 240 13:26 10.01.2020
1022 Rain 7 1018 100 8000 4.1 240 12:59 10.01.2020
1023 Rain 8 1017 100 3000 4.6 250 12:39 10.01.2020
1024 Rain 8 1017 100 10000 4.6 220 12:21 10.01.2020
1025 Rain 8 1018 100 10000 4.6 220 11:56 10.01.2020
1026 Rain 8 1017 93 10000 5.7 230 11:38 10.01.2020
1027 Rain 7 1017 100 10000 5.7 210 11:19 10.01.2020
1028 Clouds 7 1017 100 10000 7.2 210 10:58 10.01.2020
1029 Clouds 7 1017 100 10000 7.2 210 10:58 10.01.2020
1030 Rain 7 1016 93 3000 6.2 230 10:37 10.01.2020
1031 Rain 7 1016 100 10000 8.2 200 10:18 10.01.2020
1032 Rain 7 1016 100 10000 8.2 200 10:18 10.01.2020
1033 Clouds 7 1016 93 6000 4.6 200 09:45 10.01.2020
1034 Clouds 7 1015 100 10000 6.7 200 09:25 10.01.2020
1035 Rain 7 1015 100 3500 4.6 200 08:56 10.01.2020
1036 Clouds 7 1014 93 9000 6.2 220 08:37 10.01.2020
1037 Clouds 7 1015 93 10000 7.7 200 08:18 10.01.2020
1038 Clouds 7 1014 93 10000 6.2 200 07:41 10.01.2020
1039 Clouds 7 1014 93 10000 7.2 190 07:19 10.01.2020
1040 Rain 7 1014 100 10000 6.7 190 06:37 10.01.2020
1041 Rain 7 1014 100 10000 6.7 190 06:19 10.01.2020
1042 Rain 7 1014 100 10000 5.7 200 05:19 10.01.2020
1043 Rain 7 1013 100 10000 8.2 190 03:32 10.01.2020
1044 Rain 7 1013 100 10000 8.2 200 02:53 10.01.2020
1045 Rain 8 1012 93 10000 6.2 230 02:33 10.01.2020
1046 Rain 8 1012 100 5000 5.1 220 01:33 10.01.2020
1047 Clouds 8 1013 100 10000 6.2 200 00:53 10.01.2020
1048 Rain 8 1013 100 10000 6.2 200 00:35 10.01.2020
1049 Rain 8 1013 100 10000 6.7 200 23:57 09.01.2020
1050 Rain 8 1013 100 10000 6.2 200 23:37 09.01.2020
1051 Rain 8 1013 100 10000 6.2 200 23:19 09.01.2020
1052 Rain 8 1013 100 10000 6.2 190 22:56 09.01.2020
1053 Rain 8 1013 100 10000 5.1 210 22:37 09.01.2020
1054 Rain 8 1013 100 10000 5.1 210 22:18 09.01.2020
1055 Drizzle 8 1013 100 10000 2.6 200 21:56 09.01.2020
1056 Rain 8 1012 93 10000 6.2 220 21:37 09.01.2020
1057 Rain 8 1013 100 10000 3.1 200 21:18 09.01.2020
1058 Clouds 8 1013 100 10000 3.6 200 20:55 09.01.2020
1059 Rain 8 1013 100 10000 4.6 190 20:37 09.01.2020
1060 Rain 9 1014 100 10000 5.1 190 20:19 09.01.2020
1061 Drizzle 9 1013 87 10000 5.7 220 19:54 09.01.2020
1062 Rain 9 1014 100 10000 5.7 200 19:36 09.01.2020
1063 Rain 9 1014 100 10000 5.7 190 19:18 09.01.2020
1064 Rain 9 1014 100 10000 4.6 220 18:54 09.01.2020
1065 Rain 9 1014 100 10000 4.6 190 18:36 09.01.2020
1066 Clouds 9 1014 100 10000 5.1 190 18:18 09.01.2020
1067 Rain 9 1014 100 10000 5.1 190 17:40 09.01.2020
1068 Rain 9 1014 100 10000 5.7 180 17:18 09.01.2020
1069 Clouds 10 1014 100 10000 5.1 180 16:47 09.01.2020
1070 Rain 10 1014 100 10000 5.7 180 16:22 09.01.2020
1071 Clouds 10 1014 100 10000 6.2 220 15:56 09.01.2020
1072 Drizzle 10 1015 93 2200 4.1 190 15:38 09.01.2020
1073 Clouds 10 1015 100 10000 5.7 200 15:18 09.01.2020
1074 Rain 10 1015 100 10000 6.2 200 14:41 09.01.2020
1075 Rain 10 1015 100 10000 7.2 200 14:21 09.01.2020
1076 Rain 10 1015 93 10000 6.7 230 13:57 09.01.2020
1077 Rain 10 1016 93 10000 5.7 200 13:39 09.01.2020
1078 Rain 10 1016 100 10000 6.7 210 13:20 09.01.2020
1079 Rain 10 1017 100 10000 5.7 200 12:58 09.01.2020
1080 Rain 10 1017 100 10000 7.2 210 12:38 09.01.2020
1081 Clouds 10 1017 100 10000 6.7 200 12:19 09.01.2020
1082 Clouds 10 1017 100 10000 7.2 230 11:55 09.01.2020
1083 Clouds 10 1018 100 6000 6.2 200 11:37 09.01.2020
1084 Clouds 10 1018 100 10000 7.2 200 11:19 09.01.2020
1085 Clouds 10 1018 100 10000 7.2 200 10:42 09.01.2020
1086 Clouds 10 1018 100 10000 6.2 210 10:22 09.01.2020
1087 Clouds 10 1018 100 8000 6.7 220 09:55 09.01.2020
1088 Drizzle 10 1019 100 2500 5.1 200 09:37 09.01.2020
1089 Rain 10 1018 100 10000 6.2 210 09:18 09.01.2020
1090 Drizzle 10 1018 100 8000 7.2 220 08:54 09.01.2020
1091 Drizzle 9 1019 100 3000 5.7 200 08:36 09.01.2020
1092 Rain 9 1018 100 9000 5.7 200 08:18 09.01.2020
1093 Clouds 9 1019 100 10000 4.6 200 07:42 09.01.2020
1094 Drizzle 9 1019 100 10000 7.2 210 07:23 09.01.2020
1095 Mist 9 1020 100 2400 5.7 200 06:38 09.01.2020
1096 Rain 9 1020 100 6000 5.1 200 06:19 09.01.2020
1097 Drizzle 9 1020 100 6000 4.1 190 05:44 09.01.2020
1098 Fog 9 1021 100 150 4.1 180 04:42 09.01.2020
1099 Rain 9 1022 100 200 3.6 180 03:30 09.01.2020
1100 Rain 9 1022 100 200 3.6 180 03:30 09.01.2020
1101 Drizzle 9 1022 100 10000 6.2 220 02:52 09.01.2020
1102 Drizzle 9 1023 100 10000 5.7 220 02:24 09.01.2020
1103 Drizzle 9 1024 100 150 3.6 200 01:38 09.01.2020
1104 Rain 9 1024 100 3200 3.1 190 00:42 09.01.2020
1105 Rain 9 1024 100 3200 3.1 190 00:42 09.01.2020
1106 Rain 9 1024 100 1600 3.1 190 00:21 09.01.2020
1107 Fog 8 1024 100 100 3.6 190 23:42 08.01.2020
1108 Rain 9 1024 100 800 2.1 200 23:24 08.01.2020
1109 Fog 9 1025 100 100 2.6 180 22:59 08.01.2020
1110 Rain 9 1024 100 800 3.6 220 22:39 08.01.2020
1111 Mist 9 1025 100 1400 4.1 210 22:20 08.01.2020
1112 Mist 9 1025 100 1400 4.1 210 22:20 08.01.2020
1113 Drizzle 9 1026 100 5000 4.6 210 21:57 08.01.2020
1114 Rain 9 1025 100 200 3.6 190 21:38 08.01.2020
1115 Rain 8 1025 100 800 3.1 210 21:20 08.01.2020
1116 Drizzle 8 1025 100 200 3.1 200 20:58 08.01.2020
1117 Rain 9 1025 100 800 3.1 220 20:38 08.01.2020
1118 Fog 8 1025 100 600 3.1 220 20:20 08.01.2020
1119 Fog 8 1025 100 600 3.1 210 19:56 08.01.2020
1120 Fog 8 1025 100 600 3.1 210 19:37 08.01.2020
1121 Fog 8 1026 100 400 3.1 220 19:19 08.01.2020
1122 Clouds 8 1025 100 5000 5.1 260 18:55 08.01.2020
1123 Fog 8 1026 100 400 2.6 230 18:37 08.01.2020
1124 Fog 8 1026 100 600 3.1 210 18:18 08.01.2020
1125 Fog 8 1025 100 400 3.1 220 17:48 08.01.2020
1126 Fog 8 1025 100 400 3.1 230 17:24 08.01.2020
1127 Clouds 8 1025 100 7000 4.6 240 16:58 08.01.2020
1128 Drizzle 8 1026 100 100 3.6 200 16:39 08.01.2020
1129 Fog 8 1025 100 400 4.1 200 16:19 08.01.2020
1130 Drizzle 8 1026 100 100 3.6 200 15:59 08.01.2020
1131 Drizzle 8 1026 100 100 4.1 200 15:40 08.01.2020
1132 Fog 8 1025 100 400 4.1 230 15:20 08.01.2020
1133 Mist 8 1025 100 4000 5.1 240 14:56 08.01.2020
1134 Drizzle 8 1026 100 500 4.1 200 14:38 08.01.2020
1135 Fog 7 1025 100 800 3.6 230 14:19 08.01.2020
1136 Mist 7 1026 100 1800 3.6 230 13:40 08.01.2020
1137 Rain 7 1026 100 6000 3.1 230 13:19 08.01.2020
1138 Mist 7 1026 100 3200 4.1 230 12:42 08.01.2020
1139 Mist 6 1026 100 3000 4.1 210 12:19 08.01.2020
1140 Clouds 6 1026 100 6000 3.1 250 11:55 08.01.2020
1141 Clouds 6 1026 100 6000 3.1 250 11:55 08.01.2020
1142 Rain 6 1027 100 1800 3.6 240 11:37 08.01.2020
1143 Clouds 6 1026 100 10000 3.6 220 11:19 08.01.2020
1144 Mist 6 1026 100 3000 4.1 220 10:55 08.01.2020
1145 Drizzle 5 1027 100 200 4.1 180 10:37 08.01.2020
1146 Rain 5 1026 100 4400 4.1 220 10:18 08.01.2020
1147 Rain 5 1026 100 1200 4.1 230 09:41 08.01.2020
1148 Mist 5 1026 100 2400 4.1 220 09:19 08.01.2020
1149 Rain 5 1025 100 8000 4.6 210 08:57 08.01.2020
1150 Drizzle 5 1026 100 150 4.1 180 08:37 08.01.2020
1151 Mist 5 1025 100 6000 4.1 200 08:19 08.01.2020
1152 Rain 4 1026 100 2200 3.6 220 07:49 08.01.2020
1153 Drizzle 4 1026 100 200 4.1 170 07:30 08.01.2020
1154 Rain 4 1025 100 1800 4.6 210 06:48 08.01.2020
1155 Mist 4 1025 100 2500 3.1 220 06:24 08.01.2020
1156 Clouds 4 1025 100 10000 4.6 250 05:53 08.01.2020
1157 Mist 4 1025 100 2200 2.6 200 04:57 08.01.2020
1158 Mist 3 1026 100 1600 3.6 200 04:26 08.01.2020
1159 Fog 3 1027 100 200 3.1 170 02:45 08.01.2020
1160 Fog 3 1027 100 200 3.1 170 02:45 08.01.2020
1161 Clouds 3 1026 100 10000 3.6 230 02:23 08.01.2020
1162 Clouds 3 1026 100 10000 3.1 210 01:50 08.01.2020
1163 Clouds 3 1026 93 10000 2.1 240 01:25 08.01.2020
1164 Clouds 3 1028 93 6000 2.6 200 00:40 08.01.2020
1165 Clouds 3 1028 100 10000 3.1 220 00:20 08.01.2020
1166 Clouds 3 1028 93 8000 3.1 180 23:44 07.01.2020
1167 Clouds 3 1028 93 10000 3.6 220 23:20 07.01.2020
1168 Clouds 3 1028 100 8000 3.1 210 22:40 07.01.2020
1169 Clouds 3 1028 100 10000 5.7 220 22:20 07.01.2020
1170 Clear 3 1027 100 10000 3.6 220 21:57 07.01.2020
1171 Clouds 4 1028 100 10000 4.1 210 21:39 07.01.2020
1172 Clouds 4 1028 100 10000 4.6 210 21:21 07.01.2020
1173 Clouds 4 1028 100 10000 4.1 230 20:57 07.01.2020
1174 Mist 4 1029 100 3500 3.1 210 20:38 07.01.2020
1175 Clouds 4 1028 100 10000 4.1 200 20:20 07.01.2020
1176 Clouds 4 1028 100 10000 4.1 200 19:55 07.01.2020
1177 Clouds 4 1028 100 10000 4.1 200 19:36 07.01.2020
1178 Clouds 4 1028 100 10000 3.6 190 19:18 07.01.2020
1179 Clouds 4 1030 93 10000 2.6 190 18:55 07.01.2020
1180 Clouds 4 1029 93 10000 3.6 200 18:37 07.01.2020
1181 Clouds 5 1028 100 10000 4.1 200 18:18 07.01.2020
1182 Clouds 5 1028 100 10000 4.1 200 18:18 07.01.2020
1183 Clouds 5 1028 100 10000 3.1 180 17:41 07.01.2020
1184 Clouds 5 1028 100 10000 3.6 200 17:22 07.01.2020
1185 Clouds 5 1028 93 10000 3.1 220 16:57 07.01.2020
1186 Clouds 5 1028 93 10000 3.1 190 16:38 07.01.2020
1187 Clouds 6 1028 100 10000 3.6 200 16:19 07.01.2020
1188 Clouds 6 1029 87 10000 3.1 220 15:59 07.01.2020
1189 Clouds 6 1029 87 10000 3.1 220 15:41 07.01.2020
1190 Clouds 6 1028 100 10000 3.1 0 15:23 07.01.2020
1191 Clouds 6 1028 100 10000 4.1 260 14:56 07.01.2020
1192 Clouds 6 1029 87 10000 4.1 240 14:37 07.01.2020
1193 Clouds 6 1028 100 10000 4.1 210 14:19 07.01.2020
1194 Clouds 6 1028 100 10000 3.6 220 13:40 07.01.2020
1195 Clouds 6 1028 100 10000 3.6 230 13:19 07.01.2020
1196 Clouds 6 1028 100 10000 6.2 260 12:54 07.01.2020
1197 Clouds 6 1029 100 10000 4.6 230 12:36 07.01.2020
1198 Clouds 5 1029 100 10000 5.1 240 12:18 07.01.2020
1199 Clouds 5 1028 100 10000 4.6 220 11:41 07.01.2020
1200 Clouds 5 1028 100 10000 5.1 220 11:21 07.01.2020
1201 Mist 5 1029 93 2500 3.1 200 10:43 07.01.2020
1202 Mist 5 1029 93 2500 3.1 200 10:43 07.01.2020
1203 Mist 5 1028 100 4000 3.1 240 10:24 07.01.2020
1204 Mist 4 1028 100 3000 2.1 200 09:59 07.01.2020
1205 Mist 4 1029 100 5000 3.6 240 09:38 07.01.2020
1206 Mist 4 1027 100 9000 3.1 240 09:20 07.01.2020
1207 Clouds 4 1027 100 10000 3.6 220 08:47 07.01.2020
1208 Mist 4 1028 100 2500 3.1 250 08:28 07.01.2020
1209 Mist 4 1027 100 3000 2.1 260 07:55 07.01.2020
1210 Mist 4 1026 100 2400 3.6 220 07:35 07.01.2020
1211 Fog 4 1024 100 300 5.7 270 06:54 07.01.2020
1212 Fog 3 1025 100 600 3.6 230 06:35 07.01.2020
1213 Fog 3 1025 100 700 4.6 270 05:59 07.01.2020
1214 Mist 3 1025 100 1600 4.1 230 05:40 07.01.2020
1215 Mist 2 1024 100 5000 3.1 230 03:45 07.01.2020
1216 Rain 2 1024 100 4000 3.1 230 02:47 07.01.2020
1217 Rain 2 1024 100 3300 4.6 250 01:59 07.01.2020
1218 Rain 2 1024 100 3600 4.6 250 01:36 07.01.2020
1219 Clouds 1 1022 95 6000 7.2 270 00:57 07.01.2020
1220 Mist 1 1023 95 1400 4.6 230 00:21 07.01.2020
1221 Clouds 1 1021 95 10000 4.6 230 23:57 06.01.2020
1222 Mist 1 1023 95 1600 5.7 230 23:37 06.01.2020
1223 Mist 0 1022 93 1200 4.1 210 23:19 06.01.2020
1224 Mist 0 1023 93 1400 3.6 200 22:44 06.01.2020
1225 Mist 0 1023 93 1400 3.6 200 22:44 06.01.2020
1226 Mist 0 1023 93 1000 3.6 210 22:24 06.01.2020
1227 Mist 0 1024 93 4000 2.1 240 21:58 06.01.2020
1228 Fog 0 1024 93 100 3.6 210 21:39 06.01.2020
1229 Mist 0 1024 93 1000 4.1 210 21:20 06.01.2020
1230 Fog 0 1024 93 800 2.1 230 20:57 06.01.2020
1231 Fog 0 1024 93 800 2.1 230 20:39 06.01.2020
1232 Mist 0 1024 91 1400 3.6 240 20:20 06.01.2020
1233 Fog 0 1023 100 200 4.6 150 19:57 06.01.2020
1234 Mist 0 1024 91 2600 4.1 210 19:39 06.01.2020
1235 Mist 0 1024 91 3200 4.1 230 19:20 06.01.2020
1236 Mist 0 1024 91 5000 3.1 210 18:48 06.01.2020
1237 Fog 0 1023 100 200 4.6 140 18:25 06.01.2020
1238 Fog 0 1024 91 100 4.1 170 17:59 06.01.2020
1239 Mist 0 1023 91 1800 2.1 220 17:39 06.01.2020
1240 Mist 0 1023 91 1800 2.1 220 17:39 06.01.2020
1241 Fog 0 1024 86 400 1.5 140 17:19 06.01.2020
1242 Fog 0 1023 86 200 5.7 140 16:55 06.01.2020
1243 Mist 1 1023 86 2000 4.1 210 16:36 06.01.2020
1244 Clear 1 1024 100 10000 2.1 220 16:18 06.01.2020
1245 Clear 1 1024 100 10000 2.1 220 16:18 06.01.2020
1246 Clouds 1 1024 100 10000 2.6 220 15:42 06.01.2020
1247 Mist 2 1025 100 1600 2.15 157 15:21 06.01.2020
1248 Fog 2 1025 100 300 2.6 160 14:59 06.01.2020
1249 Mist 2 1025 100 1200 1.5 270 14:41 06.01.2020
1250 Mist 2 1025 100 1200 2.1 280 14:22 06.01.2020
1251 Mist 2 1025 100 1200 2.1 280 14:21 06.01.2020
1252 Fog 2 1026 100 100 2.1 170 13:58 06.01.2020
1253 Fog 2 1026 100 100 2.1 170 13:38 06.01.2020
1254 Fog 2 1026 100 600 1.5 260 13:20 06.01.2020
1255 Fog 2 1025 79 400 4.1 150 12:55 06.01.2020
1256 Fog 2 1027 100 800 2.5 154 12:37 06.01.2020
1257 Fog 2 1027 100 800 2.5 154 12:37 06.01.2020
1258 Fog 1 1027 100 600 2.5 154 12:18 06.01.2020
1259 Fog 1 1027 100 200 2.5 154 11:41 06.01.2020
1260 Fog 1 1027 100 400 5.1 140 11:23 06.01.2020
1261 Fog 0 1028 100 200 3.1 170 10:59 06.01.2020
1262 Clouds 0 1028 100 8000 2.1 160 10:40 06.01.2020
1263 Fog 0 1028 90 0 1.5 80 10:20 06.01.2020
1264 Fog 0 1028 90 0 1.5 80 10:20 06.01.2020
1265 Fog -1 1028 90 8000 1.5 100 09:39 06.01.2020
1266 Fog -1 1028 90 0 2.6 70 09:21 06.01.2020
1267 Fog -1 1028 100 10000 3.6 140 08:52 06.01.2020
1268 Fog -1 1029 90 200 2.1 70 08:34 06.01.2020
1269 Clouds -1 1029 93 10000 2.1 60 07:57 06.01.2020
1270 Clouds -1 1029 86 10000 1.5 80 07:38 06.01.2020
1271 Clouds -1 1029 93 10000 1.5 60 06:51 06.01.2020
1272 Clouds -1 1029 93 10000 1.5 60 06:32 06.01.2020
1273 Clouds 0 1029 93 10000 1.5 50 05:48 06.01.2020
1274 Clouds 0 1030 93 10000 1 70 04:58 06.01.2020
1275 Clouds 1 1030 93 10000 1 0 04:22 06.01.2020
1276 Clouds 1 1031 93 10000 2.1 350 03:30 06.01.2020
1277 Clouds 2 1031 69 10000 0.82 53 02:27 06.01.2020
1278 Clouds 2 1031 100 10000 0.5 0 01:53 06.01.2020
1279 Clear 2 1031 93 10000 1.5 240 01:30 06.01.2020
1280 Clouds 2 1032 80 10000 1.5 210 00:45 06.01.2020
1281 Clouds 2 1032 86 10000 0.86 52 00:26 06.01.2020
1282 Clouds 3 1032 86 10000 1 230 23:57 05.01.2020
1283 Clouds 3 1033 80 10000 0.5 0 23:38 05.01.2020
1284 Clouds 3 1033 94 10000 0.72 57 23:19 05.01.2020
1285 Clouds 3 1033 86 10000 2.1 240 22:40 05.01.2020
1286 Clouds 3 1033 94 10000 2.6 250 22:20 05.01.2020
1287 Clouds 3 1033 94 10000 2.6 250 22:20 05.01.2020
1288 Clouds 3 1032 86 10000 1.5 190 21:57 05.01.2020
1289 Clouds 3 1033 80 10000 1.5 180 21:39 05.01.2020
1290 Clouds 3 1033 80 10000 1.5 240 21:20 05.01.2020
1291 Clouds 4 1033 86 10000 2.1 220 20:56 05.01.2020
1292 Clouds 4 1034 86 10000 1 0 20:38 05.01.2020
1293 Clouds 4 1034 93 10000 1.5 230 20:19 05.01.2020
1294 Clouds 4 1034 93 8000 1 0 19:58 05.01.2020
1295 Clouds 4 1034 93 8000 1 0 19:39 05.01.2020
1296 Clouds 4 1034 93 10000 2.1 210 19:20 05.01.2020
1297 Clouds 4 1034 93 10000 2.1 230 18:56 05.01.2020
1298 Clouds 4 1034 93 9000 2.1 230 18:37 05.01.2020
1299 Clouds 4 1034 86 10000 2.1 210 18:19 05.01.2020
1300 Clouds 4 1034 93 9000 2.1 200 17:58 05.01.2020
1301 Clouds 4 1034 86 10000 2.1 220 17:39 05.01.2020
1302 Clouds 5 1034 86 10000 2.1 190 17:20 05.01.2020
1303 Clouds 5 1034 93 10000 2.1 250 16:56 05.01.2020
1304 Clouds 5 1035 93 10000 1.5 190 16:38 05.01.2020
1305 Clouds 5 1034 80 10000 2.6 210 16:19 05.01.2020
1306 Clouds 5 1034 93 10000 2.1 210 15:39 05.01.2020
1307 Clouds 5 1034 93 10000 2.1 210 15:39 05.01.2020
1308 Clouds 5 1034 86 10000 2.6 200 15:20 05.01.2020
1309 Clouds 5 1034 93 10000 2.1 290 14:56 05.01.2020
1310 Clouds 5 1034 86 10000 2.6 200 14:38 05.01.2020
1311 Clouds 5 1034 93 10000 2.1 220 14:20 05.01.2020
1312 Clouds 5 1034 100 10000 2.1 260 13:56 05.01.2020
1313 Clouds 5 1035 75 10000 1 0 13:38 05.01.2020
1314 Clouds 5 1035 93 10000 0.77 246 13:19 05.01.2020
1315 Clouds 5 1034 100 10000 2.1 270 12:56 05.01.2020
1316 Clouds 5 1035 93 10000 0.77 246 12:37 05.01.2020
1317 Clouds 5 1035 100 10000 0.77 246 12:19 05.01.2020
1318 Clouds 4 1036 100 10000 1.5 250 11:44 05.01.2020
1319 Clouds 4 1035 100 10000 1.5 240 11:20 05.01.2020
1320 Clouds 4 1035 93 9000 2.1 290 11:00 05.01.2020
1321 Clouds 4 1035 93 7000 2.1 280 10:40 05.01.2020
1322 Mist 4 1035 100 9000 1.5 240 10:20 05.01.2020
1323 Mist 4 1035 100 4000 2.1 280 09:42 05.01.2020
1324 Clouds 3 1034 100 10000 2.6 260 09:22 05.01.2020
1325 Clouds 3 1034 100 10000 3.6 250 08:56 05.01.2020
1326 Clouds 3 1035 100 10000 0.26 226 08:38 05.01.2020
1327 Clouds 3 1035 100 10000 1.5 250 08:20 05.01.2020
1328 Clouds 4 1035 100 6000 2.6 290 07:39 05.01.2020
1329 Clouds 4 1035 93 10000 2.6 230 07:21 05.01.2020
1330 Clouds 4 1034 100 8000 3.6 270 06:54 05.01.2020
1331 Clouds 4 1035 100 6000 2.6 280 05:41 05.01.2020
1332 Mist 4 1034 100 5000 2.6 280 04:56 05.01.2020
1333 Clouds 4 1035 93 10000 1.5 250 04:19 05.01.2020
1334 Clouds 4 1035 93 10000 1.5 250 04:19 05.01.2020
1335 Clouds 4 1035 100 10000 3.1 240 03:38 05.01.2020
1336 Clouds 4 1035 93 10000 3.1 280 02:35 05.01.2020
1337 Clouds 4 1033 100 7000 4.1 280 01:52 05.01.2020
1338 Clouds 4 1034 93 10000 3.6 220 01:20 05.01.2020
1339 Clouds 4 1034 93 10000 3.6 270 00:57 05.01.2020
1340 Clouds 4 1034 93 10000 3.1 250 00:39 05.01.2020
1341 Clouds 4 1034 93 10000 3.1 220 00:20 05.01.2020
1342 Clouds 4 1034 93 10000 2.6 230 23:57 04.01.2020
1343 Clouds 4 1034 93 10000 2.6 230 23:38 04.01.2020
1344 Clouds 4 1034 93 10000 3.1 230 23:18 04.01.2020
1345 Clouds 4 1034 93 10000 2.6 260 22:39 04.01.2020
1346 Clouds 4 1033 100 10000 3.1 220 22:20 04.01.2020
1347 Clouds 4 1032 100 10000 5.1 270 21:56 04.01.2020
1348 Clouds 4 1033 93 10000 3.6 260 21:37 04.01.2020
1349 Clouds 4 1033 93 10000 2.6 220 21:19 04.01.2020
1350 Clouds 4 1033 93 10000 2.6 220 21:19 04.01.2020
1351 Clouds 4 1033 93 10000 2.6 220 21:19 04.01.2020
1352 Clouds 4 1031 93 10000 5.7 270 20:56 04.01.2020
1353 Clouds 4 1033 86 10000 3.1 260 20:37 04.01.2020
1354 Clouds 4 1032 93 10000 2.6 250 20:19 04.01.2020
1355 Clouds 4 1032 86 10000 4.1 260 19:42 04.01.2020
1356 Clouds 4 1032 86 10000 4.1 260 19:42 04.01.2020
1357 Clouds 4 1031 100 10000 5.7 260 19:24 04.01.2020
1358 Clouds 4 1031 100 10000 6.7 270 18:58 04.01.2020
1359 Clouds 4 1032 86 10000 4.6 260 18:39 04.01.2020
1360 Clouds 4 1031 93 10000 4.6 240 18:21 04.01.2020
1361 Clouds 4 1032 86 10000 4.1 260 17:58 04.01.2020
1362 Clouds 4 1032 93 10000 4.6 260 17:40 04.01.2020
1363 Clouds 4 1030 86 10000 5.7 240 17:22 04.01.2020
1364 Clouds 4 1029 100 10000 6.7 260 16:54 04.01.2020
1365 Clouds 4 1032 86 10000 5.7 260 16:36 04.01.2020
1366 Clouds 4 1030 86 10000 5.1 230 16:18 04.01.2020
1367 Clouds 4 1030 86 10000 4.6 230 15:42 04.01.2020
1368 Clouds 4 1030 86 10000 4.6 230 15:42 04.01.2020
1369 Clouds 4 1030 80 10000 5.1 240 15:20 04.01.2020
1370 Clouds 4 1030 80 10000 5.1 240 15:20 04.01.2020
1371 Clouds 4 1032 93 10000 7.2 270 14:58 04.01.2020
1372 Clouds 4 1031 86 10000 7.2 270 14:40 04.01.2020
1373 Clouds 4 1030 80 10000 4.1 240 14:20 04.01.2020
1374 Clouds 4 1031 86 10000 7.7 260 13:58 04.01.2020
1375 Clouds 4 1031 86 10000 6.7 260 13:37 04.01.2020
1376 Clouds 4 1030 86 10000 4.6 240 13:19 04.01.2020
1377 Clouds 4 1029 100 10000 6.2 270 12:56 04.01.2020
1378 Clouds 4 1032 86 10000 6.2 280 12:38 04.01.2020
1379 Clouds 4 1031 86 10000 4.1 240 12:18 04.01.2020
1380 Clouds 3 1029 100 10000 5.1 270 11:55 04.01.2020
1381 Clouds 3 1031 86 10000 6.7 260 11:36 04.01.2020
1382 Clouds 3 1030 93 10000 4.6 220 11:18 04.01.2020
1383 Clouds 3 1031 93 7000 6.2 260 10:40 04.01.2020
1384 Clouds 3 1030 93 10000 4.6 230 10:21 04.01.2020
1385 Clouds 2 1031 93 8000 4.6 260 09:44 04.01.2020
1386 Clouds 2 1029 93 10000 5.7 260 09:25 04.01.2020
1387 Clouds 2 1031 93 8000 2.1 230 08:49 04.01.2020
1388 Clouds 2 1031 93 8000 2.1 230 08:29 04.01.2020
1389 Clouds 2 1029 100 10000 5.7 260 07:57 04.01.2020
1390 Clouds 2 1030 93 10000 4.6 240 07:38 04.01.2020
1391 Clouds 2 1030 93 9000 3.1 270 06:44 04.01.2020
1392 Clouds 2 1030 100 8000 3.6 270 05:59 04.01.2020
1393 Clouds 2 1029 100 10000 1.5 190 04:52 04.01.2020
1394 Clouds 2 1029 100 10000 1.5 190 04:31 04.01.2020
1395 Clouds 3 1029 86 10000 1.5 300 03:30 04.01.2020
1396 Clouds 2 1028 100 10000 2.1 260 02:52 04.01.2020
1397 Clear 3 1028 87 10000 2.99 337 02:18 04.01.2020
1398 Clouds 3 1028 93 10000 4.1 340 01:51 04.01.2020
1399 Rain 4 1028 93 10000 4.1 340 01:30 04.01.2020
1400 Clouds 5 1028 86 10000 4.1 330 00:29 04.01.2020
1401 Clouds 5 1027 93 10000 4.6 340 23:59 03.01.2020
1402 Clouds 5 1027 86 10000 3.1 290 23:38 03.01.2020
1403 Clouds 6 1026 93 10000 4.1 310 23:20 03.01.2020
1404 Clouds 6 1026 100 10000 3.6 320 22:41 03.01.2020
1405 Rain 7 1025 100 10000 3.6 330 22:20 03.01.2020
1406 Clouds 7 1025 93 10000 4.6 300 21:58 03.01.2020
1407 Clouds 7 1024 100 10000 4.1 280 21:38 03.01.2020
1408 Rain 8 1023 100 6000 4.6 280 21:19 03.01.2020
1409 Rain 8 1024 93 3000 6.2 250 20:58 03.01.2020
1410 Rain 8 1023 100 10000 4.6 230 20:40 03.01.2020
1411 Rain 8 1023 100 10000 6.2 230 20:18 03.01.2020
1412 Clouds 8 1022 100 10000 5.1 230 19:55 03.01.2020
1413 Clouds 8 1022 100 10000 5.1 230 19:55 03.01.2020
1414 Clouds 8 1022 100 10000 5.1 230 19:37 03.01.2020
1415 Rain 8 1022 100 10000 5.7 220 19:18 03.01.2020
1416 Rain 7 1022 100 10000 6.7 220 18:43 03.01.2020
1417 Rain 7 1021 100 8000 8.7 250 18:24 03.01.2020
1418 Rain 7 1021 100 8000 8.7 250 17:55 03.01.2020
1419 Clouds 7 1022 100 7000 5.1 230 17:37 03.01.2020
1420 Rain 7 1021 100 10000 6.2 220 17:18 03.01.2020
1421 Clouds 7 1020 100 10000 7.7 220 16:42 03.01.2020
1422 Drizzle 7 1020 100 10000 7.2 250 16:23 03.01.2020
1423 Clouds 7 1020 100 10000 7.7 240 15:57 03.01.2020
1424 Clouds 7 1020 100 10000 6.7 220 15:38 03.01.2020
1425 Rain 7 1020 100 10000 6.7 220 15:18 03.01.2020
1426 Drizzle 7 1020 100 10000 5.7 220 14:38 03.01.2020
1427 Drizzle 7 1020 100 10000 5.7 220 14:38 03.01.2020
1428 Clouds 7 1020 100 10000 6.2 220 14:19 03.01.2020
1429 Drizzle 7 1021 100 3500 5.7 230 13:44 03.01.2020
1430 Drizzle 7 1020 100 10000 7.2 240 13:24 03.01.2020
1431 Drizzle 6 1021 100 3000 6.2 230 13:00 03.01.2020
1432 Rain 6 1020 100 10000 5.7 210 12:39 03.01.2020
1433 Rain 6 1020 100 10000 5.1 220 12:21 03.01.2020
1434 Rain 6 1021 100 10000 5.1 210 11:48 03.01.2020
1435 Drizzle 6 1021 100 2500 4.6 210 11:29 03.01.2020
1436 Drizzle 5 1021 93 2500 5.7 210 10:47 03.01.2020
1437 Clouds 5 1020 93 10000 5.7 230 10:28 03.01.2020
1438 Drizzle 5 1021 93 4000 5.7 210 09:59 03.01.2020
1439 Drizzle 5 1021 100 5000 4.1 200 09:41 03.01.2020
1440 Clouds 5 1020 93 10000 5.7 230 09:22 03.01.2020
1441 Clouds 5 1020 93 10000 6.2 230 08:57 03.01.2020
1442 Clouds 5 1021 100 10000 4.1 190 08:39 03.01.2020
1443 Clouds 5 1020 100 10000 7.7 210 08:20 03.01.2020
1444 Clouds 5 1020 100 10000 8.2 210 07:42 03.01.2020
1445 Clouds 5 1020 100 10000 7.2 210 07:19 03.01.2020
1446 Clouds 5 1020 100 10000 5.7 220 06:56 03.01.2020
1447 Clouds 5 1021 100 8000 5.1 200 06:37 03.01.2020
1448 Clouds 5 1021 93 6000 5.1 200 05:48 03.01.2020
1449 Mist 5 1022 100 5000 4.6 200 04:42 03.01.2020
1450 Drizzle 5 1022 93 2300 5.7 200 03:34 03.01.2020
1451 Fog 5 1023 100 750 4.1 200 02:47 03.01.2020
1452 Fog 5 1023 100 300 4.6 200 01:47 03.01.2020
1453 Drizzle 4 1023 100 9000 5.7 220 00:57 03.01.2020
1454 Fog 4 1024 100 300 5.1 190 00:33 03.01.2020
1455 Fog 4 1024 100 500 4.6 190 23:58 02.01.2020
1456 Mist 4 1023 100 6000 4.6 210 23:39 02.01.2020
1457 Mist 4 1023 100 6000 5.1 200 23:20 02.01.2020
1458 Rain 4 1024 100 300 5.1 190 22:58 02.01.2020
1459 Drizzle 4 1024 100 1800 3.6 190 22:39 02.01.2020
1460 Fog 3 1024 100 1200 4.1 210 22:19 02.01.2020
1461 Mist 3 1024 100 1400 3.1 210 21:55 02.01.2020
1462 Mist 3 1024 100 1400 3.1 210 21:37 02.01.2020
1463 Rain 3 1024 100 3200 1.5 210 21:18 02.01.2020
1464 Mist 3 1024 100 2000 3.1 160 20:56 02.01.2020
1465 Rain 3 1024 100 1000 2.1 210 20:36 02.01.2020
1466 Fog 3 1025 100 600 2.1 230 20:18 02.01.2020
1467 Mist 3 1024 100 2000 3.1 160 19:54 02.01.2020
1468 Fog 3 1025 100 100 3.1 170 19:36 02.01.2020
1469 Fog 3 1025 100 100 3.1 170 19:36 02.01.2020
1470 Fog 3 1025 100 800 1.5 210 19:18 02.01.2020
1471 Fog 2 1025 100 100 4.1 170 18:43 02.01.2020
1472 Fog 3 1024 100 800 5.1 150 18:24 02.01.2020
1473 Drizzle 2 1025 100 100 3.6 170 17:58 02.01.2020
1474 Mist 2 1025 100 1000 2.46 182 17:39 02.01.2020
1475 Fog 2 1025 100 800 2.19 154 17:21 02.01.2020
1476 Drizzle 2 1025 100 100 3.1 170 16:59 02.01.2020
1477 Fog 2 1025 100 600 2.19 154 16:41 02.01.2020
1478 Fog 2 1025 100 600 2.19 154 16:20 02.01.2020
1479 Fog 2 1025 100 100 3.1 170 15:58 02.01.2020
1480 Mist 2 1025 100 1600 2.19 154 15:40 02.01.2020
1481 Mist 2 1025 100 1200 2.19 154 15:22 02.01.2020
1482 Mist 2 1025 100 3000 2.19 154 14:57 02.01.2020
1483 Fog 2 1025 100 100 3.1 170 14:37 02.01.2020
1484 Mist 2 1026 100 1800 2.51 150 14:18 02.01.2020
1485 Mist 2 1026 100 1800 2.51 150 13:51 02.01.2020
1486 Fog 1 1026 86 100 3.1 170 13:32 02.01.2020
1487 Fog 1 1026 86 700 5.1 140 12:58 02.01.2020
1488 Mist 1 1027 86 1400 2.81 152 12:39 02.01.2020
1489 Fog 1 1027 86 600 2.81 152 12:20 02.01.2020
1490 Fog 1 1027 86 600 2.81 152 11:41 02.01.2020
1491 Mist 0 1028 100 800 2.07 149 11:20 02.01.2020
1492 Fog 0 1028 100 150 3.1 160 10:45 02.01.2020
1493 Fog 0 1027 100 800 4.6 140 10:27 02.01.2020
1494 Fog 0 1027 100 600 3.6 140 09:56 02.01.2020
1495 Fog 0 1028 100 1000 1.5 220 09:35 02.01.2020
1496 Mist -1 1027 100 1500 1.5 240 08:58 02.01.2020
1497 Fog -1 1028 100 600 2.1 220 08:39 02.01.2020
1498 Mist -1 1028 92 1000 2.1 230 08:19 02.01.2020
1499 Mist -1 1028 100 1600 2.1 240 07:47 02.01.2020
1500 Fog -1 1027 100 800 3.1 250 07:26 02.01.2020
1501 Mist -1 1028 100 2800 2.6 240 06:41 02.01.2020
1502 Mist -1 1028 100 5000 4.1 220 05:40 02.01.2020
1503 Mist -1 1028 100 3200 3.6 230 04:34 02.01.2020
1504 Fog -1 1029 100 200 3.1 190 03:29 02.01.2020
1505 Mist -1 1029 100 4000 1.5 200 02:21 02.01.2020
1506 Mist -1 1029 100 3600 1.5 119 01:49 02.01.2020
1507 Fog -1 1028 100 200 1 0 01:25 02.01.2020
1508 Mist -1 1029 100 3200 2.6 190 00:45 02.01.2020
1509 Mist -1 1030 100 3200 2.1 190 00:26 02.01.2020
1510 Mist -1 1030 100 3600 2.1 180 23:43 01.01.2020
1511 Fog -1 1029 100 300 2.1 270 23:23 01.01.2020
1512 Mist -1 1030 92 1000 1.67 114 22:39 01.01.2020
1513 Mist -1 1030 92 1000 1.67 114 22:39 01.01.2020
1514 Mist -1 1030 100 1600 1.67 114 22:20 01.01.2020
1515 Fog -1 1030 100 800 3.1 180 21:58 01.01.2020
1516 Fog -1 1030 100 1200 2.1 210 21:39 01.01.2020
1517 Fog -1 1030 100 800 2.1 190 21:20 01.01.2020
1518 Fog -1 1030 100 800 2.1 190 21:20 01.01.2020
1519 Mist -1 1030 100 1100 3.1 170 20:58 01.01.2020
1520 Fog 0 1030 100 600 1.5 220 20:38 01.01.2020
1521 Fog -1 1031 100 800 1.39 111 20:20 01.01.2020
1522 Fog -1 1031 100 800 1.39 111 20:20 01.01.2020
1523 Fog -1 1030 100 300 4.6 150 19:57 01.01.2020
1524 Fog 0 1030 100 400 1.5 230 19:38 01.01.2020
1525 Fog 0 1030 100 400 1.39 111 19:20 01.01.2020
1526 Fog 0 1030 100 500 5.7 160 18:57 01.01.2020
1527 Mist 0 1030 100 2000 3.1 140 18:38 01.01.2020
1528 Fog 0 1030 100 400 1.39 111 18:20 01.01.2020
1529 Mist 0 1030 100 1500 6.7 150 17:57 01.01.2020
1530 Fog 0 1030 96 750 2.6 150 17:39 01.01.2020
1531 Fog 1 1030 94 200 1.79 121 17:19 01.01.2020
1532 Mist 1 1030 94 3000 5.7 150 16:57 01.01.2020
1533 Fog 1 1030 94 400 1.5 240 16:38 01.01.2020
1534 Mist 1 1030 94 5000 1.5 240 16:19 01.01.2020
1535 Mist 1 1030 94 4000 6.2 150 15:56 01.01.2020
1536 Clouds 1 1030 94 10000 1.5 230 15:37 01.01.2020
1537 Clouds 1 1030 94 10000 1.5 250 15:19 01.01.2020
1538 Mist 1 1030 94 3000 6.7 140 14:55 01.01.2020
1539 Clouds 1 1031 94 10000 1.79 121 14:37 01.01.2020
1540 Clouds 1 1031 100 10000 1.5 30 14:19 01.01.2020
1541 Mist 1 1030 81 2000 7.7 140 13:55 01.01.2020
1542 Mist 1 1030 81 2000 7.7 140 13:55 01.01.2020
1543 Fog 1 1031 81 150 2.1 120 13:36 01.01.2020
1544 Mist 1 1031 78 9000 3.1 90 13:18 01.01.2020
1545 Mist 1 1032 78 5000 2.6 90 12:40 01.01.2020
1546 Mist 1 1032 78 1400 3.1 60 12:19 01.01.2020
1547 Fog 1 1031 78 500 9.3 140 11:57 01.01.2020
1548 Mist 1 1032 78 1000 3.6 60 11:39 01.01.2020
1549 Fog 1 1033 88 600 2.6 60 11:20 01.01.2020
1550 Fog 1 1031 88 200 8.7 140 10:55 01.01.2020
1551 Mist 0 1032 88 1600 3.1 60 10:37 01.01.2020
1552 Mist 0 1032 88 6000 2.6 80 10:18 01.01.2020
1553 Mist 0 1032 88 4400 2.6 80 09:40 01.01.2020
1554 Mist 0 1032 88 2600 3.6 60 09:20 01.01.2020
1555 Fog 0 1031 100 400 6.7 140 08:57 01.01.2020
1556 Fog 0 1031 100 400 6.7 140 08:57 01.01.2020
1557 Fog 0 1031 100 100 4.1 60 08:38 01.01.2020
1558 Clouds 0 1031 92 10000 2.1 30 08:19 01.01.2020
1559 Fog 0 1031 92 100 3.1 60 07:57 01.01.2020
1560 Fog 0 1031 92 100 3.6 60 07:39 01.01.2020
1561 Fog 0 1031 92 800 5.7 150 06:55 01.01.2020
1562 Fog 0 1031 100 200 3.1 50 06:36 01.01.2020
1563 Fog 1 1031 100 550 3.1 50 05:48 01.01.2020
1564 Mist 1 1032 100 2500 2.1 60 04:28 01.01.2020
1565 Clouds 1 1033 93 10000 3.1 60 03:39 01.01.2020
1566 Clear 1 1033 92 10000 2.6 50 03:21 01.01.2020
1567 Clear 1 1032 93 6000 2.6 60 02:42 01.01.2020
1568 Fog 1 1032 93 800 5.1 130 02:23 01.01.2020
1569 Clouds 1 1033 93 0 3.1 50 01:42 01.01.2020
1570 Mist 2 1032 91 4000 6.2 130 01:23 01.01.2020
1571 Clouds 1 1033 93 10000 3.1 90 00:45 01.01.2020
1572 Clear 2 1034 91 10000 2.6 80 00:26 01.01.2020
1573 Clouds 2 1033 93 10000 3.1 60 23:58 31.12.2019
1574 Clouds 2 1033 93 10000 2.6 90 23:38 31.12.2019
1575 Clear 2 1034 90 10000 3.6 80 23:18 31.12.2019
1576 Clouds 2 1033 90 10000 6.2 110 22:56 31.12.2019
1577 Clouds 2 1033 90 10000 3.1 90 22:37 31.12.2019
1578 Clouds 2 1033 86 10000 2.6 80 22:18 31.12.2019
1579 Clouds 2 1033 90 10000 3.1 60 21:43 31.12.2019
1580 Clouds 2 1033 100 10000 5.7 130 21:25 31.12.2019
1581 Clouds 2 1033 90 10000 4.1 130 20:57 31.12.2019
1582 Clouds 2 1034 86 10000 4.1 70 20:39 31.12.2019
1583 Clouds 2 1034 86 10000 5.7 60 20:21 31.12.2019
1584 Clouds 2 1033 78 10000 4.1 60 19:58 31.12.2019
1585 Clouds 2 1033 78 10000 4.1 50 19:40 31.12.2019
1586 Clouds 2 1034 80 10000 3.1 80 19:22 31.12.2019
1587 Clouds 2 1033 86 10000 2.6 90 18:57 31.12.2019
1588 Clouds 2 1033 78 10000 2.6 70 18:39 31.12.2019
1589 Clouds 2 1033 78 10000 3.6 60 18:19 31.12.2019
1590 Clouds 2 1033 86 10000 3.1 70 17:56 31.12.2019
1591 Clouds 2 1032 78 10000 4.1 50 17:37 31.12.2019
1592 Clouds 3 1033 64 10000 3.1 80 17:19 31.12.2019
1593 Clouds 3 1033 64 10000 3.1 80 17:19 31.12.2019
1594 Clouds 3 1032 86 10000 2.6 60 16:56 31.12.2019
1595 Clouds 3 1032 86 10000 4.6 40 16:37 31.12.2019
1596 Clouds 3 1033 64 10000 2.6 70 16:19 31.12.2019
1597 Clouds 3 1032 86 10000 2.6 60 15:56 31.12.2019
1598 Clouds 4 1032 74 10000 2.1 70 15:38 31.12.2019
1599 Clouds 4 1032 74 10000 2.1 70 15:20 31.12.2019
1600 Clouds 4 1032 86 10000 2.1 90 14:57 31.12.2019
1601 Clouds 4 1032 69 9000 3.1 60 14:38 31.12.2019
1602 Clouds 4 1032 69 9000 3.1 60 14:38 31.12.2019
1603 Clouds 4 1033 74 10000 3.6 70 14:19 31.12.2019
1604 Clouds 4 1032 86 10000 1.5 70 13:57 31.12.2019
1605 Clouds 4 1032 69 8000 3.6 50 13:39 31.12.2019
1606 Clouds 4 1033 80 10000 0.4 174 13:20 31.12.2019
1607 Clouds 4 1032 93 10000 2.1 60 12:56 31.12.2019
1608 Clouds 3 1033 80 10000 0.4 174 12:38 31.12.2019
1609 Clear 3 1033 86 10000 1.5 60 12:20 31.12.2019
1610 Clouds 3 1032 60 10000 1 0 11:56 31.12.2019
1611 Clouds 3 1033 80 8000 1 0 11:38 31.12.2019
1612 Clouds 0 1033 57 10000 0.87 6 11:20 31.12.2019
1613 Clouds 0 1032 55 10000 2.1 230 10:57 31.12.2019
1614 Clouds 0 1032 55 10000 2.1 230 10:57 31.12.2019
1615 Clouds -1 1032 92 7000 0.5 0 10:38 31.12.2019
1616 Clouds -1 1032 92 7000 0.5 0 10:38 31.12.2019
1617 Clouds -1 1033 86 10000 0.87 6 10:20 31.12.2019
1618 Clouds -1 1032 92 7000 3.1 40 09:58 31.12.2019
1619 Clouds -2 1032 92 6000 2.6 50 09:39 31.12.2019
1620 Clear -2 1032 92 10000 0.87 6 09:20 31.12.2019
1621 Clouds -2 1031 80 10000 2.1 240 08:57 31.12.2019
1622 Mist -2 1031 100 3500 2.6 80 08:37 31.12.2019
1623 Clear -2 1031 92 10000 1.5 140 08:19 31.12.2019
1624 Mist -2 1030 92 3500 2.6 250 07:43 31.12.2019
1625 Clear -2 1030 92 10000 2.1 310 07:20 31.12.2019
1626 Mist -2 1030 92 4000 2.1 210 06:50 31.12.2019
1627 Clouds -3 1031 92 10000 1 0 05:57 31.12.2019
1628 Clouds -2 1030 61 10000 2.6 260 04:28 31.12.2019
1629 Clouds -2 1031 74 10000 3.1 270 03:28 31.12.2019
1630 Clouds -2 1029 55 10000 4.1 280 02:55 31.12.2019
1631 Clear -2 1030 86 10000 1.5 290 02:19 31.12.2019
1632 Clear -2 1030 86 9000 3.1 260 01:48 31.12.2019
1633 Clear -2 1029 64 10000 3.6 270 01:27 31.12.2019
1634 Clear -2 1031 86 10000 2.6 260 00:46 31.12.2019
1635 Clear -2 1029 64 10000 4.6 260 00:22 31.12.2019
1636 Clear -2 1029 63 10000 4.6 260 23:57 30.12.2019
1637 Clear -2 1031 92 10000 0.5 0 23:38 30.12.2019
1638 Clear -2 1030 86 10000 1.5 260 23:20 30.12.2019
1639 Clear -2 1031 92 10000 0.5 0 22:58 30.12.2019
1640 Clear -2 1031 58 10000 2.6 230 22:39 30.12.2019
1641 Clear -1 1030 80 10000 2.1 270 22:20 30.12.2019
1642 Clear -1 1031 92 10000 1.5 300 21:57 30.12.2019
1643 Clear -1 1031 58 10000 1.5 210 21:38 30.12.2019
1644 Clear -1 1030 80 10000 1.5 270 21:19 30.12.2019
1645 Clear -1 1031 58 10000 0.5 270 20:57 30.12.2019
1646 Clear -1 1031 86 10000 2.1 250 20:39 30.12.2019
1647 Clear -1 1030 59 10000 1.5 330 20:20 30.12.2019
1648 Clear 0 1030 80 10000 1.5 200 19:58 30.12.2019
1649 Clear 0 1031 74 10000 1 0 19:38 30.12.2019
1650 Clear 0 1030 59 10000 1.5 170 19:19 30.12.2019
1651 Clear 0 1030 55 10000 1.5 260 18:57 30.12.2019
1652 Clear 0 1031 69 10000 1 0 18:38 30.12.2019
1653 Clear 1 1031 64 10000 1.5 240 18:20 30.12.2019
1654 Clear 1 1030 51 10000 3.6 270 17:56 30.12.2019
1655 Clear 1 1031 69 10000 1.5 270 17:38 30.12.2019
1656 Clouds 2 1031 59 10000 2.1 280 17:19 30.12.2019
1657 Clear 3 1030 51 10000 1.5 300 16:58 30.12.2019
1658 Clear 3 1031 60 10000 1.5 230 16:37 30.12.2019
1659 Clear 4 1031 48 10000 1.04 200 16:18 30.12.2019
1660 Clear 4 1030 41 10000 1 0 15:55 30.12.2019
1661 Clear 5 1031 52 10000 1.5 200 15:37 30.12.2019
1662 Clear 5 1031 48 10000 1.5 260 15:18 30.12.2019
1663 Clear 5 1032 52 10000 2.1 200 14:43 30.12.2019
1664 Clear 5 1032 52 10000 2.1 200 14:43 30.12.2019
1665 Clear 5 1031 52 10000 2.6 270 14:20 30.12.2019
1666 Clouds 5 1032 56 10000 2.6 240 13:58 30.12.2019
1667 Clouds 5 1032 55 10000 3.1 250 13:40 30.12.2019
1668 Clear 5 1032 55 10000 1.5 290 13:21 30.12.2019
1669 Clear 5 1032 55 10000 1.5 290 13:21 30.12.2019
1670 Clear 5 1031 60 10000 4.6 150 12:56 30.12.2019
1671 Clear 4 1033 55 10000 2.1 200 12:37 30.12.2019
1672 Clear 4 1033 59 10000 1.4 162 12:18 30.12.2019
1673 Clear 4 1033 51 10000 1.5 190 11:45 30.12.2019
1674 Clear 2 1033 74 10000 1.28 138 11:20 30.12.2019
1675 Clear 1 1033 69 10000 5.1 150 10:58 30.12.2019
1676 Clear 1 1033 51 10000 1 0 10:40 30.12.2019
1677 Clear 0 1033 80 10000 1.28 138 10:19 30.12.2019
1678 Clear -1 1033 46 10000 1 0 09:42 30.12.2019
1679 Clear -2 1033 86 10000 1.28 138 09:21 30.12.2019
1680 Clear -2 1032 86 10000 6.7 150 08:57 30.12.2019
1681 Clear -2 1033 46 10000 0.5 0 08:38 30.12.2019
1682 Clear -2 1033 46 10000 0.5 0 08:38 30.12.2019
1683 Clear -2 1033 79 10000 0.78 101 08:19 30.12.2019
1684 Clear -2 1032 59 10000 1.5 70 07:46 30.12.2019
1685 Clear -2 1032 74 10000 6.2 150 07:23 30.12.2019
1686 Clear -2 1033 48 10000 2.1 40 06:32 30.12.2019
1687 Clear -2 1034 74 10000 1 40 04:31 30.12.2019
1688 Clear -1 1034 59 10000 1.5 70 03:50 30.12.2019
1689 Clear -1 1034 64 10000 1.5 80 02:47 30.12.2019
1690 Clear -1 1034 86 10000 5.1 150 02:26 30.12.2019
1691 Clouds -1 1034 64 10000 1.5 60 01:39 30.12.2019
1692 Clear -1 1035 79 10000 1.14 85 01:18 30.12.2019
1693 Clouds -1 1035 48 10000 2.1 60 00:42 30.12.2019
1694 Clouds -1 1035 80 10000 1 350 23:58 29.12.2019
1695 Clouds -1 1035 86 10000 1.5 350 23:37 29.12.2019
1696 Clear -1 1035 80 10000 0.99 92 23:19 29.12.2019
1697 Clouds -1 1035 69 10000 2.6 90 22:41 29.12.2019
1698 Clear -1 1035 51 10000 2.1 90 22:22 29.12.2019
1699 Clouds 0 1035 74 10000 8.2 140 21:56 29.12.2019
1700 Clouds 0 1035 74 10000 1.5 50 21:38 29.12.2019
1701 Clouds 0 1036 51 10000 0.99 92 21:19 29.12.2019
1702 Clouds 0 1036 51 10000 0.99 92 21:19 29.12.2019
1703 Clouds 0 1035 74 10000 8.2 140 20:56 29.12.2019
1704 Clouds 0 1035 74 10000 2.6 60 20:38 29.12.2019
1705 Clouds 0 1036 58 10000 3.6 90 20:18 29.12.2019
1706 Clouds 0 1035 80 10000 8.2 140 19:58 29.12.2019
1707 Clouds 0 1035 80 10000 3.1 50 19:39 29.12.2019
1708 Clear 0 1036 58 10000 3.6 80 19:20 29.12.2019
1709 Clouds 1 1035 58 10000 7.2 140 18:55 29.12.2019
1710 Clouds 1 1035 74 10000 3.6 40 18:37 29.12.2019
1711 Clouds 1 1036 74 10000 2.6 60 18:19 29.12.2019
1712 Clouds 1 1036 74 10000 2.6 60 18:19 29.12.2019
1713 Clouds 1 1035 58 10000 7.7 140 17:56 29.12.2019
1714 Clouds 1 1035 74 10000 3.1 60 17:38 29.12.2019
1715 Clouds 1 1035 74 10000 3.1 60 17:38 29.12.2019
1716 Clouds 1 1036 74 10000 4.6 80 17:19 29.12.2019
1717 Clouds 2 1035 63 10000 5.7 150 16:56 29.12.2019
1718 Clouds 2 1035 59 10000 2.6 60 16:37 29.12.2019
1719 Clouds 3 1036 69 10000 2.1 80 16:19 29.12.2019
1720 Clouds 3 1035 69 10000 7.2 150 15:56 29.12.2019
1721 Clouds 3 1035 55 10000 3.1 60 15:38 29.12.2019
1722 Clouds 3 1035 69 10000 2.1 90 15:19 29.12.2019
1723 Clouds 4 1035 74 10000 7.7 140 14:55 29.12.2019
1724 Clouds 3 1035 60 10000 2.6 60 14:37 29.12.2019
1725 Clouds 4 1036 69 10000 2.6 70 14:18 29.12.2019
1726 Clear 3 1035 69 10000 6.2 140 13:55 29.12.2019
1727 Clear 3 1035 69 10000 6.2 140 13:55 29.12.2019
1728 Clear 3 1036 69 10000 1.5 90 13:37 29.12.2019
1729 Clouds 3 1036 69 10000 3.6 90 13:19 29.12.2019
1730 Clouds 3 1036 69 10000 2.6 50 12:45 29.12.2019
1731 Clouds 2 1036 49 10000 4.6 150 12:26 29.12.2019
1732 Clouds 2 1036 49 10000 8.2 140 11:57 29.12.2019
1733 Clouds 2 1037 64 10000 2.6 50 11:38 29.12.2019
1734 Clouds 1 1037 63 10000 3.6 60 11:20 29.12.2019
1735 Clouds -1 1037 63 10000 3.1 50 10:43 29.12.2019
1736 Clouds -1 1036 86 10000 8.2 150 10:25 29.12.2019
1737 Clouds -2 1037 86 10000 8.7 140 09:58 29.12.2019
1738 Clouds -2 1037 86 10000 4.1 50 09:39 29.12.2019
1739 Clouds -3 1037 86 10000 3.6 40 09:21 29.12.2019
1740 Clouds -3 1037 86 10000 3.1 60 08:48 29.12.2019
1741 Clouds -3 1037 86 10000 3.1 60 08:28 29.12.2019
1742 Clouds -3 1036 79 10000 3.6 60 07:57 29.12.2019
1743 Clouds -3 1037 92 10000 3.6 30 07:29 29.12.2019
1744 Clouds -3 1036 92 10000 9.3 140 06:57 29.12.2019
1745 Clouds -3 1036 92 10000 9.3 140 06:27 29.12.2019
1746 Clouds -3 1036 92 10000 8.7 150 05:54 29.12.2019
1747 Clouds -2 1037 86 7000 3.6 50 04:42 29.12.2019
1748 Clear -2 1037 86 10000 2.6 80 04:21 29.12.2019
1749 Clear -2 1038 86 10000 4.1 70 03:21 29.12.2019
1750 Clear -2 1037 86 10000 2.1 50 02:22 29.12.2019
1751 Clear -2 1037 86 10000 2.1 50 02:22 29.12.2019
1752 Clouds -2 1037 92 10000 2.6 30 01:42 29.12.2019
1753 Clouds -2 1036 92 10000 8.2 140 01:23 29.12.2019
1754 Clouds -1 1037 92 8000 2.6 60 00:44 29.12.2019
1755 Clouds -1 1037 92 10000 7.2 140 00:24 29.12.2019
1756 Clouds -1 1038 92 8000 2.6 60 23:45 28.12.2019
1757 Clear -1 1038 92 10000 2.1 80 23:19 28.12.2019
1758 Clear -1 1038 92 10000 2.1 80 23:19 28.12.2019
1759 Clear -1 1038 92 10000 2.1 80 23:19 28.12.2019
1760 Clouds -1 1038 92 10000 8.7 140 22:59 28.12.2019
1761 Clouds -1 1038 86 8000 2.6 60 22:37 28.12.2019
1762 Clear -1 1039 86 10000 3.6 60 22:18 28.12.2019
1763 Clouds -1 1037 92 10000 9.3 140 21:55 28.12.2019
1764 Clouds -1 1038 92 10000 3.1 70 21:37 28.12.2019
1765 Clear -1 1039 86 10000 3.6 80 21:19 28.12.2019
1766 Clouds -1 1038 84 9000 3.6 40 20:42 28.12.2019
1767 Clouds -1 1038 92 10000 6.7 140 20:23 28.12.2019
1768 Clouds 0 1038 89 9000 3.1 60 19:59 28.12.2019
1769 Clouds 0 1038 89 9000 2.6 70 19:41 28.12.2019
1770 Clear 0 1039 86 10000 4.1 80 19:23 28.12.2019
1771 Clouds 0 1038 89 10000 3.1 70 18:59 28.12.2019
1772 Clouds -1 1038 89 10000 2.6 80 18:40 28.12.2019
1773 Clouds 0 1039 86 10000 2.6 60 18:20 28.12.2019
1774 Clouds 0 1038 92 10000 6.7 140 17:58 28.12.2019
1775 Clouds 0 1038 89 10000 3.1 60 17:39 28.12.2019
1776 Clear 1 1039 83 10000 2.6 60 17:20 28.12.2019
1777 Clouds 1 1038 80 10000 3.1 50 16:48 28.12.2019
1778 Clear 2 1038 80 10000 2.6 80 16:26 28.12.2019
1779 Clouds 3 1038 80 10000 3.1 70 15:57 28.12.2019
1780 -273 0 0 0 0 0 15:39 28.12.2019
1781 Clear 3 1037 74 10000 3.1 70 15:21 28.12.2019
1782 Clouds 3 1037 74 10000 2.6 100 14:46 28.12.2019
1783 Clouds 3 1037 83 10000 5.1 140 14:24 28.12.2019
1784 Clouds 3 1037 79 10000 3.6 110 13:58 28.12.2019
1785 Clouds 3 1037 79 10000 3.6 110 13:58 28.12.2019
1786 Clouds 3 1038 79 10000 3.1 70 13:39 28.12.2019
1787 Clear 3 1039 79 10000 1.5 70 13:19 28.12.2019
1788 Clouds 2 1038 77 10000 5.7 140 12:55 28.12.2019
1789 Clouds 2 1038 77 10000 3.1 50 12:36 28.12.2019
1790 Clear 2 1039 77 10000 3.1 90 12:18 28.12.2019
1791 Clouds 2 1038 77 10000 3.1 60 11:40 28.12.2019
1792 Clear 2 1039 87 10000 3.1 90 11:21 28.12.2019
1793 Clouds 1 1038 86 10000 3.6 50 10:55 28.12.2019
1794 Clear 1 1038 80 10000 3.1 50 10:36 28.12.2019
1795 Clear 0 1039 92 10000 3.1 70 10:18 28.12.2019
1796 Clear 0 1038 87 10000 3.6 40 09:45 28.12.2019
1797 Fog 0 1037 100 100 4.1 140 09:23 28.12.2019
1798 Clear -1 1038 92 10000 3.1 30 08:58 28.12.2019
1799 Fog 0 1038 100 400 2.6 90 08:39 28.12.2019
1800 Clear 0 1038 92 10000 1.95 12 08:20 28.12.2019
1801 Clouds 0 1037 86 10000 1.5 360 07:43 28.12.2019
1802 Clouds 1 1037 92 10000 2.1 60 06:59 28.12.2019
1803 Clouds 1 1036 80 10000 2.6 70 05:45 28.12.2019
1804 Clouds 2 1036 92 10000 2.6 90 03:48 28.12.2019
1805 Clouds 3 1036 86 10000 2.1 70 02:50 28.12.2019
1806 Clouds 3 1036 92 10000 1.54 70 02:20 28.12.2019
1807 Clouds 3 1035 92 10000 1.5 120 01:54 28.12.2019
1808 Clouds 3 1036 93 10000 1.66 75 01:22 28.12.2019
1809 Clouds 4 1035 93 10000 2.6 80 00:45 28.12.2019
1810 Clouds 3 1035 93 10000 1.5 80 00:27 28.12.2019
1811 Clouds 4 1034 93 10000 2.6 110 23:58 27.12.2019
1812 Clouds 4 1034 93 10000 4.1 70 23:38 27.12.2019
1813 Clouds 4 1035 86 10000 1.15 94 23:18 27.12.2019
1814 Clouds 4 1034 100 10000 1.5 100 22:55 27.12.2019
1815 Clouds 4 1034 93 7000 3.1 50 22:37 27.12.2019
1816 Clouds 4 1034 93 10000 3.1 50 22:19 27.12.2019
1817 Mist 4 1033 93 5000 3.1 40 21:43 27.12.2019
1818 Clouds 4 1033 100 10000 1.5 110 21:24 27.12.2019
1819 Clouds 4 1033 100 10000 1.5 80 20:57 27.12.2019
1820 Clouds 4 1033 93 8000 3.6 50 20:38 27.12.2019
1821 Clouds 4 1033 100 10000 1.43 36 20:20 27.12.2019
1822 Clouds 5 1032 93 10000 3.6 40 19:41 27.12.2019
1823 Clouds 5 1032 100 10000 2.6 40 19:20 27.12.2019
1824 Clouds 5 1032 100 10000 2.6 40 19:20 27.12.2019
1825 Clouds 5 1031 93 10000 4.6 50 18:57 27.12.2019
1826 Clouds 5 1031 93 10000 4.1 50 18:37 27.12.2019
1827 Clouds 5 1031 100 10000 3.1 20 18:19 27.12.2019
1828 Mist 5 1030 100 3500 3.1 50 17:55 27.12.2019
1829 Clouds 5 1030 93 10000 3.6 40 17:37 27.12.2019
1830 Clouds 5 1030 100 10000 2.6 30 17:18 27.12.2019
1831 Clouds 5 1030 100 10000 3.1 20 16:44 27.12.2019
1832 Mist 5 1029 100 2500 3.1 50 16:26 27.12.2019
1833 Clouds 5 1029 100 10000 3.1 60 15:59 27.12.2019
1834 Clouds 5 1029 100 10000 2.6 360 15:40 27.12.2019
1835 Clouds 6 1028 100 10000 4.1 40 15:20 27.12.2019
1836 Clouds 6 1027 100 10000 3.6 50 14:56 27.12.2019
1837 Clouds 6 1027 93 10000 5.1 60 14:38 27.12.2019
1838 Clouds 6 1026 100 10000 2.6 60 14:20 27.12.2019
1839 Clouds 6 1026 100 10000 2.6 60 14:20 27.12.2019
1840 Clouds 6 1026 100 10000 4.6 60 13:48 27.12.2019
1841 Clouds 6 1026 100 10000 4.1 60 13:25 27.12.2019
1842 Clouds 6 1026 100 10000 4.1 60 13:25 27.12.2019
1843 Fog 6 1026 100 400 4.6 50 12:58 27.12.2019
1844 Clouds 6 1025 93 10000 6.2 30 12:39 27.12.2019
1845 Clouds 6 1026 100 10000 2.1 10 12:21 27.12.2019
1846 Clouds 6 1025 93 8000 3.6 40 11:43 27.12.2019
1847 Mist 6 1025 100 2500 2.6 50 11:24 27.12.2019
1848 Fog 6 1024 100 800 3.1 120 10:55 27.12.2019
1849 Mist 6 1023 100 4000 5.1 40 10:37 27.12.2019
1850 Clouds 5 1023 100 10000 3.1 40 10:19 27.12.2019
1851 Mist 5 1021 100 3000 5.7 40 09:42 27.12.2019
1852 Rain 5 1021 100 8000 4.1 30 09:21 27.12.2019
1853 Fog 5 1020 100 900 6.2 50 08:58 27.12.2019
1854 Fog 5 1019 100 500 5.1 40 08:36 27.12.2019
1855 Clouds 5 1020 100 10000 2.6 50 07:51 27.12.2019
1856 Clouds 5 1020 100 10000 2.6 50 07:32 27.12.2019
1857 Rain 5 1019 100 6000 3.1 50 06:37 27.12.2019
1858 Rain 5 1018 100 1000 2.1 90 05:38 27.12.2019
1859 Rain 5 1019 100 1800 1.5 70 03:44 27.12.2019
1860 Fog 4 1019 100 600 3.6 140 02:23 27.12.2019
1861 Mist 4 1019 100 1600 2.72 218 01:42 27.12.2019
1862 Rain 4 1020 100 8000 2.72 218 01:20 27.12.2019
1863 Mist 4 1020 100 8000 3.31 195 00:44 27.12.2019
1864 Drizzle 4 1020 100 4000 3.1 180 00:24 27.12.2019
1865 Rain 3 1021 100 4400 2.6 210 23:42 26.12.2019
1866 Mist 3 1020 100 4500 3.1 180 23:23 26.12.2019
1867 Clouds 3 1021 100 9000 2.1 170 22:58 26.12.2019
1868 Drizzle 3 1021 100 9000 3.1 210 22:37 26.12.2019
1869 Clouds 3 1021 100 10000 3.1 200 22:18 26.12.2019
1870 Drizzle 3 1021 100 1500 4.1 200 21:39 26.12.2019
1871 Rain 3 1021 100 10000 2.6 180 21:21 26.12.2019
1872 Rain 3 1022 100 10000 4.1 220 20:54 26.12.2019
1873 Rain 3 1022 100 10000 4.1 220 20:36 26.12.2019
1874 Clouds 3 1022 100 10000 5.1 220 20:18 26.12.2019
1875 Clouds 3 1022 100 10000 5.1 220 20:18 26.12.2019
1876 Clouds 3 1021 100 8000 4.1 140 19:54 26.12.2019
1877 Mist 2 1022 100 4000 4.1 190 19:36 26.12.2019
1878 Clouds 2 1021 100 10000 2.6 210 19:18 26.12.2019
1879 Clouds 2 1021 100 10000 2.6 210 19:18 26.12.2019
1880 Clouds 2 1021 100 10000 3.6 140 18:55 26.12.2019
1881 Clouds 3 1022 100 10000 2.1 230 18:36 26.12.2019
1882 Clouds 3 1022 100 10000 2.1 200 18:18 26.12.2019
1883 Clouds 3 1022 100 10000 2.39 161 17:41 26.12.2019
1884 Clouds 3 1022 100 10000 2.1 230 17:21 26.12.2019
1885 Mist 3 1022 100 6000 2.6 220 16:49 26.12.2019
1886 Clouds 3 1021 100 8000 3.6 140 16:26 26.12.2019
1887 Clouds 3 1022 100 8000 4.1 160 15:57 26.12.2019
1888 Clouds 3 1022 93 7000 2.6 180 15:38 26.12.2019
1889 Clouds 3 1022 100 10000 2.2 186 15:19 26.12.2019
1890 Clouds 3 1021 100 10000 1.5 80 14:41 26.12.2019
1891 Clouds 3 1021 100 9000 4.6 140 14:23 26.12.2019
1892 Clouds 3 1022 100 7000 4.1 150 13:55 26.12.2019
1893 Clouds 3 1022 93 7000 3.1 110 13:36 26.12.2019
1894 Mist 3 1023 93 2400 1.5 80 13:18 26.12.2019
1895 Mist 3 1023 100 1600 2.34 132 12:45 26.12.2019
1896 Mist 3 1023 100 5000 4.6 150 12:25 26.12.2019
1897 Clouds 3 1023 93 7000 1.5 120 11:59 26.12.2019
1898 Clouds 2 1024 93 9000 2.1 110 11:40 26.12.2019
1899 Clouds 2 1024 93 9000 2.1 110 11:40 26.12.2019
1900 Fog 2 1024 100 400 2.6 80 11:21 26.12.2019
1901 Fog 2 1024 88 5000 2.6 90 10:50 26.12.2019
1902 Mist 1 1024 100 1500 3.1 150 10:27 26.12.2019
1903 Fog 1 1024 100 5000 2.6 70 09:59 26.12.2019
1904 Fog 1 1024 88 4000 3.1 60 09:41 26.12.2019
1905 Fog 1 1024 88 200 2.6 140 09:22 26.12.2019
1906 Fog 1 1024 100 200 2.1 60 08:40 26.12.2019
1907 Fog 1 1024 100 600 3.1 60 08:21 26.12.2019
1908 Fog 1 1024 92 400 2.6 80 07:46 26.12.2019
1909 Fog 1 1023 100 400 3.6 150 07:26 26.12.2019
1910 Fog 0 1024 92 600 2.6 80 06:43 26.12.2019
1911 Mist 0 1024 100 2000 1 0 06:25 26.12.2019
1912 Mist 0 1024 92 1600 2.6 90 05:43 26.12.2019
1913 Clear 1 1025 93 0 2.6 40 04:38 26.12.2019
1914 Clear 1 1025 100 6000 2.6 40 03:46 26.12.2019
1915 Mist 1 1025 92 2000 1.5 300 02:49 26.12.2019
1916 Mist 1 1025 92 2000 1.5 300 02:31 26.12.2019
1917 Mist 1 1025 92 2000 1.5 300 02:31 26.12.2019
1918 Mist 1 1025 92 1600 0.76 50 01:45 26.12.2019
1919 Clouds 2 1024 100 10000 1.5 250 01:26 26.12.2019
1920 Clouds 3 1025 86 10000 1 340 00:47 26.12.2019
1921 Clouds 3 1024 100 10000 1.5 270 00:24 26.12.2019
1922 Clouds 3 1024 100 10000 1.5 270 00:24 26.12.2019
1923 Clouds 3 1024 100 9000 3.6 290 23:58 25.12.2019
1924 Clouds 3 1025 93 10000 1.5 340 23:38 25.12.2019
1925 Clouds 4 1025 93 10000 0.61 275 23:20 25.12.2019
1926 Clouds 4 1025 100 9000 4.1 260 22:57 25.12.2019
1927 Clouds 4 1025 93 10000 2.1 310 22:38 25.12.2019
1928 Clouds 4 1025 93 10000 2.1 270 22:19 25.12.2019
1929 Clouds 4 1024 100 10000 3.1 250 21:57 25.12.2019
1930 Clouds 4 1025 93 10000 2.6 240 21:39 25.12.2019
1931 Clouds 4 1025 93 10000 2.6 240 21:19 25.12.2019
1932 Clouds 4 1025 86 10000 3.1 270 20:41 25.12.2019
1933 Clouds 5 1024 100 10000 3.6 270 20:23 25.12.2019
1934 Clouds 5 1024 100 10000 3.6 270 20:22 25.12.2019
1935 Clouds 5 1025 86 10000 2.6 280 19:59 25.12.2019
1936 Clouds 5 1025 86 10000 2.1 270 19:41 25.12.2019
1937 Clouds 5 1024 100 10000 3.1 260 19:22 25.12.2019
1938 Clouds 5 1024 100 10000 3.1 260 19:22 25.12.2019
1939 Rain 5 1024 100 10000 2.6 290 18:56 25.12.2019
1940 Clouds 5 1025 86 10000 3.1 280 18:36 25.12.2019
1941 Clouds 5 1024 86 10000 2.1 240 18:18 25.12.2019
1942 Clouds 5 1024 80 10000 3.6 260 17:40 25.12.2019
1943 Clouds 5 1024 86 10000 3.6 270 17:19 25.12.2019
1944 Drizzle 6 1023 86 10000 4.1 310 16:56 25.12.2019
1945 Clouds 6 1023 86 10000 3.6 260 16:37 25.12.2019
1946 Clouds 6 1023 87 10000 2.6 260 16:18 25.12.2019
1947 Clouds 6 1023 87 10000 2.6 260 16:18 25.12.2019
1948 Clouds 6 1022 93 10000 4.1 310 15:56 25.12.2019
1949 Clouds 6 1023 81 10000 4.1 300 15:38 25.12.2019
1950 Clouds 6 1022 81 10000 3.1 290 15:19 25.12.2019
1951 Clouds 6 1022 81 10000 3.1 290 15:19 25.12.2019
1952 Drizzle 6 1020 93 10000 6.7 310 14:56 25.12.2019
1953 Clouds 6 1021 87 10000 4.1 280 14:37 25.12.2019
1954 Drizzle 6 1021 87 10000 4.1 260 14:19 25.12.2019
1955 Rain 6 1021 81 10000 3.6 260 13:44 25.12.2019
1956 Rain 6 1021 87 10000 3.6 270 13:21 25.12.2019
1957 Rain 6 1019 86 9000 7.7 290 12:56 25.12.2019
1958 Clouds 6 1021 81 10000 4.6 290 12:38 25.12.2019
1959 Clouds 6 1020 81 10000 5.7 270 12:19 25.12.2019
1960 Clouds 6 1020 81 10000 4.1 270 11:43 25.12.2019
1961 Clouds 6 1019 81 10000 5.7 270 11:22 25.12.2019
1962 Clouds 6 1020 75 10000 6.7 300 10:59 25.12.2019
1963 Clouds 6 1019 81 10000 4.6 260 10:36 25.12.2019
1964 Clouds 6 1018 81 10000 5.1 270 10:18 25.12.2019
1965 Clouds 6 1018 81 10000 7.2 310 09:44 25.12.2019
1966 Clouds 6 1016 93 10000 5.1 290 09:26 25.12.2019
1967 Clouds 6 1017 93 10000 5.7 300 08:47 25.12.2019
1968 Clouds 6 1017 93 10000 5.7 300 08:28 25.12.2019
1969 Rain 7 1015 93 10000 3.6 250 07:48 25.12.2019
1970 Rain 7 1016 93 10000 6.2 300 07:29 25.12.2019
1971 Rain 7 1014 100 10000 2.6 250 06:49 25.12.2019
1972 Clouds 7 1014 100 10000 3.6 240 06:22 25.12.2019
1973 Clouds 7 1014 93 10000 4.1 240 05:18 25.12.2019
1974 Clouds 8 1014 100 10000 4.6 230 04:38 25.12.2019
1975 Rain 8 1014 100 10000 4.6 230 04:18 25.12.2019
1976 Rain 7 1014 100 10000 5.7 230 03:40 25.12.2019
1977 Clouds 8 1013 100 10000 4.6 230 02:39 25.12.2019
1978 Rain 8 1013 93 10000 4.6 240 02:20 25.12.2019
1979 Rain 7 1012 100 8000 5.7 270 01:25 25.12.2019
1980 Rain 7 1012 100 9000 4.6 260 00:53 25.12.2019
1981 Rain 7 1014 87 6000 7.7 250 00:30 25.12.2019
1982 Rain 7 1012 93 10000 7.2 260 23:57 24.12.2019
1983 Clouds 7 1013 93 10000 5.1 230 23:38 24.12.2019
1984 Clouds 7 1013 93 10000 5.1 230 23:20 24.12.2019
1985 Clouds 7 1013 93 10000 5.7 230 22:41 24.12.2019
1986 Rain 7 1013 93 10000 4.6 230 22:21 24.12.2019
1987 Rain 7 1014 81 10000 5.1 250 21:44 24.12.2019
1988 Clouds 7 1012 87 10000 8.2 270 21:23 24.12.2019
1989 Rain 7 1014 81 10000 6.7 250 20:59 24.12.2019
1990 Clouds 7 1013 81 10000 6.2 240 20:40 24.12.2019
1991 Rain 7 1012 87 10000 7.7 230 20:19 24.12.2019
1992 Clouds 7 1012 87 10000 5.1 230 19:45 24.12.2019
1993 Clouds 8 1012 87 10000 6.2 240 19:21 24.12.2019
1994 Rain 8 1013 87 10000 8.7 250 18:58 24.12.2019
1995 Rain 8 1012 87 10000 7.2 240 18:40 24.12.2019
1996 Rain 8 1012 93 8000 6.7 270 18:18 24.12.2019
1997 Rain 8 1011 81 10000 7.2 220 17:42 24.12.2019
1998 Clouds 8 1011 81 10000 6.7 230 17:21 24.12.2019
1999 Clouds 8 1010 81 10000 7.2 260 16:57 24.12.2019
2000 Clouds 9 1012 76 10000 7.7 250 16:38 24.12.2019
2001 Clouds 9 1011 75 10000 7.7 230 16:20 24.12.2019
2002 Clouds 9 1010 81 10000 6.7 270 15:56 24.12.2019
2003 Clouds 9 1012 76 10000 7.7 260 15:36 24.12.2019
2004 Clouds 9 1010 70 10000 6.2 250 15:18 24.12.2019
2005 Clouds 9 1009 81 10000 8.7 270 14:57 24.12.2019
2006 Clouds 9 1011 76 10000 9.3 270 14:39 24.12.2019
2007 Clouds 9 1009 75 10000 8.7 250 14:21 24.12.2019
2008 Clouds 9 1009 87 10000 9.8 260 13:55 24.12.2019
2009 Clouds 9 1009 87 10000 7.7 230 13:37 24.12.2019
2010 Clouds 8 1009 87 10000 7.7 230 13:19 24.12.2019
2011 Clouds 8 1008 87 10000 9.3 260 12:55 24.12.2019
2012 Clouds 8 1009 100 10000 6.7 220 12:37 24.12.2019
2013 Rain 8 1009 100 10000 6.2 220 12:19 24.12.2019
2014 Rain 8 1009 100 10000 6.2 220 12:19 24.12.2019
2015 Clouds 7 1009 100 6000 7.2 250 11:56 24.12.2019
2016 Rain 7 1010 100 10000 7.2 220 11:37 24.12.2019
2017 Rain 7 1010 100 10000 7.2 220 11:37 24.12.2019
2018 Rain 6 1009 100 5000 6.7 210 11:19 24.12.2019
2019 Clouds 6 1009 100 10000 6.2 210 10:56 24.12.2019
2020 Clouds 6 1009 100 10000 6.2 210 10:56 24.12.2019
2021 Drizzle 6 1010 93 10000 5.1 220 10:37 24.12.2019
2022 Clouds 5 1010 93 10000 6.2 210 10:19 24.12.2019
2023 Rain 5 1012 93 10000 5.1 200 09:55 24.12.2019
2024 Rain 5 1011 93 2500 5.7 190 09:37 24.12.2019
2025 Rain 5 1011 93 10000 6.2 190 09:19 24.12.2019
2026 Mist 5 1011 93 9000 5.1 180 08:45 24.12.2019
2027 Clouds 5 1012 93 10000 5.7 210 08:24 24.12.2019
2028 Drizzle 5 1013 100 4000 5.1 180 07:46 24.12.2019
2029 Clouds 5 1013 93 10000 5.1 200 07:27 24.12.2019
2030 Drizzle 5 1013 93 6000 4.6 180 06:59 24.12.2019
2031 Clouds 5 1014 86 10000 3.6 180 06:39 24.12.2019
2032 Clouds 5 1014 93 10000 4.1 190 06:19 24.12.2019
2033 Clouds 5 1014 93 10000 3.6 190 05:46 24.12.2019
2034 Clouds 5 1015 93 10000 2.6 190 05:18 24.12.2019
2035 Clouds 5 1016 93 10000 7.2 240 03:55 24.12.2019
2036 Clouds 5 1016 93 10000 4.1 190 03:33 24.12.2019
2037 Clouds 5 1016 93 10000 6.7 250 02:25 24.12.2019
2038 Clouds 5 1016 93 10000 5.7 250 01:53 24.12.2019
2039 Clouds 5 1016 93 10000 6.7 260 01:23 24.12.2019
2040 Clouds 6 1016 93 10000 7.2 270 00:55 24.12.2019
2041 Clouds 6 1017 93 10000 4.6 230 00:37 24.12.2019
2042 Clouds 6 1016 93 10000 6.2 220 00:19 24.12.2019
2043 Rain 6 1016 86 10000 4.6 230 23:41 23.12.2019
2044 Clouds 6 1015 100 10000 7.2 260 23:23 23.12.2019
2045 Clouds 6 1015 93 10000 7.7 270 22:56 23.12.2019
2046 Clouds 6 1016 93 10000 6.2 240 22:37 23.12.2019
2047 Clouds 6 1015 86 10000 7.2 230 22:19 23.12.2019
2048 Clouds 6 1014 93 10000 8.2 270 21:56 23.12.2019
2049 Clouds 6 1016 93 10000 6.2 260 21:36 23.12.2019
2050 Clouds 6 1015 87 10000 6.2 230 21:18 23.12.2019
2051 Clouds 6 1016 93 10000 5.7 250 20:58 23.12.2019
2052 Clouds 6 1015 87 10000 5.7 240 20:40 23.12.2019
2053 Clouds 6 1014 86 10000 5.1 230 20:18 23.12.2019
2054 Clouds 6 1013 93 10000 5.7 260 19:57 23.12.2019
2055 Clouds 6 1014 86 10000 4.6 230 19:38 23.12.2019
2056 Rain 6 1014 87 10000 3.6 240 19:20 23.12.2019
2057 Clouds 6 1014 93 10000 6.2 250 18:58 23.12.2019
2058 Clouds 6 1014 93 10000 6.2 250 18:58 23.12.2019
2059 Clouds 6 1013 93 10000 4.6 230 18:39 23.12.2019
2060 Clouds 6 1013 93 10000 3.6 230 18:20 23.12.2019
2061 Clouds 6 1012 93 10000 4.6 280 17:58 23.12.2019
2062 Clouds 6 1013 87 10000 4.6 230 17:40 23.12.2019
2063 Clouds 6 1012 87 10000 4.1 230 17:19 23.12.2019
2064 Clouds 6 1011 93 10000 6.7 280 16:57 23.12.2019
2065 Clouds 6 1012 87 10000 5.7 250 16:39 23.12.2019
2066 Clouds 7 1011 87 10000 4.1 250 16:19 23.12.2019
2067 Clouds 7 1010 100 10000 7.7 270 15:57 23.12.2019
2068 Rain 7 1011 87 10000 4.6 250 15:37 23.12.2019
2069 Clouds 7 1011 87 10000 5.7 240 15:19 23.12.2019
2070 Clouds 7 1009 100 10000 7.2 260 14:56 23.12.2019
2071 Rain 7 1010 81 10000 5.7 240 14:38 23.12.2019
2072 Rain 7 1009 81 10000 5.7 240 14:19 23.12.2019
2073 Drizzle 7 1008 100 10000 4.1 280 13:56 23.12.2019
2074 Rain 7 1010 87 4000 8.2 260 13:38 23.12.2019
2075 Rain 7 1008 87 10000 5.7 240 13:20 23.12.2019
2076 Clouds 6 1008 87 10000 6.2 270 12:55 23.12.2019
2077 Clouds 7 1008 93 10000 4.6 230 12:36 23.12.2019
2078 Clouds 7 1008 81 10000 5.7 220 12:18 23.12.2019
2079 Clouds 7 1008 81 10000 5.7 220 12:18 23.12.2019
2080 Clouds 6 1008 93 10000 5.7 260 11:42 23.12.2019
2081 Clouds 6 1008 93 10000 5.7 260 11:42 23.12.2019
2082 Clouds 6 1007 93 10000 5.1 270 11:24 23.12.2019
2083 Clouds 6 1007 93 10000 6.2 280 10:56 23.12.2019
2084 Clouds 6 1007 87 10000 4.6 220 10:38 23.12.2019
2085 Clouds 6 1006 87 10000 4.1 220 10:20 23.12.2019
2086 Clouds 6 1007 93 10000 5.1 250 09:58 23.12.2019
2087 Clouds 6 1006 87 10000 4.6 220 09:39 23.12.2019
2088 Clouds 6 1006 87 10000 4.6 220 09:39 23.12.2019
2089 Clouds 6 1005 87 10000 3.6 230 09:19 23.12.2019
2090 Clouds 6 1004 93 10000 5.7 270 08:55 23.12.2019
2091 Clouds 6 1004 87 10000 5.1 230 08:37 23.12.2019
2092 Drizzle 6 1004 87 10000 5.1 230 08:18 23.12.2019
2093 Clouds 6 1003 87 10000 4.6 230 07:43 23.12.2019
2094 Clouds 6 1003 100 10000 4.1 230 07:19 23.12.2019
2095 Drizzle 6 1002 100 10000 4.6 230 06:50 23.12.2019
2096 Rain 6 1001 100 10000 7.2 260 06:23 23.12.2019
2097 Rain 6 1001 93 10000 5.7 220 05:49 23.12.2019
2098 Rain 6 1001 93 10000 4.6 220 05:22 23.12.2019
2099 Clouds 6 1000 93 10000 6.2 230 04:20 23.12.2019
2100 Rain 6 999 93 10000 7.2 260 02:55 23.12.2019
2101 Rain 6 1000 93 7000 6.2 250 02:28 23.12.2019
2102 Rain 5 998 100 10000 8.2 260 01:56 23.12.2019
2103 Rain 5 999 87 10000 6.7 250 01:38 23.12.2019
2104 Rain 5 998 87 10000 6.2 220 01:19 23.12.2019
2105 Clouds 6 998 87 10000 7.2 260 00:41 23.12.2019
2106 Rain 6 998 87 10000 7.2 260 00:19 23.12.2019
2107 Rain 6 997 87 10000 7.2 260 23:39 22.12.2019
2108 Rain 6 997 87 10000 7.2 260 23:39 22.12.2019
2109 Clouds 6 996 93 10000 5.7 230 23:21 22.12.2019
2110 Clouds 6 995 93 10000 7.7 260 22:58 22.12.2019
2111 Rain 6 995 87 10000 5.7 230 22:39 22.12.2019
2112 Clouds 6 995 87 10000 6.2 230 22:19 22.12.2019
2113 Clouds 6 994 93 10000 7.7 260 21:57 22.12.2019
2114 Clouds 6 995 87 10000 7.2 260 21:39 22.12.2019
2115 Clouds 6 994 81 10000 8.2 230 21:21 22.12.2019
2116 Clouds 6 993 93 10000 9.3 270 20:58 22.12.2019
2117 Clouds 6 994 93 10000 5.7 250 20:38 22.12.2019
2118 Clouds 6 993 87 10000 6.2 230 20:18 22.12.2019
2119 Clouds 6 992 93 10000 8.2 260 19:56 22.12.2019
2120 Clouds 6 992 87 10000 6.2 230 19:37 22.12.2019
2121 Clouds 6 992 81 10000 6.7 240 19:19 22.12.2019
2122 Rain 6 992 87 10000 9.3 260 18:41 22.12.2019
2123 Rain 6 990 87 10000 8.7 230 18:23 22.12.2019
2124 Rain 6 989 100 10000 8.2 260 17:56 22.12.2019
2125 Clouds 6 990 87 10000 7.7 230 17:37 22.12.2019
2126 Rain 7 989 87 10000 7.7 240 17:19 22.12.2019
2127 Rain 7 989 87 10000 7.7 240 17:19 22.12.2019
2128 Rain 7 988 100 9000 8.7 260 16:57 22.12.2019
2129 Clouds 7 989 81 10000 11.8 260 16:38 22.12.2019
2130 Rain 7 987 93 10000 6.7 230 16:20 22.12.2019
2131 Rain 6 987 100 8000 7.7 250 15:56 22.12.2019
2132 Rain 7 987 93 10000 6.7 220 15:37 22.12.2019
2133 Rain 7 986 87 10000 8.2 230 15:19 22.12.2019
2134 Rain 7 986 87 10000 9.8 230 14:55 22.12.2019
2135 Rain 7 986 87 10000 9.8 230 14:36 22.12.2019
2136 Rain 7 985 87 10000 9.3 210 14:18 22.12.2019
2137 Clouds 7 985 93 10000 4.6 240 13:55 22.12.2019
2138 Rain 7 985 93 10000 6.7 200 13:36 22.12.2019
2139 Clouds 7 985 93 10000 6.7 200 13:18 22.12.2019
2140 Clouds 7 985 93 10000 6.2 240 12:55 22.12.2019
2141 Clouds 7 985 93 10000 6.2 240 12:55 22.12.2019
2142 Rain 8 986 93 4000 4.6 220 12:37 22.12.2019
2143 Clouds 8 985 93 10000 7.2 210 12:18 22.12.2019
2144 Clouds 8 985 93 10000 6.7 220 11:56 22.12.2019
2145 Clouds 8 985 100 10000 7.2 200 11:37 22.12.2019
2146 Rain 8 984 100 10000 6.7 190 11:18 22.12.2019
2147 Clouds 7 985 93 9000 6.2 210 10:55 22.12.2019
2148 Rain 7 985 100 4000 4.6 200 10:36 22.12.2019
2149 Rain 7 984 93 10000 5.1 180 10:18 22.12.2019
2150 Clouds 7 984 100 9000 5.1 180 09:56 22.12.2019
2151 Clouds 7 983 93 10000 5.1 180 09:37 22.12.2019
2152 Clouds 7 983 93 10000 5.7 180 09:19 22.12.2019
2153 Clouds 7 983 87 10000 4.6 180 08:39 22.12.2019
2154 Rain 7 983 87 10000 3.6 170 08:21 22.12.2019
2155 Rain 7 982 87 10000 6.7 180 07:40 22.12.2019
2156 Rain 7 982 93 10000 6.2 180 07:21 22.12.2019
2157 Clouds 7 982 93 10000 3.6 180 06:42 22.12.2019
2158 Rain 7 982 93 10000 4.1 150 06:22 22.12.2019
2159 Rain 7 982 93 10000 5.1 170 05:29 22.12.2019
2160 Clouds 7 983 93 10000 6.2 180 04:46 22.12.2019
2161 Clouds 7 983 100 10000 3.6 160 04:24 22.12.2019
2162 Rain 7 983 100 10000 4.1 180 02:43 22.12.2019
2163 Rain 7 983 100 10000 4.1 180 02:43 22.12.2019
2164 Rain 7 983 100 10000 4.1 180 02:43 22.12.2019
2165 Rain 7 983 100 10000 4.1 180 02:43 22.12.2019
2166 Rain 6 983 93 10000 5.1 180 01:59 22.12.2019
2167 Rain 6 983 93 10000 5.7 190 01:31 22.12.2019
2168 Clouds 6 983 93 10000 3.6 140 00:54 22.12.2019
2169 Clouds 6 983 93 10000 3.6 140 00:36 22.12.2019
2170 Rain 5 984 86 10000 3.1 150 00:18 22.12.2019
2171 Rain 5 984 75 10000 4.6 150 23:40 21.12.2019
2172 Clouds 5 984 80 10000 2.6 110 23:21 21.12.2019
2173 Clouds 5 985 93 10000 8.2 140 22:56 21.12.2019
2174 Rain 5 984 81 10000 4.6 160 22:37 21.12.2019
2175 Clouds 5 985 86 10000 2.6 110 22:18 21.12.2019
2176 Rain 5 986 93 10000 6.2 150 21:54 21.12.2019
2177 Rain 5 985 81 10000 4.6 140 21:36 21.12.2019
2178 Clouds 5 986 86 10000 1.5 120 21:18 21.12.2019
2179 Clouds 5 986 100 10000 4.6 140 20:55 21.12.2019
2180 Clouds 5 986 86 10000 4.6 140 20:37 21.12.2019
2181 Clouds 5 987 81 10000 3.1 140 20:18 21.12.2019
2182 Clouds 5 988 86 10000 4.1 160 19:54 21.12.2019
2183 Clouds 6 988 81 10000 3.6 160 19:36 21.12.2019
2184 Clouds 6 988 81 10000 2.6 130 19:18 21.12.2019
2185 Clouds 6 989 87 10000 5.1 160 18:40 21.12.2019
2186 Clouds 6 990 81 10000 3.14 144 18:22 21.12.2019
2187 Clouds 6 990 86 10000 5.1 200 17:56 21.12.2019
2188 Clouds 6 989 87 10000 4.1 160 17:37 21.12.2019
2189 Clouds 6 990 81 10000 2.1 160 17:19 21.12.2019
2190 Clouds 6 990 93 10000 4.6 210 16:55 21.12.2019
2191 Clouds 6 990 87 10000 4.6 180 16:36 21.12.2019
2192 Clouds 6 990 81 10000 5.1 200 16:18 21.12.2019
2193 Clouds 6 990 100 10000 3.6 180 15:55 21.12.2019
2194 Clouds 6 990 87 10000 3.6 180 15:37 21.12.2019
2195 Clouds 6 991 87 10000 6.7 200 15:18 21.12.2019
2196 Clouds 6 991 87 10000 6.7 190 14:41 21.12.2019
2197 Rain 6 991 100 10000 5.1 220 14:23 21.12.2019
2198 Rain 6 992 100 10000 4.6 210 13:58 21.12.2019
2199 Rain 6 992 100 7000 4.6 200 13:39 21.12.2019
2200 Clouds 6 992 87 10000 4.1 170 13:19 21.12.2019
2201 Clouds 6 992 87 10000 4.6 190 12:56 21.12.2019
2202 Clouds 6 993 87 10000 4.1 200 12:38 21.12.2019
2203 Clouds 6 993 87 10000 4.1 200 12:38 21.12.2019
2204 Clouds 6 993 87 10000 4.1 200 12:38 21.12.2019
2205 Clouds 6 993 87 10000 6.2 200 12:20 21.12.2019
2206 Clouds 5 993 87 10000 4.6 170 11:55 21.12.2019
2207 Clouds 5 993 100 7000 3.6 180 11:37 21.12.2019
2208 Clouds 5 993 87 10000 3.1 170 11:19 21.12.2019
2209 Mist 5 993 100 2200 4.1 170 10:41 21.12.2019
2210 Clouds 5 993 93 10000 2.1 140 10:22 21.12.2019
2211 Mist 4 993 93 2000 3.6 180 09:58 21.12.2019
2212 Clouds 4 994 93 10000 2.1 170 09:40 21.12.2019
2213 Clouds 4 993 93 10000 2.1 130 09:20 21.12.2019
2214 Mist 4 993 93 2000 3.6 180 08:52 21.12.2019
2215 Clouds 4 993 100 10000 4.1 160 08:27 21.12.2019
2216 Clouds 4 993 100 7000 3.1 160 07:59 21.12.2019
2217 Clouds 4 993 100 10000 4.1 170 07:41 21.12.2019
2218 Clouds 4 993 93 10000 2.6 170 07:21 21.12.2019
2219 Clouds 4 993 93 9000 3.1 140 06:42 21.12.2019
2220 Clouds 4 993 100 10000 4.6 140 06:24 21.12.2019
2221 Clouds 5 993 100 10000 2.6 170 05:43 21.12.2019
2222 Clouds 5 993 93 10000 4.6 190 04:56 21.12.2019
2223 Clouds 5 994 93 10000 5.7 200 03:56 21.12.2019
2224 Clouds 6 994 87 10000 6.2 190 02:40 21.12.2019
2225 Clouds 6 993 93 10000 6.2 220 01:55 21.12.2019
2226 Clouds 6 993 93 10000 5.7 220 01:27 21.12.2019
2227 Clouds 6 993 93 10000 4.6 200 00:51 21.12.2019
2228 Clouds 6 993 93 10000 4.6 200 00:31 21.12.2019
2229 Clouds 6 993 87 10000 5.7 230 23:56 20.12.2019
2230 Clouds 6 993 87 10000 3.1 200 23:37 20.12.2019
2231 Clouds 6 993 87 10000 5.7 200 23:18 20.12.2019
2232 Clouds 6 992 87 10000 5.1 210 22:40 20.12.2019
2233 Clouds 6 992 81 10000 7.2 210 22:21 20.12.2019
2234 Clouds 7 992 93 10000 5.7 220 21:57 20.12.2019
2235 Clouds 6 992 87 10000 5.7 210 21:39 20.12.2019
2236 Clouds 7 992 87 10000 4.6 200 21:19 20.12.2019
2237 Clouds 7 992 87 10000 5.1 220 20:39 20.12.2019
2238 Clouds 7 991 87 10000 6.7 220 20:20 20.12.2019
2239 Clouds 7 992 87 10000 5.1 230 19:58 20.12.2019
2240 Clouds 7 991 87 10000 6.7 210 19:40 20.12.2019
2241 Clouds 7 991 87 10000 6.7 210 19:40 20.12.2019
2242 Clouds 8 991 87 10000 6.7 220 19:19 20.12.2019
2243 Clouds 8 991 93 10000 6.7 240 18:54 20.12.2019
2244 Clouds 8 990 87 10000 5.1 220 18:36 20.12.2019
2245 Clouds 8 990 87 10000 7.7 220 18:18 20.12.2019
2246 Clouds 8 990 93 10000 8.2 200 17:42 20.12.2019
2247 Clouds 8 990 93 10000 8.2 200 17:42 20.12.2019
2248 Clouds 9 990 93 10000 8.2 200 17:21 20.12.2019
2249 Clouds 9 989 100 10000 6.7 200 16:59 20.12.2019
2250 Clouds 9 988 100 10000 5.1 180 16:40 20.12.2019
2251 Clouds 9 988 100 10000 5.1 180 16:20 20.12.2019
2252 Clouds 9 988 100 10000 5.1 180 16:20 20.12.2019
2253 Rain 10 987 93 10000 6.2 190 15:57 20.12.2019
2254 Rain 10 987 93 2500 5.1 170 15:39 20.12.2019
2255 Rain 9 987 93 10000 5.1 180 15:19 20.12.2019
2256 Rain 9 987 93 10000 5.7 180 14:58 20.12.2019
2257 Clouds 9 987 87 10000 5.1 170 14:39 20.12.2019
2258 Clouds 9 987 87 10000 5.1 170 14:21 20.12.2019
2259 Rain 9 987 93 8000 6.2 170 13:55 20.12.2019
2260 Rain 9 988 93 7000 5.7 150 13:36 20.12.2019
2261 Clouds 9 988 87 10000 5.7 150 13:18 20.12.2019
2262 Clouds 9 988 93 10000 4.6 140 12:41 20.12.2019
2263 Rain 8 988 93 10000 5.1 140 12:19 20.12.2019
2264 Rain 8 989 93 10000 5.7 150 11:59 20.12.2019
2265 Rain 8 990 93 4000 4.6 140 11:40 20.12.2019
2266 Rain 7 990 93 10000 3.1 90 11:21 20.12.2019
2267 Rain 7 990 93 8000 6.2 140 10:59 20.12.2019
2268 Rain 7 990 93 8000 6.2 140 10:41 20.12.2019
2269 Rain 7 991 87 10000 2.1 110 10:21 20.12.2019
2270 Rain 7 992 81 10000 2.1 120 09:58 20.12.2019
2271 Rain 6 991 93 4500 3.6 140 09:40 20.12.2019
2272 Rain 7 991 75 10000 3.1 100 09:20 20.12.2019
2273 Rain 6 991 81 10000 2.6 180 08:44 20.12.2019
2274 Clouds 6 991 75 10000 3.1 70 08:26 20.12.2019
2275 Rain 7 992 81 10000 2.6 170 07:59 20.12.2019
2276 Rain 7 992 81 10000 2.6 170 07:41 20.12.2019
2277 Clouds 7 992 81 10000 4.1 70 07:20 20.12.2019
2278 Clouds 6 992 81 10000 3.1 80 06:52 20.12.2019
2279 Clear 6 993 81 10000 4.1 70 06:33 20.12.2019
2280 Clouds 6 993 75 10000 3.1 120 05:56 20.12.2019
2281 Clouds 7 994 86 10000 4.1 140 05:38 20.12.2019
2282 Clouds 8 996 81 10000 4.1 150 04:34 20.12.2019
2283 Clear 8 998 81 10000 3.1 70 03:32 20.12.2019
2284 Clouds 7 998 66 10000 5.1 140 02:45 20.12.2019
2285 Clouds 7 998 66 10000 5.1 140 02:45 20.12.2019
2286 Clouds 8 1000 70 10000 4.6 140 01:55 20.12.2019
2287 Clouds 8 1000 81 10000 3.6 140 01:35 20.12.2019
2288 Clouds 8 1001 71 10000 5.1 160 00:53 20.12.2019
2289 Clouds 8 1002 86 10000 3.6 120 00:34 20.12.2019
2290 Clouds 9 1002 71 10000 4.6 140 23:57 19.12.2019
2291 Clouds 9 1003 75 10000 3.1 120 23:39 19.12.2019
2292 Clouds 9 1003 70 10000 2.1 60 23:19 19.12.2019
2293 Fog 9 1004 100 400 7.2 130 22:39 19.12.2019
2294 Clear 9 1004 70 10000 3.6 110 22:21 19.12.2019
2295 Clouds 9 1004 71 10000 4.1 150 21:56 19.12.2019
2296 Clouds 10 1005 81 10000 3.1 130 21:38 19.12.2019
2297 Clear 10 1005 61 10000 3.6 140 21:19 19.12.2019
2298 Clouds 10 1005 71 10000 4.6 150 20:56 19.12.2019
2299 Clouds 10 1005 87 10000 4.1 130 20:37 19.12.2019
2300 Clouds 10 1005 66 10000 2.1 90 20:19 19.12.2019
2301 Clouds 10 1005 66 10000 5.1 170 19:58 19.12.2019
2302 Clouds 10 1005 66 10000 5.1 170 19:58 19.12.2019
2303 Clouds 10 1006 87 10000 3.6 130 19:39 19.12.2019
2304 Clouds 10 1006 66 10000 2.6 90 19:19 19.12.2019
2305 Clouds 10 1006 66 10000 2.6 90 19:19 19.12.2019
2306 Clouds 10 1006 66 10000 2.6 90 19:19 19.12.2019
2307 Clouds 10 1006 66 10000 4.1 150 18:57 19.12.2019
2308 Clouds 10 1006 66 10000 4.1 150 18:57 19.12.2019
2309 Mist 9 1007 100 1200 8.7 150 18:39 19.12.2019
2310 Clear 9 1007 62 10000 2.1 110 18:19 19.12.2019
2311 Clouds 10 1007 66 10000 4.6 160 17:56 19.12.2019
2312 Clouds 10 1007 87 10000 3.1 120 17:37 19.12.2019
2313 Clear 11 1007 62 10000 4.1 160 17:18 19.12.2019
2314 Clear 11 1007 62 10000 4.1 160 17:18 19.12.2019
2315 Clear 11 1008 66 10000 5.1 180 16:56 19.12.2019
2316 Clouds 11 1008 71 10000 3.6 140 16:37 19.12.2019
2317 Clear 12 1008 54 10000 6.2 150 16:19 19.12.2019
2318 Clear 12 1008 62 10000 6.2 170 15:57 19.12.2019
2319 Clear 12 1008 62 10000 6.2 170 15:57 19.12.2019
2320 Clouds 12 1008 58 10000 6.2 190 15:37 19.12.2019
2321 Clouds 12 1008 58 10000 6.2 190 15:37 19.12.2019
2322 Clear 12 1008 54 10000 5.7 180 15:19 19.12.2019
2323 Clear 12 1008 54 10000 5.7 180 15:19 19.12.2019
2324 Clear 12 1008 66 10000 6.7 170 14:54 19.12.2019
2325 Clouds 12 1009 58 10000 6.2 190 14:36 19.12.2019
2326 Clear 12 1009 58 10000 6.7 170 14:18 19.12.2019
2327 Clouds 12 1009 71 10000 3.1 140 13:38 19.12.2019
2328 Clear 12 1010 62 10000 3.1 140 13:20 19.12.2019
2329 Clear 12 1010 66 10000 5.1 150 12:58 19.12.2019
2330 Clear 12 1010 66 10000 5.1 150 12:58 19.12.2019
2331 Clouds 11 1011 71 10000 3.6 140 12:39 19.12.2019
2332 Clear 11 1011 66 10000 2.1 110 12:19 19.12.2019
2333 Clear 11 1011 66 10000 2.1 110 12:19 19.12.2019
2334 Clear 11 1011 66 10000 2.1 110 12:19 19.12.2019
2335 Clear 11 1011 71 10000 4.1 150 11:58 19.12.2019
2336 Clear 10 1011 71 10000 4.1 150 11:40 19.12.2019
2337 Clear 9 1012 76 10000 3.1 90 11:18 19.12.2019
2338 Clear 9 1012 76 10000 3.1 150 10:58 19.12.2019
2339 Clouds 8 1012 71 10000 3.6 140 10:38 19.12.2019
2340 Clear 7 1012 81 10000 3.1 90 10:20 19.12.2019
2341 Clear 7 1012 81 10000 3.1 140 09:56 19.12.2019
2342 Clouds 7 1012 81 10000 3.6 140 09:37 19.12.2019
2343 Clouds 7 1012 81 10000 3.6 140 09:37 19.12.2019
2344 Clear 7 1012 76 10000 3.6 120 09:19 19.12.2019
2345 Clear 6 1012 87 10000 3.6 140 08:55 19.12.2019
2346 Clear 6 1012 87 10000 3.6 140 08:55 19.12.2019
2347 Clouds 6 1012 76 10000 4.6 180 08:37 19.12.2019
2348 Clear 6 1013 87 10000 3.6 110 08:18 19.12.2019
2349 Clear 6 1013 87 10000 3.6 110 08:18 19.12.2019
2350 Clear 7 1013 87 10000 2.6 130 07:42 19.12.2019
2351 Clear 7 1013 87 10000 2.6 130 07:41 19.12.2019
2352 Clear 7 1013 87 10000 1.5 40 07:23 19.12.2019
2353 Clear 7 1013 87 10000 3.1 150 06:59 19.12.2019
2354 Clouds 7 1014 81 10000 2.1 140 06:41 19.12.2019
2355 Clouds 7 1014 81 10000 2.1 140 06:21 19.12.2019
2356 Clear 7 1014 93 10000 3.1 170 05:42 19.12.2019
2357 Clouds 7 1014 87 10000 3.6 130 05:19 19.12.2019
2358 Clouds 7 1014 87 10000 3.1 170 03:54 19.12.2019
2359 Mist 6 1015 100 8000 4.1 100 02:29 19.12.2019
2360 Clear 6 1015 100 10000 5.1 80 01:26 19.12.2019
2361 Clouds 6 1015 93 6000 2.1 120 00:59 19.12.2019
2362 Clouds 6 1015 100 300 3.6 130 00:39 19.12.2019
2363 Clear 7 1016 100 10000 4.1 80 00:19 19.12.2019
2364 Mist 7 1016 100 1600 3.6 80 23:45 18.12.2019
2365 Mist 7 1016 100 1600 3.6 80 23:45 18.12.2019
2366 Mist 7 1016 100 9000 4.6 90 23:19 18.12.2019
2367 Mist 7 1016 100 5000 4.1 80 22:58 18.12.2019
2368 Fog 7 1017 100 300 7.2 150 22:40 18.12.2019
2369 Clear 7 1016 100 10000 3.6 80 22:22 18.12.2019
2370 Clear 6 1016 93 8000 3.1 100 21:59 18.12.2019
2371 Clouds 7 1017 100 6000 7.2 150 21:40 18.12.2019
2372 Clear 7 1017 100 10000 3.6 90 21:20 18.12.2019
2373 Clear 7 1016 93 7000 4.1 120 20:57 18.12.2019
2374 Clear 7 1017 93 8000 3.6 160 20:39 18.12.2019
2375 Clear 7 1017 93 10000 3.6 100 20:20 18.12.2019
2376 Clouds 7 1016 93 10000 3.1 120 19:57 18.12.2019
2377 Clouds 7 1016 93 6000 2.1 120 19:39 18.12.2019
2378 Clear 7 1017 93 10000 3.1 80 19:19 18.12.2019
2379 Clouds 7 1016 93 10000 4.1 130 18:56 18.12.2019
2380 Clouds 7 1017 93 10000 3.6 90 18:38 18.12.2019
2381 Clouds 7 1017 93 10000 3.6 90 18:20 18.12.2019
2382 Clouds 7 1016 93 10000 3.1 130 17:55 18.12.2019
2383 Clouds 7 1017 100 10000 3.6 90 17:37 18.12.2019
2384 Clouds 7 1017 100 10000 3.6 90 17:19 18.12.2019
2385 Clouds 7 1016 87 10000 2.6 120 16:43 18.12.2019
2386 Clouds 7 1017 93 10000 4.1 140 16:24 18.12.2019
2387 Clouds 8 1016 87 10000 3.6 130 15:59 18.12.2019
2388 Clouds 8 1017 87 10000 2.1 120 15:40 18.12.2019
2389 Clear 8 1017 81 10000 1.5 100 15:21 18.12.2019
2390 Clouds 8 1017 87 10000 3.6 140 14:59 18.12.2019
2391 Clouds 8 1017 81 10000 2.3 110 14:40 18.12.2019
2392 Haze 8 1017 81 9000 2.23 180 14:20 18.12.2019
2393 Clouds 8 1017 81 10000 1.5 210 13:56 18.12.2019
2394 Clouds 8 1017 81 10000 2.23 180 13:37 18.12.2019
2395 Clouds 8 1017 87 10000 2.1 210 13:19 18.12.2019
2396 Clouds 8 1017 87 10000 1.5 260 12:57 18.12.2019
2397 Clouds 7 1017 93 7000 2.1 200 12:37 18.12.2019
2398 Clouds 7 1017 87 10000 1.5 230 12:19 18.12.2019
2399 Clouds 7 1017 93 10000 2.6 220 11:55 18.12.2019
2400 Clouds 7 1017 93 10000 2.1 240 11:37 18.12.2019
2401 Clouds 7 1017 93 10000 2.1 240 11:37 18.12.2019
2402 Clouds 7 1017 93 10000 1.5 200 11:18 18.12.2019
2403 Clouds 6 1018 93 10000 2.6 210 10:55 18.12.2019
2404 Mist 6 1017 93 2500 1.5 190 10:37 18.12.2019
2405 Clouds 6 1017 93 10000 2.1 210 10:19 18.12.2019
2406 Clouds 6 1016 100 10000 3.1 230 09:43 18.12.2019
2407 Clouds 6 1016 100 10000 3.6 220 09:18 18.12.2019
2408 Clouds 6 1016 100 10000 3.1 250 08:41 18.12.2019
2409 Clouds 6 1015 93 10000 2.6 200 08:22 18.12.2019
2410 Clouds 6 1015 100 8000 2.6 230 07:43 18.12.2019
2411 Clouds 6 1014 93 10000 2.6 200 07:23 18.12.2019
2412 Clouds 7 1014 100 10000 2.6 280 06:56 18.12.2019
2413 Clouds 7 1013 100 10000 3.1 250 06:27 18.12.2019
2414 Rain 7 1014 93 10000 3.1 280 05:57 18.12.2019
2415 Rain 7 1014 100 10000 3.6 250 04:59 18.12.2019
2416 Rain 8 1012 93 10000 4.6 270 03:31 18.12.2019
2417 Rain 8 1011 100 10000 3.6 250 02:38 18.12.2019
2418 Rain 9 1010 100 10000 6.2 220 02:19 18.12.2019
2419 Rain 9 1010 100 6000 5.1 200 01:42 18.12.2019
2420 Clouds 9 1009 93 10000 6.2 200 01:23 18.12.2019
2421 Clouds 9 1009 93 10000 5.7 200 00:42 18.12.2019
2422 Clouds 9 1008 93 10000 5.1 190 00:23 18.12.2019
2423 Rain 9 1008 93 10000 5.1 240 23:58 17.12.2019
2424 Clouds 9 1008 93 10000 3.6 200 23:39 17.12.2019
2425 Rain 9 1008 93 10000 4.6 210 23:20 17.12.2019
2426 Rain 10 1008 93 10000 7.2 250 22:56 17.12.2019
2427 Rain 10 1008 100 3000 5.1 220 22:38 17.12.2019
2428 Rain 10 1007 93 10000 6.2 220 22:19 17.12.2019
2429 Rain 10 1007 71 10000 8.7 230 21:56 17.12.2019
2430 Rain 10 1007 71 10000 8.7 230 21:56 17.12.2019
2431 Rain 10 1007 71 10000 8.7 230 21:56 17.12.2019
2432 Rain 10 1006 93 10000 7.2 220 21:38 17.12.2019
2433 Rain 10 1005 87 10000 3.6 160 21:19 17.12.2019
2434 Rain 11 1005 87 10000 6.2 160 20:58 17.12.2019
2435 Rain 11 1005 87 10000 3.1 160 20:39 17.12.2019
2436 Rain 11 1005 87 10000 3.6 180 20:18 17.12.2019
2437 Rain 11 1005 87 10000 5.1 220 19:56 17.12.2019
2438 Rain 11 1005 87 10000 4.6 180 19:38 17.12.2019
2439 Clouds 11 1005 87 10000 6.7 190 19:19 17.12.2019
2440 Rain 11 1006 87 10000 6.2 230 18:56 17.12.2019
2441 Rain 11 1005 87 10000 7.7 190 18:37 17.12.2019
2442 Rain 12 1005 76 10000 7.7 190 18:19 17.12.2019
2443 Clouds 12 1005 66 10000 7.7 180 17:42 17.12.2019
2444 Clouds 12 1005 62 10000 6.2 180 17:21 17.12.2019
2445 Clouds 13 1005 62 10000 8.2 190 16:57 17.12.2019
2446 Clouds 12 1004 62 10000 5.1 190 16:38 17.12.2019
2447 Clouds 13 1004 58 10000 4.6 190 16:19 17.12.2019
2448 Clouds 13 1004 58 10000 4.6 190 15:59 17.12.2019
2449 Clouds 13 1004 62 10000 4.6 200 15:38 17.12.2019
2450 Clear 13 1004 62 10000 3.1 190 15:19 17.12.2019
2451 Clouds 13 1005 54 10000 9.8 210 14:56 17.12.2019
2452 Clouds 13 1005 54 10000 9.8 210 14:56 17.12.2019
2453 Rain 13 1004 62 10000 5.7 190 14:38 17.12.2019
2454 Clear 13 1004 62 10000 3.6 230 14:19 17.12.2019
2455 Clouds 14 1005 54 10000 9.3 210 13:56 17.12.2019
2456 Clouds 13 1004 62 10000 5.7 180 13:38 17.12.2019
2457 Clear 13 1004 62 10000 3.1 200 13:19 17.12.2019
2458 Clear 13 1004 62 10000 3.1 200 13:19 17.12.2019
2459 Clouds 13 1005 54 10000 6.2 230 12:58 17.12.2019
2460 Clouds 13 1004 66 10000 4.6 170 12:38 17.12.2019
2461 Clear 13 1005 66 10000 4.1 200 12:18 17.12.2019
2462 Clear 13 1005 66 10000 4.1 200 12:18 17.12.2019
2463 Clouds 12 1005 54 10000 5.7 220 11:56 17.12.2019
2464 Clouds 12 1005 71 10000 3.1 170 11:37 17.12.2019
2465 Clear 11 1005 71 10000 3.6 180 11:18 17.12.2019
2466 Clouds 11 1004 71 10000 3.6 180 10:57 17.12.2019
2467 Clouds 10 1004 71 10000 3.6 180 10:38 17.12.2019
2468 Clear 10 1004 66 10000 1.5 160 10:19 17.12.2019
2469 Clouds 9 1005 87 10000 3.6 140 09:55 17.12.2019
2470 Clouds 9 1004 71 10000 4.1 170 09:37 17.12.2019
2471 Clear 9 1004 76 10000 3.52 154 09:18 17.12.2019
2472 Clouds 9 1004 87 10000 5.1 150 08:54 17.12.2019
2473 Clouds 9 1003 76 10000 3.6 180 08:36 17.12.2019
2474 Clouds 9 1003 76 10000 3.84 156 08:18 17.12.2019
2475 Clouds 9 1003 76 10000 4.1 180 07:42 17.12.2019
2476 Clouds 9 1003 76 10000 4.1 200 07:22 17.12.2019
2477 Clouds 9 1002 76 10000 4.1 170 06:50 17.12.2019
2478 Clouds 9 1003 66 10000 3.1 170 06:32 17.12.2019
2479 Clouds 9 1002 76 10000 4.1 180 05:50 17.12.2019
2480 Clouds 9 1003 62 10000 5.7 210 05:31 17.12.2019
2481 Clouds 9 1002 76 10000 5.1 200 04:19 17.12.2019
2482 Rain 8 1003 76 10000 8.2 190 02:27 17.12.2019
2483 Clouds 8 1002 76 10000 3.1 160 01:34 17.12.2019
2484 Clouds 8 1002 100 10000 5.7 140 00:56 17.12.2019
2485 Clouds 8 1002 81 10000 3.1 150 00:36 17.12.2019
2486 Clouds 8 1002 93 10000 2.6 110 00:18 17.12.2019
2487 Clouds 8 1002 81 10000 2.1 120 23:40 16.12.2019
2488 Clouds 8 1002 87 10000 3.1 100 23:19 16.12.2019
2489 Clouds 7 1003 81 10000 4.1 140 22:55 16.12.2019
2490 Clouds 7 1003 81 10000 4.1 140 22:37 16.12.2019
2491 Clouds 7 1003 93 10000 3.1 100 22:19 16.12.2019
2492 Clouds 7 1003 100 10000 7.2 150 21:54 16.12.2019
2493 Clouds 7 1003 87 10000 3.6 130 21:36 16.12.2019
2494 Clear 7 1004 100 10000 3.1 90 21:18 16.12.2019
2495 Clouds 7 1004 100 10000 7.2 160 20:56 16.12.2019
2496 Clouds 7 1004 87 10000 4.1 130 20:37 16.12.2019
2497 Clear 7 1004 100 10000 3.6 100 20:19 16.12.2019
2498 Clouds 7 1004 100 10000 5.7 150 19:55 16.12.2019
2499 Clouds 8 1004 93 10000 3.1 130 19:36 16.12.2019
2500 Clouds 7 1004 100 10000 3.1 110 19:18 16.12.2019
2501 Clouds 8 1005 93 10000 5.7 150 18:55 16.12.2019
2502 Clouds 8 1004 87 10000 3.1 130 18:37 16.12.2019
2503 Clouds 8 1004 100 10000 2.6 90 18:19 16.12.2019
2504 Clouds 8 1005 100 10000 4.6 140 17:56 16.12.2019
2505 Clouds 8 1004 87 10000 3.1 130 17:37 16.12.2019
2506 Clouds 8 1005 93 10000 2.1 110 17:19 16.12.2019
2507 Clouds 8 1005 93 10000 2.6 130 16:55 16.12.2019
2508 Clouds 8 1005 93 10000 2.6 130 16:37 16.12.2019
2509 Clouds 9 1005 87 10000 1.5 160 16:18 16.12.2019
2510 Clouds 9 1005 100 10000 3.1 140 15:55 16.12.2019
2511 Clouds 9 1005 93 10000 2.1 150 15:37 16.12.2019
2512 Clouds 10 1005 93 10000 3.1 200 15:19 16.12.2019
2513 Clouds 10 1005 93 10000 3.1 170 14:54 16.12.2019
2514 Clouds 10 1005 93 10000 3.6 170 14:36 16.12.2019
2515 Clouds 10 1005 87 10000 3.1 180 14:18 16.12.2019
2516 Clouds 10 1005 87 10000 2.6 190 13:55 16.12.2019
2517 Clouds 10 1005 87 10000 2.6 190 13:36 16.12.2019
2518 Clouds 9 1006 100 10000 4.6 180 13:18 16.12.2019
2519 Clouds 9 1006 93 8000 3.1 170 12:54 16.12.2019
2520 Clouds 9 1006 93 8000 3.1 170 12:36 16.12.2019
2521 Clouds 9 1006 100 10000 3.1 180 12:18 16.12.2019
2522 Clouds 9 1007 100 7000 2.6 150 11:55 16.12.2019
2523 Clouds 8 1007 100 7000 2.6 150 11:37 16.12.2019
2524 Mist 8 1007 100 10000 3.1 190 11:19 16.12.2019
2525 Mist 8 1007 100 4000 2.6 170 10:40 16.12.2019
2526 Clouds 8 1007 100 10000 2.1 200 10:21 16.12.2019
2527 Clouds 8 1007 100 10000 3.1 180 09:56 16.12.2019
2528 Mist 8 1007 100 3200 3.6 180 09:38 16.12.2019
2529 Rain 7 1007 100 3200 2.1 130 09:20 16.12.2019
2530 Drizzle 7 1007 100 1000 1.5 90 08:40 16.12.2019
2531 Fog 7 1006 100 800 2.1 90 08:19 16.12.2019
2532 Fog 7 1006 100 800 2.1 90 08:19 16.12.2019
2533 Mist 7 1007 100 3200 2.1 130 07:52 16.12.2019
2534 Mist 7 1007 100 1800 2.6 170 07:31 16.12.2019
2535 Clouds 7 1007 100 10000 2.74 159 06:57 16.12.2019
2536 Clouds 7 1007 100 10000 2.74 159 06:39 16.12.2019
2537 Clouds 7 1007 100 10000 2.74 159 06:18 16.12.2019
2538 Rain 7 1007 100 10000 2.74 159 05:41 16.12.2019
2539 Mist 7 1007 93 2800 2.95 170 05:22 16.12.2019
2540 Clouds 7 1008 93 10000 3.6 180 03:28 16.12.2019
2541 Rain 7 1008 93 10000 1.5 120 01:51 16.12.2019
2542 Rain 7 1008 93 400 3.6 180 01:33 16.12.2019
2543 Rain 6 1008 93 10000 1.5 110 00:39 16.12.2019
2544 Rain 6 1008 93 10000 2.1 160 00:20 16.12.2019
2545 Clouds 6 1008 100 10000 4.6 140 23:57 15.12.2019
2546 Clouds 6 1008 93 10000 2.96 180 23:37 15.12.2019
2547 Clouds 6 1008 93 10000 2.69 168 23:19 15.12.2019
2548 Clouds 6 1008 93 10000 2.6 180 22:54 15.12.2019
2549 Clouds 6 1008 93 10000 2.6 180 22:36 15.12.2019
2550 Clouds 6 1008 87 10000 2.6 190 22:18 15.12.2019
2551 Clouds 6 1008 87 10000 3.6 230 21:55 15.12.2019
2552 Clouds 6 1008 93 10000 2.6 200 21:36 15.12.2019
2553 Clouds 6 1008 93 10000 3.6 190 21:18 15.12.2019
2554 Clouds 6 1008 93 10000 4.6 220 20:54 15.12.2019
2555 Clouds 6 1008 93 10000 3.1 200 20:36 15.12.2019
2556 Clouds 5 1008 93 10000 2.6 190 20:18 15.12.2019
2557 Clouds 5 1008 86 10000 3.6 230 19:54 15.12.2019
2558 Clouds 5 1008 93 10000 2.6 200 19:36 15.12.2019
2559 Clouds 5 1007 86 10000 2.1 210 19:18 15.12.2019
2560 Clouds 5 1007 87 10000 2.6 190 18:54 15.12.2019
2561 Clouds 5 1007 87 10000 2.6 190 18:36 15.12.2019
2562 Clear 6 1007 80 10000 2.1 240 18:18 15.12.2019
2563 Clouds 6 1007 81 10000 3.6 220 17:55 15.12.2019
2564 Clouds 6 1007 81 10000 3.6 220 17:36 15.12.2019
2565 Clear 6 1006 75 10000 3.6 220 17:18 15.12.2019
2566 Clouds 7 1006 75 10000 4.1 230 16:42 15.12.2019
2567 Clouds 7 1006 75 10000 3.6 220 16:22 15.12.2019
2568 Clouds 7 1005 81 10000 6.7 250 15:57 15.12.2019
2569 Clouds 7 1006 70 10000 5.7 220 15:39 15.12.2019
2570 Clouds 7 1005 70 10000 5.7 230 15:19 15.12.2019
2571 Clouds 7 1005 81 10000 6.7 260 14:56 15.12.2019
2572 Clouds 7 1005 75 10000 5.7 230 14:37 15.12.2019
2573 Clouds 7 1005 75 10000 6.7 220 14:19 15.12.2019
2574 Clouds 7 1006 87 10000 5.7 240 13:59 15.12.2019
2575 Clouds 7 1005 81 10000 8.2 250 13:39 15.12.2019
2576 Clouds 7 1004 81 10000 4.6 230 13:20 15.12.2019
2577 Clouds 7 1003 87 10000 9.3 260 12:57 15.12.2019
2578 Clouds 7 1004 87 10000 6.7 250 12:39 15.12.2019
2579 Clear 8 1003 81 10000 5.1 220 12:21 15.12.2019
2580 Clouds 7 1003 87 10000 7.7 260 11:59 15.12.2019
2581 Clouds 7 1003 81 10000 7.7 250 11:38 15.12.2019
2582 Clouds 7 1003 87 10000 6.2 230 11:19 15.12.2019
2583 Clouds 7 1003 87 10000 6.2 230 11:19 15.12.2019
2584 Clouds 7 1002 81 10000 5.1 230 10:55 15.12.2019
2585 Clouds 7 1002 81 10000 5.1 230 10:37 15.12.2019
2586 Clouds 7 1002 81 10000 5.1 230 10:37 15.12.2019
2587 Clouds 7 1001 87 10000 5.1 230 10:19 15.12.2019
2588 Clouds 7 1001 81 10000 5.1 240 09:57 15.12.2019
2589 Clouds 7 1001 81 10000 5.1 240 09:37 15.12.2019
2590 Rain 7 1000 87 10000 6.7 250 09:19 15.12.2019
2591 Rain 8 999 87 10000 11.3 260 08:42 15.12.2019
2592 Clouds 9 998 81 10000 9.8 210 08:23 15.12.2019
2593 Rain 9 998 87 10000 9.8 240 07:57 15.12.2019
2594 Clouds 9 999 87 10000 8.7 230 07:38 15.12.2019
2595 Clouds 9 997 93 10000 10.8 210 07:19 15.12.2019
2596 Clouds 9 997 93 10000 10.8 210 06:24 15.12.2019
2597 Clouds 9 997 93 10000 9.8 210 05:42 15.12.2019
2598 Rain 8 997 93 10000 9.8 210 05:20 15.12.2019
2599 Rain 8 997 93 10000 8.7 190 04:19 15.12.2019
2600 Rain 7 999 100 6000 4.1 190 02:50 15.12.2019
2601 Rain 7 999 100 6000 4.1 190 02:31 15.12.2019
2602 Rain 6 999 93 10000 4.6 170 01:40 15.12.2019
2603 Rain 6 999 93 10000 3.6 170 01:18 15.12.2019
2604 Clouds 6 1000 93 10000 2.6 180 00:49 15.12.2019
2605 Rain 6 1001 93 10000 4.6 210 00:31 15.12.2019
2606 Clouds 5 1001 93 10000 4.1 190 23:41 14.12.2019
2607 Clouds 5 1002 93 10000 4.1 200 23:23 14.12.2019
2608 Clouds 5 1002 86 10000 4.1 220 22:59 14.12.2019
2609 Clouds 5 1002 86 10000 4.6 190 22:41 14.12.2019
2610 Clear 5 1002 86 10000 5.1 220 22:22 14.12.2019
2611 Clouds 5 1002 86 10000 5.7 250 21:58 14.12.2019
2612 Clouds 5 1002 93 10000 4.6 220 21:40 14.12.2019
2613 Clouds 5 1002 86 10000 5.1 230 21:20 14.12.2019
2614 Clouds 5 1001 86 10000 9.3 250 20:59 14.12.2019
2615 Clouds 6 1002 87 10000 5.1 230 20:41 14.12.2019
2616 Clear 6 1001 80 10000 6.7 230 20:20 14.12.2019
2617 Clouds 6 1000 86 10000 9.3 260 19:59 14.12.2019
2618 Clouds 6 1002 81 10000 6.7 240 19:39 14.12.2019
2619 Clouds 6 1000 86 10000 6.2 240 19:21 14.12.2019
2620 Clouds 6 999 86 10000 10.3 250 18:57 14.12.2019
2621 Clouds 6 999 86 10000 8.2 230 18:38 14.12.2019
2622 Clouds 6 999 86 10000 8.2 230 18:20 14.12.2019
2623 Rain 6 999 86 10000 7.7 240 17:57 14.12.2019
2624 Rain 6 999 86 10000 7.7 240 17:38 14.12.2019
2625 Rain 6 998 81 10000 7.7 220 17:20 14.12.2019
2626 Rain 6 998 86 10000 10.3 220 16:41 14.12.2019
2627 Clouds 6 997 86 10000 9.8 220 16:19 14.12.2019
2628 Rain 6 997 80 10000 9.3 240 15:55 14.12.2019
2629 Rain 6 997 75 10000 13.4 220 15:37 14.12.2019
2630 Clouds 6 997 75 10000 7.2 220 15:19 14.12.2019
2631 Rain 6 996 86 10000 8.7 240 14:56 14.12.2019
2632 Rain 7 997 86 10000 10.3 220 14:37 14.12.2019
2633 Rain 7 997 75 10000 8.7 220 14:18 14.12.2019
2634 Clouds 6 997 70 10000 10.8 230 13:44 14.12.2019
2635 Clouds 6 996 70 10000 9.8 240 13:19 14.12.2019
2636 Clouds 6 996 70 10000 8.7 240 12:58 14.12.2019
2637 Clouds 6 996 70 10000 8.7 240 12:38 14.12.2019
2638 Clouds 6 996 70 10000 8.7 240 12:38 14.12.2019
2639 Clouds 6 995 75 10000 12.3 230 12:20 14.12.2019
2640 Clouds 6 995 86 10000 7.2 250 11:58 14.12.2019
2641 Clouds 6 995 86 10000 7.2 250 11:39 14.12.2019
2642 Rain 5 995 93 9000 9.8 250 11:19 14.12.2019
2643 Drizzle 5 993 93 10000 8.7 260 10:56 14.12.2019
2644 Rain 5 994 86 10000 9.3 250 10:38 14.12.2019
2645 Rain 5 993 93 10000 7.7 230 10:20 14.12.2019
2646 Rain 5 992 86 10000 10.3 270 09:55 14.12.2019
2647 Clouds 5 992 80 10000 6.7 240 09:36 14.12.2019
2648 Clouds 5 991 80 10000 7.7 240 09:18 14.12.2019
2649 Clouds 5 991 81 10000 8.2 270 08:41 14.12.2019
2650 Clouds 6 988 86 10000 10.3 260 08:19 14.12.2019
2651 Rain 6 986 81 10000 11.8 260 07:43 14.12.2019
2652 Rain 6 984 100 10000 9.8 220 07:23 14.12.2019
2653 Rain 7 987 93 8000 9.8 240 06:55 14.12.2019
2654 Rain 6 985 93 5000 10.3 250 06:36 14.12.2019
2655 Drizzle 6 983 100 10000 6.2 210 05:56 14.12.2019
2656 Drizzle 6 983 100 10000 6.2 210 05:56 14.12.2019
2657 Rain 4 984 100 7000 5.7 190 04:42 14.12.2019
2658 Rain 3 987 100 10000 6.2 190 02:31 14.12.2019
2659 Rain 3 987 93 10000 7.2 200 01:49 14.12.2019
2660 Rain 4 988 93 10000 6.7 200 01:31 14.12.2019
2661 Clouds 4 989 93 10000 5.7 210 00:45 14.12.2019
2662 Clouds 4 988 93 10000 5.1 230 00:27 14.12.2019
2663 Clouds 3 989 93 10000 5.7 220 23:54 13.12.2019
2664 Clouds 3 989 93 10000 5.7 220 23:36 13.12.2019
2665 Clouds 4 989 86 10000 6.7 220 23:18 13.12.2019
2666 Clouds 4 990 86 10000 5.7 230 22:40 13.12.2019
2667 Clouds 4 988 86 10000 5.1 220 22:19 13.12.2019
2668 Clouds 4 988 93 10000 8.7 270 21:56 13.12.2019
2669 Clouds 4 988 86 10000 5.1 220 21:37 13.12.2019
2670 Clouds 4 988 86 10000 5.7 230 21:19 13.12.2019
2671 Clouds 4 988 86 10000 6.2 230 20:41 13.12.2019
2672 Clouds 4 987 86 10000 6.2 240 20:22 13.12.2019
2673 Clouds 4 987 86 10000 6.2 240 19:59 13.12.2019
2674 Clouds 4 988 93 10000 7.2 260 19:41 13.12.2019
2675 Clouds 4 986 93 10000 7.7 240 19:22 13.12.2019
2676 Clouds 4 985 93 10000 5.1 230 18:59 13.12.2019
2677 Rain 4 984 100 10000 9.8 270 18:40 13.12.2019
2678 Rain 4 984 93 10000 5.1 240 18:19 13.12.2019
2679 Clouds 4 985 93 10000 9.3 270 17:55 13.12.2019
2680 Rain 4 982 93 9000 6.7 270 17:37 13.12.2019
2681 Rain 4 983 93 10000 6.2 250 17:18 13.12.2019
2682 Rain 4 982 93 10000 7.2 240 16:54 13.12.2019
2683 Rain 4 981 86 10000 7.7 240 16:36 13.12.2019
2684 Rain 4 981 86 10000 7.7 240 16:18 13.12.2019
2685 Rain 4 979 86 10000 8.7 240 15:38 13.12.2019
2686 Rain 4 979 86 10000 8.7 240 15:20 13.12.2019
2687 Rain 4 979 93 7000 9.3 250 14:41 13.12.2019
2688 Rain 4 978 93 10000 7.2 230 14:21 13.12.2019
2689 Rain 4 979 93 10000 9.3 240 13:58 13.12.2019
2690 Rain 4 977 100 10000 9.3 250 13:40 13.12.2019
2691 Rain 4 977 93 10000 9.3 220 13:21 13.12.2019
2692 Rain 5 977 93 10000 7.7 220 12:44 13.12.2019
2693 Clouds 5 976 86 10000 6.2 230 12:24 13.12.2019
2694 Drizzle 4 977 93 10000 9.3 250 11:59 13.12.2019
2695 Drizzle 4 977 93 10000 9.3 250 11:41 13.12.2019
2696 Clouds 4 976 93 10000 5.7 230 11:23 13.12.2019
2697 Rain 4 975 81 8000 7.7 250 10:56 13.12.2019
2698 Drizzle 4 975 93 8000 5.1 230 10:38 13.12.2019
2699 Drizzle 4 975 93 8000 5.1 230 10:19 13.12.2019
2700 Rain 4 974 93 10000 1.5 140 09:41 13.12.2019
2701 Rain 4 974 93 10000 1.5 140 09:20 13.12.2019
2702 Rain 4 974 93 10000 2.1 140 08:44 13.12.2019
2703 Rain 3 974 100 10000 2.6 120 08:26 13.12.2019
2704 Rain 3 974 100 8000 6.2 180 07:48 13.12.2019
2705 Rain 3 975 93 10000 2.6 160 07:25 13.12.2019
2706 Rain 3 975 93 10000 3.1 160 06:55 13.12.2019
2707 Rain 3 976 100 10000 3.6 140 06:29 13.12.2019
2708 Drizzle 3 977 93 10000 4.1 130 05:51 13.12.2019
2709 Clouds 3 977 100 10000 3.1 110 05:30 13.12.2019
2710 Mist 2 978 100 6000 1.5 90 04:53 13.12.2019
2711 Drizzle 1 980 96 10000 3.1 130 03:50 13.12.2019
2712 Rain 1 982 100 1100 4.6 150 02:35 13.12.2019
2713 Snow 1 983 97 9000 2.1 110 01:50 13.12.2019
2714 Rain 1 984 97 10000 2.6 130 01:24 13.12.2019
2715 Snow 1 985 97 6000 3.1 120 00:46 13.12.2019
2716 Snow 1 986 86 10000 3.6 140 00:24 13.12.2019
2717 Snow 1 987 97 2000 5.7 160 23:42 12.12.2019
2718 Clouds 1 988 74 10000 3.6 140 23:24 12.12.2019
2719 Snow 1 989 80 8000 5.7 160 22:56 12.12.2019
2720 Clouds 1 989 81 10000 4.1 150 22:38 12.12.2019
2721 Clouds 1 989 81 10000 4.1 150 22:38 12.12.2019
2722 Clouds 2 990 86 10000 2.6 130 22:19 12.12.2019
2723 Clouds 2 991 86 10000 2.6 130 21:55 12.12.2019
2724 Clouds 2 991 80 10000 6.2 170 21:37 12.12.2019
2725 Clouds 2 992 80 10000 5.1 140 21:19 12.12.2019
2726 Clouds 2 993 80 10000 6.2 170 20:58 12.12.2019
2727 Clouds 2 993 86 10000 6.2 180 20:40 12.12.2019
2728 Clouds 2 994 80 10000 3.6 140 20:21 12.12.2019
2729 Clouds 2 994 92 10000 5.7 160 19:56 12.12.2019
2730 Clouds 2 994 86 10000 7.7 190 19:37 12.12.2019
2731 Clouds 2 995 80 10000 3.6 140 19:18 12.12.2019
2732 Clouds 2 995 80 10000 4.1 150 18:56 12.12.2019
2733 Clouds 2 995 86 10000 6.7 190 18:37 12.12.2019
2734 Clouds 2 995 86 10000 6.7 190 18:37 12.12.2019
2735 Clouds 2 996 92 10000 4.1 140 18:19 12.12.2019
2736 Clouds 2 997 92 10000 2.6 160 17:56 12.12.2019
2737 Clouds 2 996 86 10000 5.7 190 17:38 12.12.2019
2738 Clouds 2 997 81 10000 3.1 170 17:19 12.12.2019
2739 Clouds 2 998 81 10000 5.1 180 16:55 12.12.2019
2740 Clouds 2 998 93 10000 2.6 170 16:36 12.12.2019
2741 Clouds 2 998 93 10000 2.6 170 16:18 12.12.2019
2742 Clouds 3 999 81 10000 4.1 190 15:42 12.12.2019
2743 Rain 3 1000 81 10000 7.2 200 15:20 12.12.2019
2744 Drizzle 3 1001 93 10000 5.1 200 14:59 12.12.2019
2745 Clouds 3 999 81 10000 7.2 210 14:38 12.12.2019
2746 Clouds 3 1001 86 10000 5.7 200 14:19 12.12.2019
2747 Clouds 3 1001 86 10000 4.6 180 13:57 12.12.2019
2748 Rain 3 1001 86 10000 4.1 210 13:38 12.12.2019
2749 Rain 3 1001 86 10000 4.1 210 13:20 12.12.2019
2750 Clouds 3 1002 86 10000 4.1 210 12:57 12.12.2019
2751 Clouds 3 1002 86 10000 6.2 220 12:38 12.12.2019
2752 Clouds 3 1002 86 10000 6.2 220 12:20 12.12.2019
2753 Clouds 3 1003 93 10000 4.6 230 11:55 12.12.2019
2754 Clouds 3 1003 93 10000 4.1 230 11:37 12.12.2019
2755 Clouds 3 1003 93 10000 4.1 230 11:19 12.12.2019
2756 Clouds 3 1003 93 10000 3.1 220 10:55 12.12.2019
2757 Clouds 3 1003 93 10000 4.1 220 10:37 12.12.2019
2758 Clouds 3 1003 93 10000 4.1 220 10:18 12.12.2019
2759 Clouds 3 1004 93 10000 3.6 240 09:42 12.12.2019
2760 Clouds 3 1003 93 10000 3.1 230 09:24 12.12.2019
2761 Clouds 3 1003 93 10000 3.1 240 08:58 12.12.2019
2762 Clouds 3 1004 100 10000 4.6 250 08:40 12.12.2019
2763 Clouds 3 1003 93 10000 3.6 220 08:22 12.12.2019
2764 Rain 3 1003 93 10000 3.6 230 07:47 12.12.2019
2765 Rain 3 1003 93 10000 3.6 230 07:25 12.12.2019
2766 Rain 3 1003 100 10000 3.6 220 06:54 12.12.2019
2767 Rain 3 1003 100 10000 4.1 200 06:34 12.12.2019
2768 Rain 3 1003 93 6000 4.6 240 05:41 12.12.2019
2769 Clouds 3 1003 100 10000 5.1 190 04:54 12.12.2019
2770 Rain 3 1003 100 10000 4.1 190 03:49 12.12.2019
2771 Clouds 3 1004 100 10000 3.6 190 02:40 12.12.2019
2772 Clouds 4 1004 100 10000 3.6 190 02:21 12.12.2019
2773 Clouds 4 1004 100 10000 4.1 200 01:46 12.12.2019
2774 Rain 4 1004 100 10000 4.1 190 01:28 12.12.2019
2775 Clouds 4 1005 93 6000 3.6 190 00:47 12.12.2019
2776 Clouds 4 1005 100 10000 3.1 200 00:20 12.12.2019
2777 Clouds 4 1005 100 10000 3.6 200 23:45 11.12.2019
2778 Clouds 4 1005 100 10000 4.1 200 23:21 11.12.2019
2779 Clouds 4 1005 100 10000 3.1 220 22:58 11.12.2019
2780 Clouds 4 1005 100 10000 3.1 220 22:39 11.12.2019
2781 Clouds 4 1006 100 10000 2.6 230 22:20 11.12.2019
2782 Clouds 4 1006 100 10000 2.6 230 21:59 11.12.2019
2783 Clouds 4 1006 100 10000 3.6 220 21:39 11.12.2019
2784 Clouds 4 1006 100 10000 3.6 220 21:20 11.12.2019
2785 Clouds 4 1006 100 10000 4.1 220 20:58 11.12.2019
2786 Mist 4 1005 100 3000 4.6 250 20:39 11.12.2019
2787 Clouds 4 1006 100 10000 4.1 220 20:19 11.12.2019
2788 Clouds 4 1006 100 10000 4.1 220 20:19 11.12.2019
2789 Clouds 4 1006 100 10000 4.1 220 19:59 11.12.2019
2790 Mist 4 1006 100 9000 4.1 230 19:40 11.12.2019
2791 Mist 4 1006 100 9000 4.1 230 19:21 11.12.2019
2792 Mist 4 1006 100 3200 3.1 230 18:58 11.12.2019
2793 Mist 4 1006 100 1200 3.1 230 18:39 11.12.2019
2794 Mist 4 1006 100 1200 3.1 230 18:19 11.12.2019
2795 Rain 4 1006 93 3000 3.6 240 17:56 11.12.2019
2796 Rain 3 1006 100 4400 3.6 220 17:37 11.12.2019
2797 Rain 3 1006 100 4400 3.6 220 17:18 11.12.2019
2798 Mist 4 1006 100 5000 4.1 210 16:55 11.12.2019
2799 Rain 4 1005 100 5000 3.1 190 16:37 11.12.2019
2800 Rain 4 1005 100 5000 3.1 190 16:18 11.12.2019
2801 Rain 4 1006 100 3200 4.1 210 15:56 11.12.2019
2802 Rain 4 1006 100 4400 4.1 220 15:37 11.12.2019
2803 Rain 4 1006 100 4400 4.1 220 15:18 11.12.2019
2804 Drizzle 4 1007 100 500 3.1 200 14:54 11.12.2019
2805 Rain 3 1006 93 10000 4.1 200 14:36 11.12.2019
2806 Rain 3 1006 93 10000 4.1 200 14:36 11.12.2019
2807 Rain 3 1006 93 10000 4.1 200 14:18 11.12.2019
2808 Rain 3 1007 100 500 3.1 180 13:42 11.12.2019
2809 Rain 3 1007 100 500 3.1 180 13:42 11.12.2019
2810 Rain 3 1007 100 5000 2.6 190 13:22 11.12.2019
2811 Rain 3 1008 100 5000 3.6 200 12:58 11.12.2019
2812 Clouds 3 1008 93 3200 3.1 210 12:39 11.12.2019
2813 Clouds 3 1008 93 3200 3.1 210 12:21 11.12.2019
2814 Rain 3 1009 100 3200 3.1 220 11:58 11.12.2019
2815 Rain 3 1009 100 3200 4.1 190 11:39 11.12.2019
2816 Rain 3 1009 100 3200 4.1 190 11:39 11.12.2019
2817 Rain 2 1009 100 3200 4.1 190 11:19 11.12.2019
2818 Rain 2 1009 100 3200 4.1 190 11:19 11.12.2019
2819 Mist 2 1010 93 3200 4.1 200 10:59 11.12.2019
2820 Mist 2 1010 93 8000 4.1 190 10:39 11.12.2019
2821 Mist 2 1010 93 8000 4.1 190 10:21 11.12.2019
2822 Mist 2 1010 93 6000 4.1 200 09:56 11.12.2019
2823 Rain 2 1011 100 8000 3.1 210 09:38 11.12.2019
2824 Rain 2 1011 100 8000 3.1 210 09:19 11.12.2019
2825 Mist 2 1011 100 9000 3.6 200 08:55 11.12.2019
2826 Rain 2 1010 96 4500 5.1 230 08:36 11.12.2019
2827 Rain 2 1010 89 6000 5.7 230 08:18 11.12.2019
2828 Rain 2 1012 100 6000 3.6 180 07:43 11.12.2019
2829 -273 0 0 0 0 0 07:23 11.12.2019
2830 Rain 2 1012 100 4500 4.1 180 06:46 11.12.2019
2831 Rain 2 1012 89 10000 3.1 210 06:24 11.12.2019
2832 Rain 2 1013 89 4000 3.6 180 05:55 11.12.2019
2833 Rain 2 1012 89 10000 6.2 220 05:35 11.12.2019
2834 Rain 2 1014 83 10000 3.6 220 04:51 11.12.2019
2835 Rain 2 1015 80 10000 4.1 210 03:26 11.12.2019
2836 Clouds 2 1014 69 10000 8.2 220 02:35 11.12.2019
2837 Clouds 2 1017 80 10000 4.6 210 01:22 11.12.2019
2838 Clouds 2 1017 81 10000 4.6 180 00:43 11.12.2019
2839 Clouds 2 1018 80 10000 4.1 200 00:19 11.12.2019
2840 Clouds 2 1018 81 10000 4.1 170 23:46 10.12.2019
2841 Clouds 2 1018 80 10000 4.6 190 23:26 10.12.2019
2842 Clouds 2 1019 90 10000 4.1 180 22:57 10.12.2019
2843 Clouds 2 1018 86 10000 4.1 200 22:39 10.12.2019
2844 Clouds 2 1019 90 10000 5.7 200 22:21 10.12.2019
2845 Clouds 2 1020 93 10000 4.6 180 21:54 10.12.2019
2846 Clouds 2 1020 90 10000 4.1 200 21:36 10.12.2019
2847 Clouds 2 1020 90 10000 4.1 200 21:18 10.12.2019
2848 Clouds 2 1021 90 8000 3.6 180 20:56 10.12.2019
2849 Clouds 2 1021 90 8000 3.6 180 20:56 10.12.2019
2850 Clouds 2 1020 90 10000 4.1 200 20:37 10.12.2019
2851 Clouds 2 1020 94 10000 4.1 200 20:18 10.12.2019
2852 Clouds 1 1021 94 10000 3.6 200 19:54 10.12.2019
2853 Clouds 1 1021 94 10000 3.1 190 19:36 10.12.2019
2854 Clouds 1 1021 94 10000 3.1 190 19:18 10.12.2019
2855 Clouds 1 1022 94 10000 3.6 180 18:39 10.12.2019
2856 Clouds 1 1022 94 10000 3.6 180 18:39 10.12.2019
2857 Clouds 1 1022 94 10000 3.6 180 18:20 10.12.2019
2858 Clouds 1 1023 94 10000 3.1 170 17:57 10.12.2019
2859 Clouds 1 1022 94 10000 2.1 220 17:39 10.12.2019
2860 Clouds 2 1023 90 10000 5.1 200 17:19 10.12.2019
2861 Clouds 2 1024 100 8000 3.1 180 16:43 10.12.2019
2862 Clouds 2 1024 90 10000 7.2 210 16:20 10.12.2019
2863 Clouds 2 1024 90 10000 6.2 200 15:59 10.12.2019
2864 Clouds 2 1023 86 6000 6.2 230 15:37 10.12.2019
2865 Mist 2 1024 90 9000 5.7 200 15:18 10.12.2019
2866 Clouds 2 1025 90 10000 8.2 200 14:55 10.12.2019
2867 Clouds 2 1025 93 10000 6.7 190 14:37 10.12.2019
2868 Clouds 2 1025 93 10000 6.7 190 14:19 10.12.2019
2869 Clouds 2 1025 93 10000 6.7 190 14:19 10.12.2019
2870 Fog 2 1026 100 300 4.6 180 13:56 10.12.2019
2871 Fog 2 1026 100 300 4.6 180 13:56 10.12.2019
2872 Drizzle 2 1025 80 10000 5.1 190 13:38 10.12.2019
2873 Drizzle 2 1025 80 10000 5.1 190 13:19 10.12.2019
2874 Mist 2 1027 100 3300 3.1 180 12:45 10.12.2019
2875 Clouds 3 1026 80 10000 3.1 180 12:25 10.12.2019
2876 Clouds 3 1027 86 10000 3.1 220 11:45 10.12.2019
2877 Clear 2 1027 86 10000 3.6 210 11:25 10.12.2019
2878 Clear 2 1027 93 10000 2.1 220 10:58 10.12.2019
2879 Drizzle 2 1027 93 10000 1.5 230 10:40 10.12.2019
2880 Drizzle 1 1027 93 10000 1.5 230 10:22 10.12.2019
2881 Clouds 1 1027 92 10000 3.6 270 09:56 10.12.2019
2882 Clouds 1 1026 92 10000 4.1 280 09:38 10.12.2019
2883 Clouds 1 1026 92 10000 4.1 280 09:38 10.12.2019
2884 Clouds 1 1026 92 10000 4.1 280 09:38 10.12.2019
2885 Clouds 1 1026 92 10000 4.1 280 09:20 10.12.2019
2886 Clouds 0 1026 92 10000 2.1 280 08:57 10.12.2019
2887 Clouds 0 1025 92 10000 3.1 250 08:38 10.12.2019
2888 Clear 0 1026 95 10000 2.6 250 08:19 10.12.2019
2889 Clouds 0 1026 95 7000 2.6 260 07:44 10.12.2019
2890 Clear 1 1025 95 10000 3.1 230 07:26 10.12.2019
2891 Clouds 1 1025 95 10000 3.1 220 06:49 10.12.2019
2892 Clouds 1 1025 95 10000 2.6 220 06:24 10.12.2019
2893 Clouds 1 1025 93 10000 3.1 280 05:55 10.12.2019
2894 Clouds 1 1024 86 10000 2.6 230 05:19 10.12.2019
2895 Clear 1 1024 93 10000 2.6 280 03:54 10.12.2019
2896 Clouds 2 1022 93 10000 3.1 230 02:57 10.12.2019
2897 Clouds 2 1022 93 10000 3.1 300 01:54 10.12.2019
2898 Clear 2 1021 86 10000 2.6 260 01:27 10.12.2019
2899 Clouds 3 1021 86 10000 4.6 310 00:58 10.12.2019
2900 Clear 3 1020 80 10000 2.6 280 00:25 10.12.2019
2901 Clouds 3 1019 86 10000 5.1 320 23:57 09.12.2019
2902 Clouds 3 1017 86 10000 5.7 320 23:37 09.12.2019
2903 Clouds 3 1018 82 10000 3.6 290 23:18 09.12.2019
2904 Clouds 4 1018 80 10000 6.2 330 22:54 09.12.2019
2905 Rain 4 1016 82 10000 6.7 330 22:36 09.12.2019
2906 Clear 4 1017 82 10000 3.6 290 22:18 09.12.2019
2907 Rain 4 1016 80 10000 8.2 340 21:54 09.12.2019
2908 Rain 4 1014 86 10000 8.7 330 21:36 09.12.2019
2909 Clouds 4 1014 80 10000 6.2 310 21:18 09.12.2019
2910 Rain 4 1014 86 10000 6.7 340 20:55 09.12.2019
2911 Rain 4 1012 86 8000 7.2 340 20:37 09.12.2019
2912 Rain 4 1012 86 10000 5.7 320 20:18 09.12.2019
2913 Rain 4 1011 93 10000 7.7 330 19:54 09.12.2019
2914 Rain 4 1009 86 8000 6.7 340 19:36 09.12.2019
2915 Rain 4 1009 86 10000 3.1 280 19:18 09.12.2019
2916 Rain 4 1008 86 10000 9.3 300 18:54 09.12.2019
2917 Rain 5 1007 93 10000 4.1 310 18:36 09.12.2019
2918 Clouds 5 1006 93 10000 3.1 280 18:18 09.12.2019
2919 Rain 5 1006 86 10000 9.3 280 17:54 09.12.2019
2920 Snow 5 1004 93 10000 2.6 250 17:36 09.12.2019
2921 Rain 5 1004 86 10000 4.1 240 17:18 09.12.2019
2922 Rain 5 1005 86 10000 6.2 270 16:54 09.12.2019
2923 Clouds 5 1003 86 10000 4.1 260 16:36 09.12.2019
2924 Clouds 5 1004 86 10000 4.6 260 16:18 09.12.2019
2925 Clouds 5 1003 86 10000 4.6 250 15:54 09.12.2019
2926 Rain 5 1003 87 10000 6.2 230 15:36 09.12.2019
2927 Rain 6 1003 87 10000 6.2 230 15:18 09.12.2019
2928 Clouds 6 1003 93 10000 5.1 290 14:41 09.12.2019
2929 Clouds 6 1002 87 10000 4.1 250 14:18 09.12.2019
2930 Drizzle 6 1001 87 10000 4.6 240 13:56 09.12.2019
2931 Clouds 6 1001 87 10000 5.7 250 13:37 09.12.2019
2932 Clouds 5 1001 87 10000 5.7 250 13:19 09.12.2019
2933 Rain 5 1001 93 10000 6.7 220 12:55 09.12.2019
2934 Rain 5 1000 93 4000 5.7 240 12:37 09.12.2019
2935 Rain 5 1000 93 10000 4.1 220 12:18 09.12.2019
2936 Clouds 5 1000 93 10000 5.7 230 11:55 09.12.2019
2937 Clouds 5 1000 93 10000 6.2 230 11:36 09.12.2019
2938 Clouds 5 1000 93 10000 6.2 230 11:18 09.12.2019
2939 Clouds 5 1000 93 10000 6.2 230 11:18 09.12.2019
2940 Rain 5 999 93 10000 9.3 240 10:39 09.12.2019
2941 Rain 5 999 93 10000 8.2 220 10:20 09.12.2019
2942 Rain 5 999 93 10000 7.7 220 09:56 09.12.2019
2943 Rain 5 999 93 10000 7.7 210 09:38 09.12.2019
2944 Rain 5 999 93 10000 7.7 210 09:20 09.12.2019
2945 Rain 5 999 93 8000 7.2 230 08:42 09.12.2019
2946 Rain 5 999 86 10000 10.3 210 08:24 09.12.2019
2947 Rain 5 999 93 8000 7.7 220 07:56 09.12.2019
2948 Clouds 5 999 93 10000 9.3 200 07:37 09.12.2019
2949 Clouds 5 999 93 10000 9.3 200 07:19 09.12.2019
2950 Rain 5 999 86 10000 8.2 230 06:39 09.12.2019
2951 Rain 5 999 86 10000 9.8 210 06:21 09.12.2019
2952 Rain 5 1000 80 10000 8.2 220 05:26 09.12.2019
2953 Clouds 6 1000 75 10000 9.3 220 04:31 09.12.2019
2954 Clouds 6 1001 81 10000 6.7 220 03:19 09.12.2019
2955 Clouds 6 1001 81 10000 6.7 220 03:19 09.12.2019
2956 Rain 6 1002 81 10000 5.7 230 02:19 09.12.2019
2957 Clouds 6 1002 81 10000 6.2 230 01:41 09.12.2019
2958 Rain 6 1002 87 10000 8.7 240 00:46 09.12.2019
2959 Clouds 7 1003 87 10000 8.2 240 00:26 09.12.2019
2960 Clouds 7 1002 87 10000 7.2 240 23:41 08.12.2019
2961 Rain 7 1003 87 10000 7.2 240 23:23 08.12.2019
2962 Rain 7 1003 87 10000 6.2 250 22:57 08.12.2019
2963 Rain 7 1003 87 10000 6.2 250 22:57 08.12.2019
2964 Rain 7 1003 87 10000 7.7 240 22:39 08.12.2019
2965 Rain 7 1003 87 10000 7.7 240 22:19 08.12.2019
2966 Clouds 7 1003 87 10000 6.2 230 21:58 08.12.2019
2967 Clouds 7 1004 87 10000 8.7 240 21:40 08.12.2019
2968 Rain 7 1003 87 10000 4.6 240 21:21 08.12.2019
2969 Rain 7 1003 87 10000 7.7 240 20:57 08.12.2019
2970 Clouds 7 1003 87 10000 5.1 230 20:38 08.12.2019
2971 Clouds 7 1003 87 10000 5.1 230 20:20 08.12.2019
2972 Clouds 7 1003 87 10000 5.1 230 20:20 08.12.2019
2973 Clouds 7 1003 93 10000 5.7 250 19:59 08.12.2019
2974 Clouds 7 1003 93 10000 5.7 250 19:41 08.12.2019
2975 Clouds 7 1003 93 10000 4.6 240 19:23 08.12.2019
2976 Clouds 7 1003 93 10000 4.6 240 18:55 08.12.2019
2977 Clouds 7 1003 93 10000 4.1 240 18:37 08.12.2019
2978 Clouds 8 1003 93 10000 4.1 240 18:19 08.12.2019
2979 Drizzle 8 1003 93 10000 4.6 240 17:57 08.12.2019
2980 Drizzle 8 1002 100 6000 8.7 240 17:38 08.12.2019
2981 Clouds 8 1003 93 10000 5.1 260 17:20 08.12.2019
2982 Clouds 8 1003 93 10000 5.1 260 17:20 08.12.2019
2983 Clouds 8 1003 93 10000 5.1 260 17:20 08.12.2019
2984 Rain 9 1004 100 9000 5.7 270 16:57 08.12.2019
2985 Rain 9 1003 100 4400 6.7 230 16:39 08.12.2019
2986 Rain 9 1003 100 4400 6.7 230 16:21 08.12.2019
2987 Drizzle 9 1005 100 3000 7.2 220 15:56 08.12.2019
2988 Rain 9 1004 100 6000 6.7 230 15:36 08.12.2019
2989 Rain 9 1004 100 6000 6.7 230 15:18 08.12.2019
2990 Drizzle 9 1005 100 3000 7.7 220 14:44 08.12.2019
2991 Rain 9 1004 100 6000 8.2 220 14:24 08.12.2019
2992 Rain 9 1005 100 10000 9.3 220 13:59 08.12.2019
2993 Rain 9 1006 100 5000 7.7 220 13:40 08.12.2019
2994 Rain 9 1005 93 10000 8.7 220 13:22 08.12.2019
2995 Clouds 9 1005 93 10000 9.3 220 12:58 08.12.2019
2996 Clouds 9 1005 93 10000 9.3 220 12:58 08.12.2019
2997 Rain 9 1006 100 10000 8.2 220 12:38 08.12.2019
2998 Rain 9 1006 100 10000 8.2 220 12:19 08.12.2019
2999 Clouds 9 1007 100 10000 8.7 220 11:57 08.12.2019
3000 Rain 8 1007 100 10000 8.7 220 11:37 08.12.2019
3001 Rain 8 1007 100 10000 8.7 220 11:19 08.12.2019
3002 Rain 8 1008 93 10000 9.8 230 10:55 08.12.2019
3003 Clouds 8 1007 93 900 8.2 220 10:37 08.12.2019
3004 Clouds 8 1008 93 10000 6.7 210 10:19 08.12.2019
3005 Clouds 8 1008 93 10000 8.2 220 09:55 08.12.2019
3006 Clouds 8 1007 93 1200 8.7 220 09:36 08.12.2019
3007 Rain 8 1010 93 8000 7.7 220 09:18 08.12.2019
3008 Rain 8 1010 93 8000 6.7 210 08:42 08.12.2019
3009 Rain 8 1010 87 10000 7.2 220 08:23 08.12.2019
3010 Rain 8 1010 87 10000 7.2 210 07:57 08.12.2019
3011 Clouds 8 1009 93 10000 8.2 240 07:39 08.12.2019
3012 Clouds 8 1010 87 10000 7.7 220 07:18 08.12.2019
3013 Clouds 8 1011 87 10000 7.2 220 06:41 08.12.2019
3014 Clouds 7 1010 100 10000 7.7 220 06:21 08.12.2019
3015 Clouds 7 1011 93 10000 6.7 200 05:26 08.12.2019
3016 Clouds 7 1011 93 10000 5.1 210 04:54 08.12.2019
3017 Clouds 7 1013 93 10000 5.1 210 03:41 08.12.2019
3018 Clouds 7 1013 87 10000 6.2 220 02:46 08.12.2019
3019 Clouds 7 1014 93 10000 5.1 210 02:27 08.12.2019
3020 Clouds 7 1015 93 10000 5.1 230 01:48 08.12.2019
3021 Clouds 7 1015 87 10000 6.2 210 00:56 08.12.2019
3022 Clouds 7 1015 93 10000 6.2 210 00:37 08.12.2019
3023 Clouds 7 1015 93 10000 6.2 210 00:18 08.12.2019
3024 Clouds 7 1016 87 10000 3.1 230 23:39 07.12.2019
3025 Clouds 7 1016 87 10000 3.1 230 23:20 07.12.2019
3026 Clouds 7 1016 87 10000 3.1 230 23:20 07.12.2019
3027 Clouds 7 1017 93 10000 4.6 220 22:56 07.12.2019
3028 Clouds 7 1015 93 8000 4.6 220 22:37 07.12.2019
3029 Clouds 6 1017 93 10000 4.6 240 22:19 07.12.2019
3030 Clouds 7 1017 93 10000 5.1 220 21:56 07.12.2019
3031 Clouds 7 1016 100 10000 4.1 240 21:37 07.12.2019
3032 Clouds 7 1017 93 10000 4.6 230 21:19 07.12.2019
3033 Clouds 7 1018 93 10000 4.6 230 20:54 07.12.2019
3034 Clouds 7 1016 93 2300 4.6 240 20:36 07.12.2019
3035 Clouds 6 1017 100 10000 4.1 230 20:18 07.12.2019
3036 Clouds 7 1017 100 10000 2.6 230 19:55 07.12.2019
3037 Clouds 6 1017 100 10000 3.6 230 19:36 07.12.2019
3038 Clouds 7 1017 100 10000 3.6 230 19:18 07.12.2019
3039 Clouds 6 1017 93 10000 3.1 220 18:43 07.12.2019
3040 Clouds 6 1017 100 10000 4.6 240 18:19 07.12.2019
3041 Clouds 6 1017 100 10000 4.6 240 18:19 07.12.2019
3042 Clouds 6 1017 100 10000 4.6 240 17:57 07.12.2019
3043 Rain 6 1016 100 6000 4.1 270 17:39 07.12.2019
3044 Rain 7 1016 100 10000 2.1 270 17:20 07.12.2019
3045 Rain 7 1016 93 10000 2.6 250 16:56 07.12.2019
3046 Rain 7 1016 93 10000 2.6 250 16:56 07.12.2019
3047 Clouds 7 1016 93 10000 4.6 250 16:37 07.12.2019
3048 Clouds 7 1016 93 10000 4.6 250 16:19 07.12.2019
3049 Clouds 7 1015 93 10000 4.6 250 15:42 07.12.2019
3050 Rain 7 1016 100 10000 5.1 250 15:23 07.12.2019
3051 Rain 7 1016 100 10000 5.1 250 15:23 07.12.2019
3052 Rain 7 1016 100 3200 4.6 280 14:58 07.12.2019
3053 Clouds 8 1015 87 10000 5.7 260 14:40 07.12.2019
3054 Rain 8 1015 87 10000 4.6 250 14:18 07.12.2019
3055 Clouds 8 1015 87 10000 5.1 240 13:41 07.12.2019
3056 Clouds 7 1015 87 10000 4.6 250 13:21 07.12.2019
3057 Clouds 7 1015 81 10000 5.7 240 12:59 07.12.2019
3058 Clouds 8 1016 87 10000 5.7 240 12:40 07.12.2019
3059 Clouds 8 1015 81 10000 5.7 240 12:22 07.12.2019
3060 Clouds 7 1016 93 10000 5.1 240 11:58 07.12.2019
3061 Clouds 7 1015 93 10000 6.2 270 11:40 07.12.2019
3062 Clouds 7 1015 93 10000 4.6 240 11:21 07.12.2019
3063 Rain 7 1014 93 10000 4.6 230 10:38 07.12.2019
3064 Clouds 7 1015 87 10000 5.1 250 10:20 07.12.2019
3065 Clouds 7 1015 93 10000 4.6 240 09:58 07.12.2019
3066 Rain 7 1013 100 10000 3.6 230 09:38 07.12.2019
3067 Clouds 6 1014 100 10000 5.1 250 09:19 07.12.2019
3068 Clouds 7 1014 100 10000 4.6 250 08:43 07.12.2019
3069 Rain 7 1014 100 9000 3.6 260 08:21 07.12.2019
3070 Clouds 7 1013 100 10000 4.6 240 07:47 07.12.2019
3071 Clouds 7 1013 100 10000 4.1 240 07:27 07.12.2019
3072 Clouds 7 1013 100 10000 3.6 250 06:51 07.12.2019
3073 Rain 7 1012 100 10000 3.1 270 06:25 07.12.2019
3074 Clouds 7 1012 93 10000 4.6 240 05:44 07.12.2019
3075 Clouds 7 1011 93 10000 5.1 240 04:41 07.12.2019
3076 Clouds 7 1011 93 10000 5.7 250 03:49 07.12.2019
3077 Rain 7 1009 100 10000 5.1 240 02:22 07.12.2019
3078 Rain 7 1009 100 10000 7.2 230 01:41 07.12.2019
3079 Rain 7 1009 100 10000 6.2 230 01:22 07.12.2019
3080 Clouds 6 1009 100 10000 4.6 230 00:21 07.12.2019
3081 Clouds 6 1009 100 10000 7.2 230 23:57 06.12.2019
3082 Clouds 6 1009 100 10000 7.2 230 23:57 06.12.2019
3083 Rain 5 1009 100 7000 8.2 240 23:39 06.12.2019
3084 Rain 5 1009 100 7000 8.2 240 23:39 06.12.2019
3085 Rain 5 1009 100 10000 6.2 230 23:19 06.12.2019
3086 Rain 5 1009 100 8000 6.7 240 22:39 06.12.2019
3087 Rain 5 1010 100 10000 6.2 240 22:21 06.12.2019
3088 Drizzle 4 1011 100 3000 6.7 220 21:59 06.12.2019
3089 Drizzle 4 1011 100 3000 6.7 220 21:41 06.12.2019
3090 Rain 4 1010 100 10000 6.2 220 21:20 06.12.2019
3091 Clouds 4 1011 100 8000 8.2 220 20:56 06.12.2019
3092 Clouds 4 1010 100 10000 7.2 210 20:38 06.12.2019
3093 Clouds 4 1010 100 10000 7.2 210 20:38 06.12.2019
3094 Clouds 4 1010 100 10000 7.2 210 20:19 06.12.2019
3095 Rain 4 1011 100 10000 6.2 220 19:42 06.12.2019
3096 Rain 4 1011 100 10000 6.2 220 19:42 06.12.2019
3097 Rain 4 1011 100 10000 6.7 220 19:24 06.12.2019
3098 Rain 4 1011 100 10000 6.7 220 19:24 06.12.2019
3099 Rain 4 1011 100 5000 6.7 220 18:59 06.12.2019
3100 Rain 4 1012 100 6000 6.7 210 18:40 06.12.2019
3101 Rain 4 1012 100 5000 7.2 220 18:21 06.12.2019
3102 Rain 4 1012 100 6000 7.2 220 17:58 06.12.2019
3103 Rain 4 1011 100 10000 5.7 230 17:40 06.12.2019
3104 Rain 4 1011 100 10000 5.7 230 17:40 06.12.2019
3105 Rain 3 1012 100 4400 6.2 220 17:22 06.12.2019
3106 Rain 3 1012 100 5000 6.7 210 16:58 06.12.2019
3107 Rain 3 1012 100 2800 5.7 210 16:38 06.12.2019
3108 Rain 3 1012 100 2800 5.7 210 16:19 06.12.2019
3109 Rain 3 1013 100 2400 6.7 220 15:41 06.12.2019
3110 Rain 3 1013 100 1800 7.2 220 15:22 06.12.2019
3111 Rain 3 1013 100 800 6.7 230 14:58 06.12.2019
3112 Rain 3 1014 100 100 5.7 200 14:40 06.12.2019
3113 Rain 3 1013 100 2400 6.7 220 14:20 06.12.2019
3114 Rain 3 1014 100 1800 6.2 220 13:55 06.12.2019
3115 Rain 3 1014 100 400 5.7 220 13:37 06.12.2019
3116 Rain 3 1014 100 400 5.7 220 13:18 06.12.2019
3117 Clouds 2 1014 100 10000 6.7 240 12:39 06.12.2019
3118 Fog 2 1016 100 200 6.2 220 12:21 06.12.2019
3119 Fog 2 1017 73 50 4.6 190 11:43 06.12.2019
3120 Fog 2 1016 100 400 4.6 220 11:23 06.12.2019
3121 Fog 1 1017 77 400 5.1 220 10:58 06.12.2019
3122 Fog 1 1017 77 50 5.1 200 10:40 06.12.2019
3123 Fog 1 1017 77 400 5.7 220 10:20 06.12.2019
3124 Fog 1 1017 77 400 5.1 220 09:56 06.12.2019
3125 Fog 1 1015 100 100 5.1 230 09:37 06.12.2019
3126 Fog 0 1017 77 400 4.6 220 09:19 06.12.2019
3127 Fog 0 1017 77 400 4.6 220 09:19 06.12.2019
3128 Fog 0 1017 77 600 4.6 230 08:44 06.12.2019
3129 Fog 0 1017 77 600 4.6 230 08:44 06.12.2019
3130 Mist 0 1017 100 600 4.1 230 08:25 06.12.2019
3131 Mist -1 1017 100 9000 5.1 230 07:44 06.12.2019
3132 Mist -1 1017 100 9000 4.1 240 07:23 06.12.2019
3133 Fog -1 1018 100 700 4.6 220 06:57 06.12.2019
3134 Clouds -1 1018 100 10000 4.1 230 06:26 06.12.2019
3135 Fog -1 1018 100 700 4.6 210 05:52 06.12.2019
3136 Mist -2 1018 100 6000 6.2 220 04:52 06.12.2019
3137 Mist -2 1018 100 6000 6.2 220 04:52 06.12.2019
3138 Mist -3 1019 100 2400 4.1 230 01:49 06.12.2019
3139 Mist -3 1019 92 5000 5.1 240 01:22 06.12.2019
3140 Fog -3 1018 100 800 4.1 240 00:39 06.12.2019
3141 Mist -3 1020 100 6000 4.6 220 00:20 06.12.2019
3142 Mist -3 1020 92 2500 4.6 200 23:41 05.12.2019
3143 Mist -3 1020 100 6000 4.1 220 23:18 05.12.2019
3144 Mist -3 1020 100 2000 4.1 200 22:56 05.12.2019
3145 Mist -3 1020 100 5000 4.1 240 22:37 05.12.2019
3146 Mist -3 1020 100 5000 4.1 240 22:18 05.12.2019
3147 Mist -3 1020 92 4000 3.6 240 21:43 05.12.2019
3148 Fog -3 1021 92 800 4.1 230 21:24 05.12.2019
3149 Fog -3 1021 100 800 3.6 250 20:59 05.12.2019
3150 Fog -3 1021 100 600 3.6 230 20:40 05.12.2019
3151 Fog -3 1021 100 600 3.6 230 20:40 05.12.2019
3152 Fog -2 1020 100 600 3.1 210 20:20 05.12.2019
3153 Fog -2 1020 100 600 3.1 210 20:20 05.12.2019
3154 Fog -2 1020 100 600 3.1 210 20:20 05.12.2019
3155 Fog -2 1020 100 600 3.1 210 20:20 05.12.2019
3156 Clear -2 1019 92 10000 3.1 230 19:57 05.12.2019
3157 Fog -2 1021 100 100 3.1 220 19:39 05.12.2019
3158 Fog -1 1021 100 600 3.6 220 19:20 05.12.2019
3159 Clear -1 1020 100 10000 4.6 250 18:57 05.12.2019
3160 Mist -1 1019 100 2200 4.1 230 18:37 05.12.2019
3161 Fog -1 1021 92 600 3.1 220 18:19 05.12.2019
3162 Mist -1 1021 92 8000 3.1 220 17:39 05.12.2019
3163 Clear -1 1021 86 10000 3.1 220 17:20 05.12.2019
3164 Clear 0 1020 92 10000 2.6 240 16:57 05.12.2019
3165 Clear 0 1020 80 10000 2.1 260 16:39 05.12.2019
3166 Clear 1 1021 86 10000 2.1 240 16:21 05.12.2019
3167 Clear 2 1019 86 10000 1.5 290 15:57 05.12.2019
3168 Clear 2 1019 74 10000 1 0 15:38 05.12.2019
3169 Clear 2 1020 80 10000 2.1 230 15:20 05.12.2019
3170 Clear 2 1019 80 10000 1 0 14:55 05.12.2019
3171 Clear 3 1020 80 10000 2.1 240 14:37 05.12.2019
3172 Clear 2 1021 80 10000 1.5 230 14:19 05.12.2019
3173 Clear 2 1020 86 10000 3.1 260 13:56 05.12.2019
3174 Clear 2 1020 86 10000 3.1 300 13:38 05.12.2019
3175 Clear 2 1021 74 10000 1.37 235 13:19 05.12.2019
3176 Clear 2 1020 86 10000 3.1 260 12:57 05.12.2019
3177 Fog 2 1022 100 100 1.5 140 12:38 05.12.2019
3178 Clear 1 1021 66 10000 1.5 240 12:20 05.12.2019
3179 Mist 0 1022 100 1200 1 0 11:39 05.12.2019
3180 Clear -1 1022 86 10000 1.5 220 11:21 05.12.2019
3181 Clear -1 1021 79 10000 2.1 290 10:58 05.12.2019
3182 Fog -2 1021 100 100 1 0 10:40 05.12.2019
3183 Clear -2 1021 86 10000 1.5 310 10:19 05.12.2019
3184 Clear -2 1020 92 10000 2.6 240 09:55 05.12.2019
3185 Mist -2 1021 92 2000 1.5 200 09:37 05.12.2019
3186 Clear -3 1021 92 10000 2.1 300 09:18 05.12.2019
3187 Mist -3 1021 100 3000 1 0 08:39 05.12.2019
3188 Mist -4 1021 100 10000 1.5 270 08:21 05.12.2019
3189 Mist -4 1021 100 10000 1.5 270 08:21 05.12.2019
3190 Mist -3 1020 100 2800 1 250 07:59 05.12.2019
3191 Mist -3 1021 100 3000 2.1 0 07:40 05.12.2019
3192 Clear -3 1020 92 10000 1.5 280 07:21 05.12.2019
3193 Clear -3 1020 100 6000 1 0 06:47 05.12.2019
3194 Clear -3 1019 100 10000 1.5 260 06:23 05.12.2019
3195 Clear -3 1019 100 10000 2.1 260 05:53 05.12.2019
3196 Clear -3 1019 92 10000 2.1 270 05:24 05.12.2019
3197 Clear -3 1020 86 10000 1 0 04:33 05.12.2019
3198 Clear -3 1020 92 10000 1.5 210 03:33 05.12.2019
3199 Clear -3 1020 86 10000 1 0 02:41 05.12.2019
3200 Clear -3 1020 92 10000 0.8 128 02:21 05.12.2019
3201 Clear -3 1020 92 10000 2.1 260 01:50 05.12.2019
3202 Clear -3 1020 92 10000 2.1 260 01:50 05.12.2019
3203 Clear -3 1018 100 10000 4.6 140 01:23 05.12.2019
3204 Clear -3 1018 92 10000 4.1 140 00:43 05.12.2019
3205 Clear -2 1019 92 10000 2.1 90 00:20 05.12.2019
3206 Clear -2 1019 86 10000 2.1 80 23:46 04.12.2019
3207 Clear -2 1019 92 10000 1.29 74 23:22 04.12.2019
3208 Clear -2 1019 87 10000 2.1 160 22:59 04.12.2019
3209 Clear -1 1019 87 10000 2.6 90 22:38 04.12.2019
3210 Clear -1 1020 86 10000 1.29 74 22:20 04.12.2019
3211 Clear -1 1019 92 10000 1.5 140 21:58 04.12.2019
3212 Clear -1 1019 87 10000 2.6 110 21:38 04.12.2019
3213 Clear -1 1020 87 10000 1.29 74 21:19 04.12.2019
3214 Clear -1 1019 87 10000 1.5 150 20:57 04.12.2019
3215 Clear -1 1019 87 10000 2.1 150 20:39 04.12.2019
3216 Clear -1 1020 86 10000 1.59 103 20:21 04.12.2019
3217 Clear -1 1019 85 10000 2.6 150 19:57 04.12.2019
3218 Clear 0 1019 85 10000 2.1 110 19:38 04.12.2019
3219 Clear 0 1019 74 10000 2.1 120 19:20 04.12.2019
3220 Clear 0 1019 80 10000 2.1 140 18:42 04.12.2019
3221 Clear 0 1018 85 10000 5.7 130 18:24 04.12.2019
3222 Clear 0 1019 80 10000 1.5 90 17:59 04.12.2019
3223 Clear 1 1018 80 10000 3.6 120 17:40 04.12.2019
3224 Clear 2 1018 69 10000 3.1 80 17:21 04.12.2019
3225 Clear 3 1018 74 10000 4.6 120 16:57 04.12.2019
3226 Clear 3 1018 73 10000 2.1 60 16:39 04.12.2019
3227 Clear 4 1019 69 10000 4.6 70 16:19 04.12.2019
3228 Clear 4 1018 74 10000 3.1 110 15:55 04.12.2019
3229 Clear 4 1018 73 10000 4.1 50 15:37 04.12.2019
3230 Clear 4 1019 65 10000 5.1 70 15:19 04.12.2019
3231 Clear 4 1018 75 10000 4.6 50 14:44 04.12.2019
3232 Clear 5 1019 74 10000 4.6 130 14:23 04.12.2019
3233 Clear 5 1018 63 10000 4.1 60 13:59 04.12.2019
3234 Clear 5 1019 63 10000 4.6 60 13:38 04.12.2019
3235 Clear 4 1020 65 10000 5.7 80 13:20 04.12.2019
3236 Clear 4 1020 65 10000 4.1 60 12:45 04.12.2019
3237 Clear 4 1020 65 10000 5.7 130 12:25 04.12.2019
3238 Clear 3 1020 65 10000 5.7 130 11:57 04.12.2019
3239 Clear 3 1021 80 10000 4.6 50 11:39 04.12.2019
3240 Clear 2 1022 76 10000 5.1 60 11:21 04.12.2019
3241 Clear 2 1022 76 10000 5.1 60 11:21 04.12.2019
3242 Clouds 1 1021 76 6000 4.6 50 10:44 04.12.2019
3243 Clouds 1 1021 76 6000 4.6 50 10:44 04.12.2019
3244 Clouds 1 1021 100 6000 6.7 130 10:24 04.12.2019
3245 Clouds 1 1021 100 6000 6.7 130 10:24 04.12.2019
3246 Fog 0 1021 100 300 5.7 130 09:57 04.12.2019
3247 Mist 0 1022 76 8000 2.6 70 09:39 04.12.2019
3248 Mist 0 1022 100 6000 2.6 80 09:20 04.12.2019
3249 Fog 0 1021 100 900 4.1 60 08:43 04.12.2019
3250 Fog -1 1021 100 400 6.2 130 08:24 04.12.2019
3251 Clouds 0 1022 86 10000 3.1 70 07:51 04.12.2019
3252 Mist 0 1022 86 2800 4.1 50 07:31 04.12.2019
3253 Fog 0 1021 100 800 6.7 140 06:57 04.12.2019
3254 Mist 0 1022 86 9000 2.61 66 06:31 04.12.2019
3255 Mist 0 1022 86 2800 3.6 40 05:43 04.12.2019
3256 Clear 0 1022 93 6000 3.6 60 04:34 04.12.2019
3257 Mist 0 1023 93 2700 3.6 60 03:47 04.12.2019
3258 Clear 1 1024 94 6000 3.6 60 01:34 04.12.2019
3259 Clear 1 1024 93 10000 3.6 60 00:48 04.12.2019
3260 Clouds 1 1025 93 10000 2.6 80 00:22 04.12.2019
3261 Clouds 1 1025 100 10000 3.1 80 23:43 03.12.2019
3262 Clear 1 1025 100 10000 3.1 80 23:20 03.12.2019
3263 Clear 1 1025 94 10000 2.6 70 22:59 03.12.2019
3264 Mist 1 1025 100 9000 2.1 90 22:39 03.12.2019
3265 Clouds 1 1025 93 10000 1.5 90 22:18 03.12.2019
3266 Clouds 2 1025 100 8000 3.1 120 21:57 03.12.2019
3267 Clouds 2 1025 93 10000 1.5 90 21:37 03.12.2019
3268 Clear 2 1025 86 10000 2.6 80 21:18 03.12.2019
3269 Clouds 2 1025 100 10000 2.1 120 20:54 03.12.2019
3270 Clouds 3 1026 86 10000 3.1 80 20:36 03.12.2019
3271 Clouds 3 1026 93 10000 1.5 70 20:18 03.12.2019
3272 Clouds 3 1026 93 10000 2.6 120 19:54 03.12.2019
3273 Clouds 3 1026 86 10000 3.1 70 19:36 03.12.2019
3274 Clouds 4 1026 93 10000 2.1 90 19:18 03.12.2019
3275 Clouds 4 1026 86 10000 2.1 130 18:55 03.12.2019
3276 Clouds 4 1026 80 10000 3.6 50 18:36 03.12.2019
3277 Clouds 4 1026 93 10000 1.5 110 18:18 03.12.2019
3278 Clouds 4 1026 86 6000 2.1 100 17:40 03.12.2019
3279 Clouds 4 1027 93 10000 0.91 38 17:19 03.12.2019
3280 Clouds 4 1026 100 10000 1.5 130 16:59 03.12.2019
3281 Clouds 5 1026 80 10000 1.5 80 16:40 03.12.2019
3282 Clouds 4 1026 80 10000 0.91 38 16:21 03.12.2019
3283 Clouds 4 1026 80 10000 2.6 50 15:59 03.12.2019
3284 Clouds 5 1026 86 10000 2.1 60 15:38 03.12.2019
3285 Clouds 5 1026 93 10000 1.5 100 15:19 03.12.2019
3286 Clouds 6 1026 100 9000 1 0 14:54 03.12.2019
3287 Clouds 6 1027 81 10000 3.6 50 14:36 03.12.2019
3288 Clouds 5 1027 93 10000 1.18 140 14:18 03.12.2019
3289 Clouds 5 1027 86 10000 2.6 60 13:38 03.12.2019
3290 Clouds 5 1027 93 10000 1.18 140 13:20 03.12.2019
3291 Clouds 5 1027 100 10000 1 0 12:58 03.12.2019
3292 Clouds 5 1028 75 10000 2.1 110 12:37 03.12.2019
3293 Clouds 5 1028 93 10000 0.96 113 12:18 03.12.2019
3294 Fog 4 1028 100 9000 2.1 280 11:56 03.12.2019
3295 Clouds 4 1028 86 10000 3.1 50 11:37 03.12.2019
3296 Mist 3 1029 93 6000 0.84 76 11:19 03.12.2019
3297 Clouds 3 1028 100 8000 1 0 10:56 03.12.2019
3298 Mist 3 1028 93 5000 0.84 76 10:38 03.12.2019
3299 Mist 2 1029 100 6000 0.84 76 10:18 03.12.2019
3300 Mist 2 1029 93 4000 0.84 76 09:42 03.12.2019
3301 Fog 2 1028 100 7000 1 0 09:24 03.12.2019
3302 Clouds 2 1028 100 7000 0.5 0 08:56 03.12.2019
3303 Mist 2 1028 93 4400 0.84 76 08:38 03.12.2019
3304 Mist 1 1028 100 3200 1.34 42 08:20 03.12.2019
3305 Clouds 1 1028 93 10000 1.34 42 07:51 03.12.2019
3306 Mist 1 1028 100 9000 1.34 42 07:28 03.12.2019
3307 Mist 1 1028 100 9000 1.5 250 06:42 03.12.2019
3308 Mist 1 1028 100 9000 2.1 260 06:20 03.12.2019
3309 Mist 1 1027 100 1500 3.1 260 05:53 03.12.2019
3310 Drizzle 1 1028 100 8000 2.1 260 03:42 03.12.2019
3311 Mist 1 1028 100 8000 1.54 35 03:22 03.12.2019
3312 Rain 1 1028 100 7000 2.6 270 02:53 03.12.2019
3313 Mist 1 1028 100 8000 2.6 260 02:32 03.12.2019
3314 Mist 1 1028 96 1900 1 0 01:59 03.12.2019
3315 Mist 0 1028 96 8000 2.27 5 01:39 03.12.2019
3316 Mist 0 1028 96 6000 1.5 210 01:19 03.12.2019
3317 Clouds 0 1028 96 10000 2.38 6 00:42 03.12.2019
3318 Clouds 0 1027 100 7000 1.5 250 00:23 03.12.2019
3319 Clouds 0 1027 100 7000 1.5 250 00:23 03.12.2019
3320 Mist 0 1028 96 1800 2.6 290 23:44 02.12.2019
3321 Clouds 0 1028 93 10000 3.1 280 23:22 02.12.2019
3322 Clouds 0 1027 100 8000 2.1 260 22:58 02.12.2019
3323 Clouds 1 1028 93 10000 1 360 22:39 02.12.2019
3324 Mist 1 1028 93 6000 1.5 270 22:20 02.12.2019
3325 Clouds 1 1027 100 7000 1.5 230 21:54 02.12.2019
3326 Mist 1 1028 93 8000 2.6 240 21:36 02.12.2019
3327 Clouds 1 1028 100 10000 1.5 270 21:18 02.12.2019
3328 Clouds 1 1027 100 8000 1.5 250 20:54 02.12.2019
3329 Clouds 1 1027 100 8000 1.5 250 20:54 02.12.2019
3330 Clouds 1 1028 93 10000 1 360 20:36 02.12.2019
3331 Clouds 1 1027 92 10000 2.1 270 20:18 02.12.2019
3332 Clouds 1 1027 92 10000 2.6 240 19:41 02.12.2019
3333 Clouds 1 1027 92 10000 2.6 240 19:41 02.12.2019
3334 Clouds 1 1027 93 10000 2.1 260 19:21 02.12.2019
3335 Clouds 1 1027 93 10000 2.1 260 19:21 02.12.2019
3336 Clouds 1 1026 100 9000 3.1 260 18:56 02.12.2019
3337 Clouds 1 1027 93 7000 3.1 300 18:37 02.12.2019
3338 Clouds 1 1027 92 10000 2.1 250 18:18 02.12.2019
3339 Snow 2 1026 92 9000 3.6 270 17:57 02.12.2019
3340 Clouds 2 1027 92 10000 3.1 240 17:38 02.12.2019
3341 Clouds 2 1026 89 10000 3.1 220 17:19 02.12.2019
3342 Clouds 2 1026 89 10000 3.1 220 16:40 02.12.2019
3343 Clouds 3 1026 89 10000 2.1 230 16:19 02.12.2019
3344 Clouds 3 1027 80 10000 1.5 270 15:58 02.12.2019
3345 Clouds 2 1026 89 10000 2.6 220 15:39 02.12.2019
3346 Clouds 3 1026 89 10000 3.6 200 15:21 02.12.2019
3347 Clouds 3 1026 80 10000 2.1 340 14:59 02.12.2019
3348 Clouds 3 1026 80 10000 2.1 340 14:59 02.12.2019
3349 Clouds 3 1026 89 10000 2.1 0 14:38 02.12.2019
3350 Clouds 3 1026 76 10000 3.1 220 14:19 02.12.2019
3351 Clouds 3 1025 86 10000 3.1 270 13:57 02.12.2019
3352 Clouds 3 1026 76 10000 2.6 240 13:39 02.12.2019
3353 Clouds 3 1026 74 10000 2.6 210 13:19 02.12.2019
3354 Snow 3 1025 86 10000 2.6 250 12:55 02.12.2019
3355 Clouds 3 1027 78 10000 2.6 330 12:37 02.12.2019
3356 Clouds 3 1026 74 10000 1.5 240 12:18 02.12.2019
3357 Clouds 2 1027 80 10000 3.1 350 11:38 02.12.2019
3358 Clouds 1 1026 83 10000 1.5 260 11:20 02.12.2019
3359 Clouds 1 1025 83 10000 1.5 290 10:58 02.12.2019
3360 Clear 0 1026 80 10000 4.1 10 10:40 02.12.2019
3361 Clouds 0 1025 83 10000 2.61 6 10:22 02.12.2019
3362 Clouds 0 1025 83 10000 2.61 6 10:22 02.12.2019
3363 Clouds -1 1025 74 10000 4.1 290 09:57 02.12.2019
3364 Clouds -1 1025 74 10000 4.1 290 09:39 02.12.2019
3365 Clouds -2 1025 83 10000 2.1 360 09:18 02.12.2019
3366 Clouds -2 1025 83 10000 2.1 360 09:18 02.12.2019
3367 Clear -3 1023 100 10000 1.5 280 08:55 02.12.2019
3368 Clouds -2 1023 86 10000 2.6 330 08:37 02.12.2019
3369 Clear -3 1024 79 10000 2.6 310 08:18 02.12.2019
3370 Clouds -3 1024 80 10000 4.1 360 07:40 02.12.2019
3371 Clear -3 1023 79 10000 2.6 320 07:20 02.12.2019
3372 Clouds -2 1023 91 10000 5.7 30 06:45 02.12.2019
3373 Clouds -2 1022 92 10000 1.5 10 06:27 02.12.2019
3374 Clouds -2 1022 80 10000 2.1 350 05:19 02.12.2019
3375 Clear -1 1022 74 10000 2.6 10 04:19 02.12.2019
3376 Clouds -1 1020 94 10000 5.7 360 02:51 02.12.2019
3377 Snow 0 1020 91 10000 4.6 10 01:50 02.12.2019
3378 Clear 0 1020 91 10000 2.1 360 01:21 02.12.2019
3379 Snow 0 1019 95 10000 4.6 20 00:45 02.12.2019
3380 Snow 0 1019 86 10000 3.6 360 00:23 02.12.2019
3381 Snow 0 1019 95 10000 4.6 10 23:45 01.12.2019
3382 Snow 0 1018 92 10000 3.1 360 23:23 01.12.2019
3383 Snow 0 1018 92 10000 3.6 10 22:58 01.12.2019
3384 Snow 0 1018 98 10000 4.1 30 22:39 01.12.2019
3385 Clouds 0 1018 74 10000 3.1 20 22:20 01.12.2019
3386 Clouds 0 1018 98 10000 3.6 20 21:58 01.12.2019
3387 Clouds 0 1018 74 10000 2.6 20 21:40 01.12.2019
3388 Clouds 0 1018 74 10000 4.1 40 21:22 01.12.2019
3389 Snow 0 1018 98 10000 4.1 50 20:59 01.12.2019
3390 Snow 0 1018 98 4000 4.1 60 20:41 01.12.2019
3391 Snow 1 1017 95 10000 2.1 30 20:23 01.12.2019
3392 Mist 1 1018 95 4000 5.1 30 19:59 01.12.2019
3393 Clouds 0 1017 95 8000 5.1 30 19:40 01.12.2019
3394 Clouds 1 1017 95 10000 4.1 20 19:21 01.12.2019
3395 Clouds 0 1016 95 10000 1.5 70 18:58 01.12.2019
3396 Snow 0 1016 95 3000 4.6 40 18:39 01.12.2019
3397 Clouds 0 1017 95 10000 5.1 40 18:20 01.12.2019
3398 Snow 0 1016 95 2500 4.1 40 17:59 01.12.2019
3399 Clouds 0 1016 95 10000 4.6 40 17:41 01.12.2019
3400 Rain 1 1016 95 10000 4.1 50 17:23 01.12.2019
3401 Snow 1 1015 93 9000 2.6 100 16:56 01.12.2019
3402 Snow 1 1016 93 6000 4.1 60 16:38 01.12.2019
3403 Clouds 1 1016 93 10000 4.6 40 16:20 01.12.2019
3404 Snow 1 1016 93 2000 4.6 40 15:49 01.12.2019
3405 Snow 1 1015 93 5000 4.1 60 15:31 01.12.2019
3406 Snow 1 1015 93 5000 4.1 60 15:30 01.12.2019
3407 Snow 1 1016 93 4000 3.6 50 14:43 01.12.2019
3408 Snow 1 1016 80 10000 5.1 50 14:20 01.12.2019
3409 Snow 1 1016 89 3500 4.6 60 13:59 01.12.2019
3410 Rain 1 1016 74 10000 5.1 50 13:39 01.12.2019
3411 Clear 1 1017 74 10000 4.6 50 13:20 01.12.2019
3412 Clouds 1 1016 86 6000 4.6 60 12:44 01.12.2019
3413 Clouds 1 1016 86 7000 3.6 60 11:59 01.12.2019
3414 Clouds 1 1016 80 6000 3.1 70 11:40 01.12.2019
3415 Clouds 1 1016 74 10000 5.7 60 11:21 01.12.2019
3416 Clouds 1 1015 80 10000 4.6 60 10:43 01.12.2019
3417 Clouds 1 1016 74 10000 6.2 50 10:22 01.12.2019
3418 Rain 1 1016 80 10000 3.6 100 09:58 01.12.2019
3419 Clouds 1 1015 80 10000 5.7 60 09:39 01.12.2019
3420 Clear 1 1016 80 10000 6.7 60 09:20 01.12.2019
3421 Rain 1 1014 80 10000 4.6 60 08:47 01.12.2019
3422 Clear 1 1015 77 10000 6.2 40 08:20 01.12.2019
3423 Clouds 1 1014 74 10000 5.1 60 07:51 01.12.2019
3424 Clouds 1 1014 74 10000 5.1 60 07:31 01.12.2019
3425 Clouds 1 1015 77 10000 5.7 100 06:57 01.12.2019
3426 Clouds 1 1014 74 10000 5.1 60 06:35 01.12.2019
3427 Clouds 1 1014 77 10000 5.1 60 05:49 01.12.2019
3428 Clouds 1 1015 75 10000 5.1 60 04:51 01.12.2019
3429 Clouds 1 1017 86 10000 5.1 110 03:23 01.12.2019
3430 Clouds 1 1017 75 10000 5.1 60 02:36 01.12.2019
3431 Clear 0 1018 81 10000 5.7 60 02:18 01.12.2019
3432 Clouds 0 1018 81 9000 4.6 60 01:51 01.12.2019
3433 Clouds 0 1018 86 10000 4.1 110 01:25 01.12.2019
3434 Clouds 0 1018 80 8000 4.6 60 00:42 01.12.2019
3435 Clouds 0 1018 80 10000 4.1 110 00:24 01.12.2019
3436 Clouds 1 1018 80 10000 5.7 60 23:43 30.11.2019
3437 Clouds 1 1018 80 10000 4.6 90 23:24 30.11.2019
3438 Clouds 1 1019 80 10000 4.6 90 22:57 30.11.2019
3439 Clouds 1 1019 80 10000 4.6 60 22:38 30.11.2019
3440 Clear 1 1020 80 10000 5.1 50 22:19 30.11.2019
3441 Clouds 1 1019 80 7000 5.1 60 21:44 30.11.2019
3442 Clouds 1 1020 80 10000 4.1 80 21:25 30.11.2019
3443 Clouds 0 1020 80 10000 4.1 80 20:57 30.11.2019
3444 Clouds 0 1020 80 10000 4.6 60 20:38 30.11.2019
3445 Mist 0 1021 92 5000 3.62 72 20:19 30.11.2019
3446 Mist 0 1021 92 5000 3.62 72 20:19 30.11.2019
3447 Clouds 0 1021 89 10000 3.1 80 19:56 30.11.2019
3448 Fog 0 1020 89 500 4.1 60 19:38 30.11.2019
3449 Clear 1 1021 89 10000 2.6 50 19:19 30.11.2019
3450 Clouds 1 1021 89 10000 3.6 110 18:57 30.11.2019
3451 Fog 0 1020 89 800 4.6 50 18:38 30.11.2019
3452 Clear 0 1021 89 10000 3.1 50 18:19 30.11.2019
3453 Clouds 1 1021 89 10000 2.6 90 17:57 30.11.2019
3454 Fog 1 1021 89 500 3.6 50 17:39 30.11.2019
3455 Clear 1 1021 100 10000 2.1 50 17:20 30.11.2019
3456 Clear 1 1021 79 10000 3.1 90 16:56 30.11.2019
3457 Mist 2 1021 79 4000 3.6 50 16:38 30.11.2019
3458 Clear 2 1021 93 10000 1.5 70 16:20 30.11.2019
3459 Mist 3 1021 93 4000 3.6 50 15:42 30.11.2019
3460 Mist 3 1021 93 4000 3.6 50 15:42 30.11.2019
3461 Clear 3 1022 100 10000 2.1 70 15:19 30.11.2019
3462 Clouds 4 1021 79 10000 3.6 130 14:57 30.11.2019
3463 Clouds 4 1021 79 10000 3.6 130 14:57 30.11.2019
3464 Clouds 3 1021 86 8000 3.6 60 14:38 30.11.2019
3465 Clouds 3 1021 86 8000 3.6 60 14:38 30.11.2019
3466 Clear 3 1022 100 10000 2.11 90 14:19 30.11.2019
3467 Clouds 3 1022 86 10000 3.1 140 13:58 30.11.2019
3468 Mist 3 1022 100 2000 2.11 90 13:38 30.11.2019
3469 Fog 3 1023 100 400 1.88 93 13:19 30.11.2019
3470 Fog 3 1023 66 200 1.88 93 12:47 30.11.2019
3471 Clear 3 1022 86 7000 3.1 50 12:29 30.11.2019
3472 Clouds 2 1022 86 10000 1.5 160 11:58 30.11.2019
3473 Fog 2 1023 66 200 1.88 93 11:40 30.11.2019
3474 Fog 1 1023 100 200 0.88 109 11:18 30.11.2019
3475 Fog 1 1023 100 200 0.88 109 10:45 30.11.2019
3476 Fog 0 1023 100 200 0.88 109 10:21 30.11.2019
3477 Clear 0 1022 82 10000 0.5 0 09:59 30.11.2019
3478 Fog 0 1022 100 200 0.88 109 09:40 30.11.2019
3479 Fog -1 1022 100 200 0.88 109 09:20 30.11.2019
3480 Fog -1 1022 100 200 0.88 109 08:41 30.11.2019
3481 Fog -1 1022 100 200 2.1 300 08:19 30.11.2019
3482 Mist -1 1022 100 1000 0.65 64 07:44 30.11.2019
3483 Clear -1 1021 91 10000 1.5 260 07:25 30.11.2019
3484 Clear -1 1022 91 6000 2.1 50 06:49 30.11.2019
3485 Clear -1 1021 91 10000 1.5 260 06:28 30.11.2019
3486 Clear 0 1022 91 8000 2.6 50 05:30 30.11.2019
3487 Clear 1 1021 100 10000 0.5 0 03:40 30.11.2019
3488 Clear 1 1021 93 10000 3.1 280 02:39 30.11.2019
3489 Clouds 1 1021 92 10000 2.1 270 02:20 30.11.2019
3490 Clouds 1 1019 100 10000 1.5 260 01:25 30.11.2019
3491 Clouds 1 1020 86 10000 3.6 320 00:48 30.11.2019
3492 Clouds 1 1019 100 10000 2.1 250 00:30 30.11.2019
3493 Clouds 1 1019 100 10000 2.6 260 23:58 29.11.2019
3494 Clouds 1 1020 86 10000 3.6 300 23:40 29.11.2019
3495 Clouds 1 1019 92 10000 2.1 260 23:20 29.11.2019
3496 Clouds 1 1019 92 10000 2.1 250 22:41 29.11.2019
3497 Clouds 1 1018 93 10000 2.6 270 22:23 29.11.2019
3498 Clouds 1 1018 92 10000 2.1 250 21:44 29.11.2019
3499 Clouds 1 1017 93 10000 3.1 280 21:23 29.11.2019
3500 Clouds 1 1017 93 10000 3.6 290 20:57 29.11.2019
3501 Clouds 1 1018 86 10000 2.6 300 20:38 29.11.2019
3502 Clouds 2 1017 86 10000 1.5 270 20:19 29.11.2019
3503 Clouds 2 1016 86 10000 3.1 280 19:57 29.11.2019
3504 Clouds 3 1017 86 10000 2.6 250 19:38 29.11.2019
3505 Clear 3 1016 80 10000 2.1 260 19:19 29.11.2019
3506 Clouds 3 1015 86 10000 2.6 280 18:55 29.11.2019
3507 Clouds 3 1016 75 10000 3.1 290 18:37 29.11.2019
3508 Clouds 3 1016 75 10000 3.1 290 18:37 29.11.2019
3509 Clouds 3 1016 75 10000 3.1 290 18:37 29.11.2019
3510 Clouds 3 1015 74 10000 2.1 270 18:19 29.11.2019
3511 Clouds 4 1015 80 10000 1.5 320 17:43 29.11.2019
3512 Clouds 4 1014 86 10000 3.1 290 17:24 29.11.2019
3513 Clouds 4 1013 78 10000 3.1 290 16:57 29.11.2019
3514 Clouds 5 1014 75 10000 3.1 320 16:38 29.11.2019
3515 Clouds 5 1014 60 10000 3.6 280 16:18 29.11.2019
3516 Clouds 6 1013 70 10000 4.1 340 15:41 29.11.2019
3517 Clouds 6 1012 80 10000 3.6 300 15:23 29.11.2019
3518 Clouds 6 1012 70 10000 2.1 270 14:56 29.11.2019
3519 Clouds 6 1012 70 10000 2.1 270 14:38 29.11.2019
3520 Clouds 6 1012 75 10000 2.1 300 14:20 29.11.2019
3521 Drizzle 6 1012 70 10000 4.1 320 13:42 29.11.2019
3522 Clouds 6 1011 65 10000 2.6 310 13:21 29.11.2019
3523 Clouds 6 1010 93 10000 3.1 290 12:58 29.11.2019
3524 Clouds 6 1011 81 10000 3.1 340 12:39 29.11.2019
3525 Clouds 6 1011 80 10000 2.6 280 12:21 29.11.2019
3526 Rain 6 1010 93 10000 4.6 360 11:55 29.11.2019
3527 Clouds 6 1011 93 10000 3.1 350 11:36 29.11.2019
3528 Clouds 5 1010 80 10000 2.6 290 11:18 29.11.2019
3529 Clouds 5 1009 100 10000 3.6 300 10:56 29.11.2019
3530 Rain 5 1009 93 10000 3.1 340 10:38 29.11.2019
3531 Clouds 5 1008 80 10000 1.5 300 10:19 29.11.2019
3532 Rain 5 1008 93 10000 3.1 300 09:56 29.11.2019
3533 Clouds 5 1008 80 10000 2.6 310 09:37 29.11.2019
3534 Clouds 5 1007 86 10000 3.1 330 09:19 29.11.2019
3535 Clouds 6 1007 93 10000 3.1 330 08:41 29.11.2019
3536 Rain 6 1006 100 8000 3.6 340 08:23 29.11.2019
3537 Rain 6 1006 93 7000 3.6 340 07:59 29.11.2019
3538 Rain 6 1005 93 7000 3.6 300 07:40 29.11.2019
3539 Rain 7 1005 93 6000 3.1 300 07:22 29.11.2019
3540 Rain 7 1004 93 7000 5.1 260 06:46 29.11.2019
3541 Rain 7 1004 100 10000 2.1 250 06:23 29.11.2019
3542 Rain 7 1004 93 10000 4.1 260 05:32 29.11.2019
3543 Clouds 7 1003 93 10000 4.1 270 04:45 29.11.2019
3544 Clouds 7 1001 100 10000 6.2 270 03:23 29.11.2019
3545 -273 0 0 0 0 0 02:53 29.11.2019
3546 Clouds 7 1002 93 10000 5.7 270 02:21 29.11.2019
3547 Clouds 7 1000 100 10000 6.7 270 01:27 29.11.2019
3548 Rain 8 1001 93 8000 6.2 250 00:51 29.11.2019
3549 Rain 8 1001 93 5000 6.2 250 00:22 29.11.2019
3550 Rain 8 999 100 8000 7.2 260 23:58 28.11.2019
3551 Rain 8 1001 93 6000 6.2 240 23:39 28.11.2019
3552 Rain 8 1000 93 10000 7.2 250 23:21 28.11.2019
3553 Clouds 8 1001 93 10000 7.2 220 22:56 28.11.2019
3554 Rain 8 1000 93 10000 6.2 240 22:37 28.11.2019
3555 Clouds 8 999 93 10000 6.2 230 22:19 28.11.2019
3556 Rain 8 999 100 10000 8.7 260 21:54 28.11.2019
3557 Rain 8 1000 93 8000 6.2 240 21:36 28.11.2019
3558 Clouds 8 1000 93 10000 7.2 240 21:18 28.11.2019
3559 Clouds 8 1000 87 10000 7.2 240 20:42 28.11.2019
3560 Clouds 8 999 87 10000 7.7 240 20:22 28.11.2019
3561 Rain 8 998 100 9000 7.2 250 19:58 28.11.2019
3562 Rain 8 998 93 10000 5.7 220 19:40 28.11.2019
3563 Clouds 8 998 93 10000 5.7 220 19:21 28.11.2019
3564 Rain 8 997 100 10000 7.2 260 18:58 28.11.2019
3565 Rain 8 999 93 10000 7.2 240 18:39 28.11.2019
3566 Clouds 8 998 93 10000 8.2 240 18:18 28.11.2019
3567 Clouds 8 998 93 10000 8.2 240 17:59 28.11.2019
3568 Clouds 8 998 87 10000 7.7 240 17:41 28.11.2019
3569 Rain 8 997 87 10000 6.2 230 17:21 28.11.2019
3570 -273 0 0 0 0 0 16:56 28.11.2019
3571 Clouds 8 996 100 10000 7.2 240 16:55 28.11.2019
3572 Clouds 8 997 87 10000 7.2 240 16:37 28.11.2019
3573 Clouds 9 996 87 10000 8.2 220 16:18 28.11.2019
3574 Clouds 9 997 81 10000 8.2 240 15:41 28.11.2019
3575 Clouds 9 996 81 10000 9.3 230 15:20 28.11.2019
3576 Clouds 9 997 87 10000 7.7 240 14:58 28.11.2019
3577 Clouds 9 997 87 10000 8.7 240 14:40 28.11.2019
3578 Clouds 9 997 87 10000 8.7 250 14:20 28.11.2019
3579 Rain 9 995 100 1000 7.2 250 13:56 28.11.2019
3580 Rain 9 997 81 6000 9.3 240 13:38 28.11.2019
3581 Clouds 9 996 81 10000 8.7 240 13:19 28.11.2019
3582 Clouds 9 995 87 10000 6.7 230 12:42 28.11.2019
3583 Rain 9 995 93 10000 7.7 220 12:23 28.11.2019
3584 Rain 9 995 81 10000 8.2 240 11:57 28.11.2019
3585 Rain 9 995 81 10000 8.2 240 11:57 28.11.2019
3586 Rain 9 995 81 10000 8.2 210 11:39 28.11.2019
3587 Clouds 9 995 81 10000 8.2 210 11:20 28.11.2019
3588 Clouds 9 996 81 10000 7.7 230 10:43 28.11.2019
3589 Clouds 8 995 75 10000 7.2 240 10:23 28.11.2019
3590 Clouds 8 995 81 10000 7.7 220 09:59 28.11.2019
3591 Clouds 8 995 87 10000 6.2 220 09:40 28.11.2019
3592 Clouds 8 994 81 10000 7.7 210 09:20 28.11.2019
3593 Clouds 8 994 75 10000 8.2 240 08:55 28.11.2019
3594 Clouds 8 995 87 10000 6.7 220 08:36 28.11.2019
3595 Clouds 8 994 81 10000 7.2 210 08:18 28.11.2019
3596 Clouds 8 995 87 10000 6.7 220 07:41 28.11.2019
3597 Clouds 8 994 81 10000 8.2 240 07:23 28.11.2019
3598 Clouds 8 994 87 10000 7.2 230 06:44 28.11.2019
3599 Clouds 8 994 87 10000 7.2 230 06:44 28.11.2019
3600 Clouds 8 993 87 10000 7.7 210 06:22 28.11.2019
3601 Clouds 8 993 87 10000 7.7 210 05:44 28.11.2019
3602 Clouds 8 996 87 10000 7.2 220 04:58 28.11.2019
3603 Clouds 9 993 87 10000 10.3 210 02:37 28.11.2019
3604 Rain 9 993 93 10000 8.2 210 01:35 28.11.2019
3605 Clouds 9 994 87 10000 8.7 220 00:43 28.11.2019
3606 Clouds 9 993 87 10000 9.3 210 00:20 28.11.2019
3607 Clouds 9 993 87 10000 8.2 230 23:54 27.11.2019
3608 Rain 9 993 87 10000 9.8 210 23:36 27.11.2019
3609 Rain 9 993 87 10000 9.3 210 23:18 27.11.2019
3610 Clouds 9 993 87 10000 9.3 210 22:38 27.11.2019
3611 Rain 9 992 87 10000 8.7 210 22:20 27.11.2019
3612 Clouds 9 993 87 10000 7.2 230 21:56 27.11.2019
3613 Clouds 9 992 93 10000 7.7 220 21:37 27.11.2019
3614 Rain 9 992 93 10000 8.7 210 21:19 27.11.2019
3615 Rain 9 992 100 10000 7.7 230 20:58 27.11.2019
3616 Clouds 9 993 93 10000 7.7 220 20:39 27.11.2019
3617 Rain 9 992 93 10000 8.2 200 20:21 27.11.2019
3618 Rain 9 992 100 10000 6.7 230 19:57 27.11.2019
3619 Rain 9 992 93 10000 7.2 210 19:39 27.11.2019
3620 Rain 9 992 93 10000 9.8 200 19:19 27.11.2019
3621 Rain 9 992 93 10000 9.8 200 19:19 27.11.2019
3622 Rain 9 993 93 6000 7.2 220 18:58 27.11.2019
3623 Rain 9 992 93 10000 10.3 200 18:37 27.11.2019
3624 Rain 9 992 93 10000 8.7 200 18:19 27.11.2019
3625 Rain 9 991 93 10000 8.7 200 17:57 27.11.2019
3626 Rain 9 991 93 10000 8.7 200 17:38 27.11.2019
3627 Rain 9 991 93 10000 8.7 200 17:38 27.11.2019
3628 Rain 9 991 93 10000 11.3 200 17:20 27.11.2019
3629 Rain 9 991 93 10000 11.3 200 17:20 27.11.2019
3630 Rain 9 992 100 10000 9.3 210 16:56 27.11.2019
3631 Rain 9 990 93 3500 8.2 200 16:38 27.11.2019
3632 Rain 9 991 93 10000 6.7 190 16:19 27.11.2019
3633 Rain 9 992 93 10000 6.7 220 15:57 27.11.2019
3634 Rain 9 992 93 8000 6.2 190 15:38 27.11.2019
3635 Rain 9 992 93 10000 6.7 180 15:20 27.11.2019
3636 Clouds 9 992 81 10000 9.3 220 14:57 27.11.2019
3637 Rain 9 992 93 10000 7.2 190 14:38 27.11.2019
3638 Rain 9 992 93 10000 7.2 190 14:38 27.11.2019
3639 Rain 9 992 93 10000 7.2 190 14:20 27.11.2019
3640 Clouds 9 993 81 10000 6.7 230 13:56 27.11.2019
3641 Rain 9 993 93 5000 6.2 200 13:38 27.11.2019
3642 Clouds 9 993 93 10000 8.7 190 13:19 27.11.2019
3643 Clouds 9 993 93 10000 8.7 190 13:19 27.11.2019
3644 -273 0 0 0 0 0 12:55 27.11.2019
3645 Clouds 9 993 93 10000 6.2 190 12:37 27.11.2019
3646 Clouds 9 993 93 10000 6.2 190 12:18 27.11.2019
3647 Clouds 9 994 87 10000 9.3 190 11:38 27.11.2019
3648 Clouds 9 994 87 10000 9.3 190 11:19 27.11.2019
3649 Rain 9 994 81 10000 11.8 200 10:57 27.11.2019
3650 Rain 9 994 81 10000 11.8 200 10:39 27.11.2019
3651 Clouds 9 994 87 10000 8.2 190 10:21 27.11.2019
3652 Clouds 9 994 87 10000 7.7 190 09:43 27.11.2019
3653 Clouds 9 994 93 10000 8.7 220 09:25 27.11.2019
3654 Clouds 9 994 93 10000 9.3 210 08:56 27.11.2019
3655 Clouds 9 993 100 10000 8.7 210 08:38 27.11.2019
3656 Clouds 9 993 93 10000 8.2 190 08:19 27.11.2019
3657 Drizzle 9 993 100 3000 5.1 190 07:45 27.11.2019
3658 Clouds 9 993 87 10000 7.2 190 07:27 27.11.2019
3659 Clouds 9 993 93 10000 3.6 160 06:47 27.11.2019
3660 Clouds 9 993 93 10000 3.1 150 06:29 27.11.2019
3661 Clouds 8 993 100 10000 2.1 90 05:27 27.11.2019
3662 Rain 8 995 71 10000 6.2 190 04:59 27.11.2019
3663 Clouds 8 994 81 10000 4.6 180 04:40 27.11.2019
3664 Rain 7 994 93 10000 3.1 130 03:53 27.11.2019
3665 Clouds 7 995 100 10000 3.1 70 03:22 27.11.2019
3666 Rain 7 996 100 10000 4.6 140 02:54 27.11.2019
3667 Rain 8 996 93 10000 4.6 130 01:39 27.11.2019
3668 Rain 8 999 93 10000 3.6 160 00:45 27.11.2019
3669 Clouds 8 999 100 10000 1.5 80 00:26 27.11.2019
3670 Clouds 8 999 100 10000 2.6 80 23:49 26.11.2019
3671 Clouds 8 999 100 10000 2.1 80 23:27 26.11.2019
3672 Clouds 8 1000 100 10000 6.2 140 22:59 26.11.2019
3673 Clouds 8 1000 93 10000 3.1 120 22:38 26.11.2019
3674 Clouds 9 1001 93 10000 1.5 90 22:19 26.11.2019
3675 Clouds 9 1002 100 10000 6.2 170 21:58 26.11.2019
3676 Clouds 9 1002 93 10000 2.1 120 21:38 26.11.2019
3677 Clouds 9 1002 93 10000 2.1 150 21:19 26.11.2019
3678 Clouds 9 1002 100 10000 4.1 140 20:55 26.11.2019
3679 Mist 9 1002 100 5000 4.1 200 20:37 26.11.2019
3680 Clouds 9 1002 93 10000 2.1 150 20:19 26.11.2019
3681 Clouds 9 1003 100 10000 4.6 140 19:55 26.11.2019
3682 Clouds 9 1003 100 10000 4.6 140 19:55 26.11.2019
3683 Clouds 9 1003 100 10000 4.6 140 19:55 26.11.2019
3684 Clouds 9 1003 93 10000 3.1 160 19:37 26.11.2019
3685 Clouds 9 1003 93 10000 2.1 180 19:18 26.11.2019
3686 Clouds 9 1003 93 10000 3.6 190 18:56 26.11.2019
3687 Clouds 9 1003 93 10000 4.6 170 18:38 26.11.2019
3688 Clouds 9 1003 93 10000 2.6 180 18:20 26.11.2019
3689 Clouds 9 1003 93 10000 3.1 180 17:56 26.11.2019
3690 Clouds 9 1004 100 10000 3.6 160 17:37 26.11.2019
3691 Clouds 9 1003 93 10000 2.6 150 17:19 26.11.2019
3692 Rain 9 1003 93 10000 3.6 180 16:56 26.11.2019
3693 Rain 10 1003 93 10000 3.6 180 16:37 26.11.2019
3694 Clouds 10 1004 100 10000 3.1 180 16:18 26.11.2019
3695 Clouds 10 1004 100 10000 5.7 210 15:57 26.11.2019
3696 Clouds 9 1004 93 10000 4.1 200 15:37 26.11.2019
3697 Clouds 10 1004 100 10000 3.6 190 15:19 26.11.2019
3698 Clouds 10 1004 100 10000 4.6 180 14:45 26.11.2019
3699 Clouds 10 1005 100 10000 4.6 220 14:24 26.11.2019
3700 Clouds 10 1005 100 10000 4.1 190 13:45 26.11.2019
3701 Clouds 10 1005 100 9000 5.7 210 13:25 26.11.2019
3702 Clouds 10 1005 100 10000 4.6 220 12:58 26.11.2019
3703 Drizzle 9 1005 93 1600 6.2 220 12:38 26.11.2019
3704 Clouds 9 1006 100 10000 4.1 190 12:19 26.11.2019
3705 Drizzle 9 1005 100 800 5.1 200 11:56 26.11.2019
3706 Drizzle 9 1005 100 800 5.1 200 11:38 26.11.2019
3707 Mist 9 1006 100 9000 5.1 190 11:19 26.11.2019
3708 Mist 9 1006 100 9000 4.6 190 10:57 26.11.2019
3709 Mist 9 1006 100 9000 4.6 190 10:39 26.11.2019
3710 Mist 9 1006 100 9000 4.6 190 10:39 26.11.2019
3711 Mist 8 1006 100 5000 3.6 180 10:20 26.11.2019
3712 Clouds 8 1006 100 6000 5.1 150 09:55 26.11.2019
3713 Mist 8 1006 100 3200 4.1 180 09:37 26.11.2019
3714 Mist 8 1006 100 5000 3.1 170 09:18 26.11.2019
3715 Mist 8 1006 100 2000 2.6 170 08:42 26.11.2019
3716 Mist 8 1006 100 6000 4.1 180 08:22 26.11.2019
3717 Clouds 8 1006 100 10000 2.6 170 07:44 26.11.2019
3718 Clouds 8 1006 100 10000 4.1 190 07:25 26.11.2019
3719 Fog 8 1007 100 200 3.6 170 06:54 26.11.2019
3720 Mist 7 1006 100 9000 3.6 180 06:22 26.11.2019
3721 Drizzle 7 1007 100 400 3.1 180 05:39 26.11.2019
3722 Mist 7 1007 100 1800 1.5 160 03:58 26.11.2019
3723 Fog 7 1008 100 600 3.6 150 02:24 26.11.2019
3724 Fog 7 1008 100 150 3.1 170 01:32 26.11.2019
3725 Clouds 7 1008 100 10000 3.6 190 00:50 26.11.2019
3726 Mist 7 1009 100 9000 3.1 200 00:25 26.11.2019
3727 Mist 7 1009 100 1200 4.1 170 23:40 25.11.2019
3728 Mist 7 1009 100 6000 3.6 190 23:20 25.11.2019
3729 Mist 7 1009 100 6000 1.5 190 22:58 25.11.2019
3730 Mist 6 1009 100 6000 1.5 190 22:38 25.11.2019
3731 Mist 6 1009 100 8000 2 133 22:18 25.11.2019
3732 Mist 6 1010 100 4000 2.1 170 21:58 25.11.2019
3733 Fog 6 1009 100 300 2.6 170 21:39 25.11.2019
3734 Mist 6 1009 100 1500 3.1 170 21:21 25.11.2019
3735 Mist 6 1009 100 3000 4.1 150 20:57 25.11.2019
3736 Mist 6 1009 100 3000 3.1 180 20:39 25.11.2019
3737 Mist 6 1009 100 8000 1.58 142 20:19 25.11.2019
3738 Mist 6 1009 100 8000 1.58 142 19:56 25.11.2019
3739 Mist 6 1009 100 8000 1.58 142 19:37 25.11.2019
3740 Mist 6 1009 100 5000 1.58 142 19:18 25.11.2019
3741 Mist 6 1009 100 4000 3.6 140 18:57 25.11.2019
3742 Mist 6 1009 100 3500 2.6 170 18:38 25.11.2019
3743 Mist 6 1009 100 3500 2.6 170 18:38 25.11.2019
3744 Mist 6 1009 100 9000 1.5 170 18:20 25.11.2019
3745 Clouds 6 1009 100 10000 2.6 170 17:57 25.11.2019
3746 Mist 6 1009 100 3200 3.1 170 17:38 25.11.2019
3747 Clouds 7 1009 93 10000 1.5 180 17:19 25.11.2019
3748 Mist 7 1009 100 5000 2.6 190 16:57 25.11.2019
3749 Mist 7 1009 100 5000 2.6 190 16:38 25.11.2019
3750 Clouds 8 1009 100 10000 1.5 200 16:20 25.11.2019
3751 Clouds 8 1008 100 10000 1.5 150 15:54 25.11.2019
3752 Clouds 8 1009 100 7000 2.1 170 15:36 25.11.2019
3753 Clouds 8 1009 93 10000 1.5 220 15:18 25.11.2019
3754 Clouds 8 1009 93 7000 2.6 170 14:41 25.11.2019
3755 Clouds 8 1009 100 10000 1.22 206 14:22 25.11.2019
3756 Clouds 8 1009 93 10000 0.5 0 13:55 25.11.2019
3757 Clouds 8 1009 100 10000 1.22 206 13:36 25.11.2019
3758 Mist 8 1009 100 8000 1.5 80 13:18 25.11.2019
3759 Mist 7 1009 100 2500 2.1 190 12:54 25.11.2019
3760 Mist 7 1009 100 2500 2.1 190 12:36 25.11.2019
3761 Clouds 7 1009 100 10000 1.51 196 12:18 25.11.2019
3762 Fog 7 1010 100 500 1 0 11:40 25.11.2019
3763 Clouds 7 1009 100 10000 0.42 131 11:21 25.11.2019
3764 Fog 6 1010 100 200 1.5 250 10:57 25.11.2019
3765 Fog 6 1010 100 200 1.5 250 10:38 25.11.2019
3766 Clouds 6 1010 100 10000 1.5 300 10:18 25.11.2019
3767 Mist 5 1010 100 9000 1.5 300 09:42 25.11.2019
3768 Mist 5 1010 100 5000 0.42 131 09:23 25.11.2019
3769 Fog 5 1010 100 1200 0.5 0 08:42 25.11.2019
3770 Mist 5 1009 100 8000 1.01 149 08:23 25.11.2019
3771 Mist 5 1009 100 3000 0.79 125 07:56 25.11.2019
3772 Mist 5 1009 100 3000 0.79 125 07:37 25.11.2019
3773 -273 0 0 0 0 0 07:18 25.11.2019
3774 Mist 5 1009 100 10000 0.79 125 06:24 25.11.2019
3775 Mist 5 1009 100 10000 0.79 125 06:24 25.11.2019
3776 Mist 5 1009 100 10000 0.79 125 06:24 25.11.2019
3777 Mist 5 1009 100 10000 2.1 90 05:57 25.11.2019
3778 Mist 5 1009 100 4000 2.1 90 05:32 25.11.2019
3779 Clouds 6 1009 93 6000 1.5 290 04:49 25.11.2019
3780 Mist 6 1009 93 1000 0.22 67 02:36 25.11.2019
3781 Fog 5 1009 100 600 0.96 241 01:44 25.11.2019
3782 Fog 5 1009 100 600 0.62 204 01:24 25.11.2019
3783 Clouds 6 1009 100 10000 1.5 270 00:59 25.11.2019
3784 Mist 5 1009 100 600 0.62 204 00:21 25.11.2019
3785 Mist 5 1009 93 4000 1 0 23:45 24.11.2019
3786 Mist 5 1009 93 4000 1 0 23:45 24.11.2019
3787 Mist 5 1009 93 4000 1 0 23:45 24.11.2019
3788 Mist 5 1009 100 1000 1.16 224 23:21 24.11.2019
3789 Clouds 5 1008 100 10000 4.1 270 22:59 24.11.2019
3790 Clouds 5 1008 100 10000 4.1 270 22:59 24.11.2019
3791 Clouds 5 1009 93 8000 3.1 280 22:40 24.11.2019
3792 Fog 5 1009 100 800 1.16 224 22:20 24.11.2019
3793 Clouds 5 1009 93 8000 2.1 270 21:58 24.11.2019
3794 Clouds 5 1009 93 8000 2.1 270 21:40 24.11.2019
3795 Mist 5 1009 100 10000 1.16 224 21:21 24.11.2019
3796 Clouds 5 1008 93 10000 4.1 260 20:58 24.11.2019
3797 Clouds 5 1009 100 7000 2.1 260 20:38 24.11.2019
3798 Clear 5 1009 93 10000 1.07 182 20:19 24.11.2019
3799 Clouds 5 1008 87 10000 3.1 260 19:56 24.11.2019
3800 Clouds 5 1009 93 7000 1 0 19:38 24.11.2019
3801 Clear 5 1009 86 10000 1.07 182 19:20 24.11.2019
3802 Clouds 6 1008 93 10000 2.1 270 18:59 24.11.2019
3803 Clouds 6 1009 93 10000 1 200 18:38 24.11.2019
3804 Clouds 6 1009 93 10000 1 200 18:38 24.11.2019
3805 Clear 6 1008 93 10000 1.07 182 18:19 24.11.2019
3806 Clouds 6 1008 93 8000 1.5 220 17:57 24.11.2019
3807 Clouds 6 1008 93 8000 1.5 220 17:39 24.11.2019
3808 Clear 7 1008 93 10000 1.36 226 17:20 24.11.2019
3809 Clouds 7 1008 87 10000 3.6 250 16:57 24.11.2019
3810 Clouds 7 1008 87 10000 3.6 250 16:39 24.11.2019
3811 Clouds 7 1008 87 10000 3.6 250 16:39 24.11.2019
3812 Clear 8 1007 75 10000 1.36 226 16:20 24.11.2019
3813 Clouds 8 1007 81 10000 2.1 250 15:45 24.11.2019
3814 Clouds 9 1007 70 10000 2.1 120 15:26 24.11.2019
3815 Clouds 9 1007 70 10000 1.5 120 14:58 24.11.2019
3816 Clouds 9 1007 76 10000 2.1 240 14:39 24.11.2019
3817 Clouds 9 1007 81 10000 1.21 231 14:19 24.11.2019
3818 Clouds 9 1007 70 10000 1.5 290 13:56 24.11.2019
3819 Clouds 8 1007 75 10000 2.6 250 13:37 24.11.2019
3820 Clear 8 1007 81 10000 2.6 100 13:19 24.11.2019
3821 Clouds 8 1007 87 10000 2.6 220 12:55 24.11.2019
3822 Clouds 7 1007 87 10000 2.6 220 12:37 24.11.2019
3823 Clear 7 1007 81 10000 0.52 297 12:18 24.11.2019
3824 Clouds 5 1007 87 10000 1 0 11:37 24.11.2019
3825 Clouds 5 1007 87 10000 1 0 11:37 24.11.2019
3826 Clear 4 1007 80 10000 0.72 297 11:19 24.11.2019
3827 Clouds 3 1006 93 10000 1.5 90 10:55 24.11.2019
3828 Clouds 3 1006 93 10000 1.5 90 10:37 24.11.2019
3829 Clear 2 1006 93 10000 1.5 160 10:19 24.11.2019
3830 Clouds 1 1006 93 10000 1.5 290 09:38 24.11.2019
3831 Mist 1 1005 100 6000 0.72 297 09:20 24.11.2019
3832 Clouds 1 1005 100 10000 2.6 170 08:57 24.11.2019
3833 Fog 1 1005 93 10000 2.1 20 08:39 24.11.2019
3834 Clear 0 1005 90 10000 1.5 270 08:20 24.11.2019
3835 Clouds 0 1004 93 10000 1 0 07:47 24.11.2019
3836 Clear 1 1004 100 10000 0.53 19 07:21 24.11.2019
3837 Clouds 1 1004 93 10000 1 0 06:51 24.11.2019
3838 Clouds 1 1004 93 10000 1 0 05:39 24.11.2019
3839 Mist 1 1003 90 1600 0.57 330 04:41 24.11.2019
3840 Clouds 2 1002 86 10000 2.1 50 02:42 24.11.2019
3841 Clouds 2 1001 93 10000 4.1 140 01:56 24.11.2019
3842 Clouds 2 1001 86 10000 2.6 50 01:34 24.11.2019
3843 Clouds 2 1001 93 10000 1.5 140 00:57 24.11.2019
3844 Clouds 2 1001 86 10000 2.6 40 00:38 24.11.2019
3845 Clear 2 1001 93 10000 2.1 110 00:19 24.11.2019
3846 Clouds 2 1000 86 10000 2.1 20 23:43 23.11.2019
3847 Clear 3 1000 86 10000 1.02 1 23:21 23.11.2019
3848 Clouds 3 1000 86 10000 2.6 200 22:57 23.11.2019
3849 Clouds 3 1000 93 10000 1.5 20 22:38 23.11.2019
3850 Clear 3 1000 80 10000 1.02 1 22:20 23.11.2019
3851 Clouds 3 1000 86 10000 3.1 150 21:57 23.11.2019
3852 Clouds 3 1000 86 10000 2.1 60 21:39 23.11.2019
3853 Clear 3 999 80 10000 2.6 30 21:20 23.11.2019
3854 Clouds 3 999 86 10000 2.1 360 20:39 23.11.2019
3855 Clouds 4 999 80 10000 2.6 100 20:21 23.11.2019
3856 Clouds 4 999 80 10000 2.6 100 20:21 23.11.2019
3857 Clouds 4 998 86 10000 4.6 130 19:58 23.11.2019
3858 Clouds 4 998 86 10000 3.6 50 19:39 23.11.2019
3859 Clear 4 998 80 10000 2.6 30 19:19 23.11.2019
3860 Clouds 4 998 86 10000 6.2 130 18:59 23.11.2019
3861 Clouds 4 997 86 10000 2.1 30 18:39 23.11.2019
3862 Clear 5 997 81 10000 3.6 90 18:20 23.11.2019
3863 Clouds 5 997 81 10000 2.1 50 17:54 23.11.2019
3864 Clouds 5 996 81 10000 7.7 120 17:36 23.11.2019
3865 Clear 6 997 75 10000 3.1 80 17:18 23.11.2019
3866 Clouds 6 996 81 10000 1.5 90 16:54 23.11.2019
3867 Clouds 7 996 81 10000 1.5 90 16:36 23.11.2019
3868 Clear 7 996 75 10000 3.6 70 16:18 23.11.2019
3869 Clouds 7 996 75 10000 1 0 15:40 23.11.2019
3870 Clear 7 996 75 10000 5.1 60 15:19 23.11.2019
3871 Clear 7 996 75 10000 5.1 60 15:19 23.11.2019
3872 Clouds 7 995 87 10000 6.2 100 14:58 23.11.2019
3873 Clouds 7 995 75 10000 4.1 50 14:40 23.11.2019
3874 Clear 7 996 75 10000 6.7 60 14:21 23.11.2019
3875 Clouds 7 996 87 10000 5.1 120 13:57 23.11.2019
3876 Clouds 7 995 75 10000 6.7 50 13:38 23.11.2019
3877 Clouds 7 996 75 10000 6.2 80 13:18 23.11.2019
3878 Clouds 6 995 81 10000 5.1 60 12:43 23.11.2019
3879 Clouds 6 996 75 10000 4.1 90 12:24 23.11.2019
3880 Clouds 6 995 75 10000 6.2 50 11:45 23.11.2019
3881 Clouds 5 996 80 10000 9.8 70 11:24 23.11.2019
3882 Clouds 5 995 80 10000 6.2 50 10:57 23.11.2019
3883 Clouds 5 995 80 10000 6.2 50 10:39 23.11.2019
3884 Clouds 4 996 86 10000 8.7 70 10:18 23.11.2019
3885 Clouds 4 996 86 10000 5.1 40 09:41 23.11.2019
3886 Clouds 4 997 86 10000 5.7 70 09:19 23.11.2019
3887 Clouds 3 996 93 10000 4.1 50 08:41 23.11.2019
3888 Clouds 3 996 93 10000 4.1 50 08:41 23.11.2019
3889 Clouds 3 996 93 10000 4.1 50 08:41 23.11.2019
3890 Clouds 3 996 86 10000 6.7 70 08:19 23.11.2019
3891 Clouds 3 996 86 10000 4.1 60 07:44 23.11.2019
3892 Clouds 3 997 86 10000 5.1 70 07:26 23.11.2019
3893 Clouds 3 996 86 10000 5.1 60 06:42 23.11.2019
3894 Clouds 3 997 86 10000 6.2 70 06:19 23.11.2019
3895 Clouds 3 997 86 8000 4.1 60 05:45 23.11.2019
3896 Clouds 3 998 93 10000 7.7 70 05:27 23.11.2019
3897 Clouds 3 997 93 8000 4.1 60 04:40 23.11.2019
3898 Clouds 3 998 86 10000 4.1 90 04:21 23.11.2019
3899 Clouds 3 998 86 10000 4.1 70 02:39 23.11.2019
3900 Clouds 3 998 93 8000 6.2 60 01:42 23.11.2019
3901 Clouds 4 1000 93 10000 5.7 60 00:57 23.11.2019
3902 Clouds 4 999 93 8000 3.6 70 00:38 23.11.2019
3903 Clouds 4 1000 86 10000 2.6 50 00:18 23.11.2019
3904 Clouds 4 1000 93 8000 4.1 70 23:39 22.11.2019
3905 Clouds 4 1000 86 10000 9.8 70 23:20 22.11.2019
3906 Clouds 4 1000 93 9000 3.6 60 22:57 22.11.2019
3907 Clouds 4 1000 93 9000 3.6 60 22:38 22.11.2019
3908 Clouds 4 1000 93 9000 3.6 60 22:38 22.11.2019
3909 Clouds 4 1000 93 8000 4.1 60 22:20 22.11.2019
3910 Mist 4 1002 100 4000 7.7 130 21:58 22.11.2019
3911 Clouds 4 1000 93 10000 5.7 60 21:39 22.11.2019
3912 Clear 4 1002 93 10000 7.2 70 21:19 22.11.2019
3913 Clouds 4 1001 93 10000 5.1 60 20:43 22.11.2019
3914 Clouds 4 1002 93 10000 9.3 70 20:22 22.11.2019
3915 Fog 4 1002 100 700 8.2 130 19:56 22.11.2019
3916 Clouds 4 1001 93 10000 5.7 70 19:37 22.11.2019
3917 Clouds 4 1001 86 10000 4.1 80 19:19 22.11.2019
3918 Clouds 4 1002 81 10000 5.7 100 18:39 22.11.2019
3919 Clouds 4 1003 100 10000 5.1 60 18:21 22.11.2019
3920 Fog 4 1004 100 300 7.7 140 17:58 22.11.2019
3921 Clouds 4 1002 87 10000 5.1 100 17:40 22.11.2019
3922 Clear 6 1003 86 10000 5.7 70 17:21 22.11.2019
3923 Clouds 6 1003 81 10000 4.1 110 16:42 22.11.2019
3924 Clear 7 1004 86 10000 5.1 70 16:24 22.11.2019
3925 Clouds 8 1003 81 10000 4.1 110 15:45 22.11.2019
3926 Clouds 8 1004 87 10000 4.1 60 15:24 22.11.2019
3927 Clouds 8 1004 87 10000 4.1 60 15:24 22.11.2019
3928 Clouds 8 1004 87 10000 5.7 80 14:56 22.11.2019
3929 Clouds 8 1004 87 10000 5.7 80 14:56 22.11.2019
3930 Clouds 8 1004 81 10000 4.1 140 14:38 22.11.2019
3931 Clouds 8 1004 87 10000 2.6 80 14:19 22.11.2019
3932 Clouds 8 1005 81 10000 5.1 80 13:58 22.11.2019
3933 Clouds 8 1004 81 10000 4.1 130 13:37 22.11.2019
3934 Clouds 8 1005 81 10000 3.1 130 13:19 22.11.2019
3935 Clouds 8 1005 87 10000 4.1 80 12:57 22.11.2019
3936 Clouds 7 1005 87 10000 3.6 130 12:39 22.11.2019
3937 Clouds 7 1006 87 10000 2.6 140 12:19 22.11.2019
3938 Clouds 7 1006 87 10000 4.6 90 11:56 22.11.2019
3939 Clouds 7 1006 93 10000 3.6 140 11:36 22.11.2019
3940 Clouds 6 1006 93 10000 4.1 160 11:18 22.11.2019
3941 Clouds 6 1006 93 10000 3.6 150 10:41 22.11.2019
3942 Clouds 5 1006 100 10000 2.1 160 10:22 22.11.2019
3943 Clouds 5 1007 93 7000 2.1 90 09:58 22.11.2019
3944 Clouds 5 1006 100 10000 2.6 150 09:39 22.11.2019
3945 Mist 5 1007 100 10000 3.1 70 09:21 22.11.2019
3946 Mist 5 1006 100 9000 3.6 90 08:57 22.11.2019
3947 Mist 5 1006 100 9000 3.6 90 08:37 22.11.2019
3948 Mist 4 1006 100 8000 2.6 80 08:19 22.11.2019
3949 Clouds 5 1006 100 10000 3.1 90 07:40 22.11.2019
3950 Mist 5 1006 93 9000 3.1 100 07:19 22.11.2019
3951 Rain 5 1006 100 10000 3.6 100 06:42 22.11.2019
3952 Drizzle 5 1006 100 10000 1.73 121 06:21 22.11.2019
3953 Mist 5 1006 93 5000 4.1 160 05:32 22.11.2019
3954 Rain 4 1006 93 10000 3.1 100 03:25 22.11.2019
3955 Rain 4 1006 93 10000 3.1 100 03:25 22.11.2019
3956 Rain 4 1006 93 3600 2.1 110 02:39 22.11.2019
3957 Clouds 3 1006 93 10000 1.5 90 02:20 22.11.2019
3958 Rain 3 1006 93 4800 2.1 140 01:43 22.11.2019
3959 Clouds 3 1006 93 10000 4.6 90 01:18 22.11.2019
3960 Rain 3 1006 93 10000 3.1 100 00:43 22.11.2019
3961 Clouds 3 1006 100 10000 2.6 80 00:22 22.11.2019
3962 Clouds 3 1006 93 6000 2.6 120 23:43 21.11.2019
3963 Fog 3 1006 93 300 6.7 140 23:24 21.11.2019
3964 Fog 2 1006 94 300 6.7 140 22:56 21.11.2019
3965 Clouds 2 1006 100 10000 1.87 106 22:38 21.11.2019
3966 Mist 3 1006 100 8000 4.1 90 22:19 21.11.2019
3967 Fog 2 1006 94 100 6.2 140 21:55 21.11.2019
3968 Clouds 2 1006 93 6000 1.5 100 21:36 21.11.2019
3969 Mist 2 1006 94 8000 2.6 90 21:18 21.11.2019
3970 Fog 2 1006 100 100 7.2 140 20:57 21.11.2019
3971 Mist 2 1006 93 5000 2.1 100 20:37 21.11.2019
3972 Mist 2 1006 100 5000 3.6 80 20:18 21.11.2019
3973 Fog 2 1007 100 200 7.2 140 19:57 21.11.2019
3974 Mist 2 1006 93 5000 2.1 60 19:38 21.11.2019
3975 Mist 2 1006 100 8000 2.6 100 19:19 21.11.2019
3976 Fog 2 1007 100 100 6.2 140 18:54 21.11.2019
3977 Mist 2 1006 100 4000 2.1 70 18:36 21.11.2019
3978 Clouds 3 1006 93 10000 3.6 100 18:18 21.11.2019
3979 Clouds 3 1007 93 10000 3.6 90 17:40 21.11.2019
3980 Clouds 3 1007 93 10000 3.1 80 17:22 21.11.2019
3981 Clouds 3 1007 93 10000 3.1 80 17:22 21.11.2019
3982 Clouds 4 1007 93 10000 4.1 70 16:59 21.11.2019
3983 Clouds 4 1006 93 6000 2.1 100 16:40 21.11.2019
3984 Clouds 4 1007 93 10000 2.1 90 16:21 21.11.2019
3985 Clouds 4 1007 93 10000 2.1 80 15:56 21.11.2019
3986 Clouds 4 1007 93 10000 2.1 80 15:37 21.11.2019
3987 Clouds 4 1007 86 10000 1.5 90 15:19 21.11.2019
3988 Mist 4 1007 93 3000 2.6 150 14:39 21.11.2019
3989 Clouds 4 1007 86 10000 2.16 134 14:21 21.11.2019
3990 Mist 4 1007 86 3000 2.6 130 13:59 21.11.2019
3991 Mist 4 1007 93 2500 1.5 130 13:38 21.11.2019
3992 Clouds 4 1007 86 10000 2.16 132 13:19 21.11.2019
3993 Fog 3 1007 84 300 5.1 140 12:56 21.11.2019
3994 Mist 3 1008 86 8000 2.16 132 12:37 21.11.2019
3995 Mist 3 1008 93 6000 1.5 80 12:19 21.11.2019
3996 Mist 2 1008 93 1600 2.1 100 11:41 21.11.2019
3997 Mist 2 1008 93 1600 2.1 100 11:41 21.11.2019
3998 Mist 2 1009 88 3200 1.94 122 11:21 21.11.2019
3999 Fog 2 1008 88 200 7.2 140 10:59 21.11.2019
4000 Mist 2 1008 100 1100 2.1 100 10:41 21.11.2019
4001 Mist 2 1009 88 3200 1.5 60 10:22 21.11.2019
4002 Fog 1 1008 88 200 7.2 140 09:56 21.11.2019
4003 Mist 1 1008 100 1200 1.5 110 09:38 21.11.2019
4004 Mist 1 1009 100 3200 1.5 80 09:19 21.11.2019
4005 Mist 1 1009 88 1600 2.6 130 08:41 21.11.2019
4006 Mist 1 1009 100 3200 2.6 70 08:20 21.11.2019
4007 Mist 1 1009 100 10000 2.6 60 07:42 21.11.2019
4008 Mist 1 1009 100 9000 2.1 80 07:18 21.11.2019
4009 Fog 1 1008 100 200 6.7 140 06:57 21.11.2019
4010 Clouds 1 1009 100 10000 2.6 80 06:34 21.11.2019
4011 Mist 0 1009 92 6000 1.7 108 05:38 21.11.2019
4012 Mist 0 1009 95 3600 2.6 100 03:34 21.11.2019
4013 Clouds 0 1010 95 10000 3.1 80 02:42 21.11.2019
4014 Clouds 0 1010 94 10000 3.6 80 02:21 21.11.2019
4015 Clouds 0 1011 94 10000 3.6 80 01:42 21.11.2019
4016 Clouds 0 1011 94 10000 2.6 80 01:19 21.11.2019
4017 Mist 0 1011 94 5000 2.6 80 00:38 21.11.2019
4018 Clouds 0 1011 94 10000 4.6 80 00:18 21.11.2019
4019 Clouds 0 1011 94 7000 2.1 80 23:42 20.11.2019
4020 Clouds 0 1012 93 10000 6.2 80 23:21 20.11.2019
4021 Clouds 0 1011 93 9000 3.1 110 22:57 20.11.2019
4022 Clouds 0 1011 93 8000 3.1 70 22:37 20.11.2019
4023 Clear 0 1012 100 10000 5.7 80 22:19 20.11.2019
4024 Clouds 0 1012 93 10000 3.6 80 21:57 20.11.2019
4025 Clouds 0 1012 100 9000 2.6 70 21:38 20.11.2019
4026 Clear -1 1013 93 10000 5.1 80 21:19 20.11.2019
4027 Mist -1 1012 100 5000 2.6 130 20:57 20.11.2019
4028 Clouds 0 1012 93 7000 3.1 70 20:38 20.11.2019
4029 Clear 0 1013 92 10000 4.6 70 20:20 20.11.2019
4030 Clear 0 1013 92 10000 4.6 70 20:20 20.11.2019
4031 Clouds 0 1012 100 8000 2.6 90 19:56 20.11.2019
4032 Clear 0 1012 90 10000 3.1 60 19:37 20.11.2019
4033 Clear 0 1013 90 10000 4.6 70 19:18 20.11.2019
4034 Clouds 0 1013 100 8000 2.6 110 18:58 20.11.2019
4035 Clear 0 1012 86 10000 3.6 60 18:39 20.11.2019
4036 Clear 1 1013 90 10000 5.7 70 18:20 20.11.2019
4037 Clouds 1 1013 86 10000 3.1 100 17:56 20.11.2019
4038 Clear 1 1012 90 10000 4.6 50 17:38 20.11.2019
4039 Clouds 1 1013 86 10000 4.6 70 17:20 20.11.2019
4040 Clouds 2 1013 86 10000 2.1 100 16:56 20.11.2019
4041 Clouds 2 1013 79 10000 4.1 60 16:37 20.11.2019
4042 Clouds 2 1014 80 10000 3.1 70 16:18 20.11.2019
4043 Clouds 2 1013 86 10000 3.6 60 15:42 20.11.2019
4044 Clouds 2 1013 86 10000 3.6 60 15:42 20.11.2019
4045 Clouds 3 1014 74 10000 5.1 80 15:22 20.11.2019
4046 Clouds 2 1014 74 10000 5.1 80 14:59 20.11.2019
4047 Clouds 3 1014 74 10000 5.1 80 14:40 20.11.2019
4048 Clouds 3 1014 74 10000 5.1 80 14:40 20.11.2019
4049 Clouds 2 1015 66 10000 5.1 80 14:22 20.11.2019
4050 Clouds 2 1014 66 10000 3.6 120 13:58 20.11.2019
4051 Mist 2 1014 100 5000 2.1 110 13:39 20.11.2019
4052 Clouds 2 1015 100 10000 5.7 80 13:20 20.11.2019
4053 Clouds 1 1015 100 10000 5.7 90 12:55 20.11.2019
4054 Clouds 2 1015 100 10000 5.7 90 12:37 20.11.2019
4055 Mist 1 1016 100 8000 3.1 80 12:19 20.11.2019
4056 Mist 1 1016 100 6000 4.1 70 11:45 20.11.2019
4057 Mist 1 1016 100 6000 4.1 80 11:22 20.11.2019
4058 Fog 1 1016 82 9000 3.6 110 10:56 20.11.2019
4059 Mist 0 1016 100 6000 4.6 80 10:38 20.11.2019
4060 Mist 0 1016 82 6000 6.2 70 10:19 20.11.2019
4061 Fog 0 1016 100 200 3.6 50 09:44 20.11.2019
4062 Mist -1 1017 82 5000 3.1 80 09:23 20.11.2019
4063 Fog -1 1016 100 300 4.1 50 08:59 20.11.2019
4064 Fog -1 1016 100 150 4.1 50 08:39 20.11.2019
4065 Mist -1 1017 100 9000 2.6 60 08:21 20.11.2019
4066 Clouds -1 1017 93 10000 2.6 70 07:48 20.11.2019
4067 Clouds -1 1016 93 9000 2.6 80 07:28 20.11.2019
4068 Fog -1 1016 100 300 4.1 50 06:50 20.11.2019
4069 Mist -1 1017 100 5000 3.6 70 06:22 20.11.2019
4070 Mist -1 1017 92 2400 2.1 80 05:51 20.11.2019
4071 Clouds -1 1017 100 10000 2.1 80 03:55 20.11.2019
4072 Clear -1 1018 100 10000 1.78 37 02:22 20.11.2019
4073 Fog -1 1018 100 150 3.6 50 01:35 20.11.2019
4074 Clouds -1 1018 100 10000 1.79 37 00:44 20.11.2019
4075 Mist -1 1019 100 1800 1.79 37 00:18 20.11.2019
4076 Fog -1 1019 100 600 1.5 70 23:40 19.11.2019
4077 Fog -1 1018 100 400 0.86 60 23:22 19.11.2019
4078 Clouds -1 1018 92 10000 0.5 0 22:54 19.11.2019
4079 Mist -1 1019 92 1600 1.5 70 22:36 19.11.2019
4080 Mist -1 1018 100 8000 0.86 60 22:18 19.11.2019
4081 Clear -1 1018 92 10000 1 290 21:54 19.11.2019
4082 Fog -1 1018 100 9000 0.86 60 21:36 19.11.2019
4083 Mist -1 1018 92 3600 0.86 60 21:18 19.11.2019
4084 Clear 0 1017 92 10000 1.5 270 20:54 19.11.2019
4085 Clear 0 1018 92 10000 2.6 300 20:36 19.11.2019
4086 Clear 0 1018 91 10000 1.14 51 20:18 19.11.2019
4087 Clouds 0 1018 100 10000 2.6 280 19:41 19.11.2019
4088 Clouds 0 1018 91 10000 1.14 51 19:20 19.11.2019
4089 Clear 1 1018 91 10000 0.5 0 18:57 19.11.2019
4090 Clear 1 1017 91 10000 1.5 220 18:39 19.11.2019
4091 Clear 1 1018 91 10000 1.14 51 18:18 19.11.2019
4092 Clouds 2 1018 91 10000 1.5 90 17:56 19.11.2019
4093 Clouds 2 1018 86 10000 3.1 260 17:37 19.11.2019
4094 Clear 2 1017 81 10000 0.65 335 17:19 19.11.2019
4095 Clear 3 1017 93 10000 1.5 260 16:57 19.11.2019
4096 Clouds 3 1017 86 10000 2.1 0 16:38 19.11.2019
4097 Clear 4 1017 81 10000 0.65 335 16:19 19.11.2019
4098 Clouds 4 1017 80 10000 1.5 200 15:45 19.11.2019
4099 Clouds 4 1016 86 10000 2.1 300 15:26 19.11.2019
4100 Clouds 5 1016 100 10000 3.1 290 14:57 19.11.2019
4101 Clouds 5 1017 69 10000 1.5 260 14:39 19.11.2019
4102 Clouds 5 1017 80 10000 2.6 270 14:20 19.11.2019
4103 Clouds 5 1017 75 10000 1.5 340 13:42 19.11.2019
4104 Clouds 5 1017 80 10000 2.1 290 13:21 19.11.2019
4105 Clouds 4 1016 93 10000 4.1 290 12:56 19.11.2019
4106 Clouds 4 1017 93 10000 1.5 230 12:38 19.11.2019
4107 Clouds 4 1017 100 10000 1.5 292 12:19 19.11.2019
4108 Clouds 4 1016 100 9000 4.1 270 11:55 19.11.2019
4109 Clouds 4 1016 100 10000 3.1 250 11:36 19.11.2019
4110 Clouds 3 1017 100 10000 0.92 201 11:18 19.11.2019
4111 Clouds 3 1017 100 10000 1.5 140 10:44 19.11.2019
4112 Clouds 3 1016 100 10000 0.92 201 10:20 19.11.2019
4113 Clouds 2 1016 93 10000 2.1 270 09:43 19.11.2019
4114 Clouds 2 1016 100 10000 1.5 250 09:21 19.11.2019
4115 Fog 2 1015 93 400 4.1 290 08:58 19.11.2019
4116 Clouds 2 1016 100 10000 2.6 280 08:39 19.11.2019
4117 Mist 2 1015 100 5000 2.1 220 08:21 19.11.2019
4118 Fog 2 1015 100 900 2.6 290 07:56 19.11.2019
4119 Clouds 2 1015 93 10000 3.6 270 07:36 19.11.2019
4120 Clouds 2 1015 100 10000 2.1 260 07:18 19.11.2019
4121 Mist 2 1015 100 2600 1.5 210 06:42 19.11.2019
4122 Mist 3 1015 95 2800 0.3 239 06:18 19.11.2019
4123 Mist 3 1014 100 8000 2.49 274 05:19 19.11.2019
4124 Mist 3 1014 100 8000 2.49 274 05:19 19.11.2019
4125 Mist 3 1014 93 1800 2.49 274 03:41 19.11.2019
4126 Mist 3 1014 93 1000 2.1 280 03:19 19.11.2019
4127 Fog 3 1013 100 600 1.5 260 02:49 19.11.2019
4128 Fog 4 1012 100 600 1.5 280 01:49 19.11.2019
4129 Mist 4 1012 100 1000 3.77 228 00:49 19.11.2019
4130 Fog 3 1012 100 800 1.5 240 00:20 19.11.2019
4131 Mist 3 1012 100 1000 2.1 240 23:40 18.11.2019
4132 Mist 3 1011 100 1200 2.1 250 23:20 18.11.2019
4133 Mist 3 1011 96 2400 3.1 240 22:48 18.11.2019
4134 Rain 2 1010 96 5000 5.7 250 22:24 18.11.2019
4135 Rain 2 1011 100 3000 3.1 230 21:59 18.11.2019
4136 Rain 2 1011 100 3500 3.1 220 21:40 18.11.2019
4137 Rain 2 1011 96 5000 4.1 230 21:22 18.11.2019
4138 Snow 2 1010 96 4000 4.1 220 20:59 18.11.2019
4139 Snow 1 1010 96 4000 4.1 220 20:41 18.11.2019
4140 Rain 1 1010 97 2600 4.6 220 20:19 18.11.2019
4141 Snow 1 1010 97 3000 3.6 220 19:58 18.11.2019
4142 Snow 1 1010 97 3000 3.6 220 19:38 18.11.2019
4143 Snow 1 1009 97 3000 4.1 230 19:20 18.11.2019
4144 Snow 1 1008 97 3500 4.1 240 18:56 18.11.2019
4145 Snow 1 1009 97 6000 3.6 220 18:38 18.11.2019
4146 Rain 1 1009 97 9000 4.1 230 18:19 18.11.2019
4147 Rain 1 1008 100 6000 5.1 240 17:59 18.11.2019
4148 Snow 1 1010 97 1800 4.1 250 17:37 18.11.2019
4149 Rain 1 1008 100 10000 4.1 230 17:19 18.11.2019
4150 Rain 2 1008 100 10000 3.1 230 16:43 18.11.2019
4151 Drizzle 2 1007 100 4000 4.1 240 16:24 18.11.2019
4152 Clouds 2 1009 100 5000 5.1 270 15:59 18.11.2019
4153 Rain 2 1008 100 10000 3.6 250 15:40 18.11.2019
4154 Rain 2 1007 93 10000 3.1 230 15:22 18.11.2019
4155 Mist 2 1006 100 2000 4.1 260 14:58 18.11.2019
4156 Mist 2 1006 100 2000 4.1 260 14:58 18.11.2019
4157 Clouds 2 1007 93 10000 4.1 240 14:40 18.11.2019
4158 Drizzle 2 1007 93 10000 3.6 240 14:22 18.11.2019
4159 Drizzle 2 1007 93 3000 4.6 270 13:44 18.11.2019
4160 Rain 2 1006 100 300 3.6 260 13:26 18.11.2019
4161 Rain 2 1006 100 200 3.6 270 12:57 18.11.2019
4162 Clouds 2 1006 100 10000 3.1 250 12:37 18.11.2019
4163 Rain 2 1006 100 10000 3.1 240 12:18 18.11.2019
4164 Drizzle 2 1007 100 3200 4.6 270 11:42 18.11.2019
4165 Snow 2 1006 100 1800 2.6 270 11:24 18.11.2019
4166 Clouds 2 1006 93 10000 2.1 250 10:45 18.11.2019
4167 Drizzle 2 1006 100 1500 1.5 290 10:26 18.11.2019
4168 Rain 2 1007 100 3500 3.6 280 09:59 18.11.2019
4169 Rain 2 1006 100 4000 4.1 270 09:39 18.11.2019
4170 Clouds 2 1006 93 10000 1.5 230 09:21 18.11.2019
4171 Rain 2 1006 93 5000 3.1 280 08:59 18.11.2019
4172 Mist 2 1005 100 4000 1.5 340 08:41 18.11.2019
4173 Clouds 2 1005 93 10000 1.5 220 08:19 18.11.2019
4174 Rain 2 1005 93 9000 3.1 300 07:47 18.11.2019
4175 Drizzle 2 1004 100 3000 1 0 07:27 18.11.2019
4176 Rain 2 1005 100 8000 3.6 300 06:49 18.11.2019
4177 Fog 2 1004 100 500 2.6 330 06:29 18.11.2019
4178 Rain 2 1005 93 10000 3.1 310 05:47 18.11.2019
4179 Rain 2 1004 93 8000 4.6 320 04:39 18.11.2019
4180 Drizzle 2 1003 100 2000 3.1 320 01:56 18.11.2019
4181 Drizzle 2 1004 100 6000 4.1 320 01:31 18.11.2019
4182 Drizzle 2 1003 93 4000 4.6 340 00:23 18.11.2019
4183 Snow 2 1004 100 6000 4.1 330 23:44 17.11.2019
4184 Rain 3 1003 100 4000 4.1 340 23:24 17.11.2019
4185 Rain 3 1003 100 4000 4.6 350 22:58 17.11.2019
4186 Drizzle 3 1004 86 10000 3.6 10 22:40 17.11.2019
4187 Rain 3 1004 86 10000 3.1 340 22:22 17.11.2019
4188 Rain 3 1004 93 8000 5.7 340 21:59 17.11.2019
4189 Rain 3 1004 93 10000 5.7 340 21:40 17.11.2019
4190 Rain 3 1004 93 10000 3.1 330 21:19 17.11.2019
4191 Drizzle 4 1003 100 6000 3.6 350 20:57 17.11.2019
4192 Rain 3 1005 93 6000 6.2 340 20:38 17.11.2019
4193 Rain 3 1005 93 6000 6.2 340 20:38 17.11.2019
4194 Rain 4 1004 86 10000 5.1 320 20:19 17.11.2019
4195 Rain 4 1003 100 5000 5.1 350 19:56 17.11.2019
4196 Rain 4 1005 93 10000 6.2 340 19:38 17.11.2019
4197 Rain 4 1005 93 10000 3.6 330 19:20 17.11.2019
4198 Rain 4 1004 93 6000 4.6 350 18:56 17.11.2019
4199 Rain 4 1005 86 10000 6.7 340 18:38 17.11.2019
4200 Rain 4 1005 86 10000 2.6 320 18:19 17.11.2019
4201 Rain 4 1004 100 5000 5.7 340 17:57 17.11.2019
4202 Rain 4 1005 75 10000 4.6 340 17:39 17.11.2019
4203 Rain 4 1005 86 10000 4.1 340 17:20 17.11.2019
4204 Rain 4 1004 100 4000 5.1 330 16:58 17.11.2019
4205 Rain 4 1005 86 10000 3.6 340 16:40 17.11.2019
4206 Rain 4 1005 75 10000 4.6 360 16:21 17.11.2019
4207 Rain 4 1004 93 10000 4.6 320 15:55 17.11.2019
4208 Rain 4 1004 93 10000 4.6 320 15:55 17.11.2019
4209 Clouds 5 1006 75 10000 5.7 360 15:37 17.11.2019
4210 Clouds 5 1006 75 10000 4.6 20 15:18 17.11.2019
4211 Rain 5 1005 93 9000 1.5 320 14:56 17.11.2019
4212 Clouds 4 1006 75 10000 5.1 360 14:37 17.11.2019
4213 Clouds 4 1007 86 10000 1.5 230 14:19 17.11.2019
4214 Mist 4 1006 100 4500 4.1 20 13:56 17.11.2019
4215 Mist 4 1006 100 4500 4.1 20 13:56 17.11.2019
4216 Clouds 4 1007 86 10000 5.1 30 13:38 17.11.2019
4217 Clouds 3 1007 86 10000 4.48 9 13:19 17.11.2019
4218 Clouds 4 1007 80 7000 5.7 40 12:44 17.11.2019
4219 Clouds 3 1007 100 10000 2.1 80 12:23 17.11.2019
4220 Fog 2 1007 100 200 4.1 20 11:57 17.11.2019
4221 Clouds 2 1008 86 6000 6.2 30 11:39 17.11.2019
4222 Mist 1 1009 82 9000 2.6 70 11:20 17.11.2019
4223 Clouds 1 1008 82 7000 2.6 30 10:44 17.11.2019
4224 Fog 1 1008 82 150 2.6 20 10:23 17.11.2019
4225 Mist 0 1009 100 4400 1.5 40 09:58 17.11.2019
4226 Mist 0 1009 100 4400 1.5 40 09:40 17.11.2019
4227 Mist 0 1009 100 6000 2.6 60 09:22 17.11.2019
4228 Mist 0 1009 92 1800 2.6 80 08:41 17.11.2019
4229 Mist -1 1010 100 2400 2.1 80 08:23 17.11.2019
4230 Fog -1 1009 92 200 2.1 100 07:56 17.11.2019
4231 Mist -1 1010 100 3600 2.6 60 07:37 17.11.2019
4232 Mist -1 1010 100 3200 4.6 60 07:19 17.11.2019
4233 Clouds -1 1010 92 6000 4.1 50 06:46 17.11.2019
4234 Fog -1 1009 92 200 4.6 130 06:27 17.11.2019
4235 Mist -1 1009 92 4000 3.6 40 04:48 17.11.2019
4236 Fog -1 1009 92 300 5.1 140 03:53 17.11.2019
4237 Clouds -1 1010 92 0 4.6 40 03:33 17.11.2019
4238 Mist -1 1010 92 1500 3.6 40 02:40 17.11.2019
4239 Mist -1 1011 92 1600 3.6 60 01:45 17.11.2019
4240 Fog -1 1011 92 300 4.6 140 00:56 17.11.2019
4241 Fog -1 1011 100 200 4.6 150 00:23 17.11.2019
4242 Fog -1 1011 92 200 5.1 150 23:54 16.11.2019
4243 Clear 0 1010 100 8000 1 90 23:36 16.11.2019
4244 Clear 0 1011 93 10000 1.34 108 23:18 16.11.2019
4245 Clear 0 1010 93 8000 2.1 110 22:42 16.11.2019
4246 Clear 0 1011 93 10000 1.5 30 22:20 16.11.2019
4247 Clear 0 1010 93 7000 3.6 140 21:58 16.11.2019
4248 Clear 0 1011 100 10000 1 0 21:39 16.11.2019
4249 Clear 1 1011 93 10000 2.1 70 21:21 16.11.2019
4250 Clear 1 1011 93 8000 4.1 130 20:57 16.11.2019
4251 Clear 1 1010 100 10000 2.1 120 20:39 16.11.2019
4252 Clear 1 1011 93 10000 2.1 60 20:19 16.11.2019
4253 Clouds 1 1010 93 10000 3.1 110 19:41 16.11.2019
4254 Clear 2 1010 93 10000 2.6 80 19:22 16.11.2019
4255 Clouds 2 1010 93 10000 2.1 80 18:59 16.11.2019
4256 Clouds 2 1010 86 10000 1.5 110 18:39 16.11.2019
4257 Clear 2 1010 93 10000 1.5 80 18:20 16.11.2019
4258 Clouds 2 1010 93 10000 4.6 160 17:55 16.11.2019
4259 Clouds 2 1009 86 10000 2.1 130 17:36 16.11.2019
4260 Clear 3 1009 82 10000 1.88 165 17:18 16.11.2019
4261 Clouds 4 1009 75 10000 2.1 150 16:44 16.11.2019
4262 Clouds 4 1009 80 10000 4.1 160 16:26 16.11.2019
4263 Clouds 5 1009 86 10000 4.1 160 15:56 16.11.2019
4264 Clouds 5 1009 80 10000 3.1 160 15:37 16.11.2019
4265 Clear 5 1009 82 10000 3.1 180 15:18 16.11.2019
4266 Clouds 5 1008 86 10000 2.6 150 14:40 16.11.2019
4267 Clear 5 1008 70 10000 4.1 190 14:21 16.11.2019
4268 Clouds 5 1008 70 10000 2.6 220 13:57 16.11.2019
4269 Clouds 4 1008 93 8000 3.1 160 13:38 16.11.2019
4270 Clear 4 1008 75 10000 1.5 240 13:19 16.11.2019
4271 Clouds 4 1008 80 10000 2.1 300 12:59 16.11.2019
4272 Clouds 4 1008 86 7000 2.6 160 12:40 16.11.2019
4273 Clouds 3 1009 80 10000 2.91 184 12:20 16.11.2019
4274 Mist 3 1008 93 5000 3.6 170 11:45 16.11.2019
4275 Clouds 3 1008 72 10000 2.6 260 11:27 16.11.2019
4276 Clouds 1 1009 93 10000 1.5 240 10:58 16.11.2019
4277 Mist 1 1008 100 4500 1.5 160 10:39 16.11.2019
4278 Clouds 1 1008 82 10000 2.73 170 10:21 16.11.2019
4279 Clouds 0 1007 82 6000 1 0 09:45 16.11.2019
4280 Clouds 0 1007 92 10000 2.73 170 09:22 16.11.2019
4281 Clouds -1 1007 82 6000 2.1 170 08:59 16.11.2019
4282 Clouds -1 1007 82 6000 1.5 140 08:40 16.11.2019
4283 Clear -1 1006 92 10000 1.13 155 08:19 16.11.2019
4284 Clouds -2 1006 92 8000 2.1 100 07:43 16.11.2019
4285 Clouds -2 1006 92 8000 2.1 100 07:43 16.11.2019
4286 Clear -2 1005 92 10000 1.13 155 07:22 16.11.2019
4287 Clouds -2 1005 100 10000 1 180 06:56 16.11.2019
4288 Clouds -2 1005 100 10000 1.5 250 06:34 16.11.2019
4289 Clouds -2 1004 92 10000 1 270 05:59 16.11.2019
4290 Clear -1 1004 91 10000 1.03 80 04:21 16.11.2019
4291 Clouds -1 1004 91 10000 1 300 03:26 16.11.2019
4292 Clouds 0 1004 91 10000 2.6 60 02:35 16.11.2019
4293 Clouds 0 1004 91 10000 1 0 01:32 16.11.2019
4294 Clouds 1 1004 91 10000 2.1 70 00:47 16.11.2019
4295 Clouds 1 1004 91 10000 2.1 70 00:47 16.11.2019
4296 Clouds 1 1004 91 10000 1 30 00:27 16.11.2019
4297 Clouds 1 1004 80 10000 0.81 107 23:44 15.11.2019
4298 Clouds 1 1004 91 10000 1.5 120 23:23 15.11.2019
4299 Clouds 1 1003 94 10000 1.5 240 22:59 15.11.2019
4300 Clouds 1 1003 94 10000 2.1 130 22:39 15.11.2019
4301 Clouds 1 1003 94 10000 1.5 130 22:19 15.11.2019
4302 Clouds 2 1003 94 10000 2.1 180 21:56 15.11.2019
4303 Clouds 2 1003 86 10000 2.6 150 21:38 15.11.2019
4304 Clouds 2 1003 94 10000 1.5 120 21:19 15.11.2019
4305 Clouds 2 1003 93 10000 2.6 220 20:56 15.11.2019
4306 Clouds 3 1003 86 10000 2.6 160 20:38 15.11.2019
4307 Clouds 3 1003 94 10000 3.1 200 20:19 15.11.2019
4308 Clouds 3 1002 86 10000 3.1 210 19:57 15.11.2019
4309 Clouds 3 1003 86 10000 3.6 130 19:38 15.11.2019
4310 Clouds 3 1002 95 10000 2.6 180 19:19 15.11.2019
4311 Clouds 4 1002 80 10000 3.1 180 18:43 15.11.2019
4312 Clouds 4 1002 86 10000 2.6 160 18:25 15.11.2019
4313 Clouds 4 1001 86 10000 3.1 150 17:59 15.11.2019
4314 Clouds 4 1001 86 10000 4.1 190 17:40 15.11.2019
4315 Clouds 4 1001 80 10000 3.6 180 17:22 15.11.2019
4316 Clouds 4 1001 80 10000 2.6 160 16:56 15.11.2019
4317 Clouds 4 1001 80 10000 2.6 160 16:37 15.11.2019
4318 Clouds 4 1000 80 10000 4.6 180 16:18 15.11.2019
4319 Clouds 4 1000 86 10000 3.6 180 15:38 15.11.2019
4320 Clouds 4 1000 80 10000 4.1 180 15:19 15.11.2019
4321 Clouds 4 999 80 10000 4.6 210 14:57 15.11.2019
4322 Clouds 4 1000 86 10000 4.6 180 14:38 15.11.2019
4323 Clouds 4 1000 80 10000 4.6 170 14:19 15.11.2019
4324 Clouds 4 999 80 10000 3.6 160 13:57 15.11.2019
4325 Clouds 4 999 86 9000 4.6 180 13:39 15.11.2019
4326 Clouds 4 999 89 10000 4.43 197 13:20 15.11.2019
4327 Clouds 4 999 86 10000 2.1 170 12:57 15.11.2019
4328 Clouds 4 999 93 10000 5.1 160 12:39 15.11.2019
4329 Clouds 4 999 89 10000 1.5 120 12:20 15.11.2019
4330 Clouds 4 998 89 10000 6.2 150 11:56 15.11.2019
4331 Clouds 3 998 86 10000 4.1 140 11:38 15.11.2019
4332 Clouds 3 998 87 10000 2.1 60 11:19 15.11.2019
4333 Clouds 3 997 86 10000 2.1 90 10:41 15.11.2019
4334 Clouds 3 997 80 10000 3.1 80 10:22 15.11.2019
4335 Clouds 3 997 87 10000 2.6 140 09:58 15.11.2019
4336 Clouds 3 997 86 10000 1.5 40 09:40 15.11.2019
4337 Clear 3 997 80 10000 1.5 60 09:19 15.11.2019
4338 Clouds 2 996 87 10000 1.5 180 08:44 15.11.2019
4339 Clouds 2 994 80 10000 6.7 60 08:23 15.11.2019
4340 Clouds 2 994 93 10000 4.6 40 07:49 15.11.2019
4341 Clouds 2 994 86 10000 3.1 100 07:28 15.11.2019
4342 Clouds 3 994 93 10000 6.2 40 06:50 15.11.2019
4343 Clouds 3 994 93 10000 6.2 40 06:31 15.11.2019
4344 Clouds 3 994 86 10000 5.7 50 05:42 15.11.2019
4345 Clouds 3 995 80 10000 6.7 50 05:23 15.11.2019
4346 Clouds 3 996 94 10000 4.1 90 03:53 15.11.2019
4347 Clear 3 997 74 10000 6.7 40 03:24 15.11.2019
4348 Clear 3 998 74 10000 7.2 50 02:20 15.11.2019
4349 Clouds 3 997 92 10000 6.7 40 01:33 15.11.2019
4350 Clouds 3 998 86 10000 7.7 30 00:54 15.11.2019
4351 Clouds 3 999 92 10000 3.1 90 00:33 15.11.2019
4352 Drizzle 3 1000 92 10000 4.1 70 23:57 14.11.2019
4353 Clouds 3 999 80 10000 6.2 50 23:38 14.11.2019
4354 Clear 3 1000 74 10000 4.6 50 23:18 14.11.2019
4355 Clear 3 1000 74 10000 4.6 50 23:18 14.11.2019
4356 Clouds 3 999 80 10000 5.7 50 22:40 14.11.2019
4357 Clear 3 1000 74 10000 5.1 50 22:21 14.11.2019
4358 Clear 3 1000 74 10000 5.1 50 22:21 14.11.2019
4359 Clouds 3 1000 94 10000 2.6 90 21:57 14.11.2019
4360 Clouds 3 1000 86 10000 5.7 40 21:38 14.11.2019
4361 Clouds 3 1000 86 10000 5.7 40 21:38 14.11.2019
4362 Clear 3 1001 94 10000 3.6 50 21:20 14.11.2019
4363 Clouds 3 1000 86 10000 3.1 40 20:42 14.11.2019
4364 Clouds 3 1001 89 10000 3.1 50 20:24 14.11.2019
4365 Clouds 3 1000 95 10000 2.6 90 19:59 14.11.2019
4366 Clouds 3 1000 86 10000 4.1 50 19:41 14.11.2019
4367 Clouds 3 1001 86 10000 2.6 30 19:19 14.11.2019
4368 Clouds 3 1001 80 10000 1.5 30 18:59 14.11.2019
4369 Clouds 4 1000 93 10000 3.1 70 18:41 14.11.2019
4370 Clouds 4 1002 95 10000 2.1 80 18:21 14.11.2019
4371 Clouds 4 1000 93 10000 2.6 100 17:57 14.11.2019
4372 Clouds 4 1001 80 10000 1.5 90 17:37 14.11.2019
4373 Clouds 4 1001 80 10000 1.5 90 17:19 14.11.2019
4374 Clouds 4 1001 75 10000 2.53 98 16:57 14.11.2019
4375 Clouds 4 1001 75 10000 2.53 98 16:37 14.11.2019
4376 Clouds 4 1001 75 10000 2.53 98 16:19 14.11.2019
4377 Clouds 4 1001 80 10000 3.1 130 15:57 14.11.2019
4378 Clouds 5 1001 93 10000 4.1 170 15:38 14.11.2019
4379 Clouds 5 1001 75 10000 2.53 98 15:19 14.11.2019
4380 Clouds 4 1000 93 10000 3.6 120 14:45 14.11.2019
4381 Clouds 5 1001 75 10000 2.1 150 14:23 14.11.2019
4382 Clouds 5 1001 75 10000 5.7 150 13:58 14.11.2019
4383 Clouds 4 1001 75 10000 5.7 180 13:39 14.11.2019
4384 Clouds 4 1001 70 10000 2.6 160 13:20 14.11.2019
4385 Clouds 4 1001 80 10000 5.7 150 12:56 14.11.2019
4386 Clouds 4 1001 75 10000 3.52 156 12:37 14.11.2019
4387 Clouds 4 1001 75 10000 2.1 110 12:19 14.11.2019
4388 Rain 4 1001 86 7000 5.1 160 11:54 14.11.2019
4389 Rain 4 1001 86 7000 5.1 160 11:36 14.11.2019
4390 Clear 4 1001 75 10000 3.6 80 11:18 14.11.2019
4391 Clear 4 1001 75 10000 3.6 80 11:18 14.11.2019
4392 Rain 4 1000 86 10000 3.1 130 10:41 14.11.2019
4393 Clouds 3 1000 86 10000 3.6 70 10:21 14.11.2019
4394 Clouds 3 1000 86 10000 3.6 140 09:59 14.11.2019
4395 Clouds 3 1000 86 10000 3.6 70 09:41 14.11.2019
4396 Clouds 3 1000 86 10000 3.6 70 09:41 14.11.2019
4397 Mist 2 1002 82 8000 4.1 100 09:23 14.11.2019
4398 Clouds 1 999 93 10000 3.6 110 08:56 14.11.2019
4399 Clouds 2 999 93 10000 3.6 110 08:38 14.11.2019
4400 Clouds 1 1000 93 10000 2.6 70 08:19 14.11.2019
4401 Clouds 2 999 93 10000 3.1 110 07:40 14.11.2019
4402 Clouds 2 1000 93 10000 2.1 90 07:22 14.11.2019
4403 Clouds 2 999 100 10000 2.6 100 06:46 14.11.2019
4404 Clouds 3 1000 86 10000 2.1 120 06:20 14.11.2019
4405 Clouds 3 1000 86 10000 2.1 120 06:20 14.11.2019
4406 Clouds 3 1000 93 10000 4.6 150 05:27 14.11.2019
4407 Clouds 3 999 93 10000 4.6 140 04:35 14.11.2019
4408 Clouds 3 1000 93 10000 1.5 120 02:51 14.11.2019
4409 Clouds 3 1000 93 10000 4.1 160 02:29 14.11.2019
4410 Rain 3 1000 93 6000 4.1 170 01:40 14.11.2019
4411 Clouds 3 1001 93 10000 3.1 150 00:56 14.11.2019
4412 Mist 3 1001 93 5000 4.6 180 00:37 14.11.2019
4413 Clouds 3 1001 93 10000 3.1 160 00:18 14.11.2019
4414 Clouds 3 1002 100 6000 4.6 170 23:38 13.11.2019
4415 Clouds 3 1002 93 10000 4.1 180 23:20 13.11.2019
4416 Drizzle 3 1002 93 10000 3.6 170 22:55 13.11.2019
4417 Rain 3 1002 93 10000 3.6 170 22:37 13.11.2019
4418 Clouds 4 1002 93 10000 2.6 170 22:19 13.11.2019
4419 Clouds 4 1002 100 10000 3.1 160 21:55 13.11.2019
4420 Clouds 4 1002 93 10000 2.6 160 21:36 13.11.2019
4421 Rain 4 1002 93 10000 2.1 170 21:18 13.11.2019
4422 Clouds 4 1002 93 10000 3.6 190 20:55 13.11.2019
4423 Clouds 4 1003 93 10000 3.1 180 20:36 13.11.2019
4424 Clouds 4 1003 93 10000 3.6 190 20:18 13.11.2019
4425 Clouds 4 1003 93 10000 4.1 190 19:42 13.11.2019
4426 Clouds 4 1003 93 10000 4.6 200 19:19 13.11.2019
4427 Clouds 4 1003 93 10000 2.6 210 18:56 13.11.2019
4428 Clouds 4 1003 93 10000 2.6 210 18:56 13.11.2019
4429 Mist 4 1003 100 4000 3.1 190 18:38 13.11.2019
4430 Mist 4 1003 100 4000 3.1 190 18:38 13.11.2019
4431 Clouds 4 1003 93 7000 3.6 190 18:19 13.11.2019
4432 Clouds 4 1003 93 7000 3.6 190 18:19 13.11.2019
4433 Clouds 4 1003 93 10000 3.6 220 17:57 13.11.2019
4434 Clouds 4 1003 93 8000 3.6 200 17:38 13.11.2019
4435 Clouds 4 1003 100 10000 4.6 190 17:20 13.11.2019
4436 Clouds 4 1003 100 10000 3.6 190 16:58 13.11.2019
4437 Clouds 4 1003 100 10000 3.6 190 16:39 13.11.2019
4438 Mist 4 1003 100 8000 3.1 200 16:21 13.11.2019
4439 Clouds 4 1002 93 10000 4.1 230 15:58 13.11.2019
4440 Clouds 4 1002 93 10000 4.1 230 15:58 13.11.2019
4441 Clouds 4 1003 93 6000 4.6 210 15:39 13.11.2019
4442 Clouds 4 1003 93 10000 4.1 210 15:20 13.11.2019
4443 Mist 4 1002 100 1500 5.1 220 14:42 13.11.2019
4444 Clouds 4 1002 100 10000 4.6 220 14:22 13.11.2019
4445 Rain 4 1004 100 200 2.1 220 13:58 13.11.2019
4446 Clouds 4 1002 93 10000 4.1 250 13:36 13.11.2019
4447 Clouds 4 1002 93 10000 5.1 200 13:18 13.11.2019
4448 Clouds 3 1002 86 10000 4.6 270 12:54 13.11.2019
4449 Clouds 3 1003 93 8000 3.6 220 12:36 13.11.2019
4450 Clouds 3 1003 93 10000 4.1 210 12:18 13.11.2019
4451 Mist 3 1003 93 4000 3.6 210 11:40 13.11.2019
4452 Clouds 3 1003 93 10000 4.6 220 11:20 13.11.2019
4453 Clouds 3 1002 93 10000 4.6 230 10:58 13.11.2019
4454 Clouds 3 1002 100 10000 4.1 220 10:40 13.11.2019
4455 Mist 2 1002 100 8000 4.6 210 10:20 13.11.2019
4456 Clouds 2 1002 93 10000 3.1 250 09:56 13.11.2019
4457 Mist 2 1002 100 2600 4.6 210 09:38 13.11.2019
4458 Mist 2 1002 100 2000 5.1 210 09:20 13.11.2019
4459 Mist 2 1002 100 5000 5.7 210 08:39 13.11.2019
4460 Clouds 2 1002 100 10000 4.6 220 08:20 13.11.2019
4461 Mist 2 1002 100 3000 3.1 190 07:42 13.11.2019
4462 Clouds 2 1001 93 10000 3.6 180 07:21 13.11.2019
4463 Clouds 2 1001 93 10000 4.1 200 06:47 13.11.2019
4464 Clouds 2 1001 93 10000 3.6 200 06:19 13.11.2019
4465 Clouds 2 1001 93 10000 3.6 200 06:19 13.11.2019
4466 Clouds 2 1000 97 10000 4.6 220 05:57 13.11.2019
4467 Mist 2 1001 93 3500 4.1 220 05:38 13.11.2019
4468 Mist 2 1001 93 1500 3.6 220 04:44 13.11.2019
4469 Clouds 2 1000 97 10000 2.6 230 03:23 13.11.2019
4470 Clouds 2 1002 93 6000 3.6 190 01:46 13.11.2019
4471 Clouds 2 1002 93 10000 2.1 150 01:18 13.11.2019
4472 Clouds 2 1001 100 7000 2.6 180 00:37 13.11.2019
4473 Clouds 1 1001 100 10000 2.6 230 23:54 12.11.2019
4474 Clouds 1 1001 93 10000 3.6 220 23:36 12.11.2019
4475 Clouds 1 1001 93 10000 3.6 210 23:18 12.11.2019
4476 Clouds 1 1001 93 10000 4.1 210 22:40 12.11.2019
4477 Clouds 2 1002 100 10000 4.6 220 22:18 12.11.2019
4478 Clouds 2 1001 100 10000 3.1 230 21:54 12.11.2019
4479 Clouds 2 1002 100 10000 4.1 210 21:36 12.11.2019
4480 Clouds 2 1002 100 10000 3.1 210 21:18 12.11.2019
4481 Clouds 2 1001 100 10000 3.6 220 20:54 12.11.2019
4482 Clouds 2 1001 100 7000 4.6 230 20:36 12.11.2019
4483 Clouds 2 1002 93 10000 4.04 220 20:18 12.11.2019
4484 Clouds 2 1002 100 10000 3.6 250 19:54 12.11.2019
4485 Clouds 2 1002 100 10000 4.04 220 19:36 12.11.2019
4486 Clouds 3 1002 93 10000 2.6 270 19:18 12.11.2019
4487 Rain 3 1002 93 10000 4.1 230 18:54 12.11.2019
4488 Clouds 3 1002 93 10000 3.1 190 18:36 12.11.2019
4489 Clouds 3 1003 93 10000 4.6 230 18:18 12.11.2019
4490 Clouds 3 1004 80 10000 3.1 210 17:55 12.11.2019
4491 Rain 3 1002 93 10000 3.1 230 17:36 12.11.2019
4492 Rain 3 1002 93 10000 4.1 230 17:18 12.11.2019
4493 Rain 3 1002 93 10000 4.6 230 16:41 12.11.2019
4494 Rain 4 1002 86 10000 5.7 220 16:23 12.11.2019
4495 Rain 4 1001 93 10000 7.2 250 15:55 12.11.2019
4496 Clouds 4 1002 86 10000 6.2 210 15:37 12.11.2019
4497 Drizzle 4 1002 86 10000 6.7 210 15:18 12.11.2019
4498 Clouds 4 1002 86 10000 6.2 220 14:41 12.11.2019
4499 Clouds 4 1002 86 10000 7.7 200 14:20 12.11.2019
4500 Clouds 4 1001 86 10000 6.2 240 13:58 12.11.2019
4501 Clouds 4 1002 93 10000 6.7 200 13:39 12.11.2019
4502 Rain 4 1002 86 10000 6.2 200 13:19 12.11.2019
4503 Clouds 4 1002 86 10000 6.2 220 12:58 12.11.2019
4504 Clouds 4 1002 86 10000 8.7 200 12:39 12.11.2019
4505 Clouds 4 1002 93 10000 9.3 200 12:18 12.11.2019
4506 Drizzle 4 1003 100 10000 7.2 210 11:43 12.11.2019
4507 Rain 4 1003 93 10000 8.2 200 11:23 12.11.2019
4508 Clouds 4 1003 93 10000 8.2 190 10:58 12.11.2019
4509 Rain 4 1002 93 2500 7.2 200 10:40 12.11.2019
4510 Clouds 4 1003 93 10000 6.7 180 10:21 12.11.2019
4511 Clouds 3 1003 93 10000 7.7 190 09:59 12.11.2019
4512 Drizzle 3 1003 100 8000 6.2 190 09:38 12.11.2019
4513 Rain 3 1003 100 10000 6.2 190 09:18 12.11.2019
4514 Clouds 3 1003 93 10000 7.7 190 08:48 12.11.2019
4515 Clouds 3 1003 86 10000 7.2 210 08:28 12.11.2019
4516 Clouds 3 1003 93 10000 6.7 200 07:42 12.11.2019
4517 Drizzle 3 1003 93 10000 7.7 210 07:24 12.11.2019
4518 Rain 3 1004 93 5000 5.7 200 06:51 12.11.2019
4519 Clouds 3 1003 93 10000 7.7 200 06:26 12.11.2019
4520 Rain 3 1004 93 6000 6.2 200 05:53 12.11.2019
4521 Clouds 3 1004 93 10000 5.7 220 04:56 12.11.2019
4522 Drizzle 3 1005 93 9000 4.6 200 04:35 12.11.2019
4523 Clouds 3 1005 93 10000 4.6 220 02:39 12.11.2019
4524 Clouds 3 1004 93 10000 5.7 250 01:27 12.11.2019
4525 Clouds 3 1004 93 10000 7.2 250 00:57 12.11.2019
4526 Clouds 3 1005 93 10000 4.6 230 00:39 12.11.2019
4527 Clouds 3 1004 100 10000 4.1 240 23:56 11.11.2019
4528 Clouds 3 1005 93 10000 3.1 240 23:38 11.11.2019
4529 Clouds 3 1004 93 10000 4.6 240 23:19 11.11.2019
4530 Clouds 3 1005 93 10000 3.6 240 22:39 11.11.2019
4531 Clouds 3 1004 100 10000 4.6 210 22:20 11.11.2019
4532 Clouds 3 1005 93 10000 3.6 240 21:59 11.11.2019
4533 Clouds 4 1004 100 10000 3.1 210 21:39 11.11.2019
4534 Clouds 4 1004 100 10000 2.6 220 21:21 11.11.2019
4535 Drizzle 4 1004 100 10000 5.1 240 20:59 11.11.2019
4536 Clouds 4 1004 100 10000 2.6 230 20:41 11.11.2019
4537 Clouds 4 1003 93 10000 4.1 200 20:20 11.11.2019
4538 Rain 4 1003 93 8000 4.6 200 19:56 11.11.2019
4539 Rain 4 1004 93 10000 3.1 220 19:37 11.11.2019
4540 Rain 4 1003 93 10000 5.1 220 19:18 11.11.2019
4541 Rain 4 1003 100 10000 6.7 210 18:41 11.11.2019
4542 Rain 4 1003 100 10000 6.2 200 18:21 11.11.2019
4543 Clouds 4 1003 93 10000 7.2 160 17:59 11.11.2019
4544 Rain 4 1003 93 10000 4.6 200 17:40 11.11.2019
4545 Clouds 4 1003 80 10000 4.6 180 17:22 11.11.2019
4546 Rain 5 1003 93 7000 4.6 190 16:39 11.11.2019
4547 Clouds 5 1003 80 10000 4.6 180 16:20 11.11.2019
4548 Clouds 5 1003 80 10000 4.6 180 16:20 11.11.2019
4549 Rain 5 1003 93 10000 5.1 170 15:57 11.11.2019
4550 Clouds 5 1004 93 10000 5.7 180 15:38 11.11.2019
4551 Clouds 5 1004 80 10000 3.6 180 15:19 11.11.2019
4552 Clouds 5 1005 86 10000 4.6 190 14:42 11.11.2019
4553 Mist 5 1005 100 10000 4.1 170 14:24 11.11.2019
4554 Clouds 5 1005 93 10000 4.6 180 13:58 11.11.2019
4555 Clouds 5 1006 93 10000 5.7 170 13:37 11.11.2019
4556 Clouds 5 1006 100 10000 4.1 200 13:19 11.11.2019
4557 -273 0 0 0 0 0 12:56 11.11.2019
4558 Clouds 4 1007 100 10000 4.6 180 12:38 11.11.2019
4559 Clouds 4 1007 100 10000 5.1 190 12:20 11.11.2019
4560 Clouds 3 1008 100 10000 4.1 180 11:42 11.11.2019
4561 Clouds 3 1008 100 10000 5.1 180 11:22 11.11.2019
4562 Clouds 2 1008 93 8000 6.7 150 10:57 11.11.2019
4563 Fog 2 1009 100 100 4.1 160 10:38 11.11.2019
4564 Clouds 2 1009 100 10000 3.6 160 10:18 11.11.2019
4565 Fog 2 1009 88 300 7.2 150 09:54 11.11.2019
4566 Fog 2 1010 100 100 4.6 170 09:36 11.11.2019
4567 Clouds 2 1010 100 10000 3.1 200 09:18 11.11.2019
4568 Fog 2 1010 100 100 5.1 170 08:37 11.11.2019
4569 Mist 2 1010 100 9000 2.1 160 08:19 11.11.2019
4570 Fog 2 1010 96 300 7.2 150 07:54 11.11.2019
4571 Fog 2 1010 100 9000 3.1 120 07:36 11.11.2019
4572 Fog 2 1011 100 10000 2.6 110 07:18 11.11.2019
4573 Fog 2 1011 100 10000 2.43 134 06:41 11.11.2019
4574 Fog 2 1012 100 4400 2.43 134 06:20 11.11.2019
4575 Fog 2 1012 100 1000 2.1 150 05:49 11.11.2019
4576 Fog 2 1012 94 200 5.7 140 03:56 11.11.2019
4577 Fog 2 1013 100 800 1.5 90 03:20 11.11.2019
4578 Fog 2 1014 100 400 1.5 80 02:19 11.11.2019
4579 Fog 2 1013 93 200 6.2 140 01:52 11.11.2019
4580 Fog 2 1014 100 400 2.1 80 01:31 11.11.2019
4581 Fog 2 1014 100 100 1.5 100 00:42 11.11.2019
4582 Fog 2 1014 100 100 1.5 110 23:59 10.11.2019
4583 Fog 2 1014 100 800 0.95 134 23:39 10.11.2019
4584 Fog 2 1015 100 1000 1.5 150 23:20 10.11.2019
4585 Fog 2 1014 92 200 5.1 150 22:57 10.11.2019
4586 Fog 2 1015 100 600 1.5 160 22:38 10.11.2019
4587 Fog 2 1015 100 600 1.2 126 22:20 10.11.2019
4588 Fog 2 1014 100 100 2.6 70 21:58 10.11.2019
4589 Fog 2 1015 100 100 2.1 80 21:39 10.11.2019
4590 Fog 2 1015 100 600 1.2 126 21:21 10.11.2019
4591 Fog 2 1014 100 100 2.1 80 20:56 10.11.2019
4592 Fog 2 1015 100 100 2.1 70 20:37 10.11.2019
4593 Fog 2 1015 100 600 0.83 134 20:19 10.11.2019
4594 Fog 2 1014 100 150 1.5 180 19:54 10.11.2019
4595 Fog 2 1015 100 600 1.5 130 19:36 10.11.2019
4596 Fog 3 1015 100 600 0.8 159 19:18 10.11.2019
4597 Fog 3 1015 100 600 0.8 159 19:18 10.11.2019
4598 Fog 3 1014 100 300 2.1 190 18:54 10.11.2019
4599 Fog 3 1014 100 200 2.6 60 18:36 10.11.2019
4600 Fog 3 1015 100 600 2.1 10 18:18 10.11.2019
4601 Fog 3 1014 100 200 2.1 90 17:54 10.11.2019
4602 Fog 3 1014 100 500 2.1 60 17:36 10.11.2019
4603 Fog 3 1014 100 200 1.04 157 17:18 10.11.2019
4604 Fog 3 1014 100 200 1.04 157 17:18 10.11.2019
4605 Fog 4 1013 100 200 2.1 60 16:43 10.11.2019
4606 Mist 4 1013 100 1800 3.1 150 16:25 10.11.2019
4607 Fog 4 1013 100 600 2.1 80 15:56 10.11.2019
4608 Fog 4 1013 100 600 2.1 80 15:56 10.11.2019
4609 Fog 5 1013 100 600 1.5 110 15:37 10.11.2019
4610 Fog 4 1013 100 400 1.04 157 15:18 10.11.2019
4611 Clouds 4 1012 100 6000 3.1 140 14:56 10.11.2019
4612 Mist 4 1012 100 4000 2.6 60 14:38 10.11.2019
4613 Fog 4 1012 100 400 1.5 90 14:19 10.11.2019
4614 Fog 4 1012 100 800 1.5 120 13:44 10.11.2019
4615 Mist 4 1011 93 4000 4.1 130 13:22 10.11.2019
4616 Mist 4 1011 93 4000 4.1 130 13:22 10.11.2019
4617 Fog 4 1012 100 400 2.6 120 13:00 10.11.2019
4618 Fog 4 1012 100 400 3.1 100 12:41 10.11.2019
4619 Fog 3 1011 100 100 1.5 80 12:19 10.11.2019
4620 Fog 3 1011 100 200 5.7 130 11:55 10.11.2019
4621 Fog 3 1011 77 100 3.6 50 11:37 10.11.2019
4622 Fog 2 1011 100 200 4.1 70 11:19 10.11.2019
4623 Fog 2 1011 87 200 3.1 70 10:42 10.11.2019
4624 Fog 2 1010 100 200 5.1 140 10:21 10.11.2019
4625 Fog 1 1010 87 100 1.84 98 09:57 10.11.2019
4626 Fog 1 1011 87 400 3.1 70 09:39 10.11.2019
4627 Fog 1 1010 87 400 4.1 70 09:19 10.11.2019
4628 Fog 1 1010 100 400 2.6 60 08:39 10.11.2019
4629 Drizzle 0 1009 100 400 4.1 80 08:20 10.11.2019
4630 Fog 0 1008 100 100 1.89 71 07:46 10.11.2019
4631 Fog 1 1008 100 100 1.89 71 07:27 10.11.2019
4632 Fog 0 1008 100 100 1.89 71 06:59 10.11.2019
4633 Fog 1 1007 94 200 5.1 140 05:57 10.11.2019
4634 Drizzle 0 1007 100 400 3.1 90 03:38 10.11.2019
4635 Drizzle 0 1007 95 400 2.1 100 02:30 10.11.2019
4636 Mist 0 1007 95 600 2.6 90 01:37 10.11.2019
4637 Fog 0 1007 96 400 3.6 80 01:18 10.11.2019
4638 Fog 0 1007 96 400 3.1 90 00:37 10.11.2019
4639 Fog 0 1007 100 400 3.1 100 23:42 09.11.2019
4640 Fog 0 1007 100 600 3.1 90 23:19 09.11.2019
4641 Fog 0 1007 96 200 3.6 130 22:54 09.11.2019
4642 Fog 1 1007 96 2200 2.6 90 22:36 09.11.2019
4643 Mist 1 1007 96 8000 1.5 90 22:18 09.11.2019
4644 Clouds 1 1007 96 10000 2.6 200 21:54 09.11.2019
4645 Mist 1 1008 96 10000 1.5 80 21:36 09.11.2019
4646 Clouds 1 1008 100 10000 1.38 109 21:18 09.11.2019
4647 Clouds 1 1008 93 9000 1.5 210 20:41 09.11.2019
4648 Clouds 2 1008 100 10000 1.5 160 20:21 09.11.2019
4649 Mist 2 1008 100 10000 1.5 150 19:55 09.11.2019
4650 Mist 2 1008 100 10000 1.5 150 19:36 09.11.2019
4651 Clouds 2 1008 100 10000 1.5 170 19:18 09.11.2019
4652 Clouds 3 1008 100 10000 2.1 180 18:39 09.11.2019
4653 Clouds 3 1008 100 10000 1.5 190 18:19 09.11.2019
4654 Clouds 3 1008 86 10000 3.1 200 17:58 09.11.2019
4655 Clouds 3 1008 100 10000 1.5 250 17:40 09.11.2019
4656 Clouds 3 1008 100 10000 1.71 184 17:21 09.11.2019
4657 Rain 4 1008 100 10000 3.6 190 16:42 09.11.2019
4658 Rain 4 1008 100 9000 2.6 230 16:21 09.11.2019
4659 Clouds 4 1008 86 10000 4.1 210 15:57 09.11.2019
4660 Rain 4 1008 93 10000 2.6 210 15:39 09.11.2019
4661 Rain 4 1008 100 10000 3.6 190 15:20 09.11.2019
4662 Rain 4 1009 100 9000 3.1 200 14:42 09.11.2019
4663 Rain 4 1008 100 10000 2.1 240 14:22 09.11.2019
4664 Clouds 4 1009 93 8000 3.6 200 13:57 09.11.2019
4665 Drizzle 4 1009 100 10000 2.6 240 13:37 09.11.2019
4666 Rain 4 1009 100 10000 2.1 240 13:19 09.11.2019
4667 Clouds 4 1009 100 9000 3.1 240 12:55 09.11.2019
4668 Rain 4 1009 100 10000 2.1 230 12:37 09.11.2019
4669 Mist 4 1009 100 9000 2.1 250 12:18 09.11.2019
4670 Mist 3 1010 100 5000 3.1 200 11:44 09.11.2019
4671 Clouds 3 1010 100 10000 3.1 250 11:20 09.11.2019
4672 Mist 3 1009 100 9000 3.6 220 10:42 09.11.2019
4673 Fog 3 1009 93 3600 3.1 220 10:20 09.11.2019
4674 Mist 3 1010 100 4000 3.1 220 09:59 09.11.2019
4675 Mist 3 1010 100 1600 3.1 240 09:41 09.11.2019
4676 Fog 3 1009 100 800 3.6 200 09:20 09.11.2019
4677 Fog 2 1009 100 400 1.5 200 08:43 09.11.2019
4678 Fog 2 1009 100 300 3.6 260 08:25 09.11.2019
4679 Fog 2 1009 100 200 3.1 270 07:55 09.11.2019
4680 Fog 2 1009 93 600 2.6 250 07:37 09.11.2019
4681 Mist 2 1009 100 1800 1.5 220 07:19 09.11.2019
4682 Mist 2 1009 97 600 1.45 221 06:43 09.11.2019
4683 Fog 2 1008 100 900 2.6 270 06:25 09.11.2019
4684 Drizzle 2 1009 97 400 1.5 290 05:40 09.11.2019
4685 Mist 2 1009 93 3000 2.6 250 04:29 09.11.2019
4686 Mist 2 1008 95 400 1.5 290 02:52 09.11.2019
4687 Mist 2 1008 95 400 1.5 290 02:34 09.11.2019
4688 Fog 2 1008 93 600 2.1 290 01:18 09.11.2019
4689 Mist 2 1008 93 1600 1.5 250 00:41 09.11.2019
4690 Clear 2 1007 86 10000 0.93 251 00:22 09.11.2019
4691 Clouds 2 1008 93 10000 2.6 280 23:41 08.11.2019
4692 Clouds 2 1007 93 10000 0.9 323 23:22 08.11.2019
4693 Clouds 2 1007 93 8000 2.1 280 22:59 08.11.2019
4694 Clouds 3 1007 93 10000 1.5 280 22:39 08.11.2019
4695 Mist 3 1007 93 2600 2.1 300 22:21 08.11.2019
4696 Mist 3 1007 93 400 0.9 323 21:42 08.11.2019
4697 Clouds 3 1007 93 10000 1.5 250 21:24 08.11.2019
4698 Clouds 4 1006 93 10000 1.5 260 20:58 08.11.2019
4699 Clouds 4 1007 93 10000 2.1 300 20:40 08.11.2019
4700 Clouds 4 1007 86 10000 1.5 360 20:20 08.11.2019
4701 Clouds 5 1006 100 10000 1 300 19:55 08.11.2019
4702 Clouds 5 1007 93 10000 3.1 270 19:37 08.11.2019
4703 Clouds 5 1006 93 10000 0.46 345 19:18 08.11.2019
4704 Mist 5 1006 93 4500 1 300 18:54 08.11.2019
4705 Clouds 5 1006 87 10000 1.5 0 18:36 08.11.2019
4706 Clouds 5 1006 86 10000 1.5 140 18:18 08.11.2019
4707 Clouds 6 1006 93 10000 1 290 17:54 08.11.2019
4708 Clouds 6 1006 81 10000 2.1 350 17:36 08.11.2019
4709 Clouds 7 1006 87 10000 1.5 110 17:18 08.11.2019
4710 Clouds 7 1005 100 10000 0.5 0 16:57 08.11.2019
4711 Clouds 7 1006 75 10000 2.1 0 16:38 08.11.2019
4712 Clouds 8 1005 75 10000 1.53 1 16:18 08.11.2019
4713 Clouds 8 1005 93 10000 1 80 15:54 08.11.2019
4714 Clouds 8 1005 75 10000 1 0 15:36 08.11.2019
4715 Clouds 8 1005 81 10000 2.1 100 15:18 08.11.2019
4716 Clouds 8 1004 100 10000 1 0 14:54 08.11.2019
4717 Clouds 8 1005 75 10000 1 80 14:36 08.11.2019
4718 Clouds 8 1005 65 10000 1.65 25 14:18 08.11.2019
4719 Clouds 8 1004 81 10000 2.6 60 13:42 08.11.2019
4720 Clouds 7 1005 75 10000 1.74 15 13:22 08.11.2019
4721 Rain 7 1004 93 4000 2.6 150 12:57 08.11.2019
4722 Rain 7 1005 81 10000 2.1 70 12:39 08.11.2019
4723 Rain 6 1005 75 10000 1.74 15 12:21 08.11.2019
4724 Fog 6 1004 100 600 4.1 120 11:55 08.11.2019
4725 Clouds 6 1005 81 10000 2.6 110 11:37 08.11.2019
4726 Clouds 6 1005 81 10000 2.6 110 11:37 08.11.2019
4727 Rain 5 1005 93 10000 0.45 36 11:18 08.11.2019
4728 Rain 4 1005 86 10000 1 0 10:42 08.11.2019
4729 Rain 4 1005 100 10000 1.5 90 10:22 08.11.2019
4730 Mist 3 1004 100 4000 4.1 140 09:59 08.11.2019
4731 Clouds 3 1004 93 10000 1 0 09:40 08.11.2019
4732 Clouds 2 1005 93 10000 2.1 70 09:20 08.11.2019
4733 Mist 2 1005 87 10000 2.1 100 08:46 08.11.2019
4734 Fog 2 1004 100 200 4.1 140 08:25 08.11.2019
4735 Fog 2 1004 100 200 5.7 150 07:57 08.11.2019
4736 Clouds 2 1004 86 10000 2.1 110 07:39 08.11.2019
4737 Clouds 2 1004 100 10000 1.35 106 07:20 08.11.2019
4738 Clouds 2 1004 100 10000 2.6 90 06:40 08.11.2019
4739 Clear 2 1004 100 10000 3.6 80 06:20 08.11.2019
4740 Mist 2 1004 95 1000 3.1 90 05:39 08.11.2019
4741 Clouds 2 1003 100 10000 2.1 80 04:43 08.11.2019
4742 Clouds 2 1003 100 10000 2.1 80 03:44 08.11.2019
4743 Clear 2 1004 93 10000 2.6 90 03:21 08.11.2019
4744 Clouds 2 1004 93 10000 2.1 90 02:41 08.11.2019
4745 Clouds 3 1004 93 10000 2.1 130 01:46 08.11.2019
4746 Clear 2 1004 93 10000 3.1 90 01:18 08.11.2019
4747 Clouds 2 1004 100 10000 4.1 150 00:24 08.11.2019
4748 Clouds 3 1003 100 10000 5.1 140 23:58 07.11.2019
4749 Clouds 3 1003 86 10000 2.6 170 23:40 07.11.2019
4750 Clear 3 1003 93 10000 2.1 270 23:21 07.11.2019
4751 Clear 3 1003 86 10000 3.1 220 22:42 07.11.2019
4752 Clear 3 1003 93 10000 1.5 240 22:21 07.11.2019
4753 Clear 3 1003 86 10000 3.6 230 21:56 07.11.2019
4754 Clear 4 1003 93 10000 3.1 190 21:37 07.11.2019
4755 Clouds 4 1003 86 10000 3.1 180 21:19 07.11.2019
4756 Clear 4 1003 86 10000 4.1 250 20:57 07.11.2019
4757 Clear 4 1003 93 10000 3.1 190 20:39 07.11.2019
4758 Clouds 4 1002 86 10000 4.1 200 20:21 07.11.2019
4759 Clouds 5 1002 86 10000 4.6 230 19:55 07.11.2019
4760 Rain 5 1002 86 10000 3.6 200 19:36 07.11.2019
4761 Rain 5 1002 86 10000 4.6 210 19:18 07.11.2019
4762 Clouds 5 1002 86 10000 5.1 210 18:55 07.11.2019
4763 Rain 6 1002 86 10000 4.6 220 18:37 07.11.2019
4764 Clouds 6 1001 81 10000 5.7 220 18:19 07.11.2019
4765 Clouds 6 1000 93 10000 6.7 230 17:40 07.11.2019
4766 Clouds 7 1000 87 10000 3.6 220 17:21 07.11.2019
4767 Clouds 7 1000 87 10000 7.7 220 16:58 07.11.2019
4768 Clouds 7 999 93 10000 8.2 200 16:40 07.11.2019
4769 Clouds 8 999 93 10000 8.2 200 16:20 07.11.2019
4770 Clouds 8 998 93 10000 5.7 220 15:57 07.11.2019
4771 Rain 8 997 93 10000 8.2 230 15:39 07.11.2019
4772 Rain 8 998 87 10000 7.7 220 15:19 07.11.2019
4773 Clouds 8 998 93 10000 5.1 220 14:45 07.11.2019
4774 Rain 8 997 93 10000 5.1 200 14:27 07.11.2019
4775 Clouds 8 997 93 10000 5.1 190 13:57 07.11.2019
4776 Clouds 8 997 93 10000 5.7 190 13:39 07.11.2019
4777 Clouds 7 997 93 10000 5.7 190 13:20 07.11.2019
4778 Rain 7 997 93 10000 3.6 160 12:58 07.11.2019
4779 Rain 7 997 93 10000 3.1 150 12:40 07.11.2019
4780 Rain 7 997 93 10000 3.1 150 12:21 07.11.2019
4781 Rain 7 997 93 10000 2.6 120 11:59 07.11.2019
4782 Rain 7 997 93 5000 5.1 180 11:40 07.11.2019
4783 Rain 7 997 87 10000 4.1 150 11:21 07.11.2019
4784 Rain 7 997 93 10000 2.6 140 10:41 07.11.2019
4785 Rain 7 997 93 10000 2.6 140 10:19 07.11.2019
4786 Rain 7 997 93 10000 3.1 120 09:44 07.11.2019
4787 Rain 7 998 93 10000 2.6 120 09:24 07.11.2019
4788 Rain 7 997 93 8000 5.1 150 08:59 07.11.2019
4789 -273 0 0 0 0 0 08:40 07.11.2019
4790 Clouds 7 998 93 10000 2.1 100 08:22 07.11.2019
4791 Clouds 7 998 93 10000 2.6 140 07:56 07.11.2019
4792 Clouds 7 998 100 6000 3.6 160 07:38 07.11.2019
4793 Clouds 7 998 93 10000 2.6 130 07:20 07.11.2019
4794 Clouds 7 999 93 7000 4.1 170 06:45 07.11.2019
4795 Clouds 7 999 93 10000 2.6 150 06:25 07.11.2019
4796 Clouds 7 999 100 6000 4.6 170 05:49 07.11.2019
4797 Clouds 7 999 93 10000 2.6 150 05:31 07.11.2019
4798 Mist 7 1000 100 5000 4.6 170 04:51 07.11.2019
4799 Mist 7 1000 100 5000 4.6 170 04:51 07.11.2019
4800 Clouds 7 1000 93 10000 2.1 150 04:29 07.11.2019
4801 Clouds 7 1002 100 10000 4.1 180 01:29 07.11.2019
4802 Clouds 7 1002 100 10000 4.1 180 01:29 07.11.2019
4803 Clouds 7 1002 93 10000 1.5 170 00:32 07.11.2019
4804 Clouds 7 1002 93 10000 1.5 210 23:59 06.11.2019
4805 Clouds 7 1003 93 10000 2.6 220 23:40 06.11.2019
4806 Clouds 7 1003 93 10000 2.6 220 23:20 06.11.2019
4807 Rain 7 1002 100 6000 3.1 310 22:41 06.11.2019
4808 Clouds 7 1003 93 10000 3.1 230 22:21 06.11.2019
4809 Clouds 7 1003 93 10000 3.1 230 21:58 06.11.2019
4810 Rain 7 1002 93 2700 1.5 220 21:39 06.11.2019
4811 Clouds 7 1002 93 10000 5.1 210 21:20 06.11.2019
4812 Clouds 8 1002 93 10000 5.1 200 20:58 06.11.2019
4813 Rain 8 1002 100 8000 3.1 220 20:39 06.11.2019
4814 Rain 8 1002 100 8000 3.1 220 20:39 06.11.2019
4815 Rain 8 1002 93 8000 1.5 160 20:20 06.11.2019
4816 Rain 8 1003 93 10000 2.1 170 19:58 06.11.2019
4817 Clouds 8 1003 93 10000 2.6 200 19:39 06.11.2019
4818 Clouds 8 1003 93 10000 2.6 200 19:21 06.11.2019
4819 Clouds 8 1003 93 10000 1.5 200 18:57 06.11.2019
4820 Clouds 8 1003 93 10000 4.1 230 18:38 06.11.2019
4821 Rain 8 1003 93 10000 2.6 200 18:19 06.11.2019
4822 Clouds 8 1003 87 10000 2.1 230 17:54 06.11.2019
4823 Drizzle 8 1003 100 8000 3.1 220 17:36 06.11.2019
4824 Clouds 8 1003 93 10000 3.6 200 17:18 06.11.2019
4825 Clouds 9 1003 93 10000 3.6 250 16:54 06.11.2019
4826 Clouds 9 1003 93 10000 3.1 200 16:36 06.11.2019
4827 Clouds 9 1003 87 10000 3.6 210 16:18 06.11.2019
4828 Clouds 9 1003 87 10000 4.1 250 15:54 06.11.2019
4829 Clouds 9 1003 87 10000 2.6 190 15:36 06.11.2019
4830 Clouds 9 1003 87 10000 3.6 210 15:18 06.11.2019
4831 Clouds 9 1003 87 10000 5.1 250 14:55 06.11.2019
4832 Clouds 9 1003 93 10000 3.6 220 14:36 06.11.2019
4833 Clouds 9 1003 93 10000 4.1 230 14:18 06.11.2019
4834 Clouds 9 1003 93 10000 4.1 230 14:18 06.11.2019
4835 Clouds 9 1003 93 10000 4.1 220 13:39 06.11.2019
4836 Clouds 8 1003 93 10000 3.6 230 13:21 06.11.2019
4837 Clouds 8 1002 93 10000 3.6 260 12:58 06.11.2019
4838 Clouds 8 1003 93 10000 3.1 220 12:39 06.11.2019
4839 Clouds 8 1003 93 10000 3.6 230 12:20 06.11.2019
4840 Clouds 8 1002 93 10000 4.1 260 11:58 06.11.2019
4841 Mist 8 1003 93 5000 4.1 250 11:37 06.11.2019
4842 Clouds 8 1003 100 10000 3.1 230 11:18 06.11.2019
4843 Clouds 8 1003 100 10000 3.1 230 11:18 06.11.2019
4844 Clouds 8 1003 93 10000 3.6 260 10:56 06.11.2019
4845 Rain 8 1003 100 10000 3.1 230 10:38 06.11.2019
4846 Rain 7 1003 100 10000 4.1 230 10:19 06.11.2019
4847 Clouds 7 1002 100 10000 4.1 230 09:44 06.11.2019
4848 Clouds 7 1002 100 9000 4.6 260 09:23 06.11.2019
4849 Mist 7 1003 93 5000 4.6 250 08:59 06.11.2019
4850 Mist 7 1002 100 8000 2.6 240 08:39 06.11.2019
4851 Mist 7 1002 100 5000 2.6 230 08:20 06.11.2019
4852 Mist 7 1001 93 4000 3.1 250 07:59 06.11.2019
4853 Mist 7 1002 93 5000 3.1 250 07:40 06.11.2019
4854 Clouds 7 1001 93 10000 2.1 240 07:20 06.11.2019
4855 Clouds 7 1001 100 10000 2.6 230 06:44 06.11.2019
4856 Clouds 6 1001 100 10000 1.5 240 06:24 06.11.2019
4857 Clouds 7 1001 93 6000 2.6 270 04:32 06.11.2019
4858 Rain 7 1000 100 6000 2.6 230 02:22 06.11.2019
4859 Mist 7 1000 100 4400 2.1 240 01:37 06.11.2019
4860 Mist 7 1000 100 3500 2.6 260 00:39 06.11.2019
4861 Mist 7 999 100 2600 0.95 255 23:58 05.11.2019
4862 Mist 7 999 100 2600 0.95 255 23:38 05.11.2019
4863 Mist 7 999 100 1400 0.42 252 23:20 05.11.2019
4864 Mist 7 999 100 6000 0.42 252 22:45 05.11.2019
4865 Clouds 7 999 100 10000 0.42 252 22:20 05.11.2019
4866 Clouds 7 999 93 10000 1 180 21:59 05.11.2019
4867 Clouds 7 999 100 10000 0.42 252 21:41 05.11.2019
4868 Clouds 7 999 100 10000 0.42 252 21:21 05.11.2019
4869 Clouds 7 998 93 10000 2.1 220 20:58 05.11.2019
4870 Clouds 7 999 93 10000 1 0 20:39 05.11.2019
4871 Clouds 7 998 100 10000 0.81 92 20:20 05.11.2019
4872 Clouds 7 998 93 10000 0.81 92 19:57 05.11.2019
4873 Clouds 7 998 93 10000 0.81 92 19:38 05.11.2019
4874 Rain 7 998 93 10000 0.81 92 19:20 05.11.2019
4875 Rain 7 998 93 10000 0.81 92 18:57 05.11.2019
4876 Rain 7 998 93 10000 0.81 92 18:39 05.11.2019
4877 Rain 7 998 93 10000 0.81 92 18:39 05.11.2019
4878 Clouds 7 998 93 10000 0.81 92 18:20 05.11.2019
4879 Clouds 7 998 93 10000 0.81 92 18:20 05.11.2019
4880 Clouds 8 998 93 10000 0.5 0 17:58 05.11.2019
4881 Clouds 8 997 93 10000 1.5 270 17:38 05.11.2019
4882 Clouds 8 998 93 10000 0.97 149 17:18 05.11.2019
4883 Drizzle 9 997 81 10000 2.1 230 16:55 05.11.2019
4884 Clouds 9 997 93 10000 2.6 290 16:37 05.11.2019
4885 Clouds 9 997 87 10000 0.97 149 16:18 05.11.2019
4886 Clouds 10 997 87 10000 2.1 280 15:38 05.11.2019
4887 Rain 10 997 81 10000 3.1 270 15:19 05.11.2019
4888 Clouds 10 997 76 10000 3.6 240 14:58 05.11.2019
4889 Clouds 10 997 81 10000 3.6 200 14:39 05.11.2019
4890 Clouds 10 997 76 10000 3.6 230 14:21 05.11.2019
4891 Rain 9 997 87 10000 3.1 220 13:44 05.11.2019
4892 Clouds 9 997 81 10000 3.1 220 13:25 05.11.2019
4893 Rain 9 997 87 10000 3.1 200 13:00 05.11.2019
4894 Clouds 9 997 81 10000 4.1 200 12:39 05.11.2019
4895 Clouds 9 997 76 10000 4.1 190 12:20 05.11.2019
4896 Clouds 9 997 76 10000 4.1 190 12:20 05.11.2019
4897 Clouds 9 997 81 10000 4.1 250 11:56 05.11.2019
4898 Clouds 9 997 93 10000 4.6 210 11:37 05.11.2019
4899 Clouds 9 997 81 10000 5.1 200 11:19 05.11.2019
4900 Clouds 8 997 93 10000 3.6 190 10:44 05.11.2019
4901 Clouds 8 997 87 10000 5.1 220 10:25 05.11.2019
4902 Clouds 8 996 87 10000 4.1 230 09:59 05.11.2019
4903 Clouds 8 996 93 10000 4.1 200 09:40 05.11.2019
4904 Clouds 7 997 87 10000 2.1 200 09:19 05.11.2019
4905 Clouds 7 996 93 10000 4.1 240 08:55 05.11.2019
4906 Clouds 7 996 93 10000 3.1 210 08:37 05.11.2019
4907 Clouds 7 996 93 10000 3.1 220 08:18 05.11.2019
4908 Clouds 7 996 93 10000 4.6 210 07:44 05.11.2019
4909 Clouds 7 995 93 10000 4.1 230 07:25 05.11.2019
4910 Clouds 7 995 93 10000 4.1 230 07:25 05.11.2019
4911 Clouds 7 995 93 10000 4.1 200 06:51 05.11.2019
4912 Clouds 7 995 93 10000 4.6 240 06:28 05.11.2019
4913 Clouds 7 995 93 10000 5.1 220 05:40 05.11.2019
4914 Clouds 7 995 93 10000 4.1 220 05:19 05.11.2019
4915 Rain 7 995 93 10000 4.6 230 04:22 05.11.2019
4916 Rain 7 995 93 7000 5.1 210 03:29 05.11.2019
4917 Rain 7 994 93 10000 6.2 220 02:43 05.11.2019
4918 Rain 7 996 93 10000 5.1 210 01:53 05.11.2019
4919 Clouds 8 994 93 10000 5.7 210 00:46 05.11.2019
4920 Clouds 8 994 87 10000 5.7 240 00:26 05.11.2019
4921 Rain 8 993 87 10000 5.7 220 23:42 04.11.2019
4922 Clouds 8 993 87 10000 5.1 220 23:19 04.11.2019
4923 Drizzle 8 993 87 10000 7.2 240 22:57 04.11.2019
4924 Rain 8 993 87 10000 5.1 230 22:39 04.11.2019
4925 Rain 8 992 87 10000 6.7 220 22:20 04.11.2019
4926 Clouds 8 992 87 10000 5.1 230 21:55 04.11.2019
4927 Clouds 8 992 93 10000 6.2 210 21:37 04.11.2019
4928 Clouds 8 992 93 10000 6.2 200 21:18 04.11.2019
4929 Clouds 9 992 93 10000 5.7 200 20:56 04.11.2019
4930 Clouds 9 992 93 10000 5.7 200 20:56 04.11.2019
4931 Clouds 9 992 87 10000 4.6 210 20:37 04.11.2019
4932 Clouds 9 991 93 10000 4.1 190 20:19 04.11.2019
4933 Rain 9 992 93 10000 4.1 180 19:57 04.11.2019
4934 Clouds 9 992 93 10000 3.6 190 19:38 04.11.2019
4935 Rain 9 992 93 10000 2.6 180 19:20 04.11.2019
4936 Clouds 9 992 93 10000 3.1 180 18:55 04.11.2019
4937 Clouds 9 991 93 10000 2.1 160 18:37 04.11.2019
4938 Rain 9 991 87 10000 3.1 190 18:18 04.11.2019
4939 Clouds 9 991 87 10000 3.6 200 17:38 04.11.2019
4940 Clouds 10 991 87 10000 3.1 200 17:20 04.11.2019
4941 Rain 10 991 87 10000 4.6 240 16:56 04.11.2019
4942 Rain 10 991 93 6000 3.1 220 16:38 04.11.2019
4943 Clouds 10 991 81 10000 5.7 220 16:19 04.11.2019
4944 Clouds 10 991 87 10000 4.6 240 15:54 04.11.2019
4945 Clouds 11 991 87 10000 3.6 220 15:36 04.11.2019
4946 Clouds 11 990 76 10000 6.2 240 15:18 04.11.2019
4947 Clouds 11 990 76 10000 6.2 230 14:41 04.11.2019
4948 Clouds 11 990 81 10000 5.1 240 14:21 04.11.2019
4949 Clouds 11 990 93 10000 6.7 250 13:58 04.11.2019
4950 Clouds 11 990 87 10000 6.2 240 13:40 04.11.2019
4951 Clouds 11 989 100 10000 7.2 240 13:21 04.11.2019
4952 Clouds 11 989 100 10000 7.2 240 13:21 04.11.2019
4953 Drizzle 10 989 93 6000 4.6 230 12:58 04.11.2019
4954 Clouds 10 989 93 10000 6.2 220 12:40 04.11.2019
4955 Clouds 10 989 100 10000 5.1 210 12:21 04.11.2019
4956 Rain 10 989 93 10000 4.6 180 11:56 04.11.2019
4957 Rain 9 989 100 5000 5.7 220 11:38 04.11.2019
4958 Mist 9 989 93 10000 4.6 190 11:20 04.11.2019
4959 Rain 9 989 93 10000 4.1 200 10:42 04.11.2019
4960 Clouds 9 989 93 10000 3.6 150 10:24 04.11.2019
4961 Rain 8 990 100 10000 3.1 180 09:47 04.11.2019
4962 Clouds 9 990 87 8000 4.6 190 09:28 04.11.2019
4963 Clouds 8 989 100 10000 4.6 180 08:59 04.11.2019
4964 Clouds 8 990 93 10000 4.6 210 08:41 04.11.2019
4965 Rain 8 990 93 6000 3.1 220 08:21 04.11.2019
4966 Clouds 8 990 93 10000 5.1 200 07:45 04.11.2019
4967 Clouds 8 990 93 10000 4.6 220 07:25 04.11.2019
4968 Drizzle 8 990 93 8000 4.1 230 06:59 04.11.2019
4969 Clouds 8 990 93 10000 3.6 210 06:36 04.11.2019
4970 Drizzle 8 990 93 10000 5.7 240 05:59 04.11.2019
4971 Clouds 9 990 93 10000 5.1 230 04:50 04.11.2019
4972 Drizzle 9 990 100 10000 5.1 230 04:25 04.11.2019
4973 Rain 9 990 93 10000 5.7 200 03:23 04.11.2019
4974 Clouds 9 990 93 10000 5.7 230 01:23 04.11.2019
4975 Drizzle 9 990 93 10000 5.7 240 00:54 04.11.2019
4976 Clouds 9 989 93 10000 4.1 230 00:22 04.11.2019
4977 Clouds 9 989 93 10000 6.7 250 23:58 03.11.2019
4978 Clouds 9 989 93 10000 4.6 230 23:37 03.11.2019
4979 Clouds 9 989 93 10000 4.6 240 23:18 03.11.2019
4980 Clouds 9 988 93 10000 5.7 250 22:56 03.11.2019
4981 Clouds 9 988 93 10000 5.7 250 22:56 03.11.2019
4982 Rain 9 988 100 10000 7.2 230 22:38 03.11.2019
4983 Clouds 9 988 100 10000 4.1 220 22:18 03.11.2019
4984 Clouds 9 987 93 10000 4.1 220 21:43 03.11.2019
4985 Clouds 9 987 93 10000 4.1 220 21:43 03.11.2019
4986 Rain 9 987 93 10000 4.6 210 21:21 03.11.2019
4987 Clouds 10 987 93 10000 4.1 230 20:58 03.11.2019
4988 Clouds 10 987 93 10000 5.1 200 20:38 03.11.2019
4989 Clouds 10 987 93 10000 5.1 200 20:38 03.11.2019
4990 Clouds 10 986 100 10000 4.6 200 20:19 03.11.2019
4991 Drizzle 10 987 100 10000 5.1 230 19:57 03.11.2019
4992 Clouds 10 987 93 10000 4.1 210 19:39 03.11.2019
4993 Rain 10 986 93 10000 4.1 230 19:20 03.11.2019
4994 Clouds 10 986 87 10000 6.2 190 18:58 03.11.2019
4995 Rain 10 986 93 10000 4.1 180 18:37 03.11.2019
4996 Rain 10 985 93 10000 4.6 150 18:18 03.11.2019
4997 Rain 10 985 93 10000 4.1 160 17:43 03.11.2019
4998 Clouds 11 985 100 10000 3.6 170 17:23 03.11.2019
4999 Clouds 11 985 100 10000 3.6 170 17:23 03.11.2019
5000 Clouds 10 986 100 7000 5.7 160 17:00 03.11.2019
5001 Clouds 11 985 100 10000 3.1 130 16:41 03.11.2019
5002 Rain 11 985 100 10000 3.1 160 16:22 03.11.2019
5003 Clouds 11 984 93 10000 4.6 150 15:59 03.11.2019
5004 Clouds 12 984 93 10000 4.1 150 15:41 03.11.2019
5005 Clouds 12 985 100 10000 3.6 120 15:23 03.11.2019
5006 Drizzle 12 986 100 9000 5.1 150 14:56 03.11.2019
5007 Drizzle 12 986 100 9000 5.1 150 14:56 03.11.2019
5008 Clouds 12 985 93 10000 4.1 150 14:37 03.11.2019
5009 Clouds 12 984 93 10000 4.1 140 14:18 03.11.2019
5010 Clouds 12 984 93 10000 4.1 140 14:18 03.11.2019
5011 Clouds 12 985 100 10000 3.1 140 13:43 03.11.2019
5012 Drizzle 12 985 93 10000 3.6 140 13:20 03.11.2019
5013 Clouds 12 986 100 10000 4.6 160 12:58 03.11.2019
5014 Clouds 12 985 93 10000 3.6 120 12:37 03.11.2019
5015 Rain 11 985 100 10000 4.1 140 12:18 03.11.2019
5016 Drizzle 11 985 93 10000 3.6 160 11:43 03.11.2019
5017 Clouds 11 986 100 10000 3.6 160 11:22 03.11.2019
5018 Drizzle 11 986 100 10000 5.1 150 10:58 03.11.2019
5019 Rain 10 986 100 10000 4.1 160 10:40 03.11.2019
5020 Rain 10 986 100 10000 4.1 180 10:22 03.11.2019
5021 Drizzle 10 987 93 10000 3.1 160 09:56 03.11.2019
5022 Rain 10 986 100 10000 3.6 170 09:38 03.11.2019
5023 Rain 10 986 93 10000 3.6 180 09:20 03.11.2019
5024 Drizzle 10 986 93 10000 3.1 180 08:39 03.11.2019
5025 Clouds 10 986 93 10000 4.1 180 08:20 03.11.2019
5026 Clouds 9 986 100 10000 4.1 190 07:46 03.11.2019
5027 Drizzle 9 987 93 10000 4.1 200 07:25 03.11.2019
5028 Rain 9 986 100 10000 4.1 200 06:50 03.11.2019
5029 Drizzle 9 986 100 6000 4.6 190 06:31 03.11.2019
5030 Clouds 9 986 100 10000 5.1 200 05:39 03.11.2019
5031 Clouds 9 987 87 10000 7.7 220 04:58 03.11.2019
5032 Rain 9 987 100 10000 6.2 200 04:36 03.11.2019
5033 Rain 9 988 100 9000 6.2 200 03:31 03.11.2019
5034 Rain 9 988 93 10000 5.1 170 02:42 03.11.2019
5035 Rain 9 989 93 10000 4.1 180 02:20 03.11.2019
5036 Rain 9 989 93 10000 5.7 180 01:39 03.11.2019
5037 Clouds 9 990 93 10000 5.1 190 01:20 03.11.2019
5038 Clouds 9 990 93 10000 5.1 190 00:45 03.11.2019
5039 Clouds 9 990 93 10000 6.7 200 00:26 03.11.2019
5040 Clouds 9 991 93 10000 6.2 210 23:58 02.11.2019
5041 Clouds 9 991 93 10000 4.1 190 23:38 02.11.2019
5042 Clouds 9 991 93 10000 5.1 210 23:19 02.11.2019
5043 Clouds 9 991 93 10000 7.7 220 22:56 02.11.2019
5044 Clouds 9 991 93 10000 6.2 200 22:37 02.11.2019
5045 Clouds 9 991 93 10000 3.1 190 22:18 02.11.2019
5046 Rain 9 991 93 10000 5.7 220 21:56 02.11.2019
5047 Clouds 9 991 93 10000 5.1 200 21:38 02.11.2019
5048 Rain 9 992 93 10000 6.7 200 21:18 02.11.2019
5049 Rain 9 992 93 10000 6.7 200 21:18 02.11.2019
5050 Rain 9 992 93 10000 6.7 200 21:18 02.11.2019
5051 Clouds 9 992 93 10000 5.1 230 20:58 02.11.2019
5052 Rain 9 993 93 10000 6.2 210 20:39 02.11.2019
5053 Rain 9 992 100 10000 6.7 200 20:20 02.11.2019
5054 Rain 9 993 93 10000 6.7 230 19:55 02.11.2019
5055 Rain 9 993 93 10000 6.2 200 19:36 02.11.2019
5056 Rain 9 993 93 10000 5.1 200 19:18 02.11.2019
5057 Rain 10 993 93 10000 6.7 230 18:42 02.11.2019
5058 Rain 10 993 93 10000 6.7 230 18:24 02.11.2019
5059 Rain 10 993 100 5000 5.1 260 17:59 02.11.2019
5060 Rain 10 993 93 10000 4.6 210 17:39 02.11.2019
5061 Rain 10 993 87 10000 6.7 230 17:21 02.11.2019
5062 Rain 11 993 87 10000 3.6 230 16:58 02.11.2019
5063 Rain 11 994 87 8000 5.7 250 16:38 02.11.2019
5064 Rain 11 994 87 8000 5.7 250 16:38 02.11.2019
5065 Clouds 11 993 66 10000 7.7 230 16:20 02.11.2019
5066 Rain 12 994 81 8000 10.8 240 15:42 02.11.2019
5067 Clouds 12 993 66 10000 7.7 220 15:20 02.11.2019
5068 Clouds 13 994 76 10000 7.7 220 14:43 02.11.2019
5069 Clouds 13 994 76 10000 7.7 220 14:43 02.11.2019
5070 Clouds 13 994 66 10000 8.2 250 14:24 02.11.2019
5071 Clouds 13 994 67 10000 5.7 220 13:59 02.11.2019
5072 Clouds 13 994 71 10000 5.1 220 13:40 02.11.2019
5073 Clouds 13 994 71 10000 7.2 230 13:20 02.11.2019
5074 Clouds 13 994 71 10000 7.7 240 12:56 02.11.2019
5075 Clouds 13 995 76 10000 7.7 230 12:37 02.11.2019
5076 Clouds 13 995 71 10000 8.2 220 12:19 02.11.2019
5077 Clouds 13 994 71 10000 6.7 220 11:42 02.11.2019
5078 Clouds 13 994 71 10000 6.7 220 11:42 02.11.2019
5079 Clouds 13 994 82 10000 7.2 220 11:23 02.11.2019
5080 Clouds 13 995 87 10000 8.7 240 10:57 02.11.2019
5081 Clouds 13 994 87 10000 6.7 220 10:39 02.11.2019
5082 Clouds 13 994 93 10000 5.7 220 10:18 02.11.2019
5083 Rain 13 994 100 10000 8.2 230 09:42 02.11.2019
5084 Clouds 13 994 100 10000 6.2 230 09:22 02.11.2019
5085 Rain 13 994 100 8000 5.7 220 08:55 02.11.2019
5086 Clouds 13 994 100 10000 4.6 230 08:37 02.11.2019
5087 Clouds 13 994 100 10000 6.2 220 08:18 02.11.2019
5088 Clouds 13 994 100 10000 6.2 220 08:18 02.11.2019
5089 Rain 13 994 100 10000 6.2 210 07:43 02.11.2019
5090 Clouds 13 994 93 10000 6.7 220 07:25 02.11.2019
5091 Rain 13 994 100 10000 5.7 200 06:52 02.11.2019
5092 Rain 13 994 93 10000 8.2 220 06:25 02.11.2019
5093 Rain 13 994 100 10000 7.7 200 05:50 02.11.2019
5094 Clouds 13 995 93 10000 8.7 210 04:26 02.11.2019
5095 Rain 13 995 100 10000 5.7 190 03:59 02.11.2019
5096 Rain 13 995 100 10000 5.7 190 03:32 02.11.2019
5097 Rain 13 995 100 10000 5.7 190 03:32 02.11.2019
5098 Rain 13 996 100 3400 5.1 190 02:32 02.11.2019
5099 Drizzle 12 997 100 3500 5.7 200 01:41 02.11.2019
5100 Clouds 12 997 100 10000 7.2 200 01:19 02.11.2019
5101 Clouds 12 998 100 10000 6.2 200 00:42 02.11.2019
5102 Clouds 12 998 100 10000 6.2 200 00:23 02.11.2019
5103 Mist 12 999 100 6000 5.1 210 23:42 01.11.2019
5104 Clouds 12 999 100 10000 7.2 200 23:20 01.11.2019
5105 Drizzle 12 999 100 9000 6.2 220 22:55 01.11.2019
5106 Drizzle 11 1000 100 3000 4.6 200 22:37 01.11.2019
5107 Clouds 11 1000 100 10000 4.1 210 22:18 01.11.2019
5108 Rain 11 1000 100 10000 5.1 210 21:38 01.11.2019
5109 Mist 11 1001 100 9000 3.6 220 21:20 01.11.2019
5110 Clouds 11 1001 93 10000 6.2 220 20:55 01.11.2019
5111 Rain 11 1001 100 10000 4.1 220 20:36 01.11.2019
5112 Rain 11 1001 100 10000 4.1 210 20:18 01.11.2019
5113 Drizzle 11 1002 93 3000 4.1 200 19:41 01.11.2019
5114 Rain 11 1002 100 10000 5.1 200 19:22 01.11.2019
5115 Drizzle 10 1003 100 3200 6.2 200 18:58 01.11.2019
5116 Clouds 10 1002 100 10000 5.1 190 18:39 01.11.2019
5117 Rain 10 1002 100 10000 4.6 180 18:19 01.11.2019
5118 Drizzle 10 1004 93 3000 4.1 190 17:55 01.11.2019
5119 Rain 10 1003 100 10000 5.1 180 17:36 01.11.2019
5120 Mist 10 1003 100 10000 4.1 190 17:18 01.11.2019
5121 Drizzle 10 1004 100 10000 4.6 190 16:37 01.11.2019
5122 Drizzle 10 1004 100 10000 4.1 190 16:18 01.11.2019
5123 Rain 10 1005 100 10000 5.1 170 15:41 01.11.2019
5124 Rain 10 1006 100 5000 4.6 170 15:23 01.11.2019
5125 Rain 10 1007 93 10000 5.1 210 14:58 01.11.2019
5126 Rain 10 1006 100 5000 4.6 190 14:40 01.11.2019
5127 Rain 10 1006 100 3200 4.6 190 14:22 01.11.2019
5128 Rain 10 1007 100 10000 4.6 180 13:56 01.11.2019
5129 Rain 9 1007 100 10000 4.6 180 13:37 01.11.2019
5130 Rain 9 1008 100 1800 1.5 170 13:19 01.11.2019
5131 Rain 9 1008 100 200 3.6 180 12:43 01.11.2019
5132 Rain 8 1009 100 1800 1.5 110 12:25 01.11.2019
5133 Rain 7 1009 100 1200 1.5 110 11:55 01.11.2019
5134 Rain 7 1009 100 1200 1.5 110 11:37 01.11.2019
5135 Mist 7 1010 100 1400 2.1 100 11:18 01.11.2019
5136 Fog 7 1010 100 1200 1.5 90 10:41 01.11.2019
5137 Fog 6 1011 93 2000 1.5 100 10:21 01.11.2019
5138 Fog 6 1011 93 800 7.7 140 09:57 01.11.2019
5139 Fog 6 1011 93 800 7.7 140 09:57 01.11.2019
5140 Drizzle 6 1011 100 100 3.6 170 09:38 01.11.2019
5141 Fog 6 1011 100 1400 3.6 80 09:19 01.11.2019
5142 Fog 6 1011 100 1400 3.6 80 09:19 01.11.2019
5143 Fog 5 1012 93 1600 3.6 80 08:42 01.11.2019
5144 Mist 5 1012 93 2200 3.6 90 08:22 01.11.2019
5145 Mist 5 1012 93 2200 3.6 90 08:22 01.11.2019
5146 Mist 5 1012 93 2200 3.6 90 08:22 01.11.2019
5147 Mist 5 1013 93 6000 2.1 80 07:55 01.11.2019
5148 Mist 5 1013 93 6000 2.1 80 07:37 01.11.2019
5149 Rain 5 1013 86 6000 2.1 90 07:18 01.11.2019
5150 Rain 5 1013 86 10000 2.6 100 06:40 01.11.2019
5151 Clouds 5 1014 80 10000 2.6 80 06:21 01.11.2019
5152 Mist 5 1014 93 4900 3.1 140 05:43 01.11.2019
5153 Rain 5 1015 80 10000 2.6 110 03:42 01.11.2019
5154 Rain 5 1016 80 10000 2.6 90 02:47 01.11.2019
5155 Clouds 5 1017 74 10000 3.6 80 01:28 01.11.2019
5156 Clouds 5 1017 80 10000 2.1 90 00:39 01.11.2019
5157 Clouds 5 1017 74 10000 2.1 90 00:18 01.11.2019
5158 Clouds 4 1017 75 10000 2.1 80 23:42 31.10.2019
5159 Clouds 4 1018 74 10000 3.1 70 23:22 31.10.2019
5160 Clouds 4 1018 80 10000 6.7 140 22:55 31.10.2019
5161 Clouds 4 1018 74 10000 4.1 70 22:36 31.10.2019
5162 Clear 5 1019 74 10000 2.6 80 22:18 31.10.2019
5163 Clouds 5 1018 80 10000 2.6 70 21:42 31.10.2019
5164 Clear 5 1019 74 10000 3.1 60 21:20 31.10.2019
5165 Clouds 5 1018 80 10000 7.7 130 20:57 31.10.2019
5166 Clouds 5 1019 75 10000 1.5 80 20:39 31.10.2019
5167 Clear 5 1019 69 10000 2.1 90 20:20 31.10.2019
5168 Clouds 5 1019 81 10000 2.6 110 19:41 31.10.2019
5169 Clear 5 1019 83 10000 3.6 80 19:22 31.10.2019
5170 Clouds 5 1019 83 10000 5.7 130 18:57 31.10.2019
5171 Clouds 5 1019 75 10000 3.1 110 18:39 31.10.2019
5172 Clouds 5 1019 83 10000 4.6 90 18:19 31.10.2019
5173 Clouds 6 1019 70 10000 2.1 100 17:42 31.10.2019
5174 Clouds 7 1019 68 10000 4.6 100 17:22 31.10.2019
5175 Clouds 7 1019 68 10000 3.6 110 16:58 31.10.2019
5176 Clouds 8 1018 70 10000 2.1 80 16:40 31.10.2019
5177 Clear 8 1019 61 10000 4.6 90 16:20 31.10.2019
5178 Clouds 8 1019 68 10000 4.1 120 15:56 31.10.2019
5179 Clouds 9 1018 66 10000 3.1 80 15:38 31.10.2019
5180 Clear 9 1019 57 10000 5.7 90 15:19 31.10.2019
5181 Clear 9 1019 57 10000 5.7 90 15:19 31.10.2019
5182 Clear 9 1019 57 10000 5.7 90 15:19 31.10.2019
5183 Clouds 9 1019 68 10000 5.1 130 14:55 31.10.2019
5184 Clouds 9 1019 66 10000 4.1 80 14:37 31.10.2019
5185 Clear 9 1019 57 10000 6.2 80 14:19 31.10.2019
5186 Clouds 9 1019 61 10000 4.6 130 13:54 31.10.2019
5187 Clouds 9 1019 66 10000 3.1 90 13:36 31.10.2019
5188 Clear 9 1020 61 10000 5.7 90 13:18 31.10.2019
5189 Clouds 8 1020 65 10000 3.1 100 12:43 31.10.2019
5190 Clear 8 1020 62 10000 6.2 90 12:23 31.10.2019
5191 Clouds 7 1020 75 10000 5.7 130 11:55 31.10.2019
5192 Clouds 7 1020 75 10000 4.1 60 11:36 31.10.2019
5193 Clear 6 1021 73 10000 6.7 80 11:18 31.10.2019
5194 Clouds 5 1020 80 10000 4.1 60 10:40 31.10.2019
5195 Clear 4 1021 73 10000 5.1 80 10:22 31.10.2019
5196 Clouds 3 1020 73 10000 4.1 120 09:59 31.10.2019
5197 Clouds 2 1020 73 8000 4.6 60 09:41 31.10.2019
5198 Clear 2 1021 80 10000 5.7 70 09:18 31.10.2019
5199 Clouds 2 1020 73 6000 4.6 60 08:49 31.10.2019
5200 Clouds 2 1020 73 6000 4.6 60 08:31 31.10.2019
5201 Clouds 1 1020 100 10000 3.6 120 07:56 31.10.2019
5202 Clouds 1 1020 100 10000 3.6 120 07:56 31.10.2019
5203 Mist 1 1020 91 4000 5.1 60 07:38 31.10.2019
5204 Clear 0 1021 86 10000 3.1 70 07:19 31.10.2019
5205 Clouds 0 1020 91 6000 4.6 50 06:38 31.10.2019
5206 Clear 1 1021 86 10000 3.6 70 06:19 31.10.2019
5207 Clouds 1 1020 91 7000 5.1 60 04:35 31.10.2019
5208 Clouds 2 1021 91 9000 3.6 50 02:44 31.10.2019
5209 Clouds 2 1022 87 10000 4.1 50 01:53 31.10.2019
5210 Clouds 2 1022 86 10000 4.1 60 00:40 31.10.2019
5211 Clear 2 1023 90 10000 3.6 60 00:22 31.10.2019
5212 Clouds 3 1022 86 10000 5.1 50 23:33 30.10.2019
5213 Clouds 3 1022 85 10000 4.1 110 22:55 30.10.2019
5214 Clouds 3 1023 86 10000 4.1 60 22:37 30.10.2019
5215 Clear 3 1023 85 10000 4.1 80 22:18 30.10.2019
5216 Clouds 4 1023 85 10000 3.6 90 21:54 30.10.2019
5217 Clouds 4 1023 86 10000 4.6 50 21:36 30.10.2019
5218 Clear 4 1024 85 10000 4.6 70 21:18 30.10.2019
5219 Clouds 4 1023 86 10000 6.2 50 20:42 30.10.2019
5220 Clouds 4 1023 86 10000 6.2 50 20:42 30.10.2019
5221 Clear 4 1024 86 10000 5.1 70 20:22 30.10.2019
5222 Clear 4 1024 86 10000 5.1 70 20:22 30.10.2019
5223 Clouds 4 1023 80 10000 5.7 50 19:59 30.10.2019
5224 Clouds 4 1023 86 10000 4.6 60 19:39 30.10.2019
5225 Clouds 5 1024 80 10000 5.1 60 19:21 30.10.2019
5226 Clouds 5 1023 80 10000 3.1 90 18:58 30.10.2019
5227 Clouds 5 1023 81 10000 4.6 60 18:37 30.10.2019
5228 Clouds 5 1023 86 10000 6.7 70 18:18 30.10.2019
5229 Clouds 5 1023 80 10000 3.1 90 17:55 30.10.2019
5230 Clouds 6 1022 81 10000 3.1 70 17:36 30.10.2019
5231 Clouds 6 1023 80 10000 6.7 70 17:18 30.10.2019
5232 Clouds 6 1023 75 10000 5.1 60 16:42 30.10.2019
5233 Clouds 6 1024 80 10000 6.2 60 16:23 30.10.2019
5234 Clouds 6 1023 75 10000 3.6 70 15:57 30.10.2019
5235 Clouds 6 1023 75 10000 6.2 50 15:38 30.10.2019
5236 Clouds 6 1024 75 10000 6.2 60 15:19 30.10.2019
5237 Clouds 7 1024 80 10000 2.6 90 14:57 30.10.2019
5238 Clouds 7 1023 75 10000 6.2 50 14:39 30.10.2019
5239 Clouds 7 1024 75 10000 5.1 60 14:21 30.10.2019
5240 Clouds 7 1024 80 10000 3.6 100 13:55 30.10.2019
5241 Clouds 7 1024 80 10000 3.6 100 13:55 30.10.2019
5242 Clouds 7 1023 81 10000 5.7 60 13:36 30.10.2019
5243 Clouds 7 1024 75 10000 5.7 80 13:18 30.10.2019
5244 Clouds 7 1024 75 10000 6.7 50 12:44 30.10.2019
5245 Clouds 7 1024 80 10000 3.6 100 12:25 30.10.2019
5246 Clouds 6 1025 80 10000 3.6 80 11:58 30.10.2019
5247 Clouds 6 1024 80 10000 5.7 50 11:40 30.10.2019
5248 Clouds 6 1025 80 10000 6.2 70 11:21 30.10.2019
5249 Clouds 5 1024 86 10000 7.2 60 10:43 30.10.2019
5250 Clouds 5 1025 80 10000 5.1 80 10:23 30.10.2019
5251 Clouds 4 1024 80 10000 7.2 50 09:42 30.10.2019
5252 Clouds 4 1025 93 10000 5.1 110 09:24 30.10.2019
5253 Clouds 3 1025 73 10000 4.1 110 08:57 30.10.2019
5254 Clouds 3 1024 86 10000 7.2 50 08:39 30.10.2019
5255 Clouds 2 1025 88 10000 5.7 70 08:20 30.10.2019
5256 Clouds 2 1023 86 10000 6.2 60 07:46 30.10.2019
5257 Clouds 2 1024 88 10000 3.6 110 07:24 30.10.2019
5258 Clouds 2 1023 86 10000 5.7 50 06:42 30.10.2019
5259 Clear 2 1024 88 10000 4.6 60 06:21 30.10.2019
5260 Clouds 2 1023 86 10000 5.7 50 05:42 30.10.2019
5261 Clear 2 1024 90 10000 4.1 60 05:19 30.10.2019
5262 Clouds 2 1024 86 10000 6.7 40 03:45 30.10.2019
5263 Clear 3 1025 93 10000 4.1 60 03:18 30.10.2019
5264 Clear 3 1025 86 10000 4.6 60 02:19 30.10.2019
5265 Clouds 3 1024 86 10000 5.1 40 01:34 30.10.2019
5266 Clouds 3 1024 86 10000 5.7 50 00:31 30.10.2019
5267 Clouds 4 1024 86 10000 5.1 50 23:46 29.10.2019
5268 Clouds 4 1025 93 10000 3.6 90 23:27 29.10.2019
5269 Clouds 4 1025 93 10000 3.1 90 22:55 29.10.2019
5270 Clouds 4 1025 93 10000 3.1 90 22:55 29.10.2019
5271 Clouds 4 1024 86 10000 5.1 60 22:37 29.10.2019
5272 Clouds 4 1024 86 10000 5.1 60 22:37 29.10.2019
5273 Clouds 4 1024 86 10000 5.1 60 22:37 29.10.2019
5274 Clear 4 1025 86 10000 4.6 60 22:18 29.10.2019
5275 Clouds 4 1025 86 10000 2.6 90 21:54 29.10.2019
5276 Clouds 5 1024 86 10000 5.1 60 21:36 29.10.2019
5277 Clear 5 1025 86 10000 2.6 50 21:18 29.10.2019
5278 Clouds 5 1024 86 10000 4.6 60 20:41 29.10.2019
5279 Clear 5 1025 86 10000 3.6 60 20:21 29.10.2019
5280 Clear 5 1025 86 10000 3.6 60 20:21 29.10.2019
5281 Clouds 5 1024 87 10000 4.1 40 19:57 29.10.2019
5282 Clouds 5 1024 81 10000 4.6 60 19:38 29.10.2019
5283 Clear 5 1024 86 10000 3.6 50 19:20 29.10.2019
5284 Clouds 5 1024 93 10000 2.1 70 18:57 29.10.2019
5285 Clouds 6 1023 87 10000 6.2 50 18:38 29.10.2019
5286 Clouds 6 1024 80 10000 3.6 50 18:19 29.10.2019
5287 Clouds 6 1023 86 10000 2.1 70 17:56 29.10.2019
5288 Clouds 7 1023 81 10000 5.1 50 17:37 29.10.2019
5289 Clouds 7 1023 75 10000 2.6 60 17:19 29.10.2019
5290 Clouds 8 1023 75 10000 6.2 50 16:41 29.10.2019
5291 Clouds 8 1023 70 10000 5.7 70 16:22 29.10.2019
5292 Clouds 9 1023 81 10000 2.6 50 15:58 29.10.2019
5293 Clouds 9 1022 75 10000 5.1 50 15:39 29.10.2019
5294 Clouds 9 1023 75 10000 6.2 40 15:20 29.10.2019
5295 Clouds 9 1022 75 10000 3.1 60 14:56 29.10.2019
5296 Clouds 9 1022 70 10000 6.7 50 14:38 29.10.2019
5297 Clouds 9 1023 75 10000 4.1 60 14:20 29.10.2019
5298 Clouds 9 1022 76 10000 6.2 60 13:41 29.10.2019
5299 Clouds 9 1023 75 10000 5.7 60 13:23 29.10.2019
5300 Clouds 9 1022 81 10000 6.2 50 12:59 29.10.2019
5301 Clouds 8 1022 81 10000 6.2 50 12:41 29.10.2019
5302 Clouds 8 1023 81 10000 6.7 60 12:23 29.10.2019
5303 Clouds 8 1022 93 8000 2.6 60 11:54 29.10.2019
5304 Clouds 8 1022 81 10000 6.7 50 11:36 29.10.2019
5305 Clouds 7 1023 93 10000 5.1 40 11:18 29.10.2019
5306 Clouds 7 1022 93 7000 2.1 70 10:55 29.10.2019
5307 Clouds 7 1022 87 10000 6.2 60 10:36 29.10.2019
5308 Clouds 7 1022 93 10000 3.1 70 10:18 29.10.2019
5309 Clouds 6 1022 100 10000 3.6 80 09:41 29.10.2019
5310 Clouds 6 1022 100 10000 3.6 80 09:41 29.10.2019
5311 Clouds 6 1022 93 10000 4.1 70 09:23 29.10.2019
5312 Clouds 6 1022 93 10000 4.1 70 09:23 29.10.2019
5313 Mist 6 1022 100 4000 2.1 40 08:55 29.10.2019
5314 Clouds 6 1021 87 10000 5.1 40 08:36 29.10.2019
5315 Mist 5 1021 93 10000 2.1 100 08:18 29.10.2019
5316 Clouds 5 1020 86 10000 4.1 40 07:47 29.10.2019
5317 Mist 5 1020 100 10000 2.6 100 07:20 29.10.2019
5318 Clouds 5 1020 93 10000 4.6 50 06:52 29.10.2019
5319 Clouds 5 1020 93 10000 2.6 80 06:29 29.10.2019
5320 Clouds 5 1019 86 9000 6.7 40 05:53 29.10.2019
5321 Clouds 5 1019 86 9000 6.7 40 05:35 29.10.2019
5322 Clouds 5 1020 93 8000 7.7 40 04:39 29.10.2019
5323 Clouds 5 1019 86 7000 6.2 40 02:34 29.10.2019
5324 Clouds 5 1019 93 10000 5.1 40 01:56 29.10.2019
5325 Clouds 5 1020 93 6000 5.1 50 01:35 29.10.2019
5326 Clouds 4 1020 93 6000 5.7 40 00:52 29.10.2019
5327 Fog 5 1020 100 400 2.6 80 00:24 29.10.2019
5328 Clouds 5 1020 86 7000 6.2 40 23:38 28.10.2019
5329 Mist 5 1021 100 10000 3.6 60 23:20 28.10.2019
5330 Mist 5 1021 100 10000 3.6 60 23:20 28.10.2019
5331 Clouds 5 1020 93 7000 6.2 40 22:39 28.10.2019
5332 Mist 5 1021 100 10000 3.1 80 22:20 28.10.2019
5333 Clouds 5 1020 86 7000 6.2 40 21:59 28.10.2019
5334 Clouds 5 1020 86 8000 5.7 50 21:41 28.10.2019
5335 Mist 5 1021 100 10000 3.1 80 21:22 28.10.2019
5336 Clouds 5 1021 86 10000 5.1 50 20:59 28.10.2019
5337 Clouds 5 1021 93 10000 4.6 40 20:40 28.10.2019
5338 Mist 5 1021 93 10000 3.1 80 20:21 28.10.2019
5339 Mist 5 1021 93 10000 3.1 80 20:21 28.10.2019
5340 Mist 5 1021 100 3000 2.1 70 19:55 28.10.2019
5341 Clouds 5 1021 87 10000 4.6 50 19:36 28.10.2019
5342 Clouds 5 1021 87 10000 4.6 50 19:36 28.10.2019
5343 Clouds 5 1021 87 10000 4.6 50 19:36 28.10.2019
5344 Mist 5 1021 100 10000 5.7 70 19:18 28.10.2019
5345 Clouds 5 1021 100 10000 1.5 80 18:57 28.10.2019
5346 Mist 5 1022 100 10000 4.6 70 18:38 28.10.2019
5347 Clear 6 1022 100 10000 3.1 60 18:20 28.10.2019
5348 Clear 6 1022 100 10000 3.1 60 18:20 28.10.2019
5349 Clouds 6 1020 70 10000 5.1 40 17:56 28.10.2019
5350 Clouds 6 1020 70 10000 5.1 40 17:56 28.10.2019
5351 Clouds 6 1021 81 10000 4.6 50 17:37 28.10.2019
5352 Mist 7 1021 93 10000 4.1 70 17:18 28.10.2019
5353 Clouds 8 1020 65 10000 5.1 50 16:55 28.10.2019
5354 Clouds 8 1021 75 10000 5.7 50 16:37 28.10.2019
5355 Clear 8 1021 81 10000 3.1 90 16:19 28.10.2019
5356 Clouds 9 1021 87 9000 4.1 30 15:56 28.10.2019
5357 Clouds 9 1021 75 10000 7.2 40 15:37 28.10.2019
5358 Haze 9 1022 81 10000 5.1 60 15:18 28.10.2019
5359 Clouds 9 1021 81 10000 2.6 40 14:55 28.10.2019
5360 Clouds 9 1021 76 10000 7.2 40 14:36 28.10.2019
5361 Mist 9 1022 100 10000 3.6 70 14:18 28.10.2019
5362 Clouds 9 1021 87 10000 3.6 30 13:54 28.10.2019
5363 Clouds 9 1021 87 10000 3.6 30 13:54 28.10.2019
5364 Clouds 9 1021 81 10000 6.7 40 13:36 28.10.2019
5365 Clouds 9 1022 100 10000 2.6 80 13:18 28.10.2019
5366 Clouds 8 1023 100 10000 3.1 110 12:40 28.10.2019
5367 Clouds 8 1023 100 10000 4.6 70 12:19 28.10.2019
5368 Mist 7 1023 100 6000 3.6 90 11:39 28.10.2019
5369 Fog 7 1023 100 200 2.1 70 11:20 28.10.2019
5370 Fog 6 1023 100 10000 2.1 60 10:56 28.10.2019
5371 Fog 6 1023 100 10000 2.1 60 10:56 28.10.2019
5372 Fog 6 1023 100 500 2.1 70 10:38 28.10.2019
5373 Fog 5 1023 100 300 5.1 50 10:19 28.10.2019
5374 Fog 5 1023 100 10000 2.6 80 09:54 28.10.2019
5375 Fog 5 1023 100 300 4.6 40 09:36 28.10.2019
5376 Fog 4 1023 100 100 4.6 50 09:18 28.10.2019
5377 Fog 3 1023 93 200 3.1 130 08:56 28.10.2019
5378 Snow 3 1023 100 100 4.6 60 08:37 28.10.2019
5379 Fog 2 1023 100 200 1.5 130 08:18 28.10.2019
5380 Fog 2 1023 100 400 1.95 39 07:43 28.10.2019
5381 Fog 2 1023 100 400 1.95 39 07:23 28.10.2019
5382 Clouds 2 1022 93 10000 1.5 70 06:59 28.10.2019
5383 Fog 2 1023 100 400 1.95 39 06:37 28.10.2019
5384 Fog 2 1023 94 800 2.35 24 05:19 28.10.2019
5385 Mist 3 1023 94 6000 2.35 24 03:44 28.10.2019
5386 Mist 3 1023 100 1200 2.35 24 02:46 28.10.2019
5387 Mist 4 1023 93 1600 2.65 20 01:52 28.10.2019
5388 Clear 4 1023 100 10000 2.5 18 00:47 28.10.2019
5389 Clear 4 1023 100 10000 2.5 18 00:47 28.10.2019
5390 Fog 4 1023 100 8000 1.5 10 00:26 28.10.2019
5391 Clouds 5 1023 93 10000 4.1 10 23:45 27.10.2019
5392 Clear 5 1023 93 10000 1.5 320 23:22 27.10.2019
5393 Fog 5 1022 93 800 1.5 340 22:57 27.10.2019
5394 Clouds 5 1023 93 10000 3.1 0 22:39 27.10.2019
5395 Clear 5 1023 93 10000 1.41 28 22:20 27.10.2019
5396 Fog 6 1022 100 10000 1.5 310 21:57 27.10.2019
5397 Clouds 6 1022 93 10000 2.6 20 21:39 27.10.2019
5398 Mist 6 1023 100 5000 1.5 330 21:20 27.10.2019
5399 Clouds 6 1022 100 10000 0.5 0 20:55 27.10.2019
5400 Clouds 6 1022 100 10000 1.41 28 20:37 27.10.2019
5401 Clouds 7 1022 93 10000 3.39 17 20:19 27.10.2019
5402 Drizzle 7 1022 87 10000 2.6 40 19:40 27.10.2019
5403 Clouds 7 1022 93 10000 3.39 17 19:21 27.10.2019
5404 Drizzle 7 1022 93 10000 1 0 18:58 27.10.2019
5405 Clouds 7 1022 87 10000 3.6 40 18:40 27.10.2019
5406 Rain 7 1022 93 10000 3.39 17 18:22 27.10.2019
5407 Drizzle 7 1021 93 10000 1.5 310 17:58 27.10.2019
5408 Clouds 7 1022 93 10000 1.5 110 17:39 27.10.2019
5409 Clouds 7 1022 93 10000 1.5 110 17:39 27.10.2019
5410 Rain 7 1021 93 10000 1.5 90 17:19 27.10.2019
5411 Rain 7 1021 100 9000 2.1 320 16:57 27.10.2019
5412 Rain 7 1021 93 6000 5.1 30 16:39 27.10.2019
5413 Rain 7 1021 93 10000 2.1 30 16:20 27.10.2019
5414 Rain 7 1021 93 9000 3.6 330 15:56 27.10.2019
5415 Rain 7 1021 87 10000 5.1 360 15:37 27.10.2019
5416 Rain 7 1021 93 10000 4.57 1 15:19 27.10.2019
5417 Rain 7 1021 93 8000 4.1 360 14:42 27.10.2019
5418 Rain 7 1021 93 8000 4.1 360 14:42 27.10.2019
5419 Rain 8 1021 93 10000 1.5 40 14:20 27.10.2019
5420 Drizzle 9 1021 100 6000 3.1 360 13:58 27.10.2019
5421 Rain 9 1020 93 10000 5.7 10 13:38 27.10.2019
5422 Rain 9 1021 93 10000 2.1 30 13:19 27.10.2019
5423 Rain 10 1021 93 10000 2.11 4 12:46 27.10.2019
5424 Rain 10 1021 93 10000 2.11 4 12:46 27.10.2019
5425 Rain 10 1021 93 6000 3.6 360 12:24 27.10.2019
5426 Rain 10 1020 93 6000 5.1 20 11:59 27.10.2019
5427 Rain 10 1021 93 10000 3.6 10 11:41 27.10.2019
5428 Rain 11 1020 93 10000 2.6 350 11:21 27.10.2019
5429 Rain 11 1020 93 10000 3.1 30 10:44 27.10.2019
5430 Drizzle 11 1020 100 2500 4.6 30 10:25 27.10.2019
5431 Rain 11 1019 100 8000 3.1 290 09:57 27.10.2019
5432 Rain 11 1019 100 8000 3.1 290 09:39 27.10.2019
5433 Rain 12 1019 93 10000 3.6 230 09:18 27.10.2019
5434 Rain 12 1019 93 10000 3.6 230 09:18 27.10.2019
5435 Drizzle 12 1018 100 3500 6.2 270 08:56 27.10.2019
5436 Rain 12 1018 93 9000 3.1 240 08:37 27.10.2019
5437 Drizzle 12 1018 87 10000 4.1 230 08:18 27.10.2019
5438 Clouds 12 1018 93 10000 2.1 190 07:43 27.10.2019
5439 Clouds 12 1017 82 10000 6.7 260 07:24 27.10.2019
5440 Clouds 12 1017 81 10000 4.6 220 06:49 27.10.2019
5441 Clouds 12 1016 81 10000 6.2 260 06:26 27.10.2019
5442 Clouds 12 1017 87 10000 1.5 150 05:41 27.10.2019
5443 Clouds 12 1016 71 10000 6.2 260 04:54 27.10.2019
5444 Clouds 13 1016 62 10000 6.2 240 02:55 27.10.2019
5445 Clouds 13 1017 76 10000 4.6 190 01:49 27.10.2019
5446 Clear 13 1017 81 10000 4.6 230 01:21 27.10.2019
5447 Clouds 13 1017 82 10000 4.6 200 00:46 27.10.2019
5448 Clouds 13 1016 62 10000 5.1 230 00:27 27.10.2019
5449 Clouds 13 1016 67 10000 6.2 230 23:56 26.10.2019
5450 Clouds 13 1017 82 10000 4.6 200 23:38 26.10.2019
5451 Clear 13 1016 82 10000 5.7 220 23:20 26.10.2019
5452 Clouds 13 1016 67 10000 7.2 230 22:56 26.10.2019
5453 Clouds 13 1017 87 10000 4.1 200 22:37 26.10.2019
5454 Clear 13 1016 82 10000 5.7 210 22:18 26.10.2019
5455 Clouds 13 1017 87 10000 4.1 190 21:43 26.10.2019
5456 Clear 13 1016 76 10000 5.7 200 21:22 26.10.2019
5457 Clouds 13 1016 67 10000 7.2 210 20:58 26.10.2019
5458 Clouds 14 1017 82 10000 4.6 190 20:38 26.10.2019
5459 Clear 14 1016 76 10000 5.7 200 20:18 26.10.2019
5460 Clouds 14 1017 77 10000 5.7 190 19:42 26.10.2019
5461 Clear 14 1016 76 10000 4.6 200 19:20 26.10.2019
5462 Clear 14 1016 76 10000 4.6 200 19:20 26.10.2019
5463 Clouds 14 1016 67 10000 4.6 190 18:57 26.10.2019
5464 Clouds 14 1016 82 10000 3.6 190 18:39 26.10.2019
5465 Clear 15 1016 72 10000 4.6 200 18:19 26.10.2019
5466 Clouds 16 1016 58 10000 4.6 190 17:57 26.10.2019
5467 Clouds 16 1017 77 10000 4.1 180 17:38 26.10.2019
5468 Clear 16 1016 67 10000 5.1 200 17:20 26.10.2019
5469 Clouds 17 1017 72 10000 5.1 180 16:44 26.10.2019
5470 Clouds 17 1017 48 10000 3.1 220 16:25 26.10.2019
5471 Clouds 17 1017 48 10000 4.1 230 15:59 26.10.2019
5472 Clouds 17 1018 67 10000 4.1 190 15:37 26.10.2019
5473 Clear 17 1017 63 10000 5.7 210 15:18 26.10.2019
5474 Clouds 17 1018 72 10000 4.1 180 14:39 26.10.2019
5475 Clear 17 1018 63 10000 6.7 210 14:19 26.10.2019
5476 Clouds 16 1018 69 0 4 182 13:56 26.10.2019
5477 Clouds 17 1018 77 10000 4.1 180 13:36 26.10.2019
5478 Clouds 16 1018 69 0 4 182 13:18 26.10.2019
5479 Clouds 13 1017 57 0 4.02 205 12:42 26.10.2019
5480 Clear 13 1019 82 10000 4.1 220 12:19 26.10.2019
5481 Clear 13 1019 82 10000 4.1 220 11:47 26.10.2019
5482 Clear 12 1019 82 10000 4.1 220 11:25 26.10.2019
5483 Mist 11 1019 100 3500 4.1 180 10:47 26.10.2019
5484 Fog 11 1019 93 10000 4.6 150 10:26 26.10.2019
5485 Fog 9 1019 100 300 4.6 180 09:50 26.10.2019
5486 Fog 9 1019 100 300 4.6 180 09:30 26.10.2019
5487 Clouds 9 1019 93 10000 5.1 180 08:57 26.10.2019
5488 Fog 9 1019 100 200 3.6 170 08:39 26.10.2019
5489 Clear 9 1019 93 10000 2.6 230 08:20 26.10.2019
5490 Fog 9 1019 93 3000 3.1 170 07:43 26.10.2019
5491 Clear 9 1019 93 10000 2.6 230 07:23 26.10.2019
5492 Clouds 10 1019 100 10000 1 0 06:40 26.10.2019
5493 Clouds 10 1019 87 10000 4.6 220 05:57 26.10.2019
5494 Clear 10 1019 87 10000 3.1 190 05:19 26.10.2019
5495 Clouds 10 1020 93 10000 2.6 190 03:53 26.10.2019
5496 Clouds 12 1021 87 10000 3.6 200 02:35 26.10.2019
5497 Clouds 12 1021 87 10000 3.6 200 01:47 26.10.2019
5498 Clouds 12 1021 81 10000 5.7 220 00:56 26.10.2019
5499 Clouds 13 1021 76 10000 5.1 190 00:18 26.10.2019
5500 Clouds 13 1021 82 10000 5.1 200 23:40 25.10.2019
5501 Clouds 12 1021 76 10000 5.1 210 23:19 25.10.2019
5502 Clouds 13 1022 76 10000 4.1 200 22:40 25.10.2019
5503 Clouds 13 1021 76 10000 5.1 190 22:22 25.10.2019
5504 Clouds 13 1021 76 10000 4.6 180 21:57 25.10.2019
5505 Clouds 13 1021 71 10000 3.6 200 21:39 25.10.2019
5506 Clouds 12 1021 71 10000 3.6 200 21:19 25.10.2019
5507 Clouds 12 1021 81 10000 4.6 180 20:55 25.10.2019
5508 Clouds 12 1022 71 10000 3.1 190 20:37 25.10.2019
5509 Clouds 12 1021 76 10000 2.35 167 20:18 25.10.2019
5510 Clouds 11 1022 87 10000 3.1 150 19:41 25.10.2019
5511 Clouds 12 1021 76 10000 2.35 167 19:23 25.10.2019
5512 Clouds 12 1022 71 10000 2.1 210 18:44 25.10.2019
5513 Clear 13 1021 71 10000 3.6 200 18:22 25.10.2019
5514 Clouds 14 1022 67 10000 4.1 210 17:41 25.10.2019
5515 Clear 15 1021 62 10000 5.1 210 17:21 25.10.2019
5516 Clouds 15 1021 67 10000 3.1 230 16:54 25.10.2019
5517 Clouds 15 1022 67 10000 5.1 220 16:36 25.10.2019
5518 Clouds 15 1021 67 10000 4.1 220 16:18 25.10.2019
5519 Clouds 15 1022 67 10000 4.6 210 15:40 25.10.2019
5520 Clouds 15 1022 67 10000 3.6 210 15:21 25.10.2019
5521 Clouds 15 1022 71 10000 3.6 240 14:58 25.10.2019
5522 Clouds 15 1022 71 10000 3.6 240 14:58 25.10.2019
5523 Clouds 15 1022 67 10000 5.1 220 14:39 25.10.2019
5524 Clouds 15 1022 67 10000 5.1 210 14:20 25.10.2019
5525 Clouds 15 1022 71 10000 6.7 200 13:42 25.10.2019
5526 Clouds 14 1022 67 10000 5.7 250 13:24 25.10.2019
5527 Clouds 14 1022 76 10000 4.1 260 12:56 25.10.2019
5528 Clouds 13 1022 71 10000 4.6 210 12:38 25.10.2019
5529 Clouds 13 1022 76 10000 5.7 210 12:19 25.10.2019
5530 Clouds 13 1022 76 10000 5.7 220 11:41 25.10.2019
5531 Clouds 13 1021 76 10000 5.1 200 11:22 25.10.2019
5532 Clouds 12 1021 81 10000 6.2 240 10:59 25.10.2019
5533 Clouds 12 1021 76 10000 5.1 210 10:39 25.10.2019
5534 Clouds 12 1021 87 10000 3.6 210 10:20 25.10.2019
5535 Clouds 12 1021 87 10000 4.6 240 09:55 25.10.2019
5536 Clouds 12 1021 87 10000 3.6 220 09:36 25.10.2019
5537 Clouds 11 1021 93 10000 3.1 220 09:18 25.10.2019
5538 Clouds 11 1020 87 10000 4.1 220 08:43 25.10.2019
5539 Clouds 11 1019 87 10000 5.1 230 08:23 25.10.2019
5540 Clouds 11 1019 87 10000 4.1 230 07:51 25.10.2019
5541 Clouds 12 1019 87 10000 4.1 230 07:32 25.10.2019
5542 Clouds 12 1018 87 10000 3.6 220 06:39 25.10.2019
5543 Clouds 12 1018 93 10000 2.6 220 05:51 25.10.2019
5544 Clouds 12 1018 93 10000 2.6 220 05:32 25.10.2019
5545 Clouds 12 1017 87 10000 4.6 200 04:39 25.10.2019
5546 Clouds 12 1016 76 10000 5.1 220 02:46 25.10.2019
5547 Clouds 12 1016 76 10000 3.6 230 01:53 25.10.2019
5548 Clouds 12 1015 82 10000 3.6 200 00:41 25.10.2019
5549 Clouds 12 1015 82 10000 4.1 190 00:18 25.10.2019
5550 Clouds 12 1015 82 10000 4.1 200 23:40 24.10.2019
5551 Clouds 12 1014 87 10000 3.6 210 23:21 24.10.2019
5552 Clouds 12 1014 76 10000 6.7 210 22:54 24.10.2019
5553 Clouds 12 1014 76 10000 6.7 210 22:54 24.10.2019
5554 Clouds 12 1014 76 10000 6.7 210 22:54 24.10.2019
5555 Clouds 12 1014 76 10000 5.7 200 22:36 24.10.2019
5556 Clouds 12 1014 81 10000 2.1 170 22:18 24.10.2019
5557 Clouds 12 1014 76 10000 4.6 190 21:55 24.10.2019
5558 Clouds 12 1014 71 10000 3.1 190 21:37 24.10.2019
5559 Clear 12 1013 76 10000 1.5 180 21:18 24.10.2019
5560 Clouds 12 1013 81 10000 4.6 180 20:55 24.10.2019
5561 Clouds 12 1013 71 10000 2.1 200 20:36 24.10.2019
5562 Clear 13 1013 76 10000 3.1 210 20:18 24.10.2019
5563 Clouds 13 1012 71 10000 3.1 200 19:42 24.10.2019
5564 Clear 13 1012 71 10000 2.6 210 19:23 24.10.2019
5565 Clouds 14 1012 76 10000 4.6 180 18:58 24.10.2019
5566 Clouds 14 1012 67 10000 4.1 200 18:39 24.10.2019
5567 Clear 15 1011 63 10000 4.1 200 18:21 24.10.2019
5568 Clouds 16 1011 71 10000 5.1 210 17:57 24.10.2019
5569 Clouds 16 1011 59 10000 5.1 210 17:38 24.10.2019
5570 Clear 17 1010 63 10000 5.7 200 17:19 24.10.2019
5571 Clouds 17 1010 63 10000 4.1 220 16:54 24.10.2019
5572 Clouds 17 1011 63 10000 5.1 210 16:36 24.10.2019
5573 Clouds 18 1010 59 10000 6.2 190 16:18 24.10.2019
5574 Clouds 18 1011 63 10000 5.1 220 15:54 24.10.2019
5575 Clouds 18 1010 59 10000 6.7 200 15:36 24.10.2019
5576 Clear 18 1010 63 10000 6.2 200 15:18 24.10.2019
5577 Clouds 18 1010 68 10000 6.2 210 14:41 24.10.2019
5578 Clear 18 1011 68 10000 4.6 190 14:22 24.10.2019
5579 Clouds 17 1011 67 10000 2.1 270 13:57 24.10.2019
5580 Clouds 17 1011 67 10000 4.6 210 13:37 24.10.2019
5581 Clear 17 1011 100 10000 4.6 220 13:18 24.10.2019
5582 Clouds 17 1011 72 10000 5.1 250 12:55 24.10.2019
5583 Clouds 17 1011 82 10000 4.1 210 12:37 24.10.2019
5584 Clouds 15 1011 100 10000 2.1 280 12:18 24.10.2019
5585 Clouds 15 1011 77 10000 4.1 240 11:54 24.10.2019
5586 Clouds 14 1011 100 10000 2.6 230 11:36 24.10.2019
5587 Mist 14 1010 100 6000 3.1 230 11:18 24.10.2019
5588 Mist 13 1010 100 1800 3.1 240 10:42 24.10.2019
5589 Fog 12 1010 100 200 2.1 230 10:23 24.10.2019
5590 Fog 12 1010 100 200 2.1 230 09:40 24.10.2019
5591 Fog 12 1010 100 200 2.1 230 09:40 24.10.2019
5592 Fog 11 1010 100 250 1.5 150 09:19 24.10.2019
5593 Clouds 11 1009 100 8000 0.5 0 08:58 24.10.2019
5594 Fog 11 1009 100 200 2.6 270 08:39 24.10.2019
5595 Fog 11 1009 100 400 1.5 240 08:20 24.10.2019
5596 Fog 11 1009 100 400 1.5 240 08:20 24.10.2019
5597 Fog 11 1010 100 150 3.1 160 07:47 24.10.2019
5598 Fog 11 1010 100 400 2.6 230 07:23 24.10.2019
5599 Fog 11 1010 100 800 1.5 150 06:54 24.10.2019
5600 Fog 11 1010 100 600 2.1 240 06:36 24.10.2019
5601 Mist 11 1009 100 1600 2.13 172 05:55 24.10.2019
5602 Fog 11 1009 100 100 3.1 190 05:31 24.10.2019
5603 Fog 11 1009 100 100 3.1 190 05:31 24.10.2019
5604 Fog 11 1009 100 400 2.13 172 04:23 24.10.2019
5605 Fog 11 1009 100 600 2.13 172 03:35 24.10.2019
5606 Fog 11 1009 93 5000 1.07 117 02:41 24.10.2019
5607 Mist 11 1010 93 1200 0.91 131 02:20 24.10.2019
5608 Mist 11 1010 93 3000 2.1 200 01:31 24.10.2019
5609 Clouds 11 1010 100 8000 1 0 00:57 24.10.2019
5610 Mist 11 1010 100 3500 1 0 00:30 24.10.2019
5611 Clouds 11 1011 100 10000 1.5 160 23:58 23.10.2019
5612 Mist 11 1010 93 5000 1 0 23:38 23.10.2019
5613 Clouds 11 1010 93 10000 4.6 70 23:20 23.10.2019
5614 Mist 11 1010 100 2500 7.7 130 22:57 23.10.2019
5615 Clouds 11 1010 93 7000 1.5 90 22:37 23.10.2019
5616 Clear 11 1010 93 10000 5.7 70 22:18 23.10.2019
5617 Mist 11 1010 100 2500 6.7 130 21:57 23.10.2019
5618 Mist 11 1010 100 2500 6.7 130 21:57 23.10.2019
5619 Clouds 11 1010 93 10000 1 0 21:37 23.10.2019
5620 Clouds 11 1011 93 10000 3.6 80 21:19 23.10.2019
5621 Mist 11 1011 93 2000 9.3 140 20:55 23.10.2019
5622 Clouds 11 1011 93 10000 4.1 70 20:36 23.10.2019
5623 Clouds 12 1011 93 10000 3.1 80 20:18 23.10.2019
5624 Clouds 12 1011 87 10000 3.6 110 19:44 23.10.2019
5625 Clouds 12 1012 93 10000 2.6 70 19:20 23.10.2019
5626 Fog 12 1011 100 800 10.3 140 18:59 23.10.2019
5627 Clouds 13 1011 87 10000 5.1 60 18:39 23.10.2019
5628 Clouds 13 1012 87 10000 4.6 80 18:19 23.10.2019
5629 Clouds 14 1012 93 10000 3.1 70 17:57 23.10.2019
5630 Clouds 14 1011 77 10000 2.6 80 17:39 23.10.2019
5631 Clear 15 1012 82 10000 4.6 60 17:18 23.10.2019
5632 Clouds 15 1012 72 10000 3.6 60 16:41 23.10.2019
5633 Clear 15 1013 77 10000 5.1 80 16:21 23.10.2019
5634 Clouds 16 1012 77 10000 4.6 50 15:58 23.10.2019
5635 Clouds 16 1012 77 10000 3.6 60 15:40 23.10.2019
5636 Clear 16 1014 82 10000 5.1 80 15:21 23.10.2019
5637 Clouds 16 1014 82 10000 5.1 60 14:56 23.10.2019
5638 Clouds 16 1014 82 10000 5.1 60 14:38 23.10.2019
5639 Clouds 15 1014 82 10000 5.1 60 14:19 23.10.2019
5640 Clouds 15 1014 82 10000 3.6 50 13:54 23.10.2019
5641 Clouds 15 1014 82 10000 3.6 100 13:36 23.10.2019
5642 Clouds 14 1015 87 10000 4.6 60 13:18 23.10.2019
5643 Clouds 13 1014 82 10000 3.6 60 12:41 23.10.2019
5644 Clouds 13 1015 93 10000 6.2 70 12:20 23.10.2019
5645 Fog 13 1015 100 200 8.7 130 11:58 23.10.2019
5646 Clouds 12 1016 93 10000 4.6 70 11:40 23.10.2019
5647 Mist 12 1015 93 9000 6.2 70 11:21 23.10.2019
5648 Fog 11 1016 93 300 8.2 130 10:59 23.10.2019
5649 Clouds 11 1016 93 10000 8.2 70 10:41 23.10.2019
5650 Clouds 11 1016 87 10000 6.7 70 10:22 23.10.2019
5651 Clouds 10 1016 87 10000 7.2 80 09:41 23.10.2019
5652 Clear 10 1016 87 10000 5.1 70 09:23 23.10.2019
5653 Clear 10 1016 87 10000 5.1 70 09:23 23.10.2019
5654 Clouds 9 1016 93 10000 3.1 70 08:59 23.10.2019
5655 Mist 9 1017 100 3500 4.1 50 08:41 23.10.2019
5656 Clear 9 1017 93 10000 5.1 70 08:22 23.10.2019
5657 Clouds 9 1016 93 10000 4.6 50 07:45 23.10.2019
5658 Clear 10 1017 87 10000 4.1 70 07:21 23.10.2019
5659 Clouds 9 1017 87 9000 6.2 40 06:46 23.10.2019
5660 Clouds 9 1017 87 10000 4.6 60 06:20 23.10.2019
5661 Clear 9 1018 100 10000 2.6 120 05:24 23.10.2019
5662 Clear 9 1018 87 10000 4.6 30 04:38 23.10.2019
5663 Clear 9 1019 87 10000 4.6 30 03:34 23.10.2019
5664 Clear 10 1019 87 10000 5.1 40 02:37 23.10.2019
5665 Clear 9 1021 93 10000 2.6 80 01:28 23.10.2019
5666 Clear 9 1021 93 10000 1.5 90 00:56 23.10.2019
5667 Clear 10 1021 87 10000 2.6 80 00:28 23.10.2019
5668 Clear 10 1022 81 10000 5.1 40 23:40 22.10.2019
5669 Clear 10 1022 87 10000 4.1 80 23:18 22.10.2019
5670 Clear 10 1022 87 10000 2.1 80 22:56 22.10.2019
5671 Clear 9 1022 81 10000 6.2 50 22:38 22.10.2019
5672 Clear 10 1022 87 10000 3.6 60 22:19 22.10.2019
5673 Clear 10 1023 87 10000 2.6 80 21:56 22.10.2019
5674 Clouds 10 1022 76 10000 5.1 50 21:37 22.10.2019
5675 Clouds 10 1022 81 10000 3.1 70 21:18 22.10.2019
5676 Clouds 10 1023 87 10000 2.6 70 20:56 22.10.2019
5677 Clouds 10 1022 76 10000 4.1 40 20:37 22.10.2019
5678 Clouds 11 1023 81 10000 3.1 60 20:19 22.10.2019
5679 Clouds 11 1023 76 10000 4.1 40 19:45 22.10.2019
5680 Clouds 11 1023 87 10000 2.1 40 19:27 22.10.2019
5681 Clouds 11 1023 87 10000 1 0 18:58 22.10.2019
5682 Clouds 11 1023 87 10000 1 0 18:58 22.10.2019
5683 Clouds 12 1023 81 10000 2.6 360 18:40 22.10.2019
5684 Clear 12 1023 71 10000 1.4 3 18:22 22.10.2019
5685 Clouds 13 1023 71 10000 1.5 70 17:57 22.10.2019
5686 Clouds 13 1023 76 10000 3.1 350 17:38 22.10.2019
5687 Clouds 13 1023 76 10000 3.1 350 17:38 22.10.2019
5688 Clear 14 1023 62 10000 2.6 80 17:20 22.10.2019
5689 Clouds 14 1023 66 10000 1.5 80 16:57 22.10.2019
5690 Haze 14 1023 67 9000 2.6 100 16:38 22.10.2019
5691 Haze 14 1023 67 1800 1.5 80 16:19 22.10.2019
5692 Haze 14 1023 67 1800 1.5 80 16:19 22.10.2019
5693 Clouds 14 1023 66 10000 2.1 80 15:58 22.10.2019
5694 Haze 14 1023 67 3000 2.6 110 15:39 22.10.2019
5695 Haze 14 1024 67 2600 2.6 110 15:18 22.10.2019
5696 Clouds 13 1024 76 10000 4.1 50 14:43 22.10.2019
5697 Clear 13 1024 87 10000 2.02 4 14:20 22.10.2019
5698 Clouds 13 1025 93 10000 2.02 4 13:43 22.10.2019
5699 Clouds 12 1025 100 10000 2.02 4 13:22 22.10.2019
5700 Clouds 12 1025 100 10000 2.02 4 13:22 22.10.2019
5701 Clouds 12 1025 76 10000 2.1 330 12:59 22.10.2019
5702 Clouds 11 1025 100 10000 2.1 290 12:40 22.10.2019
5703 Clouds 11 1025 100 10000 2.1 300 12:21 22.10.2019
5704 Clouds 10 1025 87 10000 2.1 300 11:57 22.10.2019
5705 Clouds 10 1025 100 10000 1.5 300 11:38 22.10.2019
5706 Clouds 9 1025 100 10000 2.1 260 11:20 22.10.2019
5707 Clouds 9 1025 81 10000 2.1 270 10:57 22.10.2019
5708 Mist 9 1025 100 1800 1.42 2 10:37 22.10.2019
5709 Fog 8 1025 100 800 1.42 2 10:18 22.10.2019
5710 Clouds 8 1025 81 10000 1 0 09:55 22.10.2019
5711 Clouds 8 1024 93 10000 1 0 09:36 22.10.2019
5712 Fog 7 1024 93 400 0.76 346 09:18 22.10.2019
5713 Clouds 7 1024 93 10000 2.1 250 08:42 22.10.2019
5714 Fog 7 1024 100 400 1.5 270 08:21 22.10.2019
5715 Mist 7 1023 100 1000 1.5 240 07:48 22.10.2019
5716 Clouds 7 1023 93 10000 2.6 200 07:27 22.10.2019
5717 Clouds 7 1023 100 10000 0.5 0 06:51 22.10.2019
5718 Clouds 7 1023 100 10000 0.5 0 06:31 22.10.2019
5719 Mist 7 1023 93 2600 0.14 231 05:58 22.10.2019
5720 Mist 7 1023 93 2000 0.14 231 05:24 22.10.2019
5721 Clouds 8 1023 100 10000 1.5 250 02:48 22.10.2019
5722 Clouds 8 1023 87 10000 2.6 220 02:28 22.10.2019
5723 Clouds 8 1023 93 10000 3.1 220 01:29 22.10.2019
5724 Clouds 9 1023 93 10000 3.1 220 00:58 22.10.2019
5725 Clouds 9 1023 93 10000 1 0 00:40 22.10.2019
5726 Clouds 9 1022 87 10000 1.63 209 00:21 22.10.2019
5727 Clouds 9 1022 87 10000 2.6 230 23:56 21.10.2019
5728 Clouds 9 1023 87 10000 1.5 180 23:37 21.10.2019
5729 Clouds 9 1023 93 10000 2.6 200 23:18 21.10.2019
5730 Clouds 9 1022 93 10000 3.1 210 22:56 21.10.2019
5731 Clouds 10 1022 87 10000 2.6 230 22:38 21.10.2019
5732 Clouds 10 1022 93 10000 2.1 210 22:19 21.10.2019
5733 Clouds 10 1022 93 10000 3.1 220 21:55 21.10.2019
5734 Clouds 10 1022 87 10000 3.1 180 21:37 21.10.2019
5735 Clouds 10 1022 81 10000 3.1 180 21:19 21.10.2019
5736 Clouds 10 1022 93 10000 3.1 190 20:55 21.10.2019
5737 Clouds 10 1022 87 10000 2.6 190 20:37 21.10.2019
5738 Clouds 10 1021 87 10000 3.1 200 20:18 21.10.2019
5739 Clouds 11 1021 81 10000 3.6 220 19:41 21.10.2019
5740 Clouds 11 1021 76 10000 2.6 180 19:22 21.10.2019
5741 Clouds 11 1021 87 10000 1.5 210 18:57 21.10.2019
5742 Clouds 11 1020 81 10000 3.1 210 18:39 21.10.2019
5743 Clouds 11 1020 81 10000 3.1 210 18:39 21.10.2019
5744 Clouds 11 1020 71 10000 4.1 210 18:19 21.10.2019
5745 Clouds 11 1020 71 10000 4.1 210 18:19 21.10.2019
5746 Clouds 12 1020 81 10000 2.6 240 17:59 21.10.2019
5747 Clouds 12 1020 71 10000 4.1 210 17:38 21.10.2019
5748 Clouds 12 1020 71 10000 4.6 230 17:19 21.10.2019
5749 Clouds 12 1020 81 10000 3.6 260 16:58 21.10.2019
5750 Clouds 12 1020 71 10000 6.2 220 16:40 21.10.2019
5751 Clouds 12 1019 71 10000 7.2 200 16:21 21.10.2019
5752 Clouds 12 1019 76 10000 4.6 220 15:49 21.10.2019
5753 Clouds 12 1019 71 10000 5.1 230 15:27 21.10.2019
5754 Clouds 12 1019 81 10000 6.2 210 15:00 21.10.2019
5755 Clouds 12 1019 81 10000 6.2 210 15:00 21.10.2019
5756 Clouds 12 1019 76 10000 5.1 220 14:40 21.10.2019
5757 Clouds 12 1019 71 10000 7.7 210 14:21 21.10.2019
5758 Clouds 12 1019 76 10000 4.1 250 13:58 21.10.2019
5759 Clouds 12 1019 76 10000 6.2 230 13:40 21.10.2019
5760 Clouds 12 1019 76 10000 4.1 240 13:20 21.10.2019
5761 Clouds 12 1018 76 10000 5.1 230 12:58 21.10.2019
5762 Clouds 12 1018 76 10000 6.7 240 12:40 21.10.2019
5763 Clouds 12 1018 72 10000 6.7 240 12:20 21.10.2019
5764 Clouds 12 1018 72 10000 6.7 240 12:20 21.10.2019
5765 Clouds 12 1018 81 10000 5.7 220 11:42 21.10.2019
5766 Clouds 12 1017 82 10000 7.7 210 11:23 21.10.2019
5767 Clouds 12 1017 87 10000 5.1 220 10:59 21.10.2019
5768 Clouds 12 1016 87 10000 5.7 190 10:40 21.10.2019
5769 Clouds 12 1016 87 10000 6.2 190 10:20 21.10.2019
5770 Clouds 12 1016 93 10000 3.1 200 09:58 21.10.2019
5771 Clouds 12 1016 93 10000 5.7 190 09:39 21.10.2019
5772 Rain 12 1015 93 10000 4.1 190 09:21 21.10.2019
5773 Drizzle 12 1015 93 10000 5.1 180 08:41 21.10.2019
5774 Clouds 13 1014 93 10000 3.6 180 08:23 21.10.2019
5775 Rain 13 1014 100 10000 2.6 160 07:55 21.10.2019
5776 Rain 13 1014 93 10000 5.1 190 07:36 21.10.2019
5777 Rain 13 1013 100 10000 4.1 180 07:18 21.10.2019
5778 Rain 13 1013 100 10000 3.6 170 06:43 21.10.2019
5779 Rain 13 1013 100 10000 1.5 60 06:24 21.10.2019
5780 Rain 13 1013 100 10000 3.1 190 05:41 21.10.2019
5781 Rain 13 1011 100 10000 3.6 190 03:41 21.10.2019
5782 Rain 13 1010 93 10000 2.6 160 02:40 21.10.2019
5783 Rain 13 1009 100 10000 2.1 90 02:20 21.10.2019
5784 Rain 13 1009 100 10000 2.1 90 02:20 21.10.2019
5785 Rain 13 1010 100 10000 2.27 146.233 01:48 21.10.2019
5786 Rain 13 1009 100 10000 1.5 60 01:20 21.10.2019
5787 Mist 13 1010 100 1600 2.6 90 00:41 21.10.2019
5788 Rain 13 1010 100 10000 3.1 130 00:22 21.10.2019
5789 Rain 13 1009 100 1600 3.6 70 23:40 20.10.2019
5790 Rain 13 1011 100 9000 1.5 150 23:21 20.10.2019
5791 Rain 13 1010 100 10000 4.1 190 22:55 20.10.2019
5792 Rain 13 1010 100 1800 3.1 140 22:36 20.10.2019
5793 Rain 13 1008 100 10000 2.1 10 22:18 20.10.2019
5794 Rain 13 1008 100 10000 2.1 310 21:41 20.10.2019
5795 Rain 13 1008 100 2800 1.5 290 21:22 20.10.2019
5796 Rain 13 1008 100 5000 2.6 300 20:59 20.10.2019
5797 Rain 13 1008 100 10000 2.6 180 20:39 20.10.2019
5798 Rain 13 1007 100 10000 2.66 169.113 20:18 20.10.2019
5799 Rain 13 1008 93 10000 2.6 200 19:56 20.10.2019
5800 Rain 13 1008 93 10000 2.6 200 19:56 20.10.2019
5801 Rain 14 1008 100 10000 2.66 169.113 19:37 20.10.2019
5802 Drizzle 14 1008 100 10000 2.66 169.113 19:19 20.10.2019
5803 Rain 14 1007 93 10000 2.66 169.113 18:42 20.10.2019
5804 Rain 14 1008 93 10000 2.1 130 18:24 20.10.2019
5805 Rain 14 1007 93 10000 5.1 140 17:59 20.10.2019
5806 Rain 14 1007 93 10000 3.6 160 17:41 20.10.2019
5807 Rain 14 1007 100 10000 7.45 209.381 17:23 20.10.2019
5808 Rain 14 1007 87 10000 4.6 160 16:57 20.10.2019
5809 Rain 14 1006 100 10000 2.1 90 16:39 20.10.2019
5810 Rain 13 1007 100 10000 1.5 90 16:21 20.10.2019
5811 Rain 13 1007 100 10000 3.6 150 15:55 20.10.2019
5812 Rain 13 1006 100 10000 1.5 140 15:37 20.10.2019
5813 Rain 13 1007 100 10000 3.1 100 15:18 20.10.2019
5814 Rain 13 1007 100 10000 4.6 120 14:56 20.10.2019
5815 Rain 13 1007 100 10000 2.6 80 14:37 20.10.2019
5816 Rain 13 1007 100 10000 2.6 80 14:18 20.10.2019
5817 Rain 13 1007 100 10000 6.2 130 13:54 20.10.2019
5818 Rain 13 1007 100 10000 6.2 130 13:54 20.10.2019
5819 Rain 13 1007 100 10000 6.2 130 13:54 20.10.2019
5820 Rain 13 1007 100 10000 6.2 130 13:54 20.10.2019
5821 Rain 13 1006 100 10000 3.1 70 13:36 20.10.2019
5822 Rain 13 1007 100 10000 2.6 80 13:18 20.10.2019
5823 Rain 12 1007 100 9000 5.7 150 12:55 20.10.2019
5824 Rain 12 1007 100 10000 2.1 70 12:36 20.10.2019
5825 Rain 12 1007 100 10000 2.6 50 12:18 20.10.2019
5826 Rain 12 1007 100 10000 2.6 340 11:41 20.10.2019
5827 Rain 12 1007 100 10000 2.6 340 11:41 20.10.2019
5828 Rain 12 1007 100 10000 2.6 340 11:41 20.10.2019
5829 Rain 12 1007 100 10000 1.5 20 11:23 20.10.2019
5830 Rain 12 1007 100 10000 2.54 103.583 10:59 20.10.2019
5831 Rain 12 1007 100 10000 2.54 103.583 10:39 20.10.2019
5832 Rain 12 1007 100 10000 2.6 60 10:21 20.10.2019
5833 Rain 12 1007 100 7000 7.2 160 09:56 20.10.2019
5834 Rain 11 1007 100 10000 2.6 60 09:38 20.10.2019
5835 Rain 11 1007 100 10000 2.6 80 09:20 20.10.2019
5836 Rain 11 1007 100 10000 2.1 60 08:44 20.10.2019
5837 Rain 11 1007 100 10000 2.6 60 08:22 20.10.2019
5838 Rain 11 1007 100 10000 2.6 60 07:49 20.10.2019
5839 Rain 11 1007 100 1900 3.1 130 07:29 20.10.2019
5840 Rain 11 1007 100 4000 2.6 50 06:31 20.10.2019
5841 Mist 11 1007 93 9000 1.5 90 04:46 20.10.2019
5842 Rain 11 1007 100 10000 2.1 60 04:25 20.10.2019
5843 Drizzle 11 1007 93 10000 2.39 146.516 03:41 20.10.2019
5844 Rain 11 1007 93 8000 2.33 189.382 03:18 20.10.2019
5845 Rain 11 1008 93 10000 1.5 280 02:33 20.10.2019
5846 Rain 11 1007 100 10000 2.6 150 01:55 20.10.2019
5847 Drizzle 11 1007 100 10000 2.58 141.462 01:23 20.10.2019
5848 Rain 11 1007 100 10000 2.1 150 00:54 20.10.2019
5849 Rain 11 1007 93 10000 3.94 192.32 00:22 20.10.2019
5850 Drizzle 11 1008 100 7000 3.6 160 23:59 19.10.2019
5851 Drizzle 11 1008 93 10000 3.94 192.32 23:40 19.10.2019
5852 Rain 11 1007 93 10000 3.94 192.32 23:21 19.10.2019
5853 Rain 11 1008 100 10000 2.6 150 22:55 19.10.2019
5854 Rain 11 1007 93 10000 3.94 192.32 22:37 19.10.2019
5855 Rain 11 1007 93 10000 3.94 192.32 22:18 19.10.2019
5856 Rain 11 1007 93 10000 3.94 192.32 21:45 19.10.2019
5857 Rain 11 1007 93 10000 3.64 202.87 21:21 19.10.2019
5858 Drizzle 11 1007 93 10000 1.5 150 20:45 19.10.2019
5859 Drizzle 11 1007 93 10000 1.5 160 20:22 19.10.2019
5860 Rain 11 1007 100 7000 2.6 240 19:57 19.10.2019
5861 Rain 11 1006 93 10000 0.91 235.749 19:39 19.10.2019
5862 Rain 12 1006 93 10000 0.91 235.749 19:21 19.10.2019
5863 Rain 12 1006 87 10000 1.5 240 18:42 19.10.2019
5864 Rain 12 1006 93 10000 4.1 250 18:24 19.10.2019
5865 Rain 12 1006 87 10000 5.1 190 17:55 19.10.2019
5866 Rain 12 1006 93 10000 4.1 180 17:36 19.10.2019
5867 Rain 12 1006 93 10000 4.1 180 17:36 19.10.2019
5868 Rain 13 1006 93 10000 3.1 190 17:18 19.10.2019
5869 Rain 13 1006 93 10000 3.6 240 16:39 19.10.2019
5870 Rain 13 1006 93 6000 2.6 250 16:20 19.10.2019
5871 Rain 13 1006 87 10000 4.6 200 15:45 19.10.2019
5872 Rain 14 1006 76 10000 7.7 200 15:26 19.10.2019
5873 Rain 13 1006 76 10000 8.7 200 14:56 19.10.2019
5874 Rain 13 1006 82 10000 7.7 190 14:38 19.10.2019
5875 Rain 13 1006 82 10000 5.7 180 14:20 19.10.2019
5876 Rain 13 1007 87 10000 7.7 190 13:56 19.10.2019
5877 Rain 13 1006 82 10000 4.6 170 13:37 19.10.2019
5878 Rain 13 1006 93 10000 4.6 180 13:18 19.10.2019
5879 Clouds 13 1007 93 10000 4.6 180 12:40 19.10.2019
5880 Rain 12 1007 93 10000 4.1 180 12:22 19.10.2019
5881 Clouds 12 1008 93 9000 6.7 180 11:59 19.10.2019
5882 Clouds 12 1007 93 10000 5.1 180 11:40 19.10.2019
5883 Clouds 12 1007 93 10000 5.1 180 11:22 19.10.2019
5884 Rain 12 1007 100 10000 5.7 190 10:42 19.10.2019
5885 Rain 11 1007 93 4000 3.6 160 10:23 19.10.2019
5886 Rain 11 1007 100 3500 4.1 190 09:59 19.10.2019
5887 Rain 11 1007 93 3200 4.1 170 09:41 19.10.2019
5888 Rain 11 1007 100 10000 3.1 130 09:23 19.10.2019
5889 Rain 11 1007 100 1800 5.1 180 08:57 19.10.2019
5890 Rain 10 1007 100 10000 2.1 130 08:39 19.10.2019
5891 Rain 10 1007 100 10000 2.1 130 08:39 19.10.2019
5892 Fog 10 1007 93 10000 2.6 140 08:20 19.10.2019
5893 Fog 10 1007 93 10000 1.5 120 07:42 19.10.2019
5894 Rain 10 1007 93 10000 2.1 140 07:23 19.10.2019
5895 Rain 10 1007 93 10000 2.1 140 07:23 19.10.2019
5896 Rain 10 1008 93 10000 3.6 170 06:40 19.10.2019
5897 Rain 10 1008 93 10000 3.1 170 05:55 19.10.2019
5898 Rain 9 1008 93 10000 4.1 170 05:27 19.10.2019
5899 Rain 9 1009 87 10000 5.1 180 03:59 19.10.2019
5900 Clouds 9 1009 87 10000 5.1 190 02:38 19.10.2019
5901 Clear 8 1009 93 10000 4.6 180 01:51 19.10.2019
5902 Clear 8 1010 81 10000 1.5 150 01:19 19.10.2019
5903 Clear 8 1010 93 10000 4.6 180 00:45 19.10.2019
5904 Clear 8 1010 81 10000 1.5 160 00:23 19.10.2019
5905 Clear 9 1010 81 10000 4.1 180 23:42 18.10.2019
5906 Clear 9 1010 81 10000 1.5 140 23:23 18.10.2019
5907 Clear 9 1011 93 10000 4.1 150 22:56 18.10.2019
5908 Clear 9 1010 81 10000 4.1 190 22:38 18.10.2019
5909 Clear 9 1011 81 10000 2.6 180 22:20 18.10.2019
5910 Clear 9 1011 81 10000 2.6 180 22:20 18.10.2019
5911 Clear 9 1011 81 10000 3.6 220 21:57 18.10.2019
5912 Clear 9 1011 81 10000 4.1 200 21:38 18.10.2019
5913 Clear 9 1011 81 10000 4.6 210 21:20 18.10.2019
5914 Clear 9 1011 76 10000 3.6 230 20:56 18.10.2019
5915 Clear 9 1011 76 10000 4.6 220 20:38 18.10.2019
5916 Clear 10 1011 76 10000 5.7 210 20:20 18.10.2019
5917 Clear 10 1011 81 10000 4.1 220 19:55 18.10.2019
5918 Clear 10 1011 71 10000 4.6 220 19:37 18.10.2019
5919 Clear 10 1010 76 10000 4.6 220 19:19 18.10.2019
5920 Clouds 11 1011 71 10000 5.1 220 18:42 18.10.2019
5921 Clear 11 1010 66 10000 5.7 210 18:24 18.10.2019
5922 Clear 11 1010 66 10000 5.7 210 18:24 18.10.2019
5923 Clouds 12 1010 71 10000 5.7 240 17:59 18.10.2019
5924 Clouds 13 1010 66 10000 5.7 230 17:38 18.10.2019
5925 Clouds 13 1010 62 10000 6.7 230 17:20 18.10.2019
5926 Clouds 13 1010 62 10000 6.7 230 17:20 18.10.2019
5927 Clouds 13 1009 58 10000 6.2 230 16:44 18.10.2019
5928 Clouds 13 1009 58 10000 6.2 230 16:44 18.10.2019
5929 Clouds 13 1009 58 10000 6.2 230 16:43 18.10.2019
5930 Clouds 13 1009 58 10000 6.2 230 16:43 18.10.2019
5931 Clouds 13 1009 62 10000 8.7 230 16:21 18.10.2019
5932 Rain 13 1009 66 10000 9.8 250 15:58 18.10.2019
5933 Rain 13 1010 66 10000 8.2 250 15:39 18.10.2019
5934 Rain 13 1009 66 10000 7.7 230 15:20 18.10.2019
5935 Rain 13 1009 76 10000 6.7 250 14:57 18.10.2019
5936 Rain 13 1009 76 10000 8.7 220 14:38 18.10.2019
5937 Rain 12 1009 81 10000 5.7 230 14:19 18.10.2019
5938 Rain 12 1009 81 10000 7.2 240 13:57 18.10.2019
5939 Rain 12 1009 87 10000 5.1 230 13:39 18.10.2019
5940 Rain 12 1009 87 10000 7.2 230 13:20 18.10.2019
5941 Rain 12 1009 87 10000 6.7 220 12:55 18.10.2019
5942 Rain 12 1008 87 10000 10.3 200 12:37 18.10.2019
5943 Rain 12 1008 87 10000 7.2 200 12:19 18.10.2019
5944 Rain 13 1008 87 10000 8.2 190 11:42 18.10.2019
5945 Rain 13 1008 87 10000 9.3 190 11:21 18.10.2019
5946 Rain 13 1008 87 10000 9.3 190 11:21 18.10.2019
5947 Rain 13 1009 93 10000 7.2 200 10:59 18.10.2019
5948 Rain 13 1008 93 10000 8.7 190 10:41 18.10.2019
5949 Rain 13 1008 93 10000 7.7 190 10:22 18.10.2019
5950 Rain 13 1009 87 10000 6.7 210 09:58 18.10.2019
5951 Rain 13 1009 100 10000 6.2 200 09:40 18.10.2019
5952 Clouds 12 1009 93 10000 5.7 190 09:20 18.10.2019
5953 Rain 12 1009 93 10000 5.7 200 08:47 18.10.2019
5954 Rain 12 1009 93 10000 6.7 200 08:26 18.10.2019
5955 Rain 12 1010 93 10000 4.1 220 07:59 18.10.2019
5956 Rain 12 1009 100 10000 5.1 190 07:41 18.10.2019
5957 Rain 12 1009 93 10000 5.7 190 07:19 18.10.2019
5958 Rain 12 1009 100 10000 5.1 190 06:39 18.10.2019
5959 Rain 12 1009 100 10000 4.1 180 06:20 18.10.2019
5960 Rain 12 1009 100 10000 4.1 170 05:54 18.10.2019
5961 Rain 12 1011 100 10000 4.1 180 05:21 18.10.2019
5962 Drizzle 12 1011 100 10000 4.1 190 03:43 18.10.2019
5963 Drizzle 12 1011 100 10000 4.1 150 03:24 18.10.2019
5964 Clouds 12 1011 93 10000 3.1 190 02:33 18.10.2019
5965 Clouds 12 1012 100 10000 3.6 200 01:44 18.10.2019
5966 Clouds 12 1012 100 10000 3.1 230 01:26 18.10.2019
5967 Rain 12 1012 100 10000 3.6 200 00:44 18.10.2019
5968 Rain 12 1012 100 10000 5.1 200 00:21 18.10.2019
5969 Rain 12 1012 100 10000 5.1 200 00:21 18.10.2019
5970 Rain 12 1012 100 10000 4.1 250 23:54 17.10.2019
5971 Rain 12 1012 100 10000 4.1 210 23:36 17.10.2019
5972 Rain 12 1012 93 10000 4.6 220 23:18 17.10.2019
5973 Drizzle 12 1012 100 5000 4.1 220 22:54 17.10.2019
5974 Drizzle 13 1012 100 10000 4.1 210 22:36 17.10.2019
5975 Rain 13 1012 100 10000 4.6 210 22:18 17.10.2019
5976 Rain 13 1012 100 10000 5.7 210 21:55 17.10.2019
5977 Rain 13 1012 100 10000 5.7 210 21:37 17.10.2019
5978 Rain 13 1012 100 10000 6.2 210 21:19 17.10.2019
5979 Rain 13 1012 100 10000 5.7 220 20:56 17.10.2019
5980 Rain 13 1012 100 10000 5.7 220 20:56 17.10.2019
5981 Rain 13 1012 100 10000 5.7 220 20:56 17.10.2019
5982 Rain 13 1012 93 10000 5.7 180 20:37 17.10.2019
5983 Rain 13 1012 93 10000 5.7 180 20:18 17.10.2019
5984 Mist 13 1012 93 4500 4.6 200 19:42 17.10.2019
5985 Rain 13 1011 93 10000 3.1 160 19:20 17.10.2019
5986 Drizzle 13 1012 93 10000 3.1 170 18:59 17.10.2019
5987 Drizzle 13 1012 93 10000 3.1 170 18:39 17.10.2019
5988 Rain 13 1012 93 10000 3.1 180 18:20 17.10.2019
5989 Rain 13 1012 93 10000 3.6 190 17:44 17.10.2019
5990 Drizzle 13 1012 93 9000 4.6 220 17:25 17.10.2019
5991 Rain 13 1012 93 9000 3.6 180 16:59 17.10.2019
5992 Rain 13 1012 93 9000 3.6 200 16:41 17.10.2019
5993 Rain 13 1012 100 10000 3.6 170 16:19 17.10.2019
5994 -273 0 0 0 0 0 15:57 17.10.2019
5995 Rain 13 1012 93 10000 4.6 200 15:39 17.10.2019
5996 Rain 13 1013 93 10000 3.6 180 15:20 17.10.2019
5997 Clouds 13 1013 93 10000 3.6 240 14:57 17.10.2019
5998 Rain 13 1013 93 10000 4.6 200 14:38 17.10.2019
5999 Rain 13 1013 93 10000 5.7 200 14:20 17.10.2019
6000 Clouds 13 1013 93 10000 4.6 200 13:41 17.10.2019
6001 Clouds 13 1013 100 10000 5.7 190 13:21 17.10.2019
6002 Clouds 13 1013 82 10000 6.2 220 12:58 17.10.2019
6003 Clouds 13 1013 93 10000 5.7 180 12:39 17.10.2019
6004 Clouds 13 1013 93 10000 5.1 190 12:20 17.10.2019
6005 Clouds 13 1013 87 10000 4.6 220 11:57 17.10.2019
6006 Clouds 13 1013 93 10000 5.7 190 11:38 17.10.2019
6007 Clouds 13 1013 87 10000 6.7 200 11:18 17.10.2019
6008 Clouds 13 1013 93 10000 6.2 210 10:42 17.10.2019
6009 Clouds 13 1013 87 10000 5.7 200 10:20 17.10.2019
6010 Clouds 13 1013 87 10000 5.1 240 09:58 17.10.2019
6011 Clouds 12 1013 87 10000 6.2 200 09:39 17.10.2019
6012 Clouds 12 1012 93 10000 6.2 200 09:21 17.10.2019
6013 Clouds 12 1012 87 10000 5.1 230 08:58 17.10.2019
6014 Clouds 12 1012 87 10000 4.6 200 08:38 17.10.2019
6015 Clouds 12 1012 93 10000 6.2 210 08:19 17.10.2019
6016 Clouds 12 1011 93 10000 7.7 200 07:50 17.10.2019
6017 Clouds 12 1011 93 10000 8.2 200 07:21 17.10.2019
6018 Clouds 12 1011 93 10000 8.2 200 07:21 17.10.2019
6019 Clouds 12 1011 87 10000 6.2 220 06:59 17.10.2019
6020 Clouds 12 1012 87 10000 5.7 200 06:39 17.10.2019
6021 Clouds 12 1011 93 10000 6.2 200 06:20 17.10.2019
6022 Clouds 12 1011 87 10000 6.2 200 05:49 17.10.2019
6023 Clouds 13 1011 87 10000 5.7 190 05:30 17.10.2019
6024 Clouds 12 1011 87 10000 5.7 200 04:51 17.10.2019
6025 Rain 12 1011 82 10000 6.2 200 03:54 17.10.2019
6026 Rain 12 1011 82 10000 4.6 200 02:36 17.10.2019
6027 Clouds 12 1011 87 10000 2.6 170 00:57 17.10.2019
6028 Clouds 12 1011 87 10000 2.6 170 00:38 17.10.2019
6029 Rain 12 1012 87 10000 4.6 210 00:18 17.10.2019
6030 Rain 13 1012 76 10000 5.1 200 23:42 16.10.2019
6031 Clouds 12 1011 76 10000 4.1 190 23:21 16.10.2019
6032 Clouds 12 1011 76 10000 4.1 190 23:21 16.10.2019
6033 Clouds 12 1011 71 10000 8.7 210 22:56 16.10.2019
6034 Rain 13 1011 71 10000 4.1 180 22:37 16.10.2019
6035 Clouds 13 1011 76 10000 3.6 200 22:18 16.10.2019
6036 Clouds 13 1011 76 10000 6.7 200 21:56 16.10.2019
6037 Clouds 13 1011 76 10000 3.6 180 21:37 16.10.2019
6038 Clouds 13 1011 76 10000 2.1 200 21:19 16.10.2019
6039 Clouds 13 1011 81 10000 3.6 210 20:57 16.10.2019
6040 Clouds 13 1012 81 10000 4.6 210 20:38 16.10.2019
6041 Clouds 13 1012 82 10000 4.1 210 20:20 16.10.2019
6042 Clouds 13 1011 76 10000 6.2 220 19:58 16.10.2019
6043 Clouds 13 1012 67 10000 3.1 200 19:38 16.10.2019
6044 Clouds 13 1011 71 10000 5.7 230 19:20 16.10.2019
6045 -273 0 0 0 0 0 18:39 16.10.2019
6046 Clouds 13 1011 82 10000 4.6 200 18:20 16.10.2019
6047 Clouds 14 1011 82 10000 4.6 190 17:58 16.10.2019
6048 Clouds 14 1011 77 10000 4.1 200 17:39 16.10.2019
6049 Drizzle 14 1011 87 10000 3.6 180 17:21 16.10.2019
6050 Clouds 14 1011 72 10000 4.6 200 16:59 16.10.2019
6051 Rain 14 1011 87 10000 4.1 190 16:41 16.10.2019
6052 Clouds 14 1011 93 10000 5.1 190 16:21 16.10.2019
6053 Clouds 14 1012 81 10000 6.2 220 15:57 16.10.2019
6054 Clouds 14 1012 93 10000 4.6 190 15:38 16.10.2019
6055 Rain 13 1011 93 8000 7.2 220 15:18 16.10.2019
6056 Clouds 13 1012 93 10000 4.6 180 14:58 16.10.2019
6057 Clouds 13 1012 93 10000 4.6 180 14:38 16.10.2019
6058 Drizzle 12 1012 93 10000 5.1 180 14:18 16.10.2019
6059 Rain 12 1012 93 10000 7.2 220 13:57 16.10.2019
6060 Rain 12 1012 93 10000 7.2 220 13:56 16.10.2019
6061 Drizzle 12 1012 100 10000 5.1 200 13:38 16.10.2019
6062 Rain 11 1013 100 8000 5.7 200 13:19 16.10.2019
6063 Rain 11 1013 100 7000 5.7 190 12:42 16.10.2019
6064 Rain 11 1013 100 10000 5.1 180 12:19 16.10.2019
6065 Rain 10 1013 100 10000 3.6 180 11:45 16.10.2019
6066 Rain 10 1013 100 10000 3.6 190 11:19 16.10.2019
6067 Drizzle 10 1013 93 10000 5.1 180 10:41 16.10.2019
6068 Clouds 10 1013 93 10000 7.2 210 10:23 16.10.2019
6069 Clouds 10 1013 93 10000 5.7 200 09:58 16.10.2019
6070 Drizzle 10 1012 93 2500 6.7 220 09:39 16.10.2019
6071 Rain 10 1013 93 10000 4.1 200 09:21 16.10.2019
6072 Clouds 10 1012 93 10000 3.6 200 08:46 16.10.2019
6073 Clouds 9 1012 93 10000 4.6 230 08:26 16.10.2019
6074 Clouds 9 1012 93 10000 3.1 230 07:58 16.10.2019
6075 Clouds 9 1012 93 10000 4.1 210 07:40 16.10.2019
6076 Clouds 9 1012 93 10000 4.1 210 07:21 16.10.2019
6077 Clouds 9 1012 87 10000 4.6 220 06:40 16.10.2019
6078 Clouds 9 1012 93 10000 5.1 210 06:19 16.10.2019
6079 Clouds 10 1012 100 10000 5.7 240 04:24 16.10.2019
6080 Clouds 10 1012 100 10000 5.1 220 02:50 16.10.2019
6081 Rain 10 1011 93 10000 4.1 230 01:20 16.10.2019
6082 Clouds 10 1011 100 8000 5.7 260 00:58 16.10.2019
6083 Clouds 10 1011 100 8000 5.7 260 00:58 16.10.2019
6084 Clouds 11 1012 93 10000 5.1 230 00:39 16.10.2019
6085 Drizzle 11 1010 100 9000 5.1 270 23:58 15.10.2019
6086 Clouds 11 1012 93 10000 4.1 230 23:38 15.10.2019
6087 Clouds 11 1011 100 10000 3.6 230 23:19 15.10.2019
6088 Drizzle 11 1010 100 10000 5.7 270 22:55 15.10.2019
6089 Rain 11 1011 100 10000 3.1 230 22:36 15.10.2019
6090 Rain 11 1010 100 10000 3.6 240 22:18 15.10.2019
6091 Drizzle 11 1009 100 8000 3.1 240 21:54 15.10.2019
6092 Clouds 11 1010 93 10000 5.1 250 21:36 15.10.2019
6093 Rain 11 1009 100 10000 2.6 230 21:18 15.10.2019
6094 Rain 11 1009 100 10000 3.1 220 20:54 15.10.2019
6095 Rain 11 1009 93 10000 2.6 220 20:36 15.10.2019
6096 Rain 11 1008 93 10000 4.1 220 20:18 15.10.2019
6097 Rain 11 1008 100 10000 3.6 200 19:55 15.10.2019
6098 Rain 12 1008 100 10000 3.1 210 19:36 15.10.2019
6099 Rain 12 1008 100 10000 2.6 230 19:18 15.10.2019
6100 Rain 12 1008 100 10000 3.6 220 18:41 15.10.2019
6101 Rain 12 1007 93 10000 2.6 230 18:23 15.10.2019
6102 Rain 13 1008 100 10000 3.6 240 17:54 15.10.2019
6103 Rain 13 1007 93 10000 2.6 230 17:36 15.10.2019
6104 Rain 13 1007 93 10000 2.1 240 17:18 15.10.2019
6105 Rain 13 1007 93 10000 4.1 190 16:42 15.10.2019
6106 Rain 13 1007 87 10000 3.6 190 16:22 15.10.2019
6107 Clouds 13 1007 87 10000 3.1 210 15:57 15.10.2019
6108 Clouds 13 1007 87 10000 2.6 200 15:38 15.10.2019
6109 Clouds 13 1007 87 10000 3.1 220 15:19 15.10.2019
6110 Drizzle 13 1007 87 10000 4.1 210 14:55 15.10.2019
6111 Rain 13 1008 93 10000 2.6 220 14:37 15.10.2019
6112 Rain 14 1008 87 10000 3.6 220 14:18 15.10.2019
6113 Rain 14 1008 93 10000 3.1 230 13:43 15.10.2019
6114 Clouds 14 1008 87 10000 3.6 240 13:20 15.10.2019
6115 Clouds 14 1008 87 10000 2.6 270 12:57 15.10.2019
6116 Rain 14 1008 82 10000 3.6 230 12:38 15.10.2019
6117 Clouds 14 1008 87 10000 2.6 210 12:20 15.10.2019
6118 Clouds 14 1008 93 9000 2.1 150 11:44 15.10.2019
6119 Clear 13 1008 87 10000 2.6 220 11:20 15.10.2019
6120 Rain 13 1008 87 10000 3.6 270 10:56 15.10.2019
6121 Rain 13 1007 87 10000 2.1 230 10:38 15.10.2019
6122 Rain 13 1007 87 10000 4.1 270 10:18 15.10.2019
6123 Rain 13 1007 93 10000 2.6 260 09:56 15.10.2019
6124 Rain 13 1007 93 10000 3.6 280 09:37 15.10.2019
6125 Clouds 13 1007 93 10000 1.5 250 09:19 15.10.2019
6126 Rain 12 1007 87 10000 5.1 260 08:41 15.10.2019
6127 Rain 12 1007 87 10000 3.1 260 08:21 15.10.2019
6128 Clear 12 1007 93 10000 5.7 140 07:55 15.10.2019
6129 Clouds 12 1007 87 10000 3.6 260 07:37 15.10.2019
6130 Clear 12 1007 87 10000 1.85 131.706 07:18 15.10.2019
6131 Clear 12 1007 87 10000 1 0 06:43 15.10.2019
6132 Clear 12 1007 93 10000 2.02 169.746 06:22 15.10.2019
6133 Clear 12 1007 93 10000 2.1 160 05:41 15.10.2019
6134 Clear 12 1008 87 10000 3.1 140 05:22 15.10.2019
6135 Clear 13 1008 87 10000 2.1 70 04:23 15.10.2019
6136 Clouds 13 1008 82 10000 0.5 0 03:37 15.10.2019
6137 Clouds 13 1008 82 10000 0.5 0 03:37 15.10.2019
6138 -273 0 0 0 0 0 02:24 15.10.2019
6139 Clouds 15 1009 82 10000 4.1 200 01:47 15.10.2019
6140 Clear 15 1009 77 10000 4.1 200 01:19 15.10.2019
6141 Clear 15 1009 72 10000 4.1 190 00:49 15.10.2019
6142 Clear 15 1008 82 10000 2.82 185.565 00:21 15.10.2019
6143 Clear 15 1009 72 10000 3.1 160 23:43 14.10.2019
6144 Clear 16 1008 77 10000 1.5 90 23:20 14.10.2019
6145 Clear 15 1010 77 10000 5.1 150 22:55 14.10.2019
6146 Clear 16 1009 68 10000 3.6 170 22:37 14.10.2019
6147 Clear 16 1009 77 10000 2.6 100 22:18 14.10.2019
6148 Clear 16 1010 72 10000 5.7 160 21:41 14.10.2019
6149 Clear 16 1010 72 10000 5.7 160 21:22 14.10.2019
6150 Clear 17 1010 72 10000 4.6 150 20:59 14.10.2019
6151 Clear 17 1009 59 10000 2.6 140 20:40 14.10.2019
6152 Clear 17 1009 59 10000 2.1 100 20:22 14.10.2019
6153 Clear 17 1010 59 10000 5.1 160 19:59 14.10.2019
6154 -273 0 0 0 0 0 19:41 14.10.2019
6155 Clouds 17 1010 63 10000 4.6 160 19:23 14.10.2019
6156 Clear 18 1010 63 10000 4.6 140 18:58 14.10.2019
6157 Clear 18 1009 64 10000 4.1 150 18:38 14.10.2019
6158 Clear 19 1010 56 10000 1.5 140 18:19 14.10.2019
6159 Clear 20 1011 60 10000 5.1 150 17:56 14.10.2019
6160 Clear 21 1010 60 10000 4.6 170 17:37 14.10.2019
6161 Clear 21 1010 49 10000 4.1 180 17:19 14.10.2019
6162 Clear 22 1011 60 10000 6.2 170 16:43 14.10.2019
6163 Clear 22 1011 53 10000 5.7 180 16:21 14.10.2019
6164 Clear 21 1011 60 10000 5.7 160 15:42 14.10.2019
6165 Clear 21 1012 56 10000 4.1 170 15:23 14.10.2019
6166 Clear 21 1012 47 10000 4.6 150 14:57 14.10.2019
6167 Clear 21 1012 60 10000 5.7 160 14:39 14.10.2019
6168 Clear 21 1012 60 10000 4.6 180 14:20 14.10.2019
6169 Clouds 20 1013 68 10000 6.2 180 13:44 14.10.2019
6170 Clear 20 1013 64 10000 5.7 170 13:21 14.10.2019
6171 Clear 19 1014 63 10000 5.7 190 12:56 14.10.2019
6172 Clouds 19 1013 72 10000 5.1 150 12:37 14.10.2019
6173 Clear 19 1014 68 10000 2.6 150 12:18 14.10.2019
6174 Clear 18 1014 77 10000 5.1 170 11:45 14.10.2019
6175 Clear 18 1014 72 10000 3.6 140 11:26 14.10.2019
6176 Clear 17 1014 72 10000 3.1 160 10:57 14.10.2019
6177 Clear 16 1014 82 10000 4.6 170 10:38 14.10.2019
6178 Clear 15 1014 87 10000 2.1 80 10:20 14.10.2019
6179 Clear 14 1015 82 10000 2.6 150 09:55 14.10.2019
6180 -273 0 0 0 0 0 09:36 14.10.2019
6181 Clear 13 1014 87 10000 1.02 118.32 09:18 14.10.2019
6182 Clear 12 1014 87 10000 2.1 170 08:43 14.10.2019
6183 Clouds 12 1014 93 10000 2.1 80 08:22 14.10.2019
6184 Clear 12 1014 82 10000 2.1 160 07:42 14.10.2019
6185 Clear 12 1014 93 10000 1.5 70 07:19 14.10.2019
6186 Clear 13 1014 76 10000 2.1 140 06:48 14.10.2019
6187 Clear 13 1014 87 10000 1.5 120 06:20 14.10.2019
6188 Clouds 13 1014 76 10000 2.1 140 05:49 14.10.2019
6189 Clear 13 1014 87 10000 0.5 0 04:43 14.10.2019
6190 Clear 14 1015 67 10000 4.1 220 03:28 14.10.2019
6191 Clouds 14 1014 77 10000 2.1 130 02:49 14.10.2019
6192 Clear 14 1015 63 10000 4.1 230 01:24 14.10.2019
6193 Clear 15 1014 59 10000 4.1 240 00:58 14.10.2019
6194 Clouds 15 1014 77 10000 3.1 230 00:21 14.10.2019
6195 Clear 16 1014 72 10000 3.1 230 23:45 13.10.2019
6196 Clouds 16 1014 72 10000 2.1 240 23:21 13.10.2019
6197 Clear 17 1014 63 10000 7.7 210 22:58 13.10.2019
6198 Clear 17 1014 63 10000 7.7 210 22:58 13.10.2019
6199 Clear 17 1014 72 10000 3.1 200 22:40 13.10.2019
6200 Clouds 17 1013 72 10000 2.6 250 22:21 13.10.2019
6201 Clear 17 1014 68 10000 5.7 190 21:58 13.10.2019
6202 Clear 17 1013 72 10000 2.6 180 21:38 13.10.2019
6203 Clear 18 1013 72 10000 4.1 190 21:19 13.10.2019
6204 Clear 18 1013 68 10000 6.2 180 20:58 13.10.2019
6205 Clear 18 1013 77 10000 4.1 170 20:39 13.10.2019
6206 Clear 18 1012 68 10000 3.1 170 20:21 13.10.2019
6207 Clear 18 1013 72 10000 5.7 180 19:59 13.10.2019
6208 Clear 18 1012 68 10000 4.1 180 19:39 13.10.2019
6209 Clear 18 1012 72 10000 2.6 170 19:21 13.10.2019
6210 -273 0 0 0 0 0 18:58 13.10.2019
6211 Clear 19 1012 68 10000 5.7 180 18:58 13.10.2019
6212 Clear 20 1012 68 10000 4.1 190 18:38 13.10.2019
6213 Clear 21 1011 68 10000 3.6 180 18:20 13.10.2019
6214 Clear 21 1012 68 10000 5.1 190 17:59 13.10.2019
6215 Clear 22 1012 60 10000 5.1 190 17:40 13.10.2019
6216 Clear 21 1012 64 10000 6.2 190 17:22 13.10.2019
6217 Clear 22 1012 64 10000 6.2 200 16:43 13.10.2019
6218 Clear 22 1012 64 10000 7.2 200 16:19 13.10.2019
6219 Clear 22 1012 64 10000 6.7 190 15:57 13.10.2019
6220 -273 0 0 0 0 0 15:57 13.10.2019
6221 Clear 22 1012 64 10000 5.1 180 15:39 13.10.2019
6222 Clear 22 1012 64 10000 5.7 180 15:20 13.10.2019
6223 Clear 22 1012 64 10000 5.7 180 15:20 13.10.2019
6224 Clear 22 1012 64 10000 6.2 190 14:57 13.10.2019
6225 Clouds 22 1012 73 10000 5.7 170 14:39 13.10.2019
6226 Clear 21 1012 64 10000 5.7 180 14:20 13.10.2019
6227 Clear 21 1013 68 10000 7.2 180 13:55 13.10.2019
6228 Clouds 21 1013 72 10000 5.7 170 13:37 13.10.2019
6229 Clear 20 1012 68 10000 7.2 190 13:18 13.10.2019
6230 Clear 20 1012 77 10000 7.2 150 12:55 13.10.2019
6231 Clouds 19 1012 77 10000 5.1 180 12:36 13.10.2019
6232 Clouds 19 1012 77 10000 5.1 180 12:18 13.10.2019
6233 Rain 18 1013 72 10000 3.1 170 11:54 13.10.2019
6234 Rain 18 1012 82 10000 4.1 150 11:36 13.10.2019
6235 Rain 17 1013 82 10000 4.6 180 11:18 13.10.2019
6236 Rain 17 1013 82 10000 4.6 160 10:41 13.10.2019
6237 Rain 16 1013 87 10000 3.1 210 10:22 13.10.2019
6238 Rain 16 1013 87 10000 3.1 210 10:22 13.10.2019
6239 Rain 16 1013 87 10000 3.1 210 10:22 13.10.2019
6240 Clear 15 1013 93 10000 3.1 180 09:40 13.10.2019
6241 Rain 14 1013 87 10000 2.6 210 09:21 13.10.2019
6242 Clear 14 1013 93 10000 3.6 130 08:57 13.10.2019
6243 Clouds 14 1013 87 10000 3.6 150 08:38 13.10.2019
6244 Clear 14 1013 93 10000 3.1 210 08:19 13.10.2019
6245 Clouds 13 1013 93 10000 3.6 160 07:46 13.10.2019
6246 Clear 14 1013 82 10000 6.2 210 06:59 13.10.2019
6247 Clear 14 1013 93 10000 3.6 170 06:41 13.10.2019
6248 Clear 14 1013 93 10000 3.6 160 05:39 13.10.2019
6249 Clouds 14 1013 93 10000 2.6 160 04:46 13.10.2019
6250 Clouds 15 1013 100 10000 2.1 220 03:51 13.10.2019
6251 Clouds 15 1013 93 10000 3.6 180 02:42 13.10.2019
6252 Clear 15 1013 87 10000 4.6 230 01:54 13.10.2019
6253 Clear 15 1013 87 10000 4.6 220 01:30 13.10.2019
6254 Clouds 15 1013 93 10000 1.5 210 00:47 13.10.2019
6255 Clouds 15 1013 93 10000 1.5 210 00:47 13.10.2019
6256 Clouds 15 1013 93 10000 2.6 220 00:21 13.10.2019
6257 Clouds 15 1014 87 10000 4.6 240 23:57 12.10.2019
6258 Clouds 15 1013 93 10000 3.6 190 23:39 12.10.2019
6259 Clouds 15 1013 87 10000 2.1 260 23:19 12.10.2019
6260 Clouds 15 1013 82 10000 3.6 250 22:57 12.10.2019
6261 Clouds 15 1013 87 10000 2.6 240 22:38 12.10.2019
6262 Clouds 16 1013 87 10000 3.6 210 22:20 12.10.2019
6263 Clouds 15 1013 82 10000 4.1 230 21:55 12.10.2019
6264 Clouds 15 1013 87 10000 5.1 180 21:36 12.10.2019
6265 Clouds 15 1013 87 10000 3.1 210 21:18 12.10.2019
6266 Clouds 15 1013 87 10000 4.1 190 20:40 12.10.2019
6267 Rain 15 1013 82 10000 5.7 190 20:22 12.10.2019
6268 Rain 15 1013 82 10000 5.7 190 19:39 12.10.2019
6269 Rain 15 1013 82 10000 3.6 200 19:20 12.10.2019
6270 Rain 15 1013 77 10000 3.6 200 18:59 12.10.2019
6271 Rain 16 1013 82 10000 5.1 180 18:40 12.10.2019
6272 Rain 16 1013 82 10000 5.1 180 18:40 12.10.2019
6273 Clouds 16 1013 82 10000 2.1 170 18:22 12.10.2019
6274 Rain 16 1013 77 10000 5.56 213.687 17:43 12.10.2019
6275 Rain 16 1013 77 10000 2.1 230 17:19 12.10.2019
6276 Rain 17 1014 72 10000 4.1 230 16:55 12.10.2019
6277 Rain 16 1014 77 10000 2.6 180 16:36 12.10.2019
6278 Rain 16 1014 77 10000 2.6 180 16:36 12.10.2019
6279 Rain 16 1014 82 10000 6.2 210 16:18 12.10.2019
6280 Rain 17 1014 82 10000 6.2 200 15:44 12.10.2019
6281 Rain 17 1014 67 10000 5.1 240 15:25 12.10.2019
6282 Clear 17 1014 67 10000 6.2 220 14:55 12.10.2019
6283 Rain 18 1014 77 10000 5.7 220 14:36 12.10.2019
6284 Clear 18 1014 68 10000 6.2 200 14:18 12.10.2019
6285 Clouds 18 1014 68 10000 5.7 200 13:43 12.10.2019
6286 Clear 18 1014 63 10000 5.1 250 13:25 12.10.2019
6287 Clouds 17 1014 72 10000 5.1 190 12:40 12.10.2019
6288 Clouds 16 1014 72 10000 7.2 220 12:22 12.10.2019
6289 Clear 16 1014 72 10000 5.1 260 11:59 12.10.2019
6290 Clouds 15 1014 77 10000 4.6 210 11:40 12.10.2019
6291 Clouds 14 1014 77 10000 6.2 220 11:22 12.10.2019
6292 Clear 14 1014 76 10000 5.1 240 10:56 12.10.2019
6293 Clouds 14 1014 87 10000 4.1 200 10:36 12.10.2019
6294 Clouds 13 1014 82 10000 6.7 210 10:18 12.10.2019
6295 Clear 13 1013 82 10000 5.1 220 09:54 12.10.2019
6296 Clear 12 1014 87 10000 4.6 190 09:36 12.10.2019
6297 Clear 12 1013 87 10000 5.7 210 09:18 12.10.2019
6298 Clear 11 1013 93 10000 4.6 200 08:40 12.10.2019
6299 Clear 10 1012 87 10000 5.7 220 08:20 12.10.2019
6300 Clear 10 1013 93 10000 4.1 190 07:35 12.10.2019
6301 Clear 10 1013 93 10000 4.1 190 07:35 12.10.2019
6302 Clear 10 1012 76 10000 5.1 230 06:59 12.10.2019
6303 Clear 10 1013 93 10000 3.6 190 05:48 12.10.2019
6304 Clear 10 1012 76 10000 5.1 230 05:24 12.10.2019
6305 Clear 10 1013 87 10000 4.1 230 04:26 12.10.2019
6306 Clear 11 1013 87 10000 3.1 170 03:41 12.10.2019
6307 Clear 10 1013 76 10000 6.2 230 02:28 12.10.2019
6308 Clear 11 1013 82 10000 5.7 230 01:29 12.10.2019
6309 Clear 11 1014 87 10000 3.1 180 00:43 12.10.2019
6310 Clear 11 1014 93 10000 4.1 220 00:19 12.10.2019
6311 Clear 12 1014 87 10000 4.1 190 23:40 11.10.2019
6312 Clear 12 1014 87 10000 4.1 190 23:40 11.10.2019
6313 Clear 11 1014 93 10000 2.6 220 23:21 11.10.2019
6314 Clear 12 1014 87 10000 5.7 230 22:59 11.10.2019
6315 Clear 12 1014 87 10000 3.6 200 22:37 11.10.2019
6316 Clear 12 1014 93 10000 2.6 200 22:18 11.10.2019
6317 Clear 12 1014 87 10000 2.6 200 21:40 11.10.2019
6318 Clear 13 1014 87 10000 2.6 210 21:21 11.10.2019
6319 Clear 13 1014 93 10000 5.7 210 20:55 11.10.2019
6320 Clear 13 1014 82 10000 2.6 230 20:37 11.10.2019
6321 Clear 13 1014 87 10000 4.1 210 20:18 11.10.2019
6322 Clear 13 1014 87 10000 5.1 220 19:55 11.10.2019
6323 Clear 13 1014 82 10000 4.1 220 19:36 11.10.2019
6324 Clouds 14 1014 82 10000 4.1 190 19:18 11.10.2019
6325 Clouds 14 1014 77 10000 5.1 220 18:54 11.10.2019
6326 Clouds 15 1014 77 10000 5.1 220 18:36 11.10.2019
6327 Clouds 15 1014 77 10000 5.1 220 18:36 11.10.2019
6328 Clouds 15 1014 77 10000 4.1 210 18:18 11.10.2019
6329 Clouds 15 1015 77 10000 5.7 220 17:54 11.10.2019
6330 Clouds 15 1015 77 10000 5.7 220 17:36 11.10.2019
6331 Clouds 15 1015 77 10000 6.2 210 17:18 11.10.2019
6332 Clouds 15 1015 82 10000 6.7 210 16:40 11.10.2019
6333 Clouds 15 1015 82 10000 5.7 200 16:20 11.10.2019
6334 Clouds 15 1015 76 10000 7.2 240 15:58 11.10.2019
6335 Clouds 15 1016 82 10000 5.1 220 15:38 11.10.2019
6336 Clouds 15 1016 76 10000 7.7 210 15:19 11.10.2019
6337 Clouds 14 1016 76 10000 5.7 210 14:46 11.10.2019
6338 Clouds 14 1016 82 10000 7.7 240 14:28 11.10.2019
6339 Clouds 14 1017 87 10000 5.1 210 13:56 11.10.2019
6340 Clouds 14 1017 87 10000 5.1 210 13:37 11.10.2019
6341 Clouds 13 1017 87 10000 6.7 210 13:18 11.10.2019
6342 Rain 14 1017 87 10000 7.2 210 12:54 11.10.2019
6343 Rain 13 1017 87 10000 7.2 210 12:36 11.10.2019
6344 Clouds 13 1017 87 10000 7.2 200 12:18 11.10.2019
6345 Mist 13 1018 87 10000 4.6 220 11:41 11.10.2019
6346 Mist 13 1017 100 10000 7.2 200 11:22 11.10.2019
6347 Rain 12 1017 87 10000 6.7 240 10:56 11.10.2019
6348 Rain 12 1018 100 10000 5.7 210 10:38 11.10.2019
6349 Rain 12 1018 100 10000 5.1 220 10:20 11.10.2019
6350 Fog 11 1017 100 10000 4.6 230 09:55 11.10.2019
6351 Fog 11 1018 100 10000 5.7 220 09:37 11.10.2019
6352 Mist 11 1017 100 1100 4.6 190 09:18 11.10.2019
6353 Fog 10 1017 100 10000 4.6 240 08:55 11.10.2019
6354 Fog 10 1017 100 600 4.6 210 08:36 11.10.2019
6355 Fog 10 1017 93 600 5.1 210 08:18 11.10.2019
6356 Mist 9 1017 100 2400 4.1 230 07:41 11.10.2019
6357 Fog 9 1018 100 10000 2.6 230 07:22 11.10.2019
6358 Mist 9 1018 100 10000 3.6 230 06:47 11.10.2019
6359 Rain 9 1018 93 10000 3.1 240 06:22 11.10.2019
6360 Mist 8 1018 93 10000 2.6 240 05:39 11.10.2019
6361 Clear 8 1018 87 10000 3.1 220 04:59 11.10.2019
6362 Clear 8 1017 87 10000 4.6 200 04:24 11.10.2019
6363 Clouds 8 1019 93 10000 2.6 200 02:32 11.10.2019
6364 Clear 8 1019 100 10000 3.1 200 00:47 11.10.2019
6365 Clear 8 1018 87 10000 4.1 230 00:27 11.10.2019
6366 Clear 8 1019 87 10000 2.6 200 23:44 10.10.2019
6367 Clear 8 1019 87 10000 3.1 230 23:22 10.10.2019
6368 Clear 9 1019 93 10000 4.1 230 22:58 10.10.2019
6369 Clear 9 1019 87 10000 3.6 230 22:39 10.10.2019
6370 Clear 9 1019 87 10000 3.6 210 22:20 10.10.2019
6371 Clouds 9 1019 87 10000 3.6 240 21:58 10.10.2019
6372 Clouds 9 1019 87 10000 3.6 240 21:39 10.10.2019
6373 Clouds 9 1018 87 10000 2.6 230 21:21 10.10.2019
6374 Clear 9 1019 87 10000 3.1 220 20:43 10.10.2019
6375 Clouds 10 1018 93 10000 3.6 230 20:22 10.10.2019
6376 Clouds 10 1018 87 10000 3.1 250 19:59 10.10.2019
6377 Clouds 10 1018 81 10000 3.6 220 19:41 10.10.2019
6378 Clouds 11 1018 87 10000 3.6 230 19:21 10.10.2019
6379 Rain 11 1018 87 10000 3.6 250 18:59 10.10.2019
6380 Rain 11 1017 87 10000 3.6 240 18:40 10.10.2019
6381 Rain 12 1017 87 10000 4.6 230 18:20 10.10.2019
6382 Rain 12 1017 81 10000 4.1 250 17:55 10.10.2019
6383 Rain 12 1017 76 10000 6.7 230 17:37 10.10.2019
6384 Clouds 12 1017 66 10000 4.1 230 17:18 10.10.2019
6385 Rain 12 1017 71 10000 6.2 230 16:47 10.10.2019
6386 Clouds 12 1016 66 10000 6.2 270 16:26 10.10.2019
6387 Rain 13 1016 66 10000 5.7 270 15:58 10.10.2019
6388 Rain 13 1017 71 10000 6.7 250 15:38 10.10.2019
6389 Rain 13 1016 66 10000 5.7 230 15:20 10.10.2019
6390 Rain 12 1016 76 10000 6.7 270 14:56 10.10.2019
6391 Rain 13 1017 66 10000 7.2 260 14:37 10.10.2019
6392 Rain 13 1017 76 10000 8.2 250 14:18 10.10.2019
6393 Rain 12 1016 76 10000 7.7 260 13:55 10.10.2019
6394 Clouds 12 1017 76 10000 7.2 250 13:37 10.10.2019
6395 Rain 12 1016 76 10000 6.7 230 13:18 10.10.2019
6396 Rain 12 1016 87 10000 7.7 260 12:41 10.10.2019
6397 Clouds 11 1016 76 10000 6.7 230 12:20 10.10.2019
6398 Clouds 11 1015 87 10000 8.2 260 11:58 10.10.2019
6399 Clouds 11 1015 87 10000 8.2 260 11:58 10.10.2019
6400 Clouds 11 1015 87 10000 8.2 260 11:58 10.10.2019
6401 Rain 11 1016 81 10000 7.2 250 11:39 10.10.2019
6402 Drizzle 10 1015 87 10000 6.2 230 11:19 10.10.2019
6403 Rain 10 1015 87 10000 6.2 250 10:46 10.10.2019
6404 Drizzle 10 1014 93 10000 6.7 260 10:27 10.10.2019
6405 Rain 9 1013 93 10000 8.2 260 09:58 10.10.2019
6406 Rain 9 1014 93 10000 5.1 240 09:40 10.10.2019
6407 Drizzle 9 1013 93 10000 5.1 220 09:22 10.10.2019
6408 Clouds 9 1012 100 10000 7.7 260 08:58 10.10.2019
6409 Clouds 8 1013 93 10000 5.1 250 08:38 10.10.2019
6410 Clouds 8 1012 93 10000 4.6 220 08:19 10.10.2019
6411 Rain 8 1012 93 10000 6.7 260 07:47 10.10.2019
6412 Rain 8 1011 100 10000 8.2 260 07:25 10.10.2019
6413 Rain 8 1010 100 10000 8.7 260 06:55 10.10.2019
6414 Rain 8 1012 93 10000 6.2 250 06:36 10.10.2019
6415 Drizzle 8 1010 93 10000 5.1 230 05:39 10.10.2019
6416 Rain 8 1010 100 10000 4.6 240 05:18 10.10.2019
6417 Rain 8 1011 93 10000 5.7 240 04:34 10.10.2019
6418 Rain 9 1010 93 10000 5.1 230 02:29 10.10.2019
6419 Rain 8 1011 93 10000 4.6 210 01:37 10.10.2019
6420 Clouds 8 1011 87 10000 5.7 220 01:18 10.10.2019
6421 Clouds 8 1011 93 10000 4.6 210 00:33 10.10.2019
6422 Clouds 8 1010 93 10000 7.2 260 23:55 09.10.2019
6423 Clouds 8 1011 93 10000 3.6 220 23:36 09.10.2019
6424 Clouds 8 1011 93 10000 6.7 220 23:18 09.10.2019
6425 Clouds 8 1011 93 10000 6.7 220 23:18 09.10.2019
6426 Clouds 8 1011 93 10000 4.6 220 22:41 09.10.2019
6427 Clear 8 1010 87 10000 6.2 230 22:22 09.10.2019
6428 Rain 8 1010 93 10000 6.2 260 21:58 09.10.2019
6429 Rain 8 1010 87 10000 6.2 230 21:39 09.10.2019
6430 Rain 8 1010 87 10000 6.2 230 21:39 09.10.2019
6431 Rain 8 1010 87 10000 6.7 230 21:19 09.10.2019
6432 Rain 9 1010 100 10000 7.7 270 20:55 09.10.2019
6433 Rain 9 1011 87 10000 6.2 250 20:37 09.10.2019
6434 Clouds 9 1010 93 10000 4.1 230 20:18 09.10.2019
6435 Clouds 9 1010 93 10000 5.1 250 19:45 09.10.2019
6436 Rain 9 1010 93 6000 6.2 260 19:23 09.10.2019
6437 Rain 10 1009 93 10000 6.7 250 18:56 09.10.2019
6438 Rain 10 1010 87 10000 6.2 250 18:37 09.10.2019
6439 Clouds 10 1009 87 10000 7.2 250 18:18 09.10.2019
6440 Clouds 10 1008 93 10000 5.7 240 17:54 09.10.2019
6441 Clouds 11 1009 87 10000 8.7 250 17:36 09.10.2019
6442 Clouds 11 1009 87 10000 6.7 250 17:18 09.10.2019
6443 Rain 11 1009 93 10000 7.7 250 16:40 09.10.2019
6444 Rain 11 1009 87 10000 5.7 240 16:22 09.10.2019
6445 Rain 11 1008 93 10000 4.1 230 15:58 09.10.2019
6446 Rain 11 1009 87 10000 4.6 220 15:39 09.10.2019
6447 Rain 11 1009 93 10000 4.6 230 15:19 09.10.2019
6448 Rain 11 1009 100 10000 5.1 250 14:56 09.10.2019
6449 Rain 11 1008 93 10000 5.1 230 14:37 09.10.2019
6450 Rain 11 1009 87 10000 4.1 250 14:18 09.10.2019
6451 Rain 10 1010 93 10000 6.2 260 13:39 09.10.2019
6452 Rain 10 1010 93 4000 6.7 240 13:21 09.10.2019
6453 Rain 10 1009 100 9000 4.6 230 12:59 09.10.2019
6454 Rain 10 1009 93 10000 5.7 230 12:40 09.10.2019
6455 Rain 11 1009 100 5000 5.1 230 12:21 09.10.2019
6456 Rain 11 1009 87 10000 6.7 220 11:55 09.10.2019
6457 Rain 11 1009 93 10000 7.2 200 11:37 09.10.2019
6458 Rain 11 1010 93 10000 6.2 200 11:18 09.10.2019
6459 Rain 11 1010 93 10000 5.7 210 10:43 09.10.2019
6460 Rain 11 1010 93 10000 5.7 210 10:43 09.10.2019
6461 Rain 10 1010 100 10000 5.7 190 10:21 09.10.2019
6462 Mist 10 1010 93 10000 4.6 210 09:59 09.10.2019
6463 Mist 10 1010 100 10000 5.7 190 09:40 09.10.2019
6464 Mist 10 1010 100 10000 5.7 190 09:40 09.10.2019
6465 Mist 10 1010 100 10000 5.7 190 09:40 09.10.2019
6466 Rain 10 1011 100 10000 5.1 200 09:18 09.10.2019
6467 Clouds 10 1011 93 10000 4.6 200 08:41 09.10.2019
6468 Rain 10 1011 100 10000 4.1 210 08:23 09.10.2019
6469 Rain 10 1011 100 10000 5.1 240 07:58 09.10.2019
6470 Rain 10 1011 93 10000 4.1 210 07:39 09.10.2019
6471 Clouds 10 1011 100 10000 5.1 220 07:20 09.10.2019
6472 Clouds 10 1011 100 10000 4.6 220 06:51 09.10.2019
6473 Clouds 10 1011 100 10000 4.6 220 06:51 09.10.2019
6474 Mist 10 1011 100 10000 6.2 250 05:56 09.10.2019
6475 Mist 10 1012 93 10000 4.6 230 05:37 09.10.2019
6476 Clouds 10 1011 100 10000 6.2 260 04:25 09.10.2019
6477 Clouds 10 1012 87 10000 5.1 260 02:53 09.10.2019
6478 Clouds 10 1011 100 10000 3.6 230 01:43 09.10.2019
6479 Clouds 10 1011 100 10000 3.6 220 01:20 09.10.2019
6480 Clouds 10 1011 100 10000 5.1 270 00:57 09.10.2019
6481 Clouds 10 1011 93 10000 5.1 250 00:38 09.10.2019
6482 Clouds 10 1011 100 10000 3.6 230 00:20 09.10.2019
6483 Rain 11 1011 100 10000 3.6 250 23:39 08.10.2019
6484 Rain 11 1010 100 10000 4.6 230 23:19 08.10.2019
6485 Rain 11 1010 100 10000 6.7 260 22:58 08.10.2019
6486 Rain 11 1010 100 10000 4.6 230 22:39 08.10.2019
6487 Rain 11 1009 100 10000 4.1 230 22:20 08.10.2019
6488 Rain 12 1009 100 10000 6.7 260 21:57 08.10.2019
6489 Rain 12 1009 100 10000 4.1 230 21:39 08.10.2019
6490 Rain 12 1009 100 10000 3.1 260 21:19 08.10.2019
6491 Rain 12 1010 93 6000 4.6 270 20:57 08.10.2019
6492 Rain 12 1010 93 6000 4.6 270 20:39 08.10.2019
6493 Rain 12 1009 100 4500 7.2 280 20:21 08.10.2019
6494 Rain 12 1008 100 6000 5.7 250 19:58 08.10.2019
6495 Rain 12 1008 100 6000 5.7 250 19:58 08.10.2019
6496 Rain 12 1008 100 6000 5.7 250 19:58 08.10.2019
6497 Rain 13 1009 100 3000 4.1 240 19:40 08.10.2019
6498 Rain 13 1008 100 10000 5.1 220 19:21 08.10.2019
6499 Rain 13 1008 100 6000 3.1 230 18:55 08.10.2019
6500 Rain 13 1008 100 6000 3.1 230 18:55 08.10.2019
6501 Rain 13 1009 93 4000 4.1 220 18:36 08.10.2019
6502 Rain 13 1008 100 2400 4.6 220 18:18 08.10.2019
6503 Rain 13 1009 93 5000 5.1 220 17:40 08.10.2019
6504 Rain 13 1008 100 10000 5.1 210 17:21 08.10.2019
6505 Rain 13 1009 100 4500 4.6 250 16:58 08.10.2019
6506 Rain 13 1009 100 2400 6.2 220 16:40 08.10.2019
6507 Rain 13 1009 100 2400 4.1 220 16:21 08.10.2019
6508 Rain 13 1009 100 10000 4.1 220 15:41 08.10.2019
6509 Rain 12 1009 100 2400 5.7 210 15:22 08.10.2019
6510 Rain 12 1009 100 2400 5.7 210 15:22 08.10.2019
6511 Rain 12 1009 100 8000 5.1 230 14:58 08.10.2019
6512 Rain 12 1009 100 10000 6.7 220 14:39 08.10.2019
6513 Rain 12 1009 100 10000 6.7 200 14:21 08.10.2019
6514 Rain 12 1009 100 8000 5.1 240 13:57 08.10.2019
6515 Rain 12 1011 93 10000 4.1 220 13:38 08.10.2019
6516 Rain 12 1010 100 10000 5.7 220 13:19 08.10.2019
6517 Rain 12 1011 100 5000 6.7 250 12:59 08.10.2019
6518 Rain 12 1011 100 8000 4.6 230 12:38 08.10.2019
6519 Drizzle 12 1011 93 3500 5.7 220 12:18 08.10.2019
6520 Rain 11 1010 100 9000 6.7 210 11:43 08.10.2019
6521 Rain 11 1010 100 8000 6.2 250 11:24 08.10.2019
6522 Rain 11 1010 100 7000 7.2 250 10:59 08.10.2019
6523 Rain 11 1011 100 6000 4.6 220 10:38 08.10.2019
6524 Rain 11 1011 100 10000 4.6 230 10:20 08.10.2019
6525 Rain 11 1010 100 7000 5.7 240 09:57 08.10.2019
6526 Rain 10 1011 100 8000 4.6 220 09:39 08.10.2019
6527 Rain 11 1011 100 10000 5.7 220 09:19 08.10.2019
6528 Rain 10 1010 100 1000 6.2 240 08:42 08.10.2019
6529 Rain 10 1011 100 10000 6.2 210 08:24 08.10.2019
6530 Rain 10 1011 100 8000 6.7 210 07:46 08.10.2019
6531 Rain 10 1012 100 9000 6.2 220 07:22 08.10.2019
6532 Drizzle 10 1014 100 7000 6.2 210 06:56 08.10.2019
6533 Rain 10 1012 100 3000 5.1 210 06:34 08.10.2019
6534 Mist 10 1012 100 6000 5.1 230 05:57 08.10.2019
6535 Mist 10 1012 100 6000 5.1 230 05:57 08.10.2019
6536 Mist 10 1013 100 6000 5.1 220 05:38 08.10.2019
6537 Rain 10 1013 100 10000 7.7 220 04:42 08.10.2019
6538 Rain 10 1015 93 10000 5.1 200 03:30 08.10.2019
6539 Rain 10 1016 87 10000 4.6 210 02:40 08.10.2019
6540 Mist 10 1016 100 10000 4.1 210 01:51 08.10.2019
6541 Mist 10 1016 100 10000 4.1 210 01:32 08.10.2019
6542 Clouds 10 1016 93 10000 4.1 230 00:55 08.10.2019
6543 Clouds 10 1016 100 10000 3.6 210 00:22 08.10.2019
6544 Mist 10 1017 93 10000 3.6 210 23:43 07.10.2019
6545 Mist 10 1017 93 10000 2.6 220 23:21 07.10.2019
6546 Clouds 10 1017 100 10000 2.1 220 22:58 07.10.2019
6547 Clouds 10 1017 100 10000 2.1 220 22:58 07.10.2019
6548 Clouds 10 1018 93 10000 3.1 210 22:40 07.10.2019
6549 Clouds 10 1017 100 10000 2.6 220 22:21 07.10.2019
6550 Clouds 10 1017 100 10000 3.1 250 21:59 07.10.2019
6551 Clouds 10 1018 93 10000 3.6 220 21:40 07.10.2019
6552 Clouds 10 1017 100 10000 3.1 220 21:20 07.10.2019
6553 Clouds 10 1017 100 10000 3.1 220 21:20 07.10.2019
6554 Clouds 10 1017 100 10000 4.1 210 20:59 07.10.2019
6555 Clouds 10 1018 87 10000 2.6 220 20:39 07.10.2019
6556 Clouds 10 1018 87 10000 2.6 220 20:39 07.10.2019
6557 Clouds 10 1018 87 10000 2.6 220 20:39 07.10.2019
6558 Rain 10 1017 93 10000 3.1 240 20:21 07.10.2019
6559 Clouds 11 1017 100 10000 3.1 160 19:59 07.10.2019
6560 Mist 10 1018 87 10000 4.1 240 19:41 07.10.2019
6561 Mist 11 1017 93 10000 3.1 210 19:20 07.10.2019
6562 Mist 11 1017 100 1400 4.1 160 18:59 07.10.2019
6563 Fog 11 1017 93 10000 2.6 190 18:40 07.10.2019
6564 Rain 11 1017 100 10000 2.6 190 18:19 07.10.2019
6565 Rain 11 1017 100 3300 4.1 150 17:55 07.10.2019
6566 Rain 11 1018 87 10000 3.6 210 17:37 07.10.2019
6567 Rain 11 1018 87 10000 3.6 220 17:18 07.10.2019
6568 Drizzle 12 1017 82 10000 3.6 210 16:43 07.10.2019
6569 Drizzle 12 1017 100 10000 4.1 150 16:25 07.10.2019
6570 Clouds 12 1017 100 10000 5.1 150 15:57 07.10.2019
6571 Clouds 12 1018 100 10000 1.5 110 15:38 07.10.2019
6572 Drizzle 12 1018 100 10000 2.95 186.58 15:20 07.10.2019
6573 Drizzle 11 1018 100 9000 2.6 160 14:41 07.10.2019
6574 Mist 11 1018 100 10000 3.1 100 14:23 07.10.2019
6575 Drizzle 11 1018 100 1600 3.1 150 13:45 07.10.2019
6576 Drizzle 10 1018 100 10000 2.6 100 13:21 07.10.2019
6577 Mist 11 1018 100 9000 3.6 160 12:58 07.10.2019
6578 Mist 11 1018 100 9000 3.6 160 12:58 07.10.2019
6579 Mist 10 1018 100 10000 3.6 80 12:40 07.10.2019
6580 Mist 10 1018 100 10000 4.1 100 12:21 07.10.2019
6581 Mist 10 1018 100 3300 2.6 100 11:59 07.10.2019
6582 Mist 10 1018 100 10000 3.6 80 11:40 07.10.2019
6583 Mist 10 1018 100 10000 3.6 80 11:40 07.10.2019
6584 Mist 9 1018 100 10000 3.6 90 11:21 07.10.2019
6585 Drizzle 9 1018 100 3300 3.1 90 10:56 07.10.2019
6586 Drizzle 9 1017 100 10000 3.6 70 10:37 07.10.2019
6587 Drizzle 9 1017 100 10000 3.6 70 10:37 07.10.2019
6588 Mist 9 1017 100 10000 3.1 80 10:19 07.10.2019
6589 Mist 9 1016 100 1200 3.1 120 09:38 07.10.2019
6590 Mist 9 1017 100 4000 3.6 90 09:20 07.10.2019
6591 Mist 8 1015 93 1500 3.6 130 08:44 07.10.2019
6592 Mist 8 1016 100 1600 4.1 90 08:21 07.10.2019
6593 Mist 8 1016 100 600 4.6 140 07:56 07.10.2019
6594 Mist 8 1016 100 1200 3.6 90 07:38 07.10.2019
6595 Mist 8 1015 100 2400 3.1 80 07:19 07.10.2019
6596 Mist 8 1015 100 2000 2.6 100 06:43 07.10.2019
6597 Mist 8 1015 100 2600 2.6 70 06:22 07.10.2019
6598 Mist 8 1014 100 1200 5.1 150 05:27 07.10.2019
6599 Mist 8 1014 100 1000 4.6 140 04:56 07.10.2019
6600 Mist 8 1015 100 1000 2.6 50 04:20 07.10.2019
6601 Mist 8 1014 100 1200 2.6 60 03:44 07.10.2019
6602 Fog 8 1014 100 600 0.59 149.451 03:18 07.10.2019
6603 Fog 8 1013 100 400 1.5 80 02:20 07.10.2019
6604 Fog 8 1013 100 400 2.6 100 01:47 07.10.2019
6605 Fog 8 1012 100 400 2.1 110 01:19 07.10.2019
6606 Fog 8 1012 100 400 3.1 60 00:38 07.10.2019
6607 Fog 8 1012 100 600 2.6 70 00:19 07.10.2019
6608 Fog 8 1012 100 600 1.72 275.677 23:42 06.10.2019
6609 Fog 8 1011 100 600 1.72 275.677 23:21 06.10.2019
6610 Mist 9 1011 100 700 2.6 170 22:59 06.10.2019
6611 Mist 9 1011 100 1000 1.5 50 22:40 06.10.2019
6612 Mist 9 1011 100 5000 1.72 275.677 22:21 06.10.2019
6613 Fog 9 1010 100 2000 1.5 120 21:57 06.10.2019
6614 Fog 9 1010 100 10000 1.72 275.677 21:37 06.10.2019
6615 Fog 9 1010 100 10000 3.82 289.836 21:19 06.10.2019
6616 Rain 9 1010 100 3000 2.1 140 20:57 06.10.2019
6617 Rain 9 1010 100 10000 2.1 80 20:39 06.10.2019
6618 Rain 9 1010 100 10000 2.1 80 20:39 06.10.2019
6619 Rain 10 1009 100 10000 1.5 40 20:20 06.10.2019
6620 Rain 10 1009 100 10000 2.1 40 19:57 06.10.2019
6621 Rain 10 1009 100 10000 2.1 40 19:37 06.10.2019
6622 Rain 10 1009 100 10000 2.1 40 19:19 06.10.2019
6623 Rain 10 1009 100 2500 7.7 140 18:57 06.10.2019
6624 Rain 11 1009 100 6000 3.18 280.398 18:38 06.10.2019
6625 Rain 11 1009 100 10000 2.1 50 18:19 06.10.2019
6626 Rain 10 1009 100 6000 7.2 150 17:57 06.10.2019
6627 Rain 11 1009 100 5000 2.1 90 17:38 06.10.2019
6628 Rain 11 1009 100 2600 3.6 80 17:18 06.10.2019
6629 Rain 11 1009 100 5000 4.1 100 16:42 06.10.2019
6630 Rain 11 1010 100 9000 3.6 80 16:23 06.10.2019
6631 Rain 11 1011 100 400 7.2 150 15:56 06.10.2019
6632 Rain 11 1011 100 4400 3.6 90 15:38 06.10.2019
6633 Rain 11 1011 100 9000 3.1 90 15:18 06.10.2019
6634 Mist 10 1011 100 9000 2.6 80 14:42 06.10.2019
6635 Drizzle 10 1011 100 2500 7.7 150 14:24 06.10.2019
6636 Mist 10 1012 100 2500 7.2 150 13:58 06.10.2019
6637 Mist 10 1012 100 8000 3.1 80 13:39 06.10.2019
6638 Rain 10 1013 100 6000 2.6 90 13:20 06.10.2019
6639 Rain 9 1013 100 3500 7.2 150 12:57 06.10.2019
6640 Rain 9 1013 100 3500 7.2 150 12:57 06.10.2019
6641 Rain 9 1013 100 4400 2.6 100 12:38 06.10.2019
6642 Rain 9 1013 93 4000 2.6 90 12:20 06.10.2019
6643 Rain 9 1013 100 900 7.2 150 11:56 06.10.2019
6644 Rain 8 1013 100 10000 3.1 80 11:37 06.10.2019
6645 Rain 8 1013 100 10000 3.1 80 11:37 06.10.2019
6646 Rain 8 1014 100 10000 3.1 80 11:18 06.10.2019
6647 Rain 8 1014 100 8000 2.6 90 10:43 06.10.2019
6648 Rain 8 1014 100 4400 2.6 80 10:24 06.10.2019
6649 Rain 8 1014 100 4000 3.6 90 09:58 06.10.2019
6650 Rain 8 1014 100 4000 3.6 90 09:39 06.10.2019
6651 Rain 8 1014 100 6000 3.6 100 09:18 06.10.2019
6652 Mist 8 1014 100 5000 3.1 90 08:43 06.10.2019
6653 Rain 7 1014 93 4400 3.6 90 08:20 06.10.2019
6654 Rain 7 1014 100 2500 2.6 120 07:44 06.10.2019
6655 Rain 7 1015 93 10000 2.6 90 07:19 06.10.2019
6656 Rain 7 1015 93 10000 3.6 80 06:20 06.10.2019
6657 Drizzle 7 1016 93 10000 3.1 80 05:34 06.10.2019
6658 Rain 7 1016 87 10000 3.6 130 03:42 06.10.2019
6659 Clouds 8 1017 81 10000 3.1 120 02:43 06.10.2019
6660 Clouds 8 1017 93 10000 3.6 90 02:22 06.10.2019
6661 Clouds 8 1017 87 10000 3.1 110 01:45 06.10.2019
6662 Clear 8 1017 93 10000 5.1 130 01:27 06.10.2019
6663 Clouds 8 1018 87 10000 2.6 110 00:53 06.10.2019
6664 Clear 8 1018 93 10000 5.1 130 00:27 06.10.2019
6665 Clouds 8 1018 81 10000 3.6 100 23:45 05.10.2019
6666 Clouds 8 1018 93 10000 3.1 80 23:22 05.10.2019
6667 Clouds 8 1018 93 10000 2.1 140 22:58 05.10.2019
6668 Clouds 8 1018 81 10000 2.6 110 22:40 05.10.2019
6669 Clouds 8 1018 87 10000 2.1 110 22:20 05.10.2019
6670 Clear 8 1018 87 10000 2.6 120 21:57 05.10.2019
6671 Clouds 8 1018 81 10000 2.6 70 21:39 05.10.2019
6672 Clouds 9 1018 87 10000 2.1 80 21:20 05.10.2019
6673 Clouds 9 1018 81 10000 2.6 90 20:56 05.10.2019
6674 Clouds 9 1018 76 10000 3.6 60 20:38 05.10.2019
6675 Clouds 9 1018 87 10000 2.1 80 20:19 05.10.2019
6676 Clouds 9 1017 76 10000 3.1 70 19:38 05.10.2019
6677 Clouds 9 1017 76 10000 2.6 100 19:20 05.10.2019
6678 Clouds 10 1017 81 10000 1.5 90 18:57 05.10.2019
6679 Clouds 10 1017 76 10000 3.1 80 18:39 05.10.2019
6680 Clouds 10 1017 81 10000 2.6 80 18:20 05.10.2019
6681 Clouds 10 1016 71 10000 4.6 60 17:46 05.10.2019
6682 Clouds 11 1017 81 10000 1.5 80 17:28 05.10.2019
6683 Clouds 11 1016 81 10000 1.5 80 16:59 05.10.2019
6684 Clouds 11 1016 81 10000 3.1 90 16:41 05.10.2019
6685 Clouds 11 1016 81 10000 3.1 80 16:21 05.10.2019
6686 Clouds 10 1016 87 10000 1.5 0 15:57 05.10.2019
6687 Clouds 10 1016 76 10000 3.1 70 15:39 05.10.2019
6688 Clouds 10 1016 76 10000 3.1 60 15:21 05.10.2019
6689 Clouds 10 1016 87 10000 1.5 60 14:56 05.10.2019
6690 Clouds 10 1015 76 10000 4.6 60 14:38 05.10.2019
6691 Clouds 10 1016 76 10000 3.1 60 14:20 05.10.2019
6692 Clouds 10 1015 81 10000 3.1 60 13:41 05.10.2019
6693 Clouds 10 1015 81 10000 2.6 70 13:22 05.10.2019
6694 Clouds 10 1015 81 10000 5.1 50 12:46 05.10.2019
6695 Clouds 10 1015 81 10000 1.5 40 12:21 05.10.2019
6696 Clouds 10 1014 87 10000 2.6 30 11:59 05.10.2019
6697 Rain 10 1014 87 10000 4.1 50 11:37 05.10.2019
6698 Clouds 10 1014 87 10000 3.6 70 11:18 05.10.2019
6699 Clouds 10 1014 87 10000 3.6 70 11:18 05.10.2019
6700 Mist 10 1013 93 10000 4.1 60 10:45 05.10.2019
6701 Drizzle 10 1013 93 9000 4.1 10 10:26 05.10.2019
6702 Mist 10 1013 100 10000 3.6 360 09:59 05.10.2019
6703 Mist 10 1012 93 10000 2.6 310 09:39 05.10.2019
6704 Mist 10 1012 93 10000 2.6 310 09:39 05.10.2019
6705 Mist 10 1011 93 10000 2.6 290 09:20 05.10.2019
6706 Drizzle 10 1011 100 10000 3.6 290 08:40 05.10.2019
6707 Drizzle 10 1011 93 10000 3.6 10 08:20 05.10.2019
6708 Drizzle 10 1011 100 10000 3.6 270 07:58 05.10.2019
6709 Drizzle 10 1010 93 10000 4.6 10 07:37 05.10.2019
6710 Rain 10 1010 93 10000 2.1 280 07:19 05.10.2019
6711 Rain 10 1009 100 3000 4.1 290 06:28 05.10.2019
6712 Rain 10 1010 93 10000 4.1 280 05:52 05.10.2019
6713 Rain 10 1009 100 10000 4.1 270 04:33 05.10.2019
6714 Rain 11 1008 100 10000 5.1 280 03:29 05.10.2019
6715 Mist 11 1008 100 6000 5.7 270 01:55 05.10.2019
6716 Rain 11 1008 93 8000 2.6 260 01:23 05.10.2019
6717 Rain 11 1008 93 4400 1.5 310 00:45 05.10.2019
6718 Rain 11 1007 100 6000 6.7 270 00:26 05.10.2019
6719 Clouds 11 1008